<?xml version="1.0" encoding="UTF-8" standalone="no" ?>
<gpx xmlns="http://www.topografix.com/GPX/1/1" xmlns:xsi="http://www.w3.org/2001/XMLSchema-instance" xsi:schemaLocation="http://www.topografix.com/GPX/1/1 http://www.topografix.com/GPX/1/1/gpx.xsd" version="1.1" creator="VisuGPX - https://www.visugpx.com">
  <metadata>
    <name>Citadelles 2012</name>
    <desc><![CDATA[Citadelles 2012]]></desc>
  </metadata>
  <trk>
    <name><![CDATA[Trail]]></name>
    <cmt><![CDATA[Trail des Citadelles
287ème]]></cmt>
    <trkseg>
      <trkpt lat="42.93457" lon="1.84965">
        <ele>527.42041015625</ele>
        <time>2012-04-08T05:59:58Z</time>
      </trkpt>
      <trkpt lat="42.93456" lon="1.84965">
        <ele>527.42041015625</ele>
        <time>2012-04-08T05:59:59Z</time>
      </trkpt>
      <trkpt lat="42.93453" lon="1.84963">
        <ele>527.90100097656</ele>
        <time>2012-04-08T06:00:06Z</time>
      </trkpt>
      <trkpt lat="42.93451" lon="1.84962">
        <ele>529.82373046875</ele>
        <time>2012-04-08T06:00:08Z</time>
      </trkpt>
      <trkpt lat="42.93443" lon="1.84959">
        <ele>533.6689453125</ele>
        <time>2012-04-08T06:00:15Z</time>
      </trkpt>
      <trkpt lat="42.93433" lon="1.84953">
        <ele>532.70776367188</ele>
        <time>2012-04-08T06:00:20Z</time>
      </trkpt>
      <trkpt lat="42.93424" lon="1.84945">
        <ele>530.78515625</ele>
        <time>2012-04-08T06:00:24Z</time>
      </trkpt>
      <trkpt lat="42.93415" lon="1.84937">
        <ele>528.3818359375</ele>
        <time>2012-04-08T06:00:28Z</time>
      </trkpt>
      <trkpt lat="42.93406" lon="1.84929">
        <ele>525.49780273438</ele>
        <time>2012-04-08T06:00:32Z</time>
      </trkpt>
      <trkpt lat="42.93402" lon="1.84925">
        <ele>525.01721191406</ele>
        <time>2012-04-08T06:00:34Z</time>
      </trkpt>
      <trkpt lat="42.93391" lon="1.84916">
        <ele>523.5751953125</ele>
        <time>2012-04-08T06:00:40Z</time>
      </trkpt>
      <trkpt lat="42.93389" lon="1.84914">
        <ele>523.09460449219</ele>
        <time>2012-04-08T06:00:42Z</time>
      </trkpt>
      <trkpt lat="42.93377" lon="1.84905">
        <ele>522.61389160156</ele>
        <time>2012-04-08T06:00:49Z</time>
      </trkpt>
      <trkpt lat="42.93374" lon="1.84904">
        <ele>522.13317871094</ele>
        <time>2012-04-08T06:00:50Z</time>
      </trkpt>
      <trkpt lat="42.93362" lon="1.84895">
        <ele>520.69128417969</ele>
        <time>2012-04-08T06:00:56Z</time>
      </trkpt>
      <trkpt lat="42.93354" lon="1.84888">
        <ele>520.21057128906</ele>
        <time>2012-04-08T06:01:00Z</time>
      </trkpt>
      <trkpt lat="42.93341" lon="1.84883">
        <ele>521.17199707031</ele>
        <time>2012-04-08T06:01:06Z</time>
      </trkpt>
      <trkpt lat="42.93325" lon="1.84881">
        <ele>525.49780273438</ele>
        <time>2012-04-08T06:01:12Z</time>
      </trkpt>
      <trkpt lat="42.93318" lon="1.84877">
        <ele>526.45910644531</ele>
        <time>2012-04-08T06:01:15Z</time>
      </trkpt>
      <trkpt lat="42.93306" lon="1.84872">
        <ele>526.93981933594</ele>
        <time>2012-04-08T06:01:20Z</time>
      </trkpt>
      <trkpt lat="42.93294" lon="1.84867">
        <ele>526.45910644531</ele>
        <time>2012-04-08T06:01:25Z</time>
      </trkpt>
      <trkpt lat="42.93287" lon="1.84866">
        <ele>526.45910644531</ele>
        <time>2012-04-08T06:01:28Z</time>
      </trkpt>
      <trkpt lat="42.93273" lon="1.84858">
        <ele>527.42041015625</ele>
        <time>2012-04-08T06:01:34Z</time>
      </trkpt>
      <trkpt lat="42.93261" lon="1.84849">
        <ele>527.42041015625</ele>
        <time>2012-04-08T06:01:40Z</time>
      </trkpt>
      <trkpt lat="42.93253" lon="1.84856">
        <ele>527.90100097656</ele>
        <time>2012-04-08T06:01:44Z</time>
      </trkpt>
      <trkpt lat="42.93242" lon="1.84863">
        <ele>526.93981933594</ele>
        <time>2012-04-08T06:01:49Z</time>
      </trkpt>
      <trkpt lat="42.93229" lon="1.84867">
        <ele>526.45910644531</ele>
        <time>2012-04-08T06:01:54Z</time>
      </trkpt>
      <trkpt lat="42.93216" lon="1.84866">
        <ele>527.90100097656</ele>
        <time>2012-04-08T06:01:59Z</time>
      </trkpt>
      <trkpt lat="42.93204" lon="1.84862">
        <ele>529.34313964844</ele>
        <time>2012-04-08T06:02:04Z</time>
      </trkpt>
      <trkpt lat="42.93191" lon="1.84856">
        <ele>531.26574707031</ele>
        <time>2012-04-08T06:02:09Z</time>
      </trkpt>
      <trkpt lat="42.9318" lon="1.8485">
        <ele>532.70776367188</ele>
        <time>2012-04-08T06:02:14Z</time>
      </trkpt>
      <trkpt lat="42.93169" lon="1.84841">
        <ele>531.26574707031</ele>
        <time>2012-04-08T06:02:19Z</time>
      </trkpt>
      <trkpt lat="42.93158" lon="1.84841">
        <ele>528.86254882812</ele>
        <time>2012-04-08T06:02:24Z</time>
      </trkpt>
      <trkpt lat="42.93156" lon="1.8484">
        <ele>528.3818359375</ele>
        <time>2012-04-08T06:02:25Z</time>
      </trkpt>
      <trkpt lat="42.93141" lon="1.84842">
        <ele>528.86254882812</ele>
        <time>2012-04-08T06:02:31Z</time>
      </trkpt>
      <trkpt lat="42.93128" lon="1.84837">
        <ele>528.3818359375</ele>
        <time>2012-04-08T06:02:37Z</time>
      </trkpt>
      <trkpt lat="42.93119" lon="1.84835">
        <ele>527.42041015625</ele>
        <time>2012-04-08T06:02:41Z</time>
      </trkpt>
      <trkpt lat="42.93106" lon="1.84835">
        <ele>526.93981933594</ele>
        <time>2012-04-08T06:02:47Z</time>
      </trkpt>
      <trkpt lat="42.93086" lon="1.84836">
        <ele>526.45910644531</ele>
        <time>2012-04-08T06:02:55Z</time>
      </trkpt>
      <trkpt lat="42.93072" lon="1.84837">
        <ele>525.97839355469</ele>
        <time>2012-04-08T06:03:01Z</time>
      </trkpt>
      <trkpt lat="42.93053" lon="1.84834">
        <ele>525.97839355469</ele>
        <time>2012-04-08T06:03:08Z</time>
      </trkpt>
      <trkpt lat="42.93041" lon="1.84828">
        <ele>525.49780273438</ele>
        <time>2012-04-08T06:03:13Z</time>
      </trkpt>
      <trkpt lat="42.93031" lon="1.84823">
        <ele>523.5751953125</ele>
        <time>2012-04-08T06:03:18Z</time>
      </trkpt>
      <trkpt lat="42.9302" lon="1.84815">
        <ele>523.5751953125</ele>
        <time>2012-04-08T06:03:23Z</time>
      </trkpt>
      <trkpt lat="42.93009" lon="1.84804">
        <ele>524.05578613281</ele>
        <time>2012-04-08T06:03:28Z</time>
      </trkpt>
      <trkpt lat="42.92997" lon="1.84794">
        <ele>525.97839355469</ele>
        <time>2012-04-08T06:03:33Z</time>
      </trkpt>
      <trkpt lat="42.92981" lon="1.84783">
        <ele>528.86254882812</ele>
        <time>2012-04-08T06:03:39Z</time>
      </trkpt>
      <trkpt lat="42.92968" lon="1.84771">
        <ele>529.82373046875</ele>
        <time>2012-04-08T06:03:45Z</time>
      </trkpt>
      <trkpt lat="42.92953" lon="1.8476">
        <ele>533.18835449219</ele>
        <time>2012-04-08T06:03:51Z</time>
      </trkpt>
      <trkpt lat="42.92942" lon="1.84753">
        <ele>533.18835449219</ele>
        <time>2012-04-08T06:03:55Z</time>
      </trkpt>
      <trkpt lat="42.92929" lon="1.84744">
        <ele>535.11096191406</ele>
        <time>2012-04-08T06:04:01Z</time>
      </trkpt>
      <trkpt lat="42.92917" lon="1.84737">
        <ele>535.11096191406</ele>
        <time>2012-04-08T06:04:06Z</time>
      </trkpt>
      <trkpt lat="42.92908" lon="1.8473">
        <ele>537.51428222656</ele>
        <time>2012-04-08T06:04:10Z</time>
      </trkpt>
      <trkpt lat="42.92897" lon="1.84725">
        <ele>537.51428222656</ele>
        <time>2012-04-08T06:04:14Z</time>
      </trkpt>
      <trkpt lat="42.92887" lon="1.84718">
        <ele>538.47570800781</ele>
        <time>2012-04-08T06:04:18Z</time>
      </trkpt>
      <trkpt lat="42.92876" lon="1.84709">
        <ele>543.28210449219</ele>
        <time>2012-04-08T06:04:23Z</time>
      </trkpt>
      <trkpt lat="42.92863" lon="1.847">
        <ele>539.91760253906</ele>
        <time>2012-04-08T06:04:29Z</time>
      </trkpt>
      <trkpt lat="42.92851" lon="1.84692">
        <ele>540.39831542969</ele>
        <time>2012-04-08T06:04:34Z</time>
      </trkpt>
      <trkpt lat="42.92842" lon="1.84684">
        <ele>539.43688964844</ele>
        <time>2012-04-08T06:04:39Z</time>
      </trkpt>
      <trkpt lat="42.92834" lon="1.84675">
        <ele>538.47570800781</ele>
        <time>2012-04-08T06:04:44Z</time>
      </trkpt>
      <trkpt lat="42.92825" lon="1.84668">
        <ele>537.99499511719</ele>
        <time>2012-04-08T06:04:48Z</time>
      </trkpt>
      <trkpt lat="42.92814" lon="1.84661">
        <ele>537.51428222656</ele>
        <time>2012-04-08T06:04:53Z</time>
      </trkpt>
      <trkpt lat="42.92812" lon="1.8466">
        <ele>537.51428222656</ele>
        <time>2012-04-08T06:04:54Z</time>
      </trkpt>
      <trkpt lat="42.92801" lon="1.84654">
        <ele>537.51428222656</ele>
        <time>2012-04-08T06:04:59Z</time>
      </trkpt>
      <trkpt lat="42.92791" lon="1.84648">
        <ele>537.99499511719</ele>
        <time>2012-04-08T06:05:04Z</time>
      </trkpt>
      <trkpt lat="42.92781" lon="1.84642">
        <ele>538.47570800781</ele>
        <time>2012-04-08T06:05:09Z</time>
      </trkpt>
      <trkpt lat="42.92778" lon="1.84642">
        <ele>538.47570800781</ele>
        <time>2012-04-08T06:05:10Z</time>
      </trkpt>
      <trkpt lat="42.92767" lon="1.84637">
        <ele>540.39831542969</ele>
        <time>2012-04-08T06:05:16Z</time>
      </trkpt>
      <trkpt lat="42.92765" lon="1.84636">
        <ele>540.87890625</ele>
        <time>2012-04-08T06:05:17Z</time>
      </trkpt>
      <trkpt lat="42.92751" lon="1.84631">
        <ele>542.32092285156</ele>
        <time>2012-04-08T06:05:23Z</time>
      </trkpt>
      <trkpt lat="42.92745" lon="1.84631">
        <ele>542.80151367188</ele>
        <time>2012-04-08T06:05:27Z</time>
      </trkpt>
      <trkpt lat="42.92744" lon="1.84631">
        <ele>542.32092285156</ele>
        <time>2012-04-08T06:05:28Z</time>
      </trkpt>
      <trkpt lat="42.92734" lon="1.84626">
        <ele>542.32092285156</ele>
        <time>2012-04-08T06:05:33Z</time>
      </trkpt>
      <trkpt lat="42.92727" lon="1.84626">
        <ele>542.80151367188</ele>
        <time>2012-04-08T06:05:36Z</time>
      </trkpt>
      <trkpt lat="42.9272" lon="1.84628">
        <ele>542.80151367188</ele>
        <time>2012-04-08T06:05:39Z</time>
      </trkpt>
      <trkpt lat="42.92714" lon="1.84631">
        <ele>542.32092285156</ele>
        <time>2012-04-08T06:05:42Z</time>
      </trkpt>
      <trkpt lat="42.92704" lon="1.8464">
        <ele>542.80151367188</ele>
        <time>2012-04-08T06:05:47Z</time>
      </trkpt>
      <trkpt lat="42.92697" lon="1.84648">
        <ele>542.80151367188</ele>
        <time>2012-04-08T06:05:51Z</time>
      </trkpt>
      <trkpt lat="42.92686" lon="1.84654">
        <ele>542.80151367188</ele>
        <time>2012-04-08T06:05:56Z</time>
      </trkpt>
      <trkpt lat="42.92685" lon="1.84655">
        <ele>542.80151367188</ele>
        <time>2012-04-08T06:05:57Z</time>
      </trkpt>
      <trkpt lat="42.9268" lon="1.84659">
        <ele>543.28210449219</ele>
        <time>2012-04-08T06:05:59Z</time>
      </trkpt>
      <trkpt lat="42.92673" lon="1.84662">
        <ele>542.80151367188</ele>
        <time>2012-04-08T06:06:02Z</time>
      </trkpt>
      <trkpt lat="42.92664" lon="1.84666">
        <ele>542.32092285156</ele>
        <time>2012-04-08T06:06:07Z</time>
      </trkpt>
      <trkpt lat="42.92659" lon="1.84667">
        <ele>541.84020996094</ele>
        <time>2012-04-08T06:06:09Z</time>
      </trkpt>
      <trkpt lat="42.92654" lon="1.84673">
        <ele>540.87890625</ele>
        <time>2012-04-08T06:06:12Z</time>
      </trkpt>
      <trkpt lat="42.92646" lon="1.84676">
        <ele>539.43688964844</ele>
        <time>2012-04-08T06:06:16Z</time>
      </trkpt>
      <trkpt lat="42.9264" lon="1.84676">
        <ele>541.35949707031</ele>
        <time>2012-04-08T06:06:19Z</time>
      </trkpt>
      <trkpt lat="42.92638" lon="1.84676">
        <ele>541.35949707031</ele>
        <time>2012-04-08T06:06:21Z</time>
      </trkpt>
      <trkpt lat="42.92629" lon="1.84675">
        <ele>545.20483398438</ele>
        <time>2012-04-08T06:06:25Z</time>
      </trkpt>
      <trkpt lat="42.92615" lon="1.84673">
        <ele>548.0888671875</ele>
        <time>2012-04-08T06:06:30Z</time>
      </trkpt>
      <trkpt lat="42.9261" lon="1.84673">
        <ele>549.05004882812</ele>
        <time>2012-04-08T06:06:32Z</time>
      </trkpt>
      <trkpt lat="42.926" lon="1.84671">
        <ele>551.45336914062</ele>
        <time>2012-04-08T06:06:36Z</time>
      </trkpt>
      <trkpt lat="42.92587" lon="1.84668">
        <ele>553.85668945312</ele>
        <time>2012-04-08T06:06:41Z</time>
      </trkpt>
      <trkpt lat="42.92574" lon="1.84664">
        <ele>556.26000976562</ele>
        <time>2012-04-08T06:06:46Z</time>
      </trkpt>
      <trkpt lat="42.92561" lon="1.84663">
        <ele>557.22143554688</ele>
        <time>2012-04-08T06:06:51Z</time>
      </trkpt>
      <trkpt lat="42.92553" lon="1.84661">
        <ele>558.66333007812</ele>
        <time>2012-04-08T06:06:56Z</time>
      </trkpt>
      <trkpt lat="42.92547" lon="1.8466">
        <ele>560.10522460938</ele>
        <time>2012-04-08T06:06:59Z</time>
      </trkpt>
      <trkpt lat="42.92538" lon="1.84659">
        <ele>562.50854492188</ele>
        <time>2012-04-08T06:07:05Z</time>
      </trkpt>
      <trkpt lat="42.92531" lon="1.84658">
        <ele>562.50854492188</ele>
        <time>2012-04-08T06:07:08Z</time>
      </trkpt>
      <trkpt lat="42.92526" lon="1.84658">
        <ele>561.54736328125</ele>
        <time>2012-04-08T06:07:10Z</time>
      </trkpt>
      <trkpt lat="42.92513" lon="1.84655">
        <ele>560.5859375</ele>
        <time>2012-04-08T06:07:15Z</time>
      </trkpt>
      <trkpt lat="42.92509" lon="1.84654">
        <ele>559.14404296875</ele>
        <time>2012-04-08T06:07:17Z</time>
      </trkpt>
      <trkpt lat="42.92495" lon="1.84649">
        <ele>559.14404296875</ele>
        <time>2012-04-08T06:07:23Z</time>
      </trkpt>
      <trkpt lat="42.92485" lon="1.84647">
        <ele>558.18286132812</ele>
        <time>2012-04-08T06:07:28Z</time>
      </trkpt>
      <trkpt lat="42.92473" lon="1.84645">
        <ele>556.74072265625</ele>
        <time>2012-04-08T06:07:33Z</time>
      </trkpt>
      <trkpt lat="42.92462" lon="1.84641">
        <ele>556.74072265625</ele>
        <time>2012-04-08T06:07:38Z</time>
      </trkpt>
      <trkpt lat="42.92455" lon="1.84638">
        <ele>556.26000976562</ele>
        <time>2012-04-08T06:07:40Z</time>
      </trkpt>
      <trkpt lat="42.92438" lon="1.8463">
        <ele>555.779296875</ele>
        <time>2012-04-08T06:07:46Z</time>
      </trkpt>
      <trkpt lat="42.92427" lon="1.84624">
        <ele>552.41455078125</ele>
        <time>2012-04-08T06:07:51Z</time>
      </trkpt>
      <trkpt lat="42.92413" lon="1.8462">
        <ele>551.93408203125</ele>
        <time>2012-04-08T06:07:56Z</time>
      </trkpt>
      <trkpt lat="42.92398" lon="1.84613">
        <ele>552.41455078125</ele>
        <time>2012-04-08T06:08:01Z</time>
      </trkpt>
      <trkpt lat="42.92393" lon="1.84608">
        <ele>550.97265625</ele>
        <time>2012-04-08T06:08:04Z</time>
      </trkpt>
      <trkpt lat="42.92384" lon="1.846">
        <ele>550.4921875</ele>
        <time>2012-04-08T06:08:09Z</time>
      </trkpt>
      <trkpt lat="42.92368" lon="1.84594">
        <ele>550.01147460938</ele>
        <time>2012-04-08T06:08:15Z</time>
      </trkpt>
      <trkpt lat="42.92353" lon="1.84589">
        <ele>549.53076171875</ele>
        <time>2012-04-08T06:08:20Z</time>
      </trkpt>
      <trkpt lat="42.92339" lon="1.84586">
        <ele>550.4921875</ele>
        <time>2012-04-08T06:08:25Z</time>
      </trkpt>
      <trkpt lat="42.92326" lon="1.84581">
        <ele>551.93408203125</ele>
        <time>2012-04-08T06:08:30Z</time>
      </trkpt>
      <trkpt lat="42.92314" lon="1.8458">
        <ele>558.18286132812</ele>
        <time>2012-04-08T06:08:35Z</time>
      </trkpt>
      <trkpt lat="42.92302" lon="1.8458">
        <ele>562.02807617188</ele>
        <time>2012-04-08T06:08:40Z</time>
      </trkpt>
      <trkpt lat="42.92293" lon="1.84583">
        <ele>562.50854492188</ele>
        <time>2012-04-08T06:08:44Z</time>
      </trkpt>
      <trkpt lat="42.92284" lon="1.84584">
        <ele>560.5859375</ele>
        <time>2012-04-08T06:08:49Z</time>
      </trkpt>
      <trkpt lat="42.92274" lon="1.84586">
        <ele>558.66333007812</ele>
        <time>2012-04-08T06:08:54Z</time>
      </trkpt>
      <trkpt lat="42.92271" lon="1.84587">
        <ele>558.66333007812</ele>
        <time>2012-04-08T06:08:56Z</time>
      </trkpt>
      <trkpt lat="42.92266" lon="1.8459">
        <ele>559.14404296875</ele>
        <time>2012-04-08T06:08:58Z</time>
      </trkpt>
      <trkpt lat="42.92255" lon="1.84592">
        <ele>560.10522460938</ele>
        <time>2012-04-08T06:09:03Z</time>
      </trkpt>
      <trkpt lat="42.92243" lon="1.84586">
        <ele>557.7021484375</ele>
        <time>2012-04-08T06:09:08Z</time>
      </trkpt>
      <trkpt lat="42.92228" lon="1.84582">
        <ele>559.14404296875</ele>
        <time>2012-04-08T06:09:14Z</time>
      </trkpt>
      <trkpt lat="42.92218" lon="1.84581">
        <ele>559.62475585938</ele>
        <time>2012-04-08T06:09:18Z</time>
      </trkpt>
      <trkpt lat="42.92212" lon="1.84578">
        <ele>562.02807617188</ele>
        <time>2012-04-08T06:09:22Z</time>
      </trkpt>
      <trkpt lat="42.92201" lon="1.84575">
        <ele>562.9892578125</ele>
        <time>2012-04-08T06:09:27Z</time>
      </trkpt>
      <trkpt lat="42.92188" lon="1.84568">
        <ele>563.46997070312</ele>
        <time>2012-04-08T06:09:32Z</time>
      </trkpt>
      <trkpt lat="42.92175" lon="1.84564">
        <ele>561.06665039062</ele>
        <time>2012-04-08T06:09:37Z</time>
      </trkpt>
      <trkpt lat="42.92165" lon="1.84558">
        <ele>560.5859375</ele>
        <time>2012-04-08T06:09:41Z</time>
      </trkpt>
      <trkpt lat="42.92157" lon="1.84554">
        <ele>559.62475585938</ele>
        <time>2012-04-08T06:09:45Z</time>
      </trkpt>
      <trkpt lat="42.92148" lon="1.84551">
        <ele>558.66333007812</ele>
        <time>2012-04-08T06:09:48Z</time>
      </trkpt>
      <trkpt lat="42.92137" lon="1.84546">
        <ele>559.14404296875</ele>
        <time>2012-04-08T06:09:53Z</time>
      </trkpt>
      <trkpt lat="42.92135" lon="1.84546">
        <ele>559.14404296875</ele>
        <time>2012-04-08T06:09:54Z</time>
      </trkpt>
      <trkpt lat="42.92128" lon="1.84544">
        <ele>559.62475585938</ele>
        <time>2012-04-08T06:09:57Z</time>
      </trkpt>
      <trkpt lat="42.92113" lon="1.84538">
        <ele>559.14404296875</ele>
        <time>2012-04-08T06:10:03Z</time>
      </trkpt>
      <trkpt lat="42.92104" lon="1.84536">
        <ele>559.62475585938</ele>
        <time>2012-04-08T06:10:07Z</time>
      </trkpt>
      <trkpt lat="42.92096" lon="1.84528">
        <ele>559.14404296875</ele>
        <time>2012-04-08T06:10:11Z</time>
      </trkpt>
      <trkpt lat="42.92088" lon="1.84524">
        <ele>557.7021484375</ele>
        <time>2012-04-08T06:10:15Z</time>
      </trkpt>
      <trkpt lat="42.92082" lon="1.84521">
        <ele>555.29858398438</ele>
        <time>2012-04-08T06:10:18Z</time>
      </trkpt>
      <trkpt lat="42.92075" lon="1.84519">
        <ele>553.3759765625</ele>
        <time>2012-04-08T06:10:23Z</time>
      </trkpt>
      <trkpt lat="42.92065" lon="1.84513">
        <ele>551.93408203125</ele>
        <time>2012-04-08T06:10:28Z</time>
      </trkpt>
      <trkpt lat="42.92063" lon="1.84513">
        <ele>551.45336914062</ele>
        <time>2012-04-08T06:10:29Z</time>
      </trkpt>
      <trkpt lat="42.92052" lon="1.8451">
        <ele>550.01147460938</ele>
        <time>2012-04-08T06:10:34Z</time>
      </trkpt>
      <trkpt lat="42.92042" lon="1.84509">
        <ele>550.4921875</ele>
        <time>2012-04-08T06:10:39Z</time>
      </trkpt>
      <trkpt lat="42.92027" lon="1.84509">
        <ele>551.45336914062</ele>
        <time>2012-04-08T06:10:46Z</time>
      </trkpt>
      <trkpt lat="42.92018" lon="1.84507">
        <ele>552.89526367188</ele>
        <time>2012-04-08T06:10:50Z</time>
      </trkpt>
      <trkpt lat="42.92009" lon="1.84508">
        <ele>554.81787109375</ele>
        <time>2012-04-08T06:10:56Z</time>
      </trkpt>
      <trkpt lat="42.92006" lon="1.84506">
        <ele>556.74072265625</ele>
        <time>2012-04-08T06:10:59Z</time>
      </trkpt>
      <trkpt lat="42.91999" lon="1.84506">
        <ele>560.10522460938</ele>
        <time>2012-04-08T06:11:03Z</time>
      </trkpt>
      <trkpt lat="42.9199" lon="1.84505">
        <ele>562.9892578125</ele>
        <time>2012-04-08T06:11:08Z</time>
      </trkpt>
      <trkpt lat="42.91983" lon="1.84504">
        <ele>566.83447265625</ele>
        <time>2012-04-08T06:11:12Z</time>
      </trkpt>
      <trkpt lat="42.91974" lon="1.84508">
        <ele>570.19897460938</ele>
        <time>2012-04-08T06:11:17Z</time>
      </trkpt>
      <trkpt lat="42.91967" lon="1.84507">
        <ele>571.16040039062</ele>
        <time>2012-04-08T06:11:21Z</time>
      </trkpt>
      <trkpt lat="42.91959" lon="1.84505">
        <ele>574.52514648438</ele>
        <time>2012-04-08T06:11:25Z</time>
      </trkpt>
      <trkpt lat="42.91951" lon="1.84501">
        <ele>576.44775390625</ele>
        <time>2012-04-08T06:11:30Z</time>
      </trkpt>
      <trkpt lat="42.91943" lon="1.84501">
        <ele>577.8896484375</ele>
        <time>2012-04-08T06:11:34Z</time>
      </trkpt>
      <trkpt lat="42.91935" lon="1.845">
        <ele>576.44775390625</ele>
        <time>2012-04-08T06:11:39Z</time>
      </trkpt>
      <trkpt lat="42.91933" lon="1.845">
        <ele>576.44775390625</ele>
        <time>2012-04-08T06:11:40Z</time>
      </trkpt>
      <trkpt lat="42.91923" lon="1.84501">
        <ele>573.08325195312</ele>
        <time>2012-04-08T06:11:47Z</time>
      </trkpt>
      <trkpt lat="42.91915" lon="1.84498">
        <ele>568.2763671875</ele>
        <time>2012-04-08T06:11:54Z</time>
      </trkpt>
      <trkpt lat="42.91912" lon="1.84495">
        <ele>566.83447265625</ele>
        <time>2012-04-08T06:11:58Z</time>
      </trkpt>
      <trkpt lat="42.91906" lon="1.84497">
        <ele>562.50854492188</ele>
        <time>2012-04-08T06:12:06Z</time>
      </trkpt>
      <trkpt lat="42.919" lon="1.84498">
        <ele>562.50854492188</ele>
        <time>2012-04-08T06:12:12Z</time>
      </trkpt>
      <trkpt lat="42.91891" lon="1.84496">
        <ele>569.23779296875</ele>
        <time>2012-04-08T06:12:19Z</time>
      </trkpt>
      <trkpt lat="42.91887" lon="1.84495">
        <ele>573.08325195312</ele>
        <time>2012-04-08T06:12:22Z</time>
      </trkpt>
      <trkpt lat="42.91881" lon="1.84493">
        <ele>573.08325195312</ele>
        <time>2012-04-08T06:12:27Z</time>
      </trkpt>
      <trkpt lat="42.91877" lon="1.84492">
        <ele>570.6796875</ele>
        <time>2012-04-08T06:12:32Z</time>
      </trkpt>
      <trkpt lat="42.91867" lon="1.8449">
        <ele>574.52514648438</ele>
        <time>2012-04-08T06:12:38Z</time>
      </trkpt>
      <trkpt lat="42.91861" lon="1.8449">
        <ele>570.6796875</ele>
        <time>2012-04-08T06:12:43Z</time>
      </trkpt>
      <trkpt lat="42.9185" lon="1.84488">
        <ele>569.71850585938</ele>
        <time>2012-04-08T06:12:51Z</time>
      </trkpt>
      <trkpt lat="42.91845" lon="1.84487">
        <ele>572.6025390625</ele>
        <time>2012-04-08T06:12:53Z</time>
      </trkpt>
      <trkpt lat="42.9184" lon="1.84487">
        <ele>576.92846679688</ele>
        <time>2012-04-08T06:12:59Z</time>
      </trkpt>
      <trkpt lat="42.91838" lon="1.84486">
        <ele>580.77368164062</ele>
        <time>2012-04-08T06:13:09Z</time>
      </trkpt>
      <trkpt lat="42.91836" lon="1.84486">
        <ele>581.25439453125</ele>
        <time>2012-04-08T06:13:17Z</time>
      </trkpt>
      <trkpt lat="42.91827" lon="1.84484">
        <ele>582.6962890625</ele>
        <time>2012-04-08T06:13:21Z</time>
      </trkpt>
      <trkpt lat="42.91813" lon="1.84477">
        <ele>583.65747070312</ele>
        <time>2012-04-08T06:13:26Z</time>
      </trkpt>
      <trkpt lat="42.91804" lon="1.8447">
        <ele>585.099609375</ele>
        <time>2012-04-08T06:13:30Z</time>
      </trkpt>
      <trkpt lat="42.9179" lon="1.84458">
        <ele>584.61889648438</ele>
        <time>2012-04-08T06:13:36Z</time>
      </trkpt>
      <trkpt lat="42.91777" lon="1.84448">
        <ele>585.099609375</ele>
        <time>2012-04-08T06:13:42Z</time>
      </trkpt>
      <trkpt lat="42.91766" lon="1.84437">
        <ele>584.61889648438</ele>
        <time>2012-04-08T06:13:47Z</time>
      </trkpt>
      <trkpt lat="42.91754" lon="1.84427">
        <ele>584.61889648438</ele>
        <time>2012-04-08T06:13:53Z</time>
      </trkpt>
      <trkpt lat="42.91745" lon="1.84419">
        <ele>584.61889648438</ele>
        <time>2012-04-08T06:13:57Z</time>
      </trkpt>
      <trkpt lat="42.91738" lon="1.84413">
        <ele>584.61889648438</ele>
        <time>2012-04-08T06:14:00Z</time>
      </trkpt>
      <trkpt lat="42.91729" lon="1.84406">
        <ele>585.099609375</ele>
        <time>2012-04-08T06:14:04Z</time>
      </trkpt>
      <trkpt lat="42.91718" lon="1.84396">
        <ele>585.099609375</ele>
        <time>2012-04-08T06:14:10Z</time>
      </trkpt>
      <trkpt lat="42.91709" lon="1.84383">
        <ele>584.61889648438</ele>
        <time>2012-04-08T06:14:15Z</time>
      </trkpt>
      <trkpt lat="42.917" lon="1.84371">
        <ele>587.02197265625</ele>
        <time>2012-04-08T06:14:20Z</time>
      </trkpt>
      <trkpt lat="42.9169" lon="1.8436">
        <ele>588.46435546875</ele>
        <time>2012-04-08T06:14:25Z</time>
      </trkpt>
      <trkpt lat="42.91681" lon="1.84349">
        <ele>589.90625</ele>
        <time>2012-04-08T06:14:30Z</time>
      </trkpt>
      <trkpt lat="42.9167" lon="1.8434">
        <ele>590.38696289062</ele>
        <time>2012-04-08T06:14:35Z</time>
      </trkpt>
      <trkpt lat="42.91664" lon="1.84334">
        <ele>590.38696289062</ele>
        <time>2012-04-08T06:14:38Z</time>
      </trkpt>
      <trkpt lat="42.91654" lon="1.8433">
        <ele>590.38696289062</ele>
        <time>2012-04-08T06:14:42Z</time>
      </trkpt>
      <trkpt lat="42.91639" lon="1.84322">
        <ele>591.34814453125</ele>
        <time>2012-04-08T06:14:48Z</time>
      </trkpt>
      <trkpt lat="42.91628" lon="1.84314">
        <ele>593.75146484375</ele>
        <time>2012-04-08T06:14:53Z</time>
      </trkpt>
      <trkpt lat="42.91614" lon="1.84299">
        <ele>595.193359375</ele>
        <time>2012-04-08T06:15:00Z</time>
      </trkpt>
      <trkpt lat="42.91608" lon="1.84293">
        <ele>595.67407226562</ele>
        <time>2012-04-08T06:15:03Z</time>
      </trkpt>
      <trkpt lat="42.91595" lon="1.84283">
        <ele>595.193359375</ele>
        <time>2012-04-08T06:15:09Z</time>
      </trkpt>
      <trkpt lat="42.91583" lon="1.84275">
        <ele>594.71264648438</ele>
        <time>2012-04-08T06:15:14Z</time>
      </trkpt>
      <trkpt lat="42.91572" lon="1.84266">
        <ele>595.67407226562</ele>
        <time>2012-04-08T06:15:19Z</time>
      </trkpt>
      <trkpt lat="42.91559" lon="1.84251">
        <ele>595.67407226562</ele>
        <time>2012-04-08T06:15:25Z</time>
      </trkpt>
      <trkpt lat="42.91552" lon="1.84245">
        <ele>596.63549804688</ele>
        <time>2012-04-08T06:15:28Z</time>
      </trkpt>
      <trkpt lat="42.91542" lon="1.84236">
        <ele>597.11596679688</ele>
        <time>2012-04-08T06:15:33Z</time>
      </trkpt>
      <trkpt lat="42.91537" lon="1.84229">
        <ele>596.63549804688</ele>
        <time>2012-04-08T06:15:36Z</time>
      </trkpt>
      <trkpt lat="42.91529" lon="1.84222">
        <ele>595.67407226562</ele>
        <time>2012-04-08T06:15:40Z</time>
      </trkpt>
      <trkpt lat="42.91522" lon="1.84206">
        <ele>596.15478515625</ele>
        <time>2012-04-08T06:15:45Z</time>
      </trkpt>
      <trkpt lat="42.91513" lon="1.84194">
        <ele>597.11596679688</ele>
        <time>2012-04-08T06:15:50Z</time>
      </trkpt>
      <trkpt lat="42.91505" lon="1.84184">
        <ele>597.5966796875</ele>
        <time>2012-04-08T06:15:55Z</time>
      </trkpt>
      <trkpt lat="42.91502" lon="1.84181">
        <ele>597.11596679688</ele>
        <time>2012-04-08T06:15:57Z</time>
      </trkpt>
      <trkpt lat="42.91494" lon="1.84174">
        <ele>597.11596679688</ele>
        <time>2012-04-08T06:16:03Z</time>
      </trkpt>
      <trkpt lat="42.91488" lon="1.84171">
        <ele>596.15478515625</ele>
        <time>2012-04-08T06:16:06Z</time>
      </trkpt>
      <trkpt lat="42.91474" lon="1.8416">
        <ele>596.63549804688</ele>
        <time>2012-04-08T06:16:12Z</time>
      </trkpt>
      <trkpt lat="42.91464" lon="1.84152">
        <ele>595.193359375</ele>
        <time>2012-04-08T06:16:17Z</time>
      </trkpt>
      <trkpt lat="42.91453" lon="1.8414">
        <ele>595.193359375</ele>
        <time>2012-04-08T06:16:22Z</time>
      </trkpt>
      <trkpt lat="42.91451" lon="1.84137">
        <ele>595.193359375</ele>
        <time>2012-04-08T06:16:23Z</time>
      </trkpt>
      <trkpt lat="42.91439" lon="1.84125">
        <ele>595.67407226562</ele>
        <time>2012-04-08T06:16:29Z</time>
      </trkpt>
      <trkpt lat="42.91431" lon="1.84114">
        <ele>596.15478515625</ele>
        <time>2012-04-08T06:16:34Z</time>
      </trkpt>
      <trkpt lat="42.91427" lon="1.8411">
        <ele>597.11596679688</ele>
        <time>2012-04-08T06:16:36Z</time>
      </trkpt>
      <trkpt lat="42.91421" lon="1.84102">
        <ele>597.5966796875</ele>
        <time>2012-04-08T06:16:40Z</time>
      </trkpt>
      <trkpt lat="42.91412" lon="1.84083">
        <ele>597.5966796875</ele>
        <time>2012-04-08T06:16:46Z</time>
      </trkpt>
      <trkpt lat="42.91406" lon="1.84073">
        <ele>597.5966796875</ele>
        <time>2012-04-08T06:16:50Z</time>
      </trkpt>
      <trkpt lat="42.91401" lon="1.84062">
        <ele>597.11596679688</ele>
        <time>2012-04-08T06:16:54Z</time>
      </trkpt>
      <trkpt lat="42.91393" lon="1.84051">
        <ele>597.11596679688</ele>
        <time>2012-04-08T06:16:59Z</time>
      </trkpt>
      <trkpt lat="42.91385" lon="1.8404">
        <ele>595.67407226562</ele>
        <time>2012-04-08T06:17:04Z</time>
      </trkpt>
      <trkpt lat="42.91376" lon="1.8403">
        <ele>595.193359375</ele>
        <time>2012-04-08T06:17:09Z</time>
      </trkpt>
      <trkpt lat="42.91366" lon="1.8402">
        <ele>594.71264648438</ele>
        <time>2012-04-08T06:17:14Z</time>
      </trkpt>
      <trkpt lat="42.91357" lon="1.84014">
        <ele>592.79028320312</ele>
        <time>2012-04-08T06:17:19Z</time>
      </trkpt>
      <trkpt lat="42.91344" lon="1.84008">
        <ele>592.3095703125</ele>
        <time>2012-04-08T06:17:25Z</time>
      </trkpt>
      <trkpt lat="42.9133" lon="1.83998">
        <ele>593.27075195312</ele>
        <time>2012-04-08T06:17:31Z</time>
      </trkpt>
      <trkpt lat="42.9132" lon="1.83987">
        <ele>594.23217773438</ele>
        <time>2012-04-08T06:17:36Z</time>
      </trkpt>
      <trkpt lat="42.9131" lon="1.83979">
        <ele>593.75146484375</ele>
        <time>2012-04-08T06:17:42Z</time>
      </trkpt>
      <trkpt lat="42.91298" lon="1.8397">
        <ele>593.75146484375</ele>
        <time>2012-04-08T06:17:49Z</time>
      </trkpt>
      <trkpt lat="42.91288" lon="1.83965">
        <ele>593.27075195312</ele>
        <time>2012-04-08T06:17:54Z</time>
      </trkpt>
      <trkpt lat="42.91286" lon="1.83964">
        <ele>592.79028320312</ele>
        <time>2012-04-08T06:17:55Z</time>
      </trkpt>
      <trkpt lat="42.91278" lon="1.83958">
        <ele>593.75146484375</ele>
        <time>2012-04-08T06:17:59Z</time>
      </trkpt>
      <trkpt lat="42.91267" lon="1.83952">
        <ele>595.193359375</ele>
        <time>2012-04-08T06:18:04Z</time>
      </trkpt>
      <trkpt lat="42.91252" lon="1.83946">
        <ele>596.15478515625</ele>
        <time>2012-04-08T06:18:10Z</time>
      </trkpt>
      <trkpt lat="42.91241" lon="1.83939">
        <ele>597.5966796875</ele>
        <time>2012-04-08T06:18:15Z</time>
      </trkpt>
      <trkpt lat="42.91229" lon="1.83931">
        <ele>599.51928710938</ele>
        <time>2012-04-08T06:18:20Z</time>
      </trkpt>
      <trkpt lat="42.91222" lon="1.83928">
        <ele>599.51928710938</ele>
        <time>2012-04-08T06:18:23Z</time>
      </trkpt>
      <trkpt lat="42.91211" lon="1.83918">
        <ele>601.92260742188</ele>
        <time>2012-04-08T06:18:28Z</time>
      </trkpt>
      <trkpt lat="42.91204" lon="1.83913">
        <ele>602.8837890625</ele>
        <time>2012-04-08T06:18:31Z</time>
      </trkpt>
      <trkpt lat="42.91199" lon="1.83911">
        <ele>603.84521484375</ele>
        <time>2012-04-08T06:18:33Z</time>
      </trkpt>
      <trkpt lat="42.91187" lon="1.83904">
        <ele>605.28735351562</ele>
        <time>2012-04-08T06:18:39Z</time>
      </trkpt>
      <trkpt lat="42.91179" lon="1.83897">
        <ele>605.28735351562</ele>
        <time>2012-04-08T06:18:44Z</time>
      </trkpt>
      <trkpt lat="42.91176" lon="1.83893">
        <ele>605.28735351562</ele>
        <time>2012-04-08T06:18:46Z</time>
      </trkpt>
      <trkpt lat="42.91167" lon="1.83883">
        <ele>603.84521484375</ele>
        <time>2012-04-08T06:18:52Z</time>
      </trkpt>
      <trkpt lat="42.91165" lon="1.83881">
        <ele>604.326171875</ele>
        <time>2012-04-08T06:18:53Z</time>
      </trkpt>
      <trkpt lat="42.91158" lon="1.83875">
        <ele>603.84521484375</ele>
        <time>2012-04-08T06:18:57Z</time>
      </trkpt>
      <trkpt lat="42.9115" lon="1.83865">
        <ele>602.40307617188</ele>
        <time>2012-04-08T06:19:02Z</time>
      </trkpt>
      <trkpt lat="42.9114" lon="1.83856">
        <ele>600.48071289062</ele>
        <time>2012-04-08T06:19:08Z</time>
      </trkpt>
      <trkpt lat="42.91134" lon="1.83848">
        <ele>600</ele>
        <time>2012-04-08T06:19:11Z</time>
      </trkpt>
      <trkpt lat="42.91133" lon="1.83847">
        <ele>599.51928710938</ele>
        <time>2012-04-08T06:19:12Z</time>
      </trkpt>
      <trkpt lat="42.91123" lon="1.83833">
        <ele>595.67407226562</ele>
        <time>2012-04-08T06:19:18Z</time>
      </trkpt>
      <trkpt lat="42.91116" lon="1.83824">
        <ele>594.71264648438</ele>
        <time>2012-04-08T06:19:22Z</time>
      </trkpt>
      <trkpt lat="42.91105" lon="1.83812">
        <ele>593.27075195312</ele>
        <time>2012-04-08T06:19:28Z</time>
      </trkpt>
      <trkpt lat="42.91104" lon="1.83811">
        <ele>592.79028320312</ele>
        <time>2012-04-08T06:19:29Z</time>
      </trkpt>
      <trkpt lat="42.91092" lon="1.83804">
        <ele>591.34814453125</ele>
        <time>2012-04-08T06:19:35Z</time>
      </trkpt>
      <trkpt lat="42.91078" lon="1.83797">
        <ele>588.94506835938</ele>
        <time>2012-04-08T06:19:41Z</time>
      </trkpt>
      <trkpt lat="42.91064" lon="1.83795">
        <ele>586.06079101562</ele>
        <time>2012-04-08T06:19:46Z</time>
      </trkpt>
      <trkpt lat="42.91054" lon="1.83795">
        <ele>581.73486328125</ele>
        <time>2012-04-08T06:19:51Z</time>
      </trkpt>
      <trkpt lat="42.91047" lon="1.83795">
        <ele>576.92846679688</ele>
        <time>2012-04-08T06:19:55Z</time>
      </trkpt>
      <trkpt lat="42.91037" lon="1.83794">
        <ele>573.56396484375</ele>
        <time>2012-04-08T06:20:00Z</time>
      </trkpt>
      <trkpt lat="42.91027" lon="1.83791">
        <ele>571.16040039062</ele>
        <time>2012-04-08T06:20:05Z</time>
      </trkpt>
      <trkpt lat="42.91025" lon="1.8379">
        <ele>571.16040039062</ele>
        <time>2012-04-08T06:20:06Z</time>
      </trkpt>
      <trkpt lat="42.91" lon="1.83781">
        <ele>590.86743164062</ele>
        <time>2012-04-08T06:20:13Z</time>
      </trkpt>
      <trkpt lat="42.90987" lon="1.83775">
        <ele>596.15478515625</ele>
        <time>2012-04-08T06:20:18Z</time>
      </trkpt>
      <trkpt lat="42.90971" lon="1.83766">
        <ele>600.96118164062</ele>
        <time>2012-04-08T06:20:25Z</time>
      </trkpt>
      <trkpt lat="42.90957" lon="1.83757">
        <ele>601.92260742188</ele>
        <time>2012-04-08T06:20:32Z</time>
      </trkpt>
      <trkpt lat="42.90948" lon="1.83749">
        <ele>603.36450195312</ele>
        <time>2012-04-08T06:20:37Z</time>
      </trkpt>
      <trkpt lat="42.90936" lon="1.83738">
        <ele>604.806640625</ele>
        <time>2012-04-08T06:20:43Z</time>
      </trkpt>
      <trkpt lat="42.90928" lon="1.83729">
        <ele>606.24853515625</ele>
        <time>2012-04-08T06:20:48Z</time>
      </trkpt>
      <trkpt lat="42.9092" lon="1.83722">
        <ele>607.2099609375</ele>
        <time>2012-04-08T06:20:52Z</time>
      </trkpt>
      <trkpt lat="42.9091" lon="1.83714">
        <ele>609.61328125</ele>
        <time>2012-04-08T06:20:57Z</time>
      </trkpt>
      <trkpt lat="42.909" lon="1.8371">
        <ele>611.05517578125</ele>
        <time>2012-04-08T06:21:01Z</time>
      </trkpt>
      <trkpt lat="42.90888" lon="1.83701">
        <ele>610.57446289062</ele>
        <time>2012-04-08T06:21:08Z</time>
      </trkpt>
      <trkpt lat="42.90879" lon="1.83691">
        <ele>610.09375</ele>
        <time>2012-04-08T06:21:13Z</time>
      </trkpt>
      <trkpt lat="42.90868" lon="1.83683">
        <ele>611.53588867188</ele>
        <time>2012-04-08T06:21:19Z</time>
      </trkpt>
      <trkpt lat="42.90862" lon="1.8368">
        <ele>612.0166015625</ele>
        <time>2012-04-08T06:21:22Z</time>
      </trkpt>
      <trkpt lat="42.9086" lon="1.83682">
        <ele>613.45849609375</ele>
        <time>2012-04-08T06:21:27Z</time>
      </trkpt>
      <trkpt lat="42.90862" lon="1.83683">
        <ele>614.41967773438</ele>
        <time>2012-04-08T06:21:30Z</time>
      </trkpt>
      <trkpt lat="42.90866" lon="1.83691">
        <ele>612.0166015625</ele>
        <time>2012-04-08T06:21:37Z</time>
      </trkpt>
      <trkpt lat="42.90866" lon="1.83693">
        <ele>611.05517578125</ele>
        <time>2012-04-08T06:21:38Z</time>
      </trkpt>
      <trkpt lat="42.90866" lon="1.83701">
        <ele>612.0166015625</ele>
        <time>2012-04-08T06:21:44Z</time>
      </trkpt>
      <trkpt lat="42.90866" lon="1.83708">
        <ele>613.45849609375</ele>
        <time>2012-04-08T06:21:49Z</time>
      </trkpt>
      <trkpt lat="42.90865" lon="1.83717">
        <ele>615.38110351562</ele>
        <time>2012-04-08T06:21:58Z</time>
      </trkpt>
      <trkpt lat="42.90864" lon="1.83727">
        <ele>616.34228515625</ele>
        <time>2012-04-08T06:22:05Z</time>
      </trkpt>
      <trkpt lat="42.90863" lon="1.83732">
        <ele>622.1103515625</ele>
        <time>2012-04-08T06:22:12Z</time>
      </trkpt>
      <trkpt lat="42.90863" lon="1.83739">
        <ele>621.14916992188</ele>
        <time>2012-04-08T06:22:18Z</time>
      </trkpt>
      <trkpt lat="42.90864" lon="1.83747">
        <ele>622.59106445312</ele>
        <time>2012-04-08T06:22:25Z</time>
      </trkpt>
      <trkpt lat="42.90864" lon="1.83753">
        <ele>622.59106445312</ele>
        <time>2012-04-08T06:22:30Z</time>
      </trkpt>
      <trkpt lat="42.90864" lon="1.8376">
        <ele>623.07177734375</ele>
        <time>2012-04-08T06:22:35Z</time>
      </trkpt>
      <trkpt lat="42.90865" lon="1.83769">
        <ele>623.55249023438</ele>
        <time>2012-04-08T06:22:41Z</time>
      </trkpt>
      <trkpt lat="42.90864" lon="1.83772">
        <ele>624.513671875</ele>
        <time>2012-04-08T06:22:43Z</time>
      </trkpt>
      <trkpt lat="42.90864" lon="1.83782">
        <ele>624.99438476562</ele>
        <time>2012-04-08T06:22:48Z</time>
      </trkpt>
      <trkpt lat="42.90865" lon="1.83784">
        <ele>624.513671875</ele>
        <time>2012-04-08T06:22:50Z</time>
      </trkpt>
      <trkpt lat="42.90866" lon="1.83792">
        <ele>624.513671875</ele>
        <time>2012-04-08T06:22:58Z</time>
      </trkpt>
      <trkpt lat="42.90866" lon="1.838">
        <ele>625.95556640625</ele>
        <time>2012-04-08T06:23:04Z</time>
      </trkpt>
      <trkpt lat="42.90868" lon="1.83806">
        <ele>627.39770507812</ele>
        <time>2012-04-08T06:23:11Z</time>
      </trkpt>
      <trkpt lat="42.90869" lon="1.83812">
        <ele>628.83959960938</ele>
        <time>2012-04-08T06:23:17Z</time>
      </trkpt>
      <trkpt lat="42.90869" lon="1.83819">
        <ele>629.80078125</ele>
        <time>2012-04-08T06:23:22Z</time>
      </trkpt>
      <trkpt lat="42.9087" lon="1.83824">
        <ele>628.83959960938</ele>
        <time>2012-04-08T06:23:27Z</time>
      </trkpt>
      <trkpt lat="42.90869" lon="1.83831">
        <ele>630.76220703125</ele>
        <time>2012-04-08T06:23:33Z</time>
      </trkpt>
      <trkpt lat="42.90868" lon="1.83837">
        <ele>635.08813476562</ele>
        <time>2012-04-08T06:23:42Z</time>
      </trkpt>
      <trkpt lat="42.90869" lon="1.83846">
        <ele>633.16528320312</ele>
        <time>2012-04-08T06:23:49Z</time>
      </trkpt>
      <trkpt lat="42.90869" lon="1.83852">
        <ele>633.16528320312</ele>
        <time>2012-04-08T06:23:54Z</time>
      </trkpt>
      <trkpt lat="42.90868" lon="1.83854">
        <ele>634.12670898438</ele>
        <time>2012-04-08T06:23:55Z</time>
      </trkpt>
      <trkpt lat="42.90868" lon="1.83864">
        <ele>633.64599609375</ele>
        <time>2012-04-08T06:24:04Z</time>
      </trkpt>
      <trkpt lat="42.90868" lon="1.83869">
        <ele>634.607421875</ele>
        <time>2012-04-08T06:24:08Z</time>
      </trkpt>
      <trkpt lat="42.90868" lon="1.83877">
        <ele>636.04956054688</ele>
        <time>2012-04-08T06:24:13Z</time>
      </trkpt>
      <trkpt lat="42.90867" lon="1.83886">
        <ele>638.45288085938</ele>
        <time>2012-04-08T06:24:19Z</time>
      </trkpt>
      <trkpt lat="42.90866" lon="1.83892">
        <ele>640.85595703125</ele>
        <time>2012-04-08T06:24:24Z</time>
      </trkpt>
      <trkpt lat="42.90865" lon="1.83898">
        <ele>641.33666992188</ele>
        <time>2012-04-08T06:24:29Z</time>
      </trkpt>
      <trkpt lat="42.90865" lon="1.83901">
        <ele>641.33666992188</ele>
        <time>2012-04-08T06:24:31Z</time>
      </trkpt>
      <trkpt lat="42.90864" lon="1.83914">
        <ele>641.8173828125</ele>
        <time>2012-04-08T06:24:36Z</time>
      </trkpt>
      <trkpt lat="42.90864" lon="1.83918">
        <ele>641.8173828125</ele>
        <time>2012-04-08T06:24:38Z</time>
      </trkpt>
      <trkpt lat="42.90861" lon="1.8393">
        <ele>640.37548828125</ele>
        <time>2012-04-08T06:24:44Z</time>
      </trkpt>
      <trkpt lat="42.90859" lon="1.83938">
        <ele>641.8173828125</ele>
        <time>2012-04-08T06:24:48Z</time>
      </trkpt>
      <trkpt lat="42.9086" lon="1.83944">
        <ele>642.77880859375</ele>
        <time>2012-04-08T06:24:51Z</time>
      </trkpt>
      <trkpt lat="42.90854" lon="1.83949">
        <ele>641.33666992188</ele>
        <time>2012-04-08T06:24:58Z</time>
      </trkpt>
      <trkpt lat="42.90848" lon="1.83947">
        <ele>638.93359375</ele>
        <time>2012-04-08T06:25:03Z</time>
      </trkpt>
      <trkpt lat="42.90842" lon="1.83944">
        <ele>637.49145507812</ele>
        <time>2012-04-08T06:25:07Z</time>
      </trkpt>
      <trkpt lat="42.90838" lon="1.83944">
        <ele>636.04956054688</ele>
        <time>2012-04-08T06:25:10Z</time>
      </trkpt>
      <trkpt lat="42.90837" lon="1.83944">
        <ele>634.12670898438</ele>
        <time>2012-04-08T06:25:12Z</time>
      </trkpt>
      <trkpt lat="42.90829" lon="1.8394">
        <ele>633.16528320312</ele>
        <time>2012-04-08T06:25:18Z</time>
      </trkpt>
      <trkpt lat="42.90825" lon="1.8394">
        <ele>631.72338867188</ele>
        <time>2012-04-08T06:25:22Z</time>
      </trkpt>
      <trkpt lat="42.90818" lon="1.83939">
        <ele>631.72338867188</ele>
        <time>2012-04-08T06:25:27Z</time>
      </trkpt>
      <trkpt lat="42.90809" lon="1.83938">
        <ele>633.16528320312</ele>
        <time>2012-04-08T06:25:31Z</time>
      </trkpt>
      <trkpt lat="42.908" lon="1.83934">
        <ele>634.607421875</ele>
        <time>2012-04-08T06:25:36Z</time>
      </trkpt>
      <trkpt lat="42.90794" lon="1.83931">
        <ele>637.0107421875</ele>
        <time>2012-04-08T06:25:40Z</time>
      </trkpt>
      <trkpt lat="42.90784" lon="1.83924">
        <ele>637.0107421875</ele>
        <time>2012-04-08T06:25:48Z</time>
      </trkpt>
      <trkpt lat="42.9078" lon="1.83921">
        <ele>639.4140625</ele>
        <time>2012-04-08T06:25:51Z</time>
      </trkpt>
      <trkpt lat="42.90776" lon="1.8392">
        <ele>639.4140625</ele>
        <time>2012-04-08T06:25:55Z</time>
      </trkpt>
      <trkpt lat="42.90771" lon="1.83914">
        <ele>637.49145507812</ele>
        <time>2012-04-08T06:26:01Z</time>
      </trkpt>
      <trkpt lat="42.90768" lon="1.83909">
        <ele>638.45288085938</ele>
        <time>2012-04-08T06:26:05Z</time>
      </trkpt>
      <trkpt lat="42.90765" lon="1.83905">
        <ele>638.93359375</ele>
        <time>2012-04-08T06:26:09Z</time>
      </trkpt>
      <trkpt lat="42.90759" lon="1.83899">
        <ele>638.93359375</ele>
        <time>2012-04-08T06:26:14Z</time>
      </trkpt>
      <trkpt lat="42.90754" lon="1.83892">
        <ele>638.45288085938</ele>
        <time>2012-04-08T06:26:21Z</time>
      </trkpt>
      <trkpt lat="42.9075" lon="1.83889">
        <ele>637.0107421875</ele>
        <time>2012-04-08T06:26:25Z</time>
      </trkpt>
      <trkpt lat="42.90747" lon="1.83885">
        <ele>637.97216796875</ele>
        <time>2012-04-08T06:26:29Z</time>
      </trkpt>
      <trkpt lat="42.90745" lon="1.83883">
        <ele>638.93359375</ele>
        <time>2012-04-08T06:26:31Z</time>
      </trkpt>
      <trkpt lat="42.90741" lon="1.83878">
        <ele>641.33666992188</ele>
        <time>2012-04-08T06:26:39Z</time>
      </trkpt>
      <trkpt lat="42.90736" lon="1.83874">
        <ele>647.1044921875</ele>
        <time>2012-04-08T06:26:46Z</time>
      </trkpt>
      <trkpt lat="42.90736" lon="1.83871">
        <ele>652.87255859375</ele>
        <time>2012-04-08T06:27:03Z</time>
      </trkpt>
      <trkpt lat="42.90735" lon="1.8387">
        <ele>652.39184570312</ele>
        <time>2012-04-08T06:27:04Z</time>
      </trkpt>
      <trkpt lat="42.9073" lon="1.83868">
        <ele>648.54638671875</ele>
        <time>2012-04-08T06:27:11Z</time>
      </trkpt>
      <trkpt lat="42.90726" lon="1.83865">
        <ele>646.6240234375</ele>
        <time>2012-04-08T06:27:16Z</time>
      </trkpt>
      <trkpt lat="42.90724" lon="1.83864">
        <ele>646.14331054688</ele>
        <time>2012-04-08T06:27:18Z</time>
      </trkpt>
      <trkpt lat="42.90717" lon="1.83858">
        <ele>645.66259765625</ele>
        <time>2012-04-08T06:27:25Z</time>
      </trkpt>
      <trkpt lat="42.90715" lon="1.83857">
        <ele>645.66259765625</ele>
        <time>2012-04-08T06:27:26Z</time>
      </trkpt>
      <trkpt lat="42.90713" lon="1.83855">
        <ele>646.14331054688</ele>
        <time>2012-04-08T06:27:29Z</time>
      </trkpt>
      <trkpt lat="42.90706" lon="1.83848">
        <ele>646.6240234375</ele>
        <time>2012-04-08T06:27:37Z</time>
      </trkpt>
      <trkpt lat="42.90703" lon="1.83845">
        <ele>646.6240234375</ele>
        <time>2012-04-08T06:27:40Z</time>
      </trkpt>
      <trkpt lat="42.90697" lon="1.83841">
        <ele>644.220703125</ele>
        <time>2012-04-08T06:27:46Z</time>
      </trkpt>
      <trkpt lat="42.90685" lon="1.83836">
        <ele>644.220703125</ele>
        <time>2012-04-08T06:27:52Z</time>
      </trkpt>
      <trkpt lat="42.90675" lon="1.83831">
        <ele>641.8173828125</ele>
        <time>2012-04-08T06:27:57Z</time>
      </trkpt>
      <trkpt lat="42.90668" lon="1.83827">
        <ele>639.4140625</ele>
        <time>2012-04-08T06:28:02Z</time>
      </trkpt>
      <trkpt lat="42.90663" lon="1.83825">
        <ele>637.0107421875</ele>
        <time>2012-04-08T06:28:07Z</time>
      </trkpt>
      <trkpt lat="42.90658" lon="1.83824">
        <ele>635.56860351562</ele>
        <time>2012-04-08T06:28:11Z</time>
      </trkpt>
      <trkpt lat="42.90655" lon="1.83824">
        <ele>634.607421875</ele>
        <time>2012-04-08T06:28:16Z</time>
      </trkpt>
      <trkpt lat="42.90651" lon="1.83822">
        <ele>633.64599609375</ele>
        <time>2012-04-08T06:28:19Z</time>
      </trkpt>
      <trkpt lat="42.90643" lon="1.83819">
        <ele>633.16528320312</ele>
        <time>2012-04-08T06:28:26Z</time>
      </trkpt>
      <trkpt lat="42.90636" lon="1.83816">
        <ele>633.16528320312</ele>
        <time>2012-04-08T06:28:31Z</time>
      </trkpt>
      <trkpt lat="42.90628" lon="1.83813">
        <ele>634.12670898438</ele>
        <time>2012-04-08T06:28:36Z</time>
      </trkpt>
      <trkpt lat="42.90622" lon="1.83811">
        <ele>637.0107421875</ele>
        <time>2012-04-08T06:28:40Z</time>
      </trkpt>
      <trkpt lat="42.9062" lon="1.83811">
        <ele>637.0107421875</ele>
        <time>2012-04-08T06:28:41Z</time>
      </trkpt>
      <trkpt lat="42.90616" lon="1.8381">
        <ele>638.45288085938</ele>
        <time>2012-04-08T06:28:44Z</time>
      </trkpt>
      <trkpt lat="42.90607" lon="1.83807">
        <ele>639.4140625</ele>
        <time>2012-04-08T06:28:51Z</time>
      </trkpt>
      <trkpt lat="42.90606" lon="1.83806">
        <ele>639.89477539062</ele>
        <time>2012-04-08T06:28:52Z</time>
      </trkpt>
      <trkpt lat="42.90602" lon="1.83804">
        <ele>638.93359375</ele>
        <time>2012-04-08T06:28:56Z</time>
      </trkpt>
      <trkpt lat="42.906" lon="1.83803">
        <ele>637.49145507812</ele>
        <time>2012-04-08T06:29:02Z</time>
      </trkpt>
      <trkpt lat="42.90598" lon="1.83803">
        <ele>634.12670898438</ele>
        <time>2012-04-08T06:29:09Z</time>
      </trkpt>
      <trkpt lat="42.90595" lon="1.83802">
        <ele>631.72338867188</ele>
        <time>2012-04-08T06:29:15Z</time>
      </trkpt>
      <trkpt lat="42.90591" lon="1.838">
        <ele>627.87817382812</ele>
        <time>2012-04-08T06:29:21Z</time>
      </trkpt>
      <trkpt lat="42.90588" lon="1.83801">
        <ele>621.62963867188</ele>
        <time>2012-04-08T06:29:27Z</time>
      </trkpt>
      <trkpt lat="42.90584" lon="1.83799">
        <ele>618.74560546875</ele>
        <time>2012-04-08T06:29:31Z</time>
      </trkpt>
      <trkpt lat="42.90578" lon="1.83797">
        <ele>616.82299804688</ele>
        <time>2012-04-08T06:29:35Z</time>
      </trkpt>
      <trkpt lat="42.90564" lon="1.83794">
        <ele>618.26489257812</ele>
        <time>2012-04-08T06:29:40Z</time>
      </trkpt>
      <trkpt lat="42.9055" lon="1.83793">
        <ele>621.62963867188</ele>
        <time>2012-04-08T06:29:45Z</time>
      </trkpt>
      <trkpt lat="42.90541" lon="1.83791">
        <ele>623.07177734375</ele>
        <time>2012-04-08T06:29:48Z</time>
      </trkpt>
      <trkpt lat="42.90526" lon="1.83789">
        <ele>621.14916992188</ele>
        <time>2012-04-08T06:29:54Z</time>
      </trkpt>
      <trkpt lat="42.90519" lon="1.83787">
        <ele>621.14916992188</ele>
        <time>2012-04-08T06:29:57Z</time>
      </trkpt>
      <trkpt lat="42.90512" lon="1.83785">
        <ele>622.1103515625</ele>
        <time>2012-04-08T06:30:02Z</time>
      </trkpt>
      <trkpt lat="42.9051" lon="1.83784">
        <ele>622.59106445312</ele>
        <time>2012-04-08T06:30:06Z</time>
      </trkpt>
      <trkpt lat="42.90508" lon="1.83778">
        <ele>624.03295898438</ele>
        <time>2012-04-08T06:30:12Z</time>
      </trkpt>
      <trkpt lat="42.90508" lon="1.83776">
        <ele>624.99438476562</ele>
        <time>2012-04-08T06:30:17Z</time>
      </trkpt>
      <trkpt lat="42.90508" lon="1.83774">
        <ele>626.43627929688</ele>
        <time>2012-04-08T06:30:26Z</time>
      </trkpt>
      <trkpt lat="42.90508" lon="1.83772">
        <ele>626.9169921875</ele>
        <time>2012-04-08T06:30:30Z</time>
      </trkpt>
      <trkpt lat="42.90506" lon="1.83771">
        <ele>626.43627929688</ele>
        <time>2012-04-08T06:30:36Z</time>
      </trkpt>
      <trkpt lat="42.90506" lon="1.83771">
        <ele>626.43627929688</ele>
        <time>2012-04-08T06:30:38Z</time>
      </trkpt>
      <trkpt lat="42.9051" lon="1.83753">
        <ele>626.43627929688</ele>
        <time>2012-04-08T06:30:43Z</time>
      </trkpt>
      <trkpt lat="42.90519" lon="1.83732">
        <ele>626.9169921875</ele>
        <time>2012-04-08T06:30:48Z</time>
      </trkpt>
      <trkpt lat="42.90527" lon="1.8371">
        <ele>627.87817382812</ele>
        <time>2012-04-08T06:30:53Z</time>
      </trkpt>
      <trkpt lat="42.9053" lon="1.83704">
        <ele>627.87817382812</ele>
        <time>2012-04-08T06:30:55Z</time>
      </trkpt>
      <trkpt lat="42.90514" lon="1.83706">
        <ele>626.9169921875</ele>
        <time>2012-04-08T06:31:00Z</time>
      </trkpt>
      <trkpt lat="42.90498" lon="1.83717">
        <ele>628.35888671875</ele>
        <time>2012-04-08T06:31:05Z</time>
      </trkpt>
      <trkpt lat="42.90485" lon="1.83726">
        <ele>629.80078125</ele>
        <time>2012-04-08T06:31:09Z</time>
      </trkpt>
      <trkpt lat="42.90473" lon="1.83734">
        <ele>632.2041015625</ele>
        <time>2012-04-08T06:31:13Z</time>
      </trkpt>
      <trkpt lat="42.90461" lon="1.83744">
        <ele>634.607421875</ele>
        <time>2012-04-08T06:31:17Z</time>
      </trkpt>
      <trkpt lat="42.90448" lon="1.83747">
        <ele>639.4140625</ele>
        <time>2012-04-08T06:31:21Z</time>
      </trkpt>
      <trkpt lat="42.90436" lon="1.83751">
        <ele>642.29809570312</ele>
        <time>2012-04-08T06:31:25Z</time>
      </trkpt>
      <trkpt lat="42.90434" lon="1.83753">
        <ele>642.77880859375</ele>
        <time>2012-04-08T06:31:26Z</time>
      </trkpt>
      <trkpt lat="42.90418" lon="1.83759">
        <ele>646.14331054688</ele>
        <time>2012-04-08T06:31:32Z</time>
      </trkpt>
      <trkpt lat="42.90405" lon="1.83762">
        <ele>648.54638671875</ele>
        <time>2012-04-08T06:31:37Z</time>
      </trkpt>
      <trkpt lat="42.90396" lon="1.83763">
        <ele>648.54638671875</ele>
        <time>2012-04-08T06:31:41Z</time>
      </trkpt>
      <trkpt lat="42.90383" lon="1.83766">
        <ele>648.54638671875</ele>
        <time>2012-04-08T06:31:47Z</time>
      </trkpt>
      <trkpt lat="42.90373" lon="1.8377">
        <ele>649.5078125</ele>
        <time>2012-04-08T06:31:51Z</time>
      </trkpt>
      <trkpt lat="42.9036" lon="1.83772">
        <ele>649.5078125</ele>
        <time>2012-04-08T06:31:57Z</time>
      </trkpt>
      <trkpt lat="42.90348" lon="1.83775">
        <ele>649.02709960938</ele>
        <time>2012-04-08T06:32:03Z</time>
      </trkpt>
      <trkpt lat="42.90346" lon="1.83775">
        <ele>649.02709960938</ele>
        <time>2012-04-08T06:32:04Z</time>
      </trkpt>
      <trkpt lat="42.90339" lon="1.83777">
        <ele>649.02709960938</ele>
        <time>2012-04-08T06:32:08Z</time>
      </trkpt>
      <trkpt lat="42.90329" lon="1.83779">
        <ele>649.98852539062</ele>
        <time>2012-04-08T06:32:13Z</time>
      </trkpt>
      <trkpt lat="42.90325" lon="1.83779">
        <ele>650.46923828125</ele>
        <time>2012-04-08T06:32:15Z</time>
      </trkpt>
      <trkpt lat="42.9031" lon="1.83779">
        <ele>649.5078125</ele>
        <time>2012-04-08T06:32:22Z</time>
      </trkpt>
      <trkpt lat="42.903" lon="1.8378">
        <ele>649.5078125</ele>
        <time>2012-04-08T06:32:27Z</time>
      </trkpt>
      <trkpt lat="42.90298" lon="1.8378">
        <ele>649.98852539062</ele>
        <time>2012-04-08T06:32:28Z</time>
      </trkpt>
      <trkpt lat="42.90291" lon="1.83779">
        <ele>649.98852539062</ele>
        <time>2012-04-08T06:32:33Z</time>
      </trkpt>
      <trkpt lat="42.90287" lon="1.83778">
        <ele>649.98852539062</ele>
        <time>2012-04-08T06:32:37Z</time>
      </trkpt>
      <trkpt lat="42.90282" lon="1.83778">
        <ele>649.5078125</ele>
        <time>2012-04-08T06:32:41Z</time>
      </trkpt>
      <trkpt lat="42.90271" lon="1.83778">
        <ele>650.46923828125</ele>
        <time>2012-04-08T06:32:47Z</time>
      </trkpt>
      <trkpt lat="42.90268" lon="1.83779">
        <ele>650.94970703125</ele>
        <time>2012-04-08T06:32:49Z</time>
      </trkpt>
      <trkpt lat="42.90258" lon="1.83776">
        <ele>651.43041992188</ele>
        <time>2012-04-08T06:32:56Z</time>
      </trkpt>
      <trkpt lat="42.90254" lon="1.83777">
        <ele>650.46923828125</ele>
        <time>2012-04-08T06:33:00Z</time>
      </trkpt>
      <trkpt lat="42.90245" lon="1.83775">
        <ele>649.02709960938</ele>
        <time>2012-04-08T06:33:05Z</time>
      </trkpt>
      <trkpt lat="42.90244" lon="1.83774">
        <ele>648.54638671875</ele>
        <time>2012-04-08T06:33:06Z</time>
      </trkpt>
      <trkpt lat="42.90236" lon="1.83772">
        <ele>648.06591796875</ele>
        <time>2012-04-08T06:33:12Z</time>
      </trkpt>
      <trkpt lat="42.90234" lon="1.83773">
        <ele>648.54638671875</ele>
        <time>2012-04-08T06:33:14Z</time>
      </trkpt>
      <trkpt lat="42.90227" lon="1.83773">
        <ele>649.5078125</ele>
        <time>2012-04-08T06:33:18Z</time>
      </trkpt>
      <trkpt lat="42.90213" lon="1.83769">
        <ele>650.94970703125</ele>
        <time>2012-04-08T06:33:25Z</time>
      </trkpt>
      <trkpt lat="42.90208" lon="1.8377">
        <ele>654.31469726562</ele>
        <time>2012-04-08T06:33:30Z</time>
      </trkpt>
      <trkpt lat="42.90204" lon="1.83769">
        <ele>656.7177734375</ele>
        <time>2012-04-08T06:33:33Z</time>
      </trkpt>
      <trkpt lat="42.902" lon="1.8377">
        <ele>658.64038085938</ele>
        <time>2012-04-08T06:33:38Z</time>
      </trkpt>
      <trkpt lat="42.90192" lon="1.83765">
        <ele>655.75659179688</ele>
        <time>2012-04-08T06:33:44Z</time>
      </trkpt>
      <trkpt lat="42.90187" lon="1.83763">
        <ele>655.27587890625</ele>
        <time>2012-04-08T06:33:49Z</time>
      </trkpt>
      <trkpt lat="42.90177" lon="1.83759">
        <ele>656.7177734375</ele>
        <time>2012-04-08T06:33:55Z</time>
      </trkpt>
      <trkpt lat="42.90166" lon="1.83754">
        <ele>656.23706054688</ele>
        <time>2012-04-08T06:34:02Z</time>
      </trkpt>
      <trkpt lat="42.90152" lon="1.83749">
        <ele>655.27587890625</ele>
        <time>2012-04-08T06:34:09Z</time>
      </trkpt>
      <trkpt lat="42.90145" lon="1.83746">
        <ele>655.27587890625</ele>
        <time>2012-04-08T06:34:16Z</time>
      </trkpt>
      <trkpt lat="42.90139" lon="1.83735">
        <ele>656.7177734375</ele>
        <time>2012-04-08T06:34:27Z</time>
      </trkpt>
      <trkpt lat="42.90138" lon="1.83733">
        <ele>656.7177734375</ele>
        <time>2012-04-08T06:34:29Z</time>
      </trkpt>
      <trkpt lat="42.90132" lon="1.83727">
        <ele>655.75659179688</ele>
        <time>2012-04-08T06:34:37Z</time>
      </trkpt>
      <trkpt lat="42.90129" lon="1.83721">
        <ele>657.19848632812</ele>
        <time>2012-04-08T06:34:43Z</time>
      </trkpt>
      <trkpt lat="42.90126" lon="1.83718">
        <ele>658.64038085938</ele>
        <time>2012-04-08T06:34:46Z</time>
      </trkpt>
      <trkpt lat="42.90124" lon="1.83716">
        <ele>660.08227539062</ele>
        <time>2012-04-08T06:34:48Z</time>
      </trkpt>
      <trkpt lat="42.90119" lon="1.83711">
        <ele>663.44702148438</ele>
        <time>2012-04-08T06:34:52Z</time>
      </trkpt>
      <trkpt lat="42.90109" lon="1.83707">
        <ele>666.33081054688</ele>
        <time>2012-04-08T06:35:00Z</time>
      </trkpt>
      <trkpt lat="42.90108" lon="1.83706">
        <ele>666.33081054688</ele>
        <time>2012-04-08T06:35:01Z</time>
      </trkpt>
      <trkpt lat="42.90106" lon="1.83701">
        <ele>665.85034179688</ele>
        <time>2012-04-08T06:35:07Z</time>
      </trkpt>
      <trkpt lat="42.90108" lon="1.83692">
        <ele>663.92749023438</ele>
        <time>2012-04-08T06:35:13Z</time>
      </trkpt>
      <trkpt lat="42.90111" lon="1.8369">
        <ele>667.29223632812</ele>
        <time>2012-04-08T06:35:18Z</time>
      </trkpt>
      <trkpt lat="42.90115" lon="1.83685">
        <ele>669.69580078125</ele>
        <time>2012-04-08T06:35:24Z</time>
      </trkpt>
      <trkpt lat="42.9012" lon="1.83681">
        <ele>675.46337890625</ele>
        <time>2012-04-08T06:35:30Z</time>
      </trkpt>
      <trkpt lat="42.90123" lon="1.83675">
        <ele>676.90551757812</ele>
        <time>2012-04-08T06:35:35Z</time>
      </trkpt>
      <trkpt lat="42.90125" lon="1.83666">
        <ele>676.90551757812</ele>
        <time>2012-04-08T06:35:42Z</time>
      </trkpt>
      <trkpt lat="42.90123" lon="1.83663">
        <ele>678.34741210938</ele>
        <time>2012-04-08T06:35:47Z</time>
      </trkpt>
      <trkpt lat="42.90121" lon="1.83657">
        <ele>676.90551757812</ele>
        <time>2012-04-08T06:35:53Z</time>
      </trkpt>
      <trkpt lat="42.90119" lon="1.83654">
        <ele>677.86669921875</ele>
        <time>2012-04-08T06:35:58Z</time>
      </trkpt>
      <trkpt lat="42.90117" lon="1.83649">
        <ele>680.75073242188</ele>
        <time>2012-04-08T06:36:04Z</time>
      </trkpt>
      <trkpt lat="42.90113" lon="1.83646">
        <ele>681.7119140625</ele>
        <time>2012-04-08T06:36:11Z</time>
      </trkpt>
      <trkpt lat="42.90109" lon="1.83644">
        <ele>683.63452148438</ele>
        <time>2012-04-08T06:36:17Z</time>
      </trkpt>
      <trkpt lat="42.90105" lon="1.83642">
        <ele>686.99926757812</ele>
        <time>2012-04-08T06:36:23Z</time>
      </trkpt>
      <trkpt lat="42.90101" lon="1.83637">
        <ele>686.99926757812</ele>
        <time>2012-04-08T06:36:30Z</time>
      </trkpt>
      <trkpt lat="42.90096" lon="1.83631">
        <ele>685.55737304688</ele>
        <time>2012-04-08T06:36:38Z</time>
      </trkpt>
      <trkpt lat="42.90089" lon="1.83626">
        <ele>686.0380859375</ele>
        <time>2012-04-08T06:36:45Z</time>
      </trkpt>
      <trkpt lat="42.90084" lon="1.83621">
        <ele>688.44140625</ele>
        <time>2012-04-08T06:36:50Z</time>
      </trkpt>
      <trkpt lat="42.90079" lon="1.83619">
        <ele>689.88330078125</ele>
        <time>2012-04-08T06:36:55Z</time>
      </trkpt>
      <trkpt lat="42.90076" lon="1.83619">
        <ele>692.28662109375</ele>
        <time>2012-04-08T06:36:58Z</time>
      </trkpt>
      <trkpt lat="42.90069" lon="1.83614">
        <ele>692.76733398438</ele>
        <time>2012-04-08T06:37:05Z</time>
      </trkpt>
      <trkpt lat="42.90063" lon="1.83609">
        <ele>693.24780273438</ele>
        <time>2012-04-08T06:37:12Z</time>
      </trkpt>
      <trkpt lat="42.90058" lon="1.83605">
        <ele>697.57373046875</ele>
        <time>2012-04-08T06:37:18Z</time>
      </trkpt>
      <trkpt lat="42.90056" lon="1.83602">
        <ele>698.53491210938</ele>
        <time>2012-04-08T06:37:23Z</time>
      </trkpt>
      <trkpt lat="42.90052" lon="1.83594">
        <ele>699.015625</ele>
        <time>2012-04-08T06:37:30Z</time>
      </trkpt>
      <trkpt lat="42.90052" lon="1.83585">
        <ele>696.61254882812</ele>
        <time>2012-04-08T06:37:38Z</time>
      </trkpt>
      <trkpt lat="42.90052" lon="1.8358">
        <ele>696.1318359375</ele>
        <time>2012-04-08T06:37:41Z</time>
      </trkpt>
      <trkpt lat="42.90051" lon="1.8357">
        <ele>698.05444335938</ele>
        <time>2012-04-08T06:37:47Z</time>
      </trkpt>
      <trkpt lat="42.90051" lon="1.83564">
        <ele>697.57373046875</ele>
        <time>2012-04-08T06:37:51Z</time>
      </trkpt>
      <trkpt lat="42.90051" lon="1.83562">
        <ele>697.57373046875</ele>
        <time>2012-04-08T06:37:53Z</time>
      </trkpt>
      <trkpt lat="42.90047" lon="1.83553">
        <ele>697.09301757812</ele>
        <time>2012-04-08T06:38:00Z</time>
      </trkpt>
      <trkpt lat="42.90039" lon="1.83545">
        <ele>699.49633789062</ele>
        <time>2012-04-08T06:38:06Z</time>
      </trkpt>
      <trkpt lat="42.90034" lon="1.83538">
        <ele>702.38037109375</ele>
        <time>2012-04-08T06:38:10Z</time>
      </trkpt>
      <trkpt lat="42.90023" lon="1.83535">
        <ele>701.89990234375</ele>
        <time>2012-04-08T06:38:17Z</time>
      </trkpt>
      <trkpt lat="42.90015" lon="1.83534">
        <ele>703.82250976562</ele>
        <time>2012-04-08T06:38:23Z</time>
      </trkpt>
      <trkpt lat="42.9001" lon="1.83534">
        <ele>704.78369140625</ele>
        <time>2012-04-08T06:38:29Z</time>
      </trkpt>
      <trkpt lat="42.90007" lon="1.83532">
        <ele>704.30322265625</ele>
        <time>2012-04-08T06:38:32Z</time>
      </trkpt>
      <trkpt lat="42.90002" lon="1.83529">
        <ele>705.7451171875</ele>
        <time>2012-04-08T06:38:36Z</time>
      </trkpt>
      <trkpt lat="42.89992" lon="1.8352">
        <ele>704.78369140625</ele>
        <time>2012-04-08T06:38:44Z</time>
      </trkpt>
      <trkpt lat="42.89989" lon="1.83515">
        <ele>705.7451171875</ele>
        <time>2012-04-08T06:38:46Z</time>
      </trkpt>
      <trkpt lat="42.89981" lon="1.83508">
        <ele>709.59033203125</ele>
        <time>2012-04-08T06:38:51Z</time>
      </trkpt>
      <trkpt lat="42.89977" lon="1.83507">
        <ele>712.47412109375</ele>
        <time>2012-04-08T06:38:55Z</time>
      </trkpt>
      <trkpt lat="42.89973" lon="1.83503">
        <ele>715.35815429688</ele>
        <time>2012-04-08T06:38:59Z</time>
      </trkpt>
      <trkpt lat="42.89971" lon="1.83502">
        <ele>715.8388671875</ele>
        <time>2012-04-08T06:39:01Z</time>
      </trkpt>
      <trkpt lat="42.89967" lon="1.83496">
        <ele>716.80029296875</ele>
        <time>2012-04-08T06:39:08Z</time>
      </trkpt>
      <trkpt lat="42.89957" lon="1.83492">
        <ele>721.60668945312</ele>
        <time>2012-04-08T06:39:16Z</time>
      </trkpt>
      <trkpt lat="42.89951" lon="1.83489">
        <ele>724.01000976562</ele>
        <time>2012-04-08T06:39:21Z</time>
      </trkpt>
      <trkpt lat="42.89948" lon="1.83485">
        <ele>725.45190429688</ele>
        <time>2012-04-08T06:39:25Z</time>
      </trkpt>
      <trkpt lat="42.89947" lon="1.83478">
        <ele>724.97143554688</ele>
        <time>2012-04-08T06:39:33Z</time>
      </trkpt>
      <trkpt lat="42.89949" lon="1.83474">
        <ele>728.3359375</ele>
        <time>2012-04-08T06:39:39Z</time>
      </trkpt>
      <trkpt lat="42.89952" lon="1.83471">
        <ele>732.18139648438</ele>
        <time>2012-04-08T06:39:45Z</time>
      </trkpt>
      <trkpt lat="42.89953" lon="1.83463">
        <ele>734.10400390625</ele>
        <time>2012-04-08T06:39:52Z</time>
      </trkpt>
      <trkpt lat="42.89951" lon="1.83458">
        <ele>735.0654296875</ele>
        <time>2012-04-08T06:39:58Z</time>
      </trkpt>
      <trkpt lat="42.89949" lon="1.83454">
        <ele>736.02661132812</ele>
        <time>2012-04-08T06:40:03Z</time>
      </trkpt>
      <trkpt lat="42.89944" lon="1.8345">
        <ele>736.98779296875</ele>
        <time>2012-04-08T06:40:09Z</time>
      </trkpt>
      <trkpt lat="42.8994" lon="1.83443">
        <ele>735.0654296875</ele>
        <time>2012-04-08T06:40:17Z</time>
      </trkpt>
      <trkpt lat="42.89937" lon="1.83437">
        <ele>734.10400390625</ele>
        <time>2012-04-08T06:40:24Z</time>
      </trkpt>
      <trkpt lat="42.89937" lon="1.83432">
        <ele>736.98779296875</ele>
        <time>2012-04-08T06:40:30Z</time>
      </trkpt>
      <trkpt lat="42.89936" lon="1.83428">
        <ele>737.94921875</ele>
        <time>2012-04-08T06:40:36Z</time>
      </trkpt>
      <trkpt lat="42.89933" lon="1.83423">
        <ele>737.46850585938</ele>
        <time>2012-04-08T06:40:42Z</time>
      </trkpt>
      <trkpt lat="42.89931" lon="1.83417">
        <ele>736.98779296875</ele>
        <time>2012-04-08T06:40:47Z</time>
      </trkpt>
      <trkpt lat="42.8993" lon="1.8341">
        <ele>736.50732421875</ele>
        <time>2012-04-08T06:40:53Z</time>
      </trkpt>
      <trkpt lat="42.89928" lon="1.83402">
        <ele>737.46850585938</ele>
        <time>2012-04-08T06:41:02Z</time>
      </trkpt>
      <trkpt lat="42.89926" lon="1.83398">
        <ele>737.46850585938</ele>
        <time>2012-04-08T06:41:07Z</time>
      </trkpt>
      <trkpt lat="42.89922" lon="1.83391">
        <ele>737.94921875</ele>
        <time>2012-04-08T06:41:13Z</time>
      </trkpt>
      <trkpt lat="42.8992" lon="1.83386">
        <ele>737.94921875</ele>
        <time>2012-04-08T06:41:17Z</time>
      </trkpt>
      <trkpt lat="42.89915" lon="1.83381">
        <ele>739.87182617188</ele>
        <time>2012-04-08T06:41:24Z</time>
      </trkpt>
      <trkpt lat="42.89912" lon="1.83379">
        <ele>741.31372070312</ele>
        <time>2012-04-08T06:41:26Z</time>
      </trkpt>
      <trkpt lat="42.89911" lon="1.83377">
        <ele>742.27514648438</ele>
        <time>2012-04-08T06:41:28Z</time>
      </trkpt>
      <trkpt lat="42.89904" lon="1.83374">
        <ele>745.6396484375</ele>
        <time>2012-04-08T06:41:36Z</time>
      </trkpt>
      <trkpt lat="42.89899" lon="1.83369">
        <ele>751.88842773438</ele>
        <time>2012-04-08T06:41:43Z</time>
      </trkpt>
      <trkpt lat="42.89894" lon="1.83368">
        <ele>756.21411132812</ele>
        <time>2012-04-08T06:41:51Z</time>
      </trkpt>
      <trkpt lat="42.89889" lon="1.8337">
        <ele>757.65625</ele>
        <time>2012-04-08T06:41:59Z</time>
      </trkpt>
      <trkpt lat="42.89883" lon="1.83369">
        <ele>758.13696289062</ele>
        <time>2012-04-08T06:42:05Z</time>
      </trkpt>
      <trkpt lat="42.89877" lon="1.83366">
        <ele>761.02075195312</ele>
        <time>2012-04-08T06:42:12Z</time>
      </trkpt>
      <trkpt lat="42.89872" lon="1.83362">
        <ele>762.46264648438</ele>
        <time>2012-04-08T06:42:19Z</time>
      </trkpt>
      <trkpt lat="42.89871" lon="1.83355">
        <ele>764.8662109375</ele>
        <time>2012-04-08T06:42:25Z</time>
      </trkpt>
      <trkpt lat="42.89869" lon="1.83348">
        <ele>765.34692382812</ele>
        <time>2012-04-08T06:42:32Z</time>
      </trkpt>
      <trkpt lat="42.89863" lon="1.83344">
        <ele>764.38549804688</ele>
        <time>2012-04-08T06:42:38Z</time>
      </trkpt>
      <trkpt lat="42.8986" lon="1.83342">
        <ele>764.38549804688</ele>
        <time>2012-04-08T06:42:41Z</time>
      </trkpt>
      <trkpt lat="42.89854" lon="1.83342">
        <ele>765.34692382812</ele>
        <time>2012-04-08T06:42:49Z</time>
      </trkpt>
      <trkpt lat="42.8985" lon="1.83341">
        <ele>768.23071289062</ele>
        <time>2012-04-08T06:42:54Z</time>
      </trkpt>
      <trkpt lat="42.89845" lon="1.83341">
        <ele>770.63403320312</ele>
        <time>2012-04-08T06:43:00Z</time>
      </trkpt>
      <trkpt lat="42.8984" lon="1.83339">
        <ele>771.59521484375</ele>
        <time>2012-04-08T06:43:07Z</time>
      </trkpt>
      <trkpt lat="42.89834" lon="1.83339">
        <ele>773.51806640625</ele>
        <time>2012-04-08T06:43:12Z</time>
      </trkpt>
      <trkpt lat="42.89825" lon="1.83339">
        <ele>774.9599609375</ele>
        <time>2012-04-08T06:43:20Z</time>
      </trkpt>
      <trkpt lat="42.89824" lon="1.83339">
        <ele>774.9599609375</ele>
        <time>2012-04-08T06:43:21Z</time>
      </trkpt>
      <trkpt lat="42.89822" lon="1.83339">
        <ele>774.47924804688</ele>
        <time>2012-04-08T06:43:23Z</time>
      </trkpt>
      <trkpt lat="42.89814" lon="1.8334">
        <ele>777.84375</ele>
        <time>2012-04-08T06:43:32Z</time>
      </trkpt>
      <trkpt lat="42.89807" lon="1.83342">
        <ele>778.32446289062</ele>
        <time>2012-04-08T06:43:41Z</time>
      </trkpt>
      <trkpt lat="42.89801" lon="1.83343">
        <ele>780.72802734375</ele>
        <time>2012-04-08T06:43:48Z</time>
      </trkpt>
      <trkpt lat="42.89796" lon="1.83339">
        <ele>782.65063476562</ele>
        <time>2012-04-08T06:43:54Z</time>
      </trkpt>
      <trkpt lat="42.8979" lon="1.83334">
        <ele>782.169921875</ele>
        <time>2012-04-08T06:44:01Z</time>
      </trkpt>
      <trkpt lat="42.8979" lon="1.83333">
        <ele>782.65063476562</ele>
        <time>2012-04-08T06:44:02Z</time>
      </trkpt>
      <trkpt lat="42.89785" lon="1.83327">
        <ele>782.65063476562</ele>
        <time>2012-04-08T06:44:09Z</time>
      </trkpt>
      <trkpt lat="42.89784" lon="1.83326">
        <ele>783.13110351562</ele>
        <time>2012-04-08T06:44:10Z</time>
      </trkpt>
      <trkpt lat="42.8978" lon="1.83326">
        <ele>785.53442382812</ele>
        <time>2012-04-08T06:44:16Z</time>
      </trkpt>
      <trkpt lat="42.89772" lon="1.83328">
        <ele>790.34106445312</ele>
        <time>2012-04-08T06:44:23Z</time>
      </trkpt>
      <trkpt lat="42.89766" lon="1.8333">
        <ele>793.22485351562</ele>
        <time>2012-04-08T06:44:31Z</time>
      </trkpt>
      <trkpt lat="42.8976" lon="1.83332">
        <ele>792.74438476562</ele>
        <time>2012-04-08T06:44:37Z</time>
      </trkpt>
      <trkpt lat="42.89754" lon="1.83333">
        <ele>794.66674804688</ele>
        <time>2012-04-08T06:44:45Z</time>
      </trkpt>
      <trkpt lat="42.8975" lon="1.83333">
        <ele>794.66674804688</ele>
        <time>2012-04-08T06:44:50Z</time>
      </trkpt>
      <trkpt lat="42.89746" lon="1.83333">
        <ele>796.10913085938</ele>
        <time>2012-04-08T06:44:55Z</time>
      </trkpt>
      <trkpt lat="42.89742" lon="1.83332">
        <ele>796.58984375</ele>
        <time>2012-04-08T06:45:00Z</time>
      </trkpt>
      <trkpt lat="42.89735" lon="1.83328">
        <ele>798.03173828125</ele>
        <time>2012-04-08T06:45:08Z</time>
      </trkpt>
      <trkpt lat="42.89725" lon="1.83329">
        <ele>800.91552734375</ele>
        <time>2012-04-08T06:45:17Z</time>
      </trkpt>
      <trkpt lat="42.89719" lon="1.8333">
        <ele>801.39624023438</ele>
        <time>2012-04-08T06:45:23Z</time>
      </trkpt>
      <trkpt lat="42.89712" lon="1.83334">
        <ele>803.31884765625</ele>
        <time>2012-04-08T06:45:31Z</time>
      </trkpt>
      <trkpt lat="42.89705" lon="1.83338">
        <ele>806.68334960938</ele>
        <time>2012-04-08T06:45:39Z</time>
      </trkpt>
      <trkpt lat="42.89703" lon="1.83339">
        <ele>806.68334960938</ele>
        <time>2012-04-08T06:45:40Z</time>
      </trkpt>
      <trkpt lat="42.89696" lon="1.83339">
        <ele>806.20263671875</ele>
        <time>2012-04-08T06:45:45Z</time>
      </trkpt>
      <trkpt lat="42.89686" lon="1.83341">
        <ele>806.68334960938</ele>
        <time>2012-04-08T06:45:53Z</time>
      </trkpt>
      <trkpt lat="42.89685" lon="1.83342">
        <ele>807.64477539062</ele>
        <time>2012-04-08T06:45:54Z</time>
      </trkpt>
      <trkpt lat="42.89676" lon="1.83342">
        <ele>808.12548828125</ele>
        <time>2012-04-08T06:46:02Z</time>
      </trkpt>
      <trkpt lat="42.89672" lon="1.83342">
        <ele>809.08666992188</ele>
        <time>2012-04-08T06:46:06Z</time>
      </trkpt>
      <trkpt lat="42.89667" lon="1.83339">
        <ele>808.60595703125</ele>
        <time>2012-04-08T06:46:12Z</time>
      </trkpt>
      <trkpt lat="42.89662" lon="1.83336">
        <ele>809.08666992188</ele>
        <time>2012-04-08T06:46:17Z</time>
      </trkpt>
      <trkpt lat="42.89661" lon="1.83336">
        <ele>809.5673828125</ele>
        <time>2012-04-08T06:46:18Z</time>
      </trkpt>
      <trkpt lat="42.89658" lon="1.83335">
        <ele>807.64477539062</ele>
        <time>2012-04-08T06:46:22Z</time>
      </trkpt>
      <trkpt lat="42.89653" lon="1.83329">
        <ele>805.72216796875</ele>
        <time>2012-04-08T06:46:29Z</time>
      </trkpt>
      <trkpt lat="42.89649" lon="1.83322">
        <ele>804.2802734375</ele>
        <time>2012-04-08T06:46:35Z</time>
      </trkpt>
      <trkpt lat="42.89647" lon="1.8332">
        <ele>803.79956054688</ele>
        <time>2012-04-08T06:46:39Z</time>
      </trkpt>
      <trkpt lat="42.89642" lon="1.83314">
        <ele>805.72216796875</ele>
        <time>2012-04-08T06:46:45Z</time>
      </trkpt>
      <trkpt lat="42.89638" lon="1.83311">
        <ele>806.20263671875</ele>
        <time>2012-04-08T06:46:49Z</time>
      </trkpt>
      <trkpt lat="42.89629" lon="1.83308">
        <ele>810.52856445312</ele>
        <time>2012-04-08T06:46:56Z</time>
      </trkpt>
      <trkpt lat="42.89627" lon="1.83307">
        <ele>812.93212890625</ele>
        <time>2012-04-08T06:46:59Z</time>
      </trkpt>
      <trkpt lat="42.89624" lon="1.83303">
        <ele>817.73852539062</ele>
        <time>2012-04-08T06:47:03Z</time>
      </trkpt>
      <trkpt lat="42.89621" lon="1.833">
        <ele>819.66137695312</ele>
        <time>2012-04-08T06:47:08Z</time>
      </trkpt>
      <trkpt lat="42.89618" lon="1.83294">
        <ele>820.62255859375</ele>
        <time>2012-04-08T06:47:12Z</time>
      </trkpt>
      <trkpt lat="42.8961" lon="1.83288">
        <ele>821.10327148438</ele>
        <time>2012-04-08T06:47:20Z</time>
      </trkpt>
      <trkpt lat="42.89602" lon="1.83282">
        <ele>823.98706054688</ele>
        <time>2012-04-08T06:47:28Z</time>
      </trkpt>
      <trkpt lat="42.89594" lon="1.83276">
        <ele>823.98706054688</ele>
        <time>2012-04-08T06:47:34Z</time>
      </trkpt>
      <trkpt lat="42.89592" lon="1.83275">
        <ele>824.4677734375</ele>
        <time>2012-04-08T06:47:36Z</time>
      </trkpt>
      <trkpt lat="42.89585" lon="1.83271">
        <ele>828.7939453125</ele>
        <time>2012-04-08T06:47:43Z</time>
      </trkpt>
      <trkpt lat="42.89583" lon="1.83268">
        <ele>829.2744140625</ele>
        <time>2012-04-08T06:47:48Z</time>
      </trkpt>
      <trkpt lat="42.89579" lon="1.83268">
        <ele>830.71655273438</ele>
        <time>2012-04-08T06:47:51Z</time>
      </trkpt>
      <trkpt lat="42.89572" lon="1.83266">
        <ele>834.56176757812</ele>
        <time>2012-04-08T06:47:57Z</time>
      </trkpt>
      <trkpt lat="42.8957" lon="1.83265">
        <ele>834.56176757812</ele>
        <time>2012-04-08T06:47:59Z</time>
      </trkpt>
      <trkpt lat="42.89565" lon="1.83261">
        <ele>837.92626953125</ele>
        <time>2012-04-08T06:48:05Z</time>
      </trkpt>
      <trkpt lat="42.89562" lon="1.8326">
        <ele>837.92626953125</ele>
        <time>2012-04-08T06:48:08Z</time>
      </trkpt>
      <trkpt lat="42.89559" lon="1.83259">
        <ele>837.44555664062</ele>
        <time>2012-04-08T06:48:11Z</time>
      </trkpt>
      <trkpt lat="42.89549" lon="1.83254">
        <ele>837.44555664062</ele>
        <time>2012-04-08T06:48:20Z</time>
      </trkpt>
      <trkpt lat="42.89544" lon="1.83249">
        <ele>836.00366210938</ele>
        <time>2012-04-08T06:48:27Z</time>
      </trkpt>
      <trkpt lat="42.89542" lon="1.83248">
        <ele>836.484375</ele>
        <time>2012-04-08T06:48:28Z</time>
      </trkpt>
      <trkpt lat="42.89537" lon="1.83241">
        <ele>839.84887695312</ele>
        <time>2012-04-08T06:48:34Z</time>
      </trkpt>
      <trkpt lat="42.89531" lon="1.8324">
        <ele>839.3681640625</ele>
        <time>2012-04-08T06:48:41Z</time>
      </trkpt>
      <trkpt lat="42.89526" lon="1.83233">
        <ele>839.3681640625</ele>
        <time>2012-04-08T06:48:48Z</time>
      </trkpt>
      <trkpt lat="42.89521" lon="1.83227">
        <ele>843.69409179688</ele>
        <time>2012-04-08T06:48:55Z</time>
      </trkpt>
      <trkpt lat="42.89513" lon="1.83225">
        <ele>849.94287109375</ele>
        <time>2012-04-08T06:49:02Z</time>
      </trkpt>
      <trkpt lat="42.89512" lon="1.83225">
        <ele>850.42358398438</ele>
        <time>2012-04-08T06:49:03Z</time>
      </trkpt>
      <trkpt lat="42.89505" lon="1.83222">
        <ele>852.82666015625</ele>
        <time>2012-04-08T06:49:08Z</time>
      </trkpt>
      <trkpt lat="42.89501" lon="1.83221">
        <ele>852.34594726562</ele>
        <time>2012-04-08T06:49:12Z</time>
      </trkpt>
      <trkpt lat="42.89496" lon="1.83214">
        <ele>851.86547851562</ele>
        <time>2012-04-08T06:49:20Z</time>
      </trkpt>
      <trkpt lat="42.89495" lon="1.83212">
        <ele>851.86547851562</ele>
        <time>2012-04-08T06:49:21Z</time>
      </trkpt>
      <trkpt lat="42.89489" lon="1.83204">
        <ele>850.90405273438</ele>
        <time>2012-04-08T06:49:29Z</time>
      </trkpt>
      <trkpt lat="42.89487" lon="1.83203">
        <ele>851.384765625</ele>
        <time>2012-04-08T06:49:30Z</time>
      </trkpt>
      <trkpt lat="42.89486" lon="1.83201">
        <ele>850.90405273438</ele>
        <time>2012-04-08T06:49:33Z</time>
      </trkpt>
      <trkpt lat="42.89484" lon="1.83195">
        <ele>852.34594726562</ele>
        <time>2012-04-08T06:49:40Z</time>
      </trkpt>
      <trkpt lat="42.89483" lon="1.83188">
        <ele>853.30737304688</ele>
        <time>2012-04-08T06:49:45Z</time>
      </trkpt>
      <trkpt lat="42.8948" lon="1.83183">
        <ele>856.671875</ele>
        <time>2012-04-08T06:49:50Z</time>
      </trkpt>
      <trkpt lat="42.89477" lon="1.83179">
        <ele>858.11401367188</ele>
        <time>2012-04-08T06:49:56Z</time>
      </trkpt>
      <trkpt lat="42.89476" lon="1.83179">
        <ele>857.63330078125</ele>
        <time>2012-04-08T06:49:57Z</time>
      </trkpt>
      <trkpt lat="42.89473" lon="1.83174">
        <ele>857.63330078125</ele>
        <time>2012-04-08T06:50:02Z</time>
      </trkpt>
      <trkpt lat="42.89468" lon="1.83169">
        <ele>860.998046875</ele>
        <time>2012-04-08T06:50:07Z</time>
      </trkpt>
      <trkpt lat="42.89465" lon="1.83166">
        <ele>862.43994140625</ele>
        <time>2012-04-08T06:50:11Z</time>
      </trkpt>
      <trkpt lat="42.89459" lon="1.83155">
        <ele>863.8818359375</ele>
        <time>2012-04-08T06:50:18Z</time>
      </trkpt>
      <trkpt lat="42.89455" lon="1.83146">
        <ele>863.4013671875</ele>
        <time>2012-04-08T06:50:24Z</time>
      </trkpt>
      <trkpt lat="42.89454" lon="1.83145">
        <ele>863.4013671875</ele>
        <time>2012-04-08T06:50:26Z</time>
      </trkpt>
      <trkpt lat="42.89448" lon="1.83139">
        <ele>860.998046875</ele>
        <time>2012-04-08T06:50:32Z</time>
      </trkpt>
      <trkpt lat="42.89444" lon="1.83133">
        <ele>857.63330078125</ele>
        <time>2012-04-08T06:50:38Z</time>
      </trkpt>
      <trkpt lat="42.8944" lon="1.83125">
        <ele>857.63330078125</ele>
        <time>2012-04-08T06:50:45Z</time>
      </trkpt>
      <trkpt lat="42.89436" lon="1.83121">
        <ele>858.11401367188</ele>
        <time>2012-04-08T06:50:50Z</time>
      </trkpt>
      <trkpt lat="42.89434" lon="1.83119">
        <ele>860.03662109375</ele>
        <time>2012-04-08T06:50:53Z</time>
      </trkpt>
      <trkpt lat="42.89429" lon="1.8311">
        <ele>863.8818359375</ele>
        <time>2012-04-08T06:50:59Z</time>
      </trkpt>
      <trkpt lat="42.89423" lon="1.83106">
        <ele>865.8046875</ele>
        <time>2012-04-08T06:51:04Z</time>
      </trkpt>
      <trkpt lat="42.8942" lon="1.83099">
        <ele>870.61108398438</ele>
        <time>2012-04-08T06:51:09Z</time>
      </trkpt>
      <trkpt lat="42.89415" lon="1.83089">
        <ele>872.53369140625</ele>
        <time>2012-04-08T06:51:16Z</time>
      </trkpt>
      <trkpt lat="42.8941" lon="1.83078">
        <ele>876.85986328125</ele>
        <time>2012-04-08T06:51:23Z</time>
      </trkpt>
      <trkpt lat="42.8941" lon="1.83077">
        <ele>876.85986328125</ele>
        <time>2012-04-08T06:51:24Z</time>
      </trkpt>
      <trkpt lat="42.89406" lon="1.83068">
        <ele>879.74365234375</ele>
        <time>2012-04-08T06:51:31Z</time>
      </trkpt>
      <trkpt lat="42.894" lon="1.83059">
        <ele>883.5888671875</ele>
        <time>2012-04-08T06:51:38Z</time>
      </trkpt>
      <trkpt lat="42.89398" lon="1.83057">
        <ele>886.95336914062</ele>
        <time>2012-04-08T06:51:40Z</time>
      </trkpt>
      <trkpt lat="42.89396" lon="1.83052">
        <ele>888.3955078125</ele>
        <time>2012-04-08T06:51:44Z</time>
      </trkpt>
      <trkpt lat="42.89395" lon="1.8305">
        <ele>888.87622070312</ele>
        <time>2012-04-08T06:51:46Z</time>
      </trkpt>
      <trkpt lat="42.89393" lon="1.83047">
        <ele>888.3955078125</ele>
        <time>2012-04-08T06:51:49Z</time>
      </trkpt>
      <trkpt lat="42.89389" lon="1.83043">
        <ele>887.43408203125</ele>
        <time>2012-04-08T06:51:53Z</time>
      </trkpt>
      <trkpt lat="42.89387" lon="1.83041">
        <ele>887.43408203125</ele>
        <time>2012-04-08T06:51:56Z</time>
      </trkpt>
      <trkpt lat="42.89385" lon="1.83036">
        <ele>886.95336914062</ele>
        <time>2012-04-08T06:52:00Z</time>
      </trkpt>
      <trkpt lat="42.89381" lon="1.83028">
        <ele>886.47290039062</ele>
        <time>2012-04-08T06:52:07Z</time>
      </trkpt>
      <trkpt lat="42.89376" lon="1.83021">
        <ele>886.95336914062</ele>
        <time>2012-04-08T06:52:14Z</time>
      </trkpt>
      <trkpt lat="42.89376" lon="1.83019">
        <ele>887.91479492188</ele>
        <time>2012-04-08T06:52:15Z</time>
      </trkpt>
      <trkpt lat="42.89375" lon="1.83014">
        <ele>889.83740234375</ele>
        <time>2012-04-08T06:52:19Z</time>
      </trkpt>
      <trkpt lat="42.89372" lon="1.8301">
        <ele>890.79858398438</ele>
        <time>2012-04-08T06:52:22Z</time>
      </trkpt>
      <trkpt lat="42.89371" lon="1.83002">
        <ele>892.7216796875</ele>
        <time>2012-04-08T06:52:27Z</time>
      </trkpt>
      <trkpt lat="42.89367" lon="1.82995">
        <ele>891.76000976562</ele>
        <time>2012-04-08T06:52:33Z</time>
      </trkpt>
      <trkpt lat="42.89365" lon="1.82991">
        <ele>892.24096679688</ele>
        <time>2012-04-08T06:52:36Z</time>
      </trkpt>
      <trkpt lat="42.89363" lon="1.82984">
        <ele>890.79858398438</ele>
        <time>2012-04-08T06:52:41Z</time>
      </trkpt>
      <trkpt lat="42.89363" lon="1.8298">
        <ele>890.79858398438</ele>
        <time>2012-04-08T06:52:43Z</time>
      </trkpt>
      <trkpt lat="42.8936" lon="1.82975">
        <ele>891.76000976562</ele>
        <time>2012-04-08T06:52:47Z</time>
      </trkpt>
      <trkpt lat="42.89357" lon="1.82973">
        <ele>893.68286132812</ele>
        <time>2012-04-08T06:52:51Z</time>
      </trkpt>
      <trkpt lat="42.89354" lon="1.8298">
        <ele>895.60546875</ele>
        <time>2012-04-08T06:52:58Z</time>
      </trkpt>
      <trkpt lat="42.89351" lon="1.82986">
        <ele>900.412109375</ele>
        <time>2012-04-08T06:53:03Z</time>
      </trkpt>
      <trkpt lat="42.8935" lon="1.8299">
        <ele>902.81518554688</ele>
        <time>2012-04-08T06:53:07Z</time>
      </trkpt>
      <trkpt lat="42.89347" lon="1.82996">
        <ele>906.1796875</ele>
        <time>2012-04-08T06:53:14Z</time>
      </trkpt>
      <trkpt lat="42.89344" lon="1.83003">
        <ele>907.62182617188</ele>
        <time>2012-04-08T06:53:20Z</time>
      </trkpt>
      <trkpt lat="42.89342" lon="1.83012">
        <ele>910.505859375</ele>
        <time>2012-04-08T06:53:25Z</time>
      </trkpt>
      <trkpt lat="42.89341" lon="1.83014">
        <ele>911.94799804688</ele>
        <time>2012-04-08T06:53:26Z</time>
      </trkpt>
      <trkpt lat="42.89338" lon="1.83019">
        <ele>913.38989257812</ele>
        <time>2012-04-08T06:53:30Z</time>
      </trkpt>
      <trkpt lat="42.89334" lon="1.83028">
        <ele>915.3125</ele>
        <time>2012-04-08T06:53:37Z</time>
      </trkpt>
      <trkpt lat="42.89333" lon="1.83029">
        <ele>915.79321289062</ele>
        <time>2012-04-08T06:53:38Z</time>
      </trkpt>
      <trkpt lat="42.8933" lon="1.8304">
        <ele>919.63842773438</ele>
        <time>2012-04-08T06:53:45Z</time>
      </trkpt>
      <trkpt lat="42.89328" lon="1.83048">
        <ele>920.599609375</ele>
        <time>2012-04-08T06:53:48Z</time>
      </trkpt>
      <trkpt lat="42.89322" lon="1.83063">
        <ele>922.52221679688</ele>
        <time>2012-04-08T06:53:54Z</time>
      </trkpt>
      <trkpt lat="42.89317" lon="1.83072">
        <ele>925.88696289062</ele>
        <time>2012-04-08T06:53:59Z</time>
      </trkpt>
      <trkpt lat="42.89313" lon="1.83078">
        <ele>928.29028320312</ele>
        <time>2012-04-08T06:54:02Z</time>
      </trkpt>
      <trkpt lat="42.89309" lon="1.83087">
        <ele>929.73217773438</ele>
        <time>2012-04-08T06:54:07Z</time>
      </trkpt>
      <trkpt lat="42.89307" lon="1.83096">
        <ele>928.77099609375</ele>
        <time>2012-04-08T06:54:14Z</time>
      </trkpt>
      <trkpt lat="42.89302" lon="1.83107">
        <ele>927.8095703125</ele>
        <time>2012-04-08T06:54:22Z</time>
      </trkpt>
      <trkpt lat="42.89296" lon="1.83112">
        <ele>926.36767578125</ele>
        <time>2012-04-08T06:54:29Z</time>
      </trkpt>
      <trkpt lat="42.89288" lon="1.83119">
        <ele>927.3291015625</ele>
        <time>2012-04-08T06:54:33Z</time>
      </trkpt>
      <trkpt lat="42.89279" lon="1.83127">
        <ele>923.48364257812</ele>
        <time>2012-04-08T06:54:38Z</time>
      </trkpt>
      <trkpt lat="42.89274" lon="1.83137">
        <ele>922.52221679688</ele>
        <time>2012-04-08T06:54:41Z</time>
      </trkpt>
      <trkpt lat="42.89268" lon="1.83151">
        <ele>923.0029296875</ele>
        <time>2012-04-08T06:54:46Z</time>
      </trkpt>
      <trkpt lat="42.89263" lon="1.8316">
        <ele>924.44506835938</ele>
        <time>2012-04-08T06:54:49Z</time>
      </trkpt>
      <trkpt lat="42.89251" lon="1.83178">
        <ele>924.44506835938</ele>
        <time>2012-04-08T06:54:55Z</time>
      </trkpt>
      <trkpt lat="42.89241" lon="1.83194">
        <ele>924.92578125</ele>
        <time>2012-04-08T06:55:00Z</time>
      </trkpt>
      <trkpt lat="42.89235" lon="1.83209">
        <ele>925.88696289062</ele>
        <time>2012-04-08T06:55:04Z</time>
      </trkpt>
      <trkpt lat="42.89233" lon="1.83218">
        <ele>925.40625</ele>
        <time>2012-04-08T06:55:08Z</time>
      </trkpt>
      <trkpt lat="42.89228" lon="1.83233">
        <ele>923.96411132812</ele>
        <time>2012-04-08T06:55:13Z</time>
      </trkpt>
      <trkpt lat="42.89222" lon="1.83249">
        <ele>923.0029296875</ele>
        <time>2012-04-08T06:55:18Z</time>
      </trkpt>
      <trkpt lat="42.89214" lon="1.83268">
        <ele>921.56079101562</ele>
        <time>2012-04-08T06:55:23Z</time>
      </trkpt>
      <trkpt lat="42.89202" lon="1.83282">
        <ele>923.0029296875</ele>
        <time>2012-04-08T06:55:28Z</time>
      </trkpt>
      <trkpt lat="42.89198" lon="1.83291">
        <ele>924.44506835938</ele>
        <time>2012-04-08T06:55:32Z</time>
      </trkpt>
      <trkpt lat="42.89188" lon="1.833">
        <ele>923.48364257812</ele>
        <time>2012-04-08T06:55:37Z</time>
      </trkpt>
      <trkpt lat="42.89177" lon="1.83312">
        <ele>923.96411132812</ele>
        <time>2012-04-08T06:55:43Z</time>
      </trkpt>
      <trkpt lat="42.89162" lon="1.83322">
        <ele>923.0029296875</ele>
        <time>2012-04-08T06:55:48Z</time>
      </trkpt>
      <trkpt lat="42.89152" lon="1.83333">
        <ele>921.56079101562</ele>
        <time>2012-04-08T06:55:52Z</time>
      </trkpt>
      <trkpt lat="42.89148" lon="1.83337">
        <ele>918.1962890625</ele>
        <time>2012-04-08T06:55:54Z</time>
      </trkpt>
      <trkpt lat="42.89139" lon="1.83349">
        <ele>915.3125</ele>
        <time>2012-04-08T06:55:59Z</time>
      </trkpt>
      <trkpt lat="42.89124" lon="1.83355">
        <ele>913.87036132812</ele>
        <time>2012-04-08T06:56:05Z</time>
      </trkpt>
      <trkpt lat="42.89122" lon="1.83355">
        <ele>913.87036132812</ele>
        <time>2012-04-08T06:56:06Z</time>
      </trkpt>
      <trkpt lat="42.89114" lon="1.83346">
        <ele>915.3125</ele>
        <time>2012-04-08T06:56:11Z</time>
      </trkpt>
      <trkpt lat="42.89108" lon="1.83343">
        <ele>915.3125</ele>
        <time>2012-04-08T06:56:15Z</time>
      </trkpt>
      <trkpt lat="42.89104" lon="1.83338">
        <ele>913.38989257812</ele>
        <time>2012-04-08T06:56:20Z</time>
      </trkpt>
      <trkpt lat="42.89102" lon="1.83329">
        <ele>914.83178710938</ele>
        <time>2012-04-08T06:56:25Z</time>
      </trkpt>
      <trkpt lat="42.89097" lon="1.8332">
        <ele>915.79321289062</ele>
        <time>2012-04-08T06:56:29Z</time>
      </trkpt>
      <trkpt lat="42.89088" lon="1.8331">
        <ele>914.35107421875</ele>
        <time>2012-04-08T06:56:34Z</time>
      </trkpt>
      <trkpt lat="42.89085" lon="1.83306">
        <ele>914.83178710938</ele>
        <time>2012-04-08T06:56:36Z</time>
      </trkpt>
      <trkpt lat="42.89074" lon="1.83295">
        <ele>914.83178710938</ele>
        <time>2012-04-08T06:56:43Z</time>
      </trkpt>
      <trkpt lat="42.89064" lon="1.83289">
        <ele>918.67700195312</ele>
        <time>2012-04-08T06:56:49Z</time>
      </trkpt>
      <trkpt lat="42.89055" lon="1.83282">
        <ele>919.63842773438</ele>
        <time>2012-04-08T06:56:54Z</time>
      </trkpt>
      <trkpt lat="42.89053" lon="1.83282">
        <ele>920.599609375</ele>
        <time>2012-04-08T06:56:55Z</time>
      </trkpt>
      <trkpt lat="42.89045" lon="1.83272">
        <ele>923.48364257812</ele>
        <time>2012-04-08T06:57:01Z</time>
      </trkpt>
      <trkpt lat="42.8904" lon="1.83264">
        <ele>923.48364257812</ele>
        <time>2012-04-08T06:57:05Z</time>
      </trkpt>
      <trkpt lat="42.89032" lon="1.8326">
        <ele>925.40625</ele>
        <time>2012-04-08T06:57:09Z</time>
      </trkpt>
      <trkpt lat="42.89026" lon="1.83251">
        <ele>925.88696289062</ele>
        <time>2012-04-08T06:57:12Z</time>
      </trkpt>
      <trkpt lat="42.89016" lon="1.83238">
        <ele>928.77099609375</ele>
        <time>2012-04-08T06:57:18Z</time>
      </trkpt>
      <trkpt lat="42.89005" lon="1.83232">
        <ele>931.17431640625</ele>
        <time>2012-04-08T06:57:23Z</time>
      </trkpt>
      <trkpt lat="42.88996" lon="1.83227">
        <ele>932.13549804688</ele>
        <time>2012-04-08T06:57:27Z</time>
      </trkpt>
      <trkpt lat="42.88988" lon="1.83226">
        <ele>932.13549804688</ele>
        <time>2012-04-08T06:57:30Z</time>
      </trkpt>
      <trkpt lat="42.88977" lon="1.83227">
        <ele>934.05810546875</ele>
        <time>2012-04-08T06:57:35Z</time>
      </trkpt>
      <trkpt lat="42.88973" lon="1.83228">
        <ele>931.17431640625</ele>
        <time>2012-04-08T06:57:40Z</time>
      </trkpt>
      <trkpt lat="42.88963" lon="1.83227">
        <ele>929.73217773438</ele>
        <time>2012-04-08T06:57:45Z</time>
      </trkpt>
      <trkpt lat="42.88949" lon="1.83222">
        <ele>931.17431640625</ele>
        <time>2012-04-08T06:57:51Z</time>
      </trkpt>
      <trkpt lat="42.88936" lon="1.8322">
        <ele>925.88696289062</ele>
        <time>2012-04-08T06:57:57Z</time>
      </trkpt>
      <trkpt lat="42.88923" lon="1.83219">
        <ele>923.0029296875</ele>
        <time>2012-04-08T06:58:03Z</time>
      </trkpt>
      <trkpt lat="42.8891" lon="1.83218">
        <ele>922.04150390625</ele>
        <time>2012-04-08T06:58:09Z</time>
      </trkpt>
      <trkpt lat="42.88895" lon="1.83215">
        <ele>923.0029296875</ele>
        <time>2012-04-08T06:58:15Z</time>
      </trkpt>
      <trkpt lat="42.88885" lon="1.83213">
        <ele>923.48364257812</ele>
        <time>2012-04-08T06:58:20Z</time>
      </trkpt>
      <trkpt lat="42.88876" lon="1.83212">
        <ele>924.92578125</ele>
        <time>2012-04-08T06:58:24Z</time>
      </trkpt>
      <trkpt lat="42.88872" lon="1.83211">
        <ele>924.92578125</ele>
        <time>2012-04-08T06:58:26Z</time>
      </trkpt>
      <trkpt lat="42.88861" lon="1.83212">
        <ele>925.40625</ele>
        <time>2012-04-08T06:58:31Z</time>
      </trkpt>
      <trkpt lat="42.88854" lon="1.8321">
        <ele>924.92578125</ele>
        <time>2012-04-08T06:58:35Z</time>
      </trkpt>
      <trkpt lat="42.8885" lon="1.8321">
        <ele>923.96411132812</ele>
        <time>2012-04-08T06:58:37Z</time>
      </trkpt>
      <trkpt lat="42.88846" lon="1.83212">
        <ele>923.48364257812</ele>
        <time>2012-04-08T06:58:52Z</time>
      </trkpt>
      <trkpt lat="42.88835" lon="1.83216">
        <ele>922.52221679688</ele>
        <time>2012-04-08T06:58:57Z</time>
      </trkpt>
      <trkpt lat="42.88826" lon="1.83217">
        <ele>921.08032226562</ele>
        <time>2012-04-08T06:59:01Z</time>
      </trkpt>
      <trkpt lat="42.88822" lon="1.83218">
        <ele>920.599609375</ele>
        <time>2012-04-08T06:59:03Z</time>
      </trkpt>
      <trkpt lat="42.88809" lon="1.83216">
        <ele>918.67700195312</ele>
        <time>2012-04-08T06:59:09Z</time>
      </trkpt>
      <trkpt lat="42.888" lon="1.83211">
        <ele>915.79321289062</ele>
        <time>2012-04-08T06:59:13Z</time>
      </trkpt>
      <trkpt lat="42.8879" lon="1.832">
        <ele>910.98657226562</ele>
        <time>2012-04-08T06:59:18Z</time>
      </trkpt>
      <trkpt lat="42.88782" lon="1.8319">
        <ele>907.62182617188</ele>
        <time>2012-04-08T06:59:22Z</time>
      </trkpt>
      <trkpt lat="42.88778" lon="1.83185">
        <ele>906.1796875</ele>
        <time>2012-04-08T06:59:24Z</time>
      </trkpt>
      <trkpt lat="42.88768" lon="1.83175">
        <ele>902.81518554688</ele>
        <time>2012-04-08T06:59:28Z</time>
      </trkpt>
      <trkpt lat="42.88759" lon="1.83164">
        <ele>900.412109375</ele>
        <time>2012-04-08T06:59:33Z</time>
      </trkpt>
      <trkpt lat="42.88757" lon="1.83162">
        <ele>900.412109375</ele>
        <time>2012-04-08T06:59:38Z</time>
      </trkpt>
      <trkpt lat="42.88745" lon="1.83153">
        <ele>898.96997070312</ele>
        <time>2012-04-08T06:59:44Z</time>
      </trkpt>
      <trkpt lat="42.88741" lon="1.83147">
        <ele>898.0087890625</ele>
        <time>2012-04-08T06:59:46Z</time>
      </trkpt>
      <trkpt lat="42.88725" lon="1.83128">
        <ele>895.12475585938</ele>
        <time>2012-04-08T06:59:52Z</time>
      </trkpt>
      <trkpt lat="42.88718" lon="1.8312">
        <ele>893.68286132812</ele>
        <time>2012-04-08T06:59:55Z</time>
      </trkpt>
      <trkpt lat="42.88712" lon="1.83106">
        <ele>891.279296875</ele>
        <time>2012-04-08T07:00:01Z</time>
      </trkpt>
      <trkpt lat="42.88706" lon="1.83099">
        <ele>890.31811523438</ele>
        <time>2012-04-08T07:00:04Z</time>
      </trkpt>
      <trkpt lat="42.88698" lon="1.83082">
        <ele>887.91479492188</ele>
        <time>2012-04-08T07:00:10Z</time>
      </trkpt>
      <trkpt lat="42.88694" lon="1.83079">
        <ele>886.47290039062</ele>
        <time>2012-04-08T07:00:12Z</time>
      </trkpt>
      <trkpt lat="42.88683" lon="1.83076">
        <ele>885.03100585938</ele>
        <time>2012-04-08T07:00:17Z</time>
      </trkpt>
      <trkpt lat="42.88673" lon="1.83078">
        <ele>882.62768554688</ele>
        <time>2012-04-08T07:00:22Z</time>
      </trkpt>
      <trkpt lat="42.8867" lon="1.8307">
        <ele>882.14697265625</ele>
        <time>2012-04-08T07:00:26Z</time>
      </trkpt>
      <trkpt lat="42.88665" lon="1.83069">
        <ele>882.14697265625</ele>
        <time>2012-04-08T07:00:29Z</time>
      </trkpt>
      <trkpt lat="42.88659" lon="1.83074">
        <ele>881.66625976562</ele>
        <time>2012-04-08T07:00:32Z</time>
      </trkpt>
      <trkpt lat="42.88647" lon="1.83085">
        <ele>881.66625976562</ele>
        <time>2012-04-08T07:00:37Z</time>
      </trkpt>
      <trkpt lat="42.88635" lon="1.83088">
        <ele>880.705078125</ele>
        <time>2012-04-08T07:00:42Z</time>
      </trkpt>
      <trkpt lat="42.8862" lon="1.83087">
        <ele>877.82104492188</ele>
        <time>2012-04-08T07:00:47Z</time>
      </trkpt>
      <trkpt lat="42.88606" lon="1.83084">
        <ele>875.41748046875</ele>
        <time>2012-04-08T07:00:53Z</time>
      </trkpt>
      <trkpt lat="42.88593" lon="1.83083">
        <ele>871.572265625</ele>
        <time>2012-04-08T07:00:58Z</time>
      </trkpt>
      <trkpt lat="42.88581" lon="1.83086">
        <ele>868.6884765625</ele>
        <time>2012-04-08T07:01:02Z</time>
      </trkpt>
      <trkpt lat="42.8857" lon="1.8309">
        <ele>866.76586914062</ele>
        <time>2012-04-08T07:01:07Z</time>
      </trkpt>
      <trkpt lat="42.88568" lon="1.8309">
        <ele>866.28515625</ele>
        <time>2012-04-08T07:01:08Z</time>
      </trkpt>
      <trkpt lat="42.88558" lon="1.83097">
        <ele>864.84326171875</ele>
        <time>2012-04-08T07:01:13Z</time>
      </trkpt>
      <trkpt lat="42.88555" lon="1.83098">
        <ele>864.84326171875</ele>
        <time>2012-04-08T07:01:14Z</time>
      </trkpt>
      <trkpt lat="42.88541" lon="1.831">
        <ele>863.8818359375</ele>
        <time>2012-04-08T07:01:19Z</time>
      </trkpt>
      <trkpt lat="42.8853" lon="1.83101">
        <ele>865.32397460938</ele>
        <time>2012-04-08T07:01:24Z</time>
      </trkpt>
      <trkpt lat="42.8852" lon="1.83106">
        <ele>864.84326171875</ele>
        <time>2012-04-08T07:01:29Z</time>
      </trkpt>
      <trkpt lat="42.88512" lon="1.8311">
        <ele>866.76586914062</ele>
        <time>2012-04-08T07:01:32Z</time>
      </trkpt>
      <trkpt lat="42.88499" lon="1.8311">
        <ele>870.61108398438</ele>
        <time>2012-04-08T07:01:38Z</time>
      </trkpt>
      <trkpt lat="42.8849" lon="1.83109">
        <ele>873.01440429688</ele>
        <time>2012-04-08T07:01:42Z</time>
      </trkpt>
      <trkpt lat="42.88475" lon="1.83103">
        <ele>875.89819335938</ele>
        <time>2012-04-08T07:01:48Z</time>
      </trkpt>
      <trkpt lat="42.88468" lon="1.83101">
        <ele>878.78247070312</ele>
        <time>2012-04-08T07:01:53Z</time>
      </trkpt>
      <trkpt lat="42.88461" lon="1.83099">
        <ele>880.22436523438</ele>
        <time>2012-04-08T07:01:59Z</time>
      </trkpt>
      <trkpt lat="42.88458" lon="1.83098">
        <ele>881.66625976562</ele>
        <time>2012-04-08T07:02:02Z</time>
      </trkpt>
      <trkpt lat="42.88454" lon="1.83097">
        <ele>882.14697265625</ele>
        <time>2012-04-08T07:02:07Z</time>
      </trkpt>
      <trkpt lat="42.88446" lon="1.83094">
        <ele>880.705078125</ele>
        <time>2012-04-08T07:02:14Z</time>
      </trkpt>
      <trkpt lat="42.88439" lon="1.83094">
        <ele>880.705078125</ele>
        <time>2012-04-08T07:02:20Z</time>
      </trkpt>
      <trkpt lat="42.88435" lon="1.83092">
        <ele>878.78247070312</ele>
        <time>2012-04-08T07:02:24Z</time>
      </trkpt>
      <trkpt lat="42.88426" lon="1.83091">
        <ele>879.26293945312</ele>
        <time>2012-04-08T07:02:31Z</time>
      </trkpt>
      <trkpt lat="42.88418" lon="1.83084">
        <ele>878.78247070312</ele>
        <time>2012-04-08T07:02:37Z</time>
      </trkpt>
      <trkpt lat="42.88412" lon="1.83078">
        <ele>878.78247070312</ele>
        <time>2012-04-08T07:02:42Z</time>
      </trkpt>
      <trkpt lat="42.88411" lon="1.83078">
        <ele>879.26293945312</ele>
        <time>2012-04-08T07:02:43Z</time>
      </trkpt>
      <trkpt lat="42.88399" lon="1.83071">
        <ele>880.705078125</ele>
        <time>2012-04-08T07:02:50Z</time>
      </trkpt>
      <trkpt lat="42.88387" lon="1.83065">
        <ele>884.55029296875</ele>
        <time>2012-04-08T07:02:55Z</time>
      </trkpt>
      <trkpt lat="42.88374" lon="1.83056">
        <ele>890.31811523438</ele>
        <time>2012-04-08T07:03:01Z</time>
      </trkpt>
      <trkpt lat="42.88361" lon="1.83052">
        <ele>892.24096679688</ele>
        <time>2012-04-08T07:03:07Z</time>
      </trkpt>
      <trkpt lat="42.88356" lon="1.83051">
        <ele>894.16357421875</ele>
        <time>2012-04-08T07:03:10Z</time>
      </trkpt>
      <trkpt lat="42.88348" lon="1.8305">
        <ele>898.96997070312</ele>
        <time>2012-04-08T07:03:14Z</time>
      </trkpt>
      <trkpt lat="42.88336" lon="1.8305">
        <ele>902.81518554688</ele>
        <time>2012-04-08T07:03:21Z</time>
      </trkpt>
      <trkpt lat="42.88327" lon="1.83046">
        <ele>901.85400390625</ele>
        <time>2012-04-08T07:03:27Z</time>
      </trkpt>
      <trkpt lat="42.88319" lon="1.83039">
        <ele>901.37329101562</ele>
        <time>2012-04-08T07:03:32Z</time>
      </trkpt>
      <trkpt lat="42.88312" lon="1.83028">
        <ele>899.93139648438</ele>
        <time>2012-04-08T07:03:37Z</time>
      </trkpt>
      <trkpt lat="42.88306" lon="1.83016">
        <ele>898.96997070312</ele>
        <time>2012-04-08T07:03:42Z</time>
      </trkpt>
      <trkpt lat="42.88303" lon="1.83002">
        <ele>898.0087890625</ele>
        <time>2012-04-08T07:03:47Z</time>
      </trkpt>
      <trkpt lat="42.88302" lon="1.82999">
        <ele>897.52807617188</ele>
        <time>2012-04-08T07:03:48Z</time>
      </trkpt>
      <trkpt lat="42.88302" lon="1.82992">
        <ele>895.60546875</ele>
        <time>2012-04-08T07:03:52Z</time>
      </trkpt>
      <trkpt lat="42.88297" lon="1.8298">
        <ele>895.12475585938</ele>
        <time>2012-04-08T07:03:58Z</time>
      </trkpt>
      <trkpt lat="42.88295" lon="1.82975">
        <ele>894.64404296875</ele>
        <time>2012-04-08T07:04:01Z</time>
      </trkpt>
      <trkpt lat="42.88294" lon="1.82969">
        <ele>895.12475585938</ele>
        <time>2012-04-08T07:04:05Z</time>
      </trkpt>
      <trkpt lat="42.88292" lon="1.82963">
        <ele>895.12475585938</ele>
        <time>2012-04-08T07:04:09Z</time>
      </trkpt>
      <trkpt lat="42.8829" lon="1.82959">
        <ele>894.16357421875</ele>
        <time>2012-04-08T07:04:12Z</time>
      </trkpt>
      <trkpt lat="42.88286" lon="1.82951">
        <ele>895.60546875</ele>
        <time>2012-04-08T07:04:18Z</time>
      </trkpt>
      <trkpt lat="42.88283" lon="1.82937">
        <ele>898.4892578125</ele>
        <time>2012-04-08T07:04:25Z</time>
      </trkpt>
      <trkpt lat="42.88282" lon="1.82936">
        <ele>899.45068359375</ele>
        <time>2012-04-08T07:04:26Z</time>
      </trkpt>
      <trkpt lat="42.88277" lon="1.82929">
        <ele>905.21850585938</ele>
        <time>2012-04-08T07:04:32Z</time>
      </trkpt>
      <trkpt lat="42.88276" lon="1.82928">
        <ele>905.21850585938</ele>
        <time>2012-04-08T07:04:33Z</time>
      </trkpt>
      <trkpt lat="42.88272" lon="1.82923">
        <ele>910.505859375</ele>
        <time>2012-04-08T07:04:39Z</time>
      </trkpt>
      <trkpt lat="42.8827" lon="1.82921">
        <ele>913.87036132812</ele>
        <time>2012-04-08T07:04:41Z</time>
      </trkpt>
      <trkpt lat="42.88268" lon="1.82918">
        <ele>915.79321289062</ele>
        <time>2012-04-08T07:04:43Z</time>
      </trkpt>
      <trkpt lat="42.88264" lon="1.82909">
        <ele>916.75439453125</ele>
        <time>2012-04-08T07:04:49Z</time>
      </trkpt>
      <trkpt lat="42.88261" lon="1.82898">
        <ele>918.1962890625</ele>
        <time>2012-04-08T07:04:56Z</time>
      </trkpt>
      <trkpt lat="42.88258" lon="1.82894">
        <ele>920.11889648438</ele>
        <time>2012-04-08T07:04:59Z</time>
      </trkpt>
      <trkpt lat="42.88257" lon="1.82891">
        <ele>919.63842773438</ele>
        <time>2012-04-08T07:05:01Z</time>
      </trkpt>
      <trkpt lat="42.88251" lon="1.82882">
        <ele>918.1962890625</ele>
        <time>2012-04-08T07:05:08Z</time>
      </trkpt>
      <trkpt lat="42.8825" lon="1.82881">
        <ele>917.23510742188</ele>
        <time>2012-04-08T07:05:09Z</time>
      </trkpt>
      <trkpt lat="42.88249" lon="1.82878">
        <ele>915.79321289062</ele>
        <time>2012-04-08T07:05:11Z</time>
      </trkpt>
      <trkpt lat="42.88246" lon="1.82875">
        <ele>917.71557617188</ele>
        <time>2012-04-08T07:05:14Z</time>
      </trkpt>
      <trkpt lat="42.88238" lon="1.82868">
        <ele>917.23510742188</ele>
        <time>2012-04-08T07:05:22Z</time>
      </trkpt>
      <trkpt lat="42.88234" lon="1.82867">
        <ele>918.1962890625</ele>
        <time>2012-04-08T07:05:26Z</time>
      </trkpt>
      <trkpt lat="42.88227" lon="1.82863">
        <ele>919.15771484375</ele>
        <time>2012-04-08T07:05:33Z</time>
      </trkpt>
      <trkpt lat="42.88226" lon="1.82862">
        <ele>919.63842773438</ele>
        <time>2012-04-08T07:05:34Z</time>
      </trkpt>
      <trkpt lat="42.88223" lon="1.82862">
        <ele>920.599609375</ele>
        <time>2012-04-08T07:05:37Z</time>
      </trkpt>
      <trkpt lat="42.88218" lon="1.8286">
        <ele>923.96411132812</ele>
        <time>2012-04-08T07:05:43Z</time>
      </trkpt>
      <trkpt lat="42.88214" lon="1.82859">
        <ele>927.3291015625</ele>
        <time>2012-04-08T07:05:46Z</time>
      </trkpt>
      <trkpt lat="42.88206" lon="1.82861">
        <ele>930.212890625</ele>
        <time>2012-04-08T07:05:53Z</time>
      </trkpt>
      <trkpt lat="42.88203" lon="1.82859">
        <ele>932.6162109375</ele>
        <time>2012-04-08T07:05:57Z</time>
      </trkpt>
      <trkpt lat="42.88199" lon="1.82859">
        <ele>934.05810546875</ele>
        <time>2012-04-08T07:06:02Z</time>
      </trkpt>
      <trkpt lat="42.88194" lon="1.82858">
        <ele>934.53881835938</ele>
        <time>2012-04-08T07:06:08Z</time>
      </trkpt>
      <trkpt lat="42.8819" lon="1.82857">
        <ele>934.53881835938</ele>
        <time>2012-04-08T07:06:14Z</time>
      </trkpt>
      <trkpt lat="42.88187" lon="1.82857">
        <ele>934.53881835938</ele>
        <time>2012-04-08T07:06:19Z</time>
      </trkpt>
      <trkpt lat="42.88182" lon="1.82857">
        <ele>935.01953125</ele>
        <time>2012-04-08T07:06:24Z</time>
      </trkpt>
      <trkpt lat="42.88176" lon="1.82858">
        <ele>935.98071289062</ele>
        <time>2012-04-08T07:06:30Z</time>
      </trkpt>
      <trkpt lat="42.88169" lon="1.82859">
        <ele>936.94189453125</ele>
        <time>2012-04-08T07:06:36Z</time>
      </trkpt>
      <trkpt lat="42.88163" lon="1.82855">
        <ele>936.94189453125</ele>
        <time>2012-04-08T07:06:43Z</time>
      </trkpt>
      <trkpt lat="42.88153" lon="1.8285">
        <ele>937.9033203125</ele>
        <time>2012-04-08T07:06:51Z</time>
      </trkpt>
      <trkpt lat="42.88148" lon="1.82846">
        <ele>938.38403320312</ele>
        <time>2012-04-08T07:06:55Z</time>
      </trkpt>
      <trkpt lat="42.88135" lon="1.82834">
        <ele>936.94189453125</ele>
        <time>2012-04-08T07:07:03Z</time>
      </trkpt>
      <trkpt lat="42.88129" lon="1.8283">
        <ele>936.46142578125</ele>
        <time>2012-04-08T07:07:06Z</time>
      </trkpt>
      <trkpt lat="42.88127" lon="1.82826">
        <ele>936.46142578125</ele>
        <time>2012-04-08T07:07:09Z</time>
      </trkpt>
      <trkpt lat="42.88119" lon="1.82823">
        <ele>936.46142578125</ele>
        <time>2012-04-08T07:07:15Z</time>
      </trkpt>
      <trkpt lat="42.88109" lon="1.82822">
        <ele>935.98071289062</ele>
        <time>2012-04-08T07:07:19Z</time>
      </trkpt>
      <trkpt lat="42.88103" lon="1.8282">
        <ele>936.46142578125</ele>
        <time>2012-04-08T07:07:22Z</time>
      </trkpt>
      <trkpt lat="42.8809" lon="1.82824">
        <ele>936.46142578125</ele>
        <time>2012-04-08T07:07:28Z</time>
      </trkpt>
      <trkpt lat="42.88078" lon="1.82824">
        <ele>935.98071289062</ele>
        <time>2012-04-08T07:07:34Z</time>
      </trkpt>
      <trkpt lat="42.88075" lon="1.82823">
        <ele>935.5</ele>
        <time>2012-04-08T07:07:36Z</time>
      </trkpt>
      <trkpt lat="42.88066" lon="1.82824">
        <ele>935.98071289062</ele>
        <time>2012-04-08T07:07:42Z</time>
      </trkpt>
      <trkpt lat="42.88057" lon="1.82825">
        <ele>937.9033203125</ele>
        <time>2012-04-08T07:07:49Z</time>
      </trkpt>
      <trkpt lat="42.88052" lon="1.82824">
        <ele>939.34521484375</ele>
        <time>2012-04-08T07:07:53Z</time>
      </trkpt>
      <trkpt lat="42.88044" lon="1.82823">
        <ele>940.30688476562</ele>
        <time>2012-04-08T07:08:01Z</time>
      </trkpt>
      <trkpt lat="42.88037" lon="1.82822">
        <ele>943.67138671875</ele>
        <time>2012-04-08T07:08:08Z</time>
      </trkpt>
      <trkpt lat="42.88031" lon="1.82816">
        <ele>943.19067382812</ele>
        <time>2012-04-08T07:08:15Z</time>
      </trkpt>
      <trkpt lat="42.88024" lon="1.82807">
        <ele>942.2294921875</ele>
        <time>2012-04-08T07:08:23Z</time>
      </trkpt>
      <trkpt lat="42.88015" lon="1.82799">
        <ele>942.2294921875</ele>
        <time>2012-04-08T07:08:28Z</time>
      </trkpt>
      <trkpt lat="42.88012" lon="1.82794">
        <ele>942.71020507812</ele>
        <time>2012-04-08T07:08:30Z</time>
      </trkpt>
      <trkpt lat="42.88005" lon="1.82785">
        <ele>944.63256835938</ele>
        <time>2012-04-08T07:08:36Z</time>
      </trkpt>
      <trkpt lat="42.87996" lon="1.82774">
        <ele>944.15209960938</ele>
        <time>2012-04-08T07:08:42Z</time>
      </trkpt>
      <trkpt lat="42.8799" lon="1.82763">
        <ele>945.11328125</ele>
        <time>2012-04-08T07:08:47Z</time>
      </trkpt>
      <trkpt lat="42.87983" lon="1.82751">
        <ele>944.15209960938</ele>
        <time>2012-04-08T07:08:52Z</time>
      </trkpt>
      <trkpt lat="42.87972" lon="1.8273">
        <ele>944.15209960938</ele>
        <time>2012-04-08T07:08:59Z</time>
      </trkpt>
      <trkpt lat="42.87964" lon="1.82717">
        <ele>944.15209960938</ele>
        <time>2012-04-08T07:09:04Z</time>
      </trkpt>
      <trkpt lat="42.87955" lon="1.82705">
        <ele>944.15209960938</ele>
        <time>2012-04-08T07:09:09Z</time>
      </trkpt>
      <trkpt lat="42.87949" lon="1.82691">
        <ele>943.67138671875</ele>
        <time>2012-04-08T07:09:13Z</time>
      </trkpt>
      <trkpt lat="42.87942" lon="1.82676">
        <ele>942.71020507812</ele>
        <time>2012-04-08T07:09:18Z</time>
      </trkpt>
      <trkpt lat="42.87939" lon="1.8267">
        <ele>941.74877929688</ele>
        <time>2012-04-08T07:09:21Z</time>
      </trkpt>
      <trkpt lat="42.87936" lon="1.82663">
        <ele>939.82592773438</ele>
        <time>2012-04-08T07:09:28Z</time>
      </trkpt>
      <trkpt lat="42.87933" lon="1.82653">
        <ele>939.34521484375</ele>
        <time>2012-04-08T07:09:33Z</time>
      </trkpt>
      <trkpt lat="42.87925" lon="1.8264">
        <ele>939.34521484375</ele>
        <time>2012-04-08T07:09:38Z</time>
      </trkpt>
      <trkpt lat="42.87919" lon="1.82623">
        <ele>938.38403320312</ele>
        <time>2012-04-08T07:09:44Z</time>
      </trkpt>
      <trkpt lat="42.87917" lon="1.82619">
        <ele>938.86474609375</ele>
        <time>2012-04-08T07:09:46Z</time>
      </trkpt>
      <trkpt lat="42.87906" lon="1.82605">
        <ele>940.78735351562</ele>
        <time>2012-04-08T07:09:52Z</time>
      </trkpt>
      <trkpt lat="42.87904" lon="1.82602">
        <ele>940.78735351562</ele>
        <time>2012-04-08T07:09:53Z</time>
      </trkpt>
      <trkpt lat="42.87897" lon="1.82587">
        <ele>940.78735351562</ele>
        <time>2012-04-08T07:09:59Z</time>
      </trkpt>
      <trkpt lat="42.87887" lon="1.82578">
        <ele>944.63256835938</ele>
        <time>2012-04-08T07:10:04Z</time>
      </trkpt>
      <trkpt lat="42.87883" lon="1.82577">
        <ele>945.59399414062</ele>
        <time>2012-04-08T07:10:06Z</time>
      </trkpt>
      <trkpt lat="42.87875" lon="1.8257">
        <ele>945.11328125</ele>
        <time>2012-04-08T07:10:12Z</time>
      </trkpt>
      <trkpt lat="42.87866" lon="1.82567">
        <ele>947.5166015625</ele>
        <time>2012-04-08T07:10:18Z</time>
      </trkpt>
      <trkpt lat="42.87858" lon="1.82568">
        <ele>943.19067382812</ele>
        <time>2012-04-08T07:10:24Z</time>
      </trkpt>
      <trkpt lat="42.87855" lon="1.82571">
        <ele>941.26806640625</ele>
        <time>2012-04-08T07:10:28Z</time>
      </trkpt>
      <trkpt lat="42.87852" lon="1.82575">
        <ele>943.19067382812</ele>
        <time>2012-04-08T07:10:31Z</time>
      </trkpt>
      <trkpt lat="42.87849" lon="1.82581">
        <ele>946.07470703125</ele>
        <time>2012-04-08T07:10:36Z</time>
      </trkpt>
      <trkpt lat="42.87847" lon="1.82585">
        <ele>947.5166015625</ele>
        <time>2012-04-08T07:10:40Z</time>
      </trkpt>
      <trkpt lat="42.87843" lon="1.82591">
        <ele>950.40063476562</ele>
        <time>2012-04-08T07:10:45Z</time>
      </trkpt>
      <trkpt lat="42.87838" lon="1.82595">
        <ele>950.40063476562</ele>
        <time>2012-04-08T07:10:51Z</time>
      </trkpt>
      <trkpt lat="42.87831" lon="1.82599">
        <ele>950.88110351562</ele>
        <time>2012-04-08T07:10:59Z</time>
      </trkpt>
      <trkpt lat="42.87826" lon="1.82601">
        <ele>951.84252929688</ele>
        <time>2012-04-08T07:11:05Z</time>
      </trkpt>
      <trkpt lat="42.8782" lon="1.82604">
        <ele>949.919921875</ele>
        <time>2012-04-08T07:11:12Z</time>
      </trkpt>
      <trkpt lat="42.87819" lon="1.82606">
        <ele>951.36181640625</ele>
        <time>2012-04-08T07:11:14Z</time>
      </trkpt>
      <trkpt lat="42.87811" lon="1.82617">
        <ele>956.16845703125</ele>
        <time>2012-04-08T07:11:21Z</time>
      </trkpt>
      <trkpt lat="42.87811" lon="1.82619">
        <ele>957.1298828125</ele>
        <time>2012-04-08T07:11:22Z</time>
      </trkpt>
      <trkpt lat="42.87805" lon="1.82629">
        <ele>959.05249023438</ele>
        <time>2012-04-08T07:11:29Z</time>
      </trkpt>
      <trkpt lat="42.87799" lon="1.82638">
        <ele>958.57177734375</ele>
        <time>2012-04-08T07:11:36Z</time>
      </trkpt>
      <trkpt lat="42.87793" lon="1.82648">
        <ele>960.013671875</ele>
        <time>2012-04-08T07:11:40Z</time>
      </trkpt>
      <trkpt lat="42.8779" lon="1.8265">
        <ele>960.49438476562</ele>
        <time>2012-04-08T07:11:42Z</time>
      </trkpt>
      <trkpt lat="42.8778" lon="1.82661">
        <ele>959.533203125</ele>
        <time>2012-04-08T07:11:47Z</time>
      </trkpt>
      <trkpt lat="42.87769" lon="1.82673">
        <ele>960.97509765625</ele>
        <time>2012-04-08T07:11:52Z</time>
      </trkpt>
      <trkpt lat="42.87759" lon="1.82688">
        <ele>962.89770507812</ele>
        <time>2012-04-08T07:11:57Z</time>
      </trkpt>
      <trkpt lat="42.87754" lon="1.82697">
        <ele>962.4169921875</ele>
        <time>2012-04-08T07:12:01Z</time>
      </trkpt>
      <trkpt lat="42.87748" lon="1.82705">
        <ele>962.4169921875</ele>
        <time>2012-04-08T07:12:05Z</time>
      </trkpt>
      <trkpt lat="42.87741" lon="1.82713">
        <ele>961.9365234375</ele>
        <time>2012-04-08T07:12:10Z</time>
      </trkpt>
      <trkpt lat="42.87738" lon="1.82718">
        <ele>962.4169921875</ele>
        <time>2012-04-08T07:12:13Z</time>
      </trkpt>
      <trkpt lat="42.87733" lon="1.82732">
        <ele>965.30102539062</ele>
        <time>2012-04-08T07:12:19Z</time>
      </trkpt>
      <trkpt lat="42.87729" lon="1.8274">
        <ele>966.26220703125</ele>
        <time>2012-04-08T07:12:24Z</time>
      </trkpt>
      <trkpt lat="42.87727" lon="1.82741">
        <ele>965.78173828125</ele>
        <time>2012-04-08T07:12:25Z</time>
      </trkpt>
      <trkpt lat="42.87724" lon="1.82743">
        <ele>965.78173828125</ele>
        <time>2012-04-08T07:12:27Z</time>
      </trkpt>
      <trkpt lat="42.87717" lon="1.82744">
        <ele>964.33959960938</ele>
        <time>2012-04-08T07:12:33Z</time>
      </trkpt>
      <trkpt lat="42.87709" lon="1.82745">
        <ele>964.33959960938</ele>
        <time>2012-04-08T07:12:41Z</time>
      </trkpt>
      <trkpt lat="42.877" lon="1.82748">
        <ele>967.2236328125</ele>
        <time>2012-04-08T07:12:48Z</time>
      </trkpt>
      <trkpt lat="42.87697" lon="1.82749">
        <ele>970.58813476562</ele>
        <time>2012-04-08T07:12:52Z</time>
      </trkpt>
      <trkpt lat="42.87697" lon="1.82754">
        <ele>973.47241210938</ele>
        <time>2012-04-08T07:12:58Z</time>
      </trkpt>
      <trkpt lat="42.87701" lon="1.82759">
        <ele>975.87548828125</ele>
        <time>2012-04-08T07:13:03Z</time>
      </trkpt>
      <trkpt lat="42.87708" lon="1.82768">
        <ele>977.79809570312</ele>
        <time>2012-04-08T07:13:10Z</time>
      </trkpt>
      <trkpt lat="42.87708" lon="1.82778">
        <ele>977.79809570312</ele>
        <time>2012-04-08T07:13:17Z</time>
      </trkpt>
      <trkpt lat="42.87711" lon="1.82789">
        <ele>976.35620117188</ele>
        <time>2012-04-08T07:13:24Z</time>
      </trkpt>
      <trkpt lat="42.87714" lon="1.82795">
        <ele>978.75952148438</ele>
        <time>2012-04-08T07:13:29Z</time>
      </trkpt>
      <trkpt lat="42.87715" lon="1.82797">
        <ele>978.75952148438</ele>
        <time>2012-04-08T07:13:31Z</time>
      </trkpt>
      <trkpt lat="42.87716" lon="1.82801">
        <ele>978.75952148438</ele>
        <time>2012-04-08T07:13:35Z</time>
      </trkpt>
      <trkpt lat="42.87717" lon="1.82809">
        <ele>981.64331054688</ele>
        <time>2012-04-08T07:13:39Z</time>
      </trkpt>
      <trkpt lat="42.8772" lon="1.82818">
        <ele>981.16284179688</ele>
        <time>2012-04-08T07:13:46Z</time>
      </trkpt>
      <trkpt lat="42.87719" lon="1.82827">
        <ele>981.16284179688</ele>
        <time>2012-04-08T07:13:53Z</time>
      </trkpt>
      <trkpt lat="42.87717" lon="1.82826">
        <ele>981.16284179688</ele>
        <time>2012-04-08T07:13:55Z</time>
      </trkpt>
      <trkpt lat="42.8771" lon="1.82822">
        <ele>984.04663085938</ele>
        <time>2012-04-08T07:14:02Z</time>
      </trkpt>
      <trkpt lat="42.87708" lon="1.82822">
        <ele>984.52734375</ele>
        <time>2012-04-08T07:14:03Z</time>
      </trkpt>
      <trkpt lat="42.87703" lon="1.82817">
        <ele>985.00805664062</ele>
        <time>2012-04-08T07:14:09Z</time>
      </trkpt>
      <trkpt lat="42.87702" lon="1.82817">
        <ele>985.48852539062</ele>
        <time>2012-04-08T07:14:10Z</time>
      </trkpt>
      <trkpt lat="42.87697" lon="1.82811">
        <ele>987.89184570312</ele>
        <time>2012-04-08T07:14:16Z</time>
      </trkpt>
      <trkpt lat="42.87695" lon="1.82809">
        <ele>987.4111328125</ele>
        <time>2012-04-08T07:14:19Z</time>
      </trkpt>
      <trkpt lat="42.8769" lon="1.82805">
        <ele>990.77587890625</ele>
        <time>2012-04-08T07:14:25Z</time>
      </trkpt>
      <trkpt lat="42.87685" lon="1.82796">
        <ele>993.65991210938</ele>
        <time>2012-04-08T07:14:32Z</time>
      </trkpt>
      <trkpt lat="42.8768" lon="1.82792">
        <ele>992.21801757812</ele>
        <time>2012-04-08T07:14:37Z</time>
      </trkpt>
      <trkpt lat="42.87676" lon="1.82792">
        <ele>992.69873046875</ele>
        <time>2012-04-08T07:14:41Z</time>
      </trkpt>
      <trkpt lat="42.87669" lon="1.82787">
        <ele>995.10180664062</ele>
        <time>2012-04-08T07:14:47Z</time>
      </trkpt>
      <trkpt lat="42.87661" lon="1.82784">
        <ele>997.0244140625</ele>
        <time>2012-04-08T07:14:53Z</time>
      </trkpt>
      <trkpt lat="42.87658" lon="1.82782">
        <ele>996.06323242188</ele>
        <time>2012-04-08T07:14:57Z</time>
      </trkpt>
      <trkpt lat="42.87656" lon="1.82781">
        <ele>994.62109375</ele>
        <time>2012-04-08T07:14:59Z</time>
      </trkpt>
      <trkpt lat="42.8765" lon="1.82775">
        <ele>995.58251953125</ele>
        <time>2012-04-08T07:15:06Z</time>
      </trkpt>
      <trkpt lat="42.87646" lon="1.82776">
        <ele>997.50512695312</ele>
        <time>2012-04-08T07:15:12Z</time>
      </trkpt>
      <trkpt lat="42.87647" lon="1.82779">
        <ele>998.46630859375</ele>
        <time>2012-04-08T07:15:15Z</time>
      </trkpt>
      <trkpt lat="42.87652" lon="1.82785">
        <ele>1001.3503417969</ele>
        <time>2012-04-08T07:15:21Z</time>
      </trkpt>
      <trkpt lat="42.87654" lon="1.82789">
        <ele>1006.6376953125</ele>
        <time>2012-04-08T07:15:25Z</time>
      </trkpt>
      <trkpt lat="42.87658" lon="1.82797">
        <ele>1010.9636230469</ele>
        <time>2012-04-08T07:15:31Z</time>
      </trkpt>
      <trkpt lat="42.87661" lon="1.82804">
        <ele>1011.9250488281</ele>
        <time>2012-04-08T07:15:37Z</time>
      </trkpt>
      <trkpt lat="42.87663" lon="1.82809">
        <ele>1013.8474121094</ele>
        <time>2012-04-08T07:15:42Z</time>
      </trkpt>
      <trkpt lat="42.87663" lon="1.82812">
        <ele>1014.328125</ele>
        <time>2012-04-08T07:15:46Z</time>
      </trkpt>
      <trkpt lat="42.87663" lon="1.82819">
        <ele>1018.6540527344</ele>
        <time>2012-04-08T07:15:51Z</time>
      </trkpt>
      <trkpt lat="42.87658" lon="1.82821">
        <ele>1020.5769042969</ele>
        <time>2012-04-08T07:15:57Z</time>
      </trkpt>
      <trkpt lat="42.87654" lon="1.82817">
        <ele>1018.6540527344</ele>
        <time>2012-04-08T07:16:03Z</time>
      </trkpt>
      <trkpt lat="42.87648" lon="1.82815">
        <ele>1022.9802246094</ele>
        <time>2012-04-08T07:16:09Z</time>
      </trkpt>
      <trkpt lat="42.87646" lon="1.82814">
        <ele>1024.9028320312</ele>
        <time>2012-04-08T07:16:11Z</time>
      </trkpt>
      <trkpt lat="42.87641" lon="1.82812">
        <ele>1027.3061523438</ele>
        <time>2012-04-08T07:16:15Z</time>
      </trkpt>
      <trkpt lat="42.87639" lon="1.82811">
        <ele>1027.7866210938</ele>
        <time>2012-04-08T07:16:17Z</time>
      </trkpt>
      <trkpt lat="42.87634" lon="1.82808">
        <ele>1028.2673339844</ele>
        <time>2012-04-08T07:16:22Z</time>
      </trkpt>
      <trkpt lat="42.87627" lon="1.82804">
        <ele>1027.7866210938</ele>
        <time>2012-04-08T07:16:28Z</time>
      </trkpt>
      <trkpt lat="42.87623" lon="1.82802">
        <ele>1030.1899414062</ele>
        <time>2012-04-08T07:16:35Z</time>
      </trkpt>
      <trkpt lat="42.87618" lon="1.828">
        <ele>1024.9028320312</ele>
        <time>2012-04-08T07:16:40Z</time>
      </trkpt>
      <trkpt lat="42.87613" lon="1.82797">
        <ele>1022.9802246094</ele>
        <time>2012-04-08T07:16:46Z</time>
      </trkpt>
      <trkpt lat="42.87606" lon="1.82796">
        <ele>1021.0576171875</ele>
        <time>2012-04-08T07:16:54Z</time>
      </trkpt>
      <trkpt lat="42.87601" lon="1.82794">
        <ele>1021.5380859375</ele>
        <time>2012-04-08T07:16:59Z</time>
      </trkpt>
      <trkpt lat="42.87595" lon="1.8279">
        <ele>1017.6926269531</ele>
        <time>2012-04-08T07:17:05Z</time>
      </trkpt>
      <trkpt lat="42.87593" lon="1.82788">
        <ele>1017.6926269531</ele>
        <time>2012-04-08T07:17:06Z</time>
      </trkpt>
      <trkpt lat="42.87587" lon="1.82786">
        <ele>1020.0961914062</ele>
        <time>2012-04-08T07:17:11Z</time>
      </trkpt>
      <trkpt lat="42.87583" lon="1.82784">
        <ele>1021.0576171875</ele>
        <time>2012-04-08T07:17:14Z</time>
      </trkpt>
      <trkpt lat="42.87573" lon="1.82787">
        <ele>1025.8640136719</ele>
        <time>2012-04-08T07:17:21Z</time>
      </trkpt>
      <trkpt lat="42.87565" lon="1.82788">
        <ele>1029.228515625</ele>
        <time>2012-04-08T07:17:28Z</time>
      </trkpt>
      <trkpt lat="42.87556" lon="1.8279">
        <ele>1032.5932617188</ele>
        <time>2012-04-08T07:17:36Z</time>
      </trkpt>
      <trkpt lat="42.8755" lon="1.82786">
        <ele>1034.5158691406</ele>
        <time>2012-04-08T07:17:41Z</time>
      </trkpt>
      <trkpt lat="42.87544" lon="1.82785">
        <ele>1035.4770507812</ele>
        <time>2012-04-08T07:17:47Z</time>
      </trkpt>
      <trkpt lat="42.87541" lon="1.82785">
        <ele>1036.4387207031</ele>
        <time>2012-04-08T07:17:49Z</time>
      </trkpt>
      <trkpt lat="42.87537" lon="1.82787">
        <ele>1038.361328125</ele>
        <time>2012-04-08T07:17:53Z</time>
      </trkpt>
      <trkpt lat="42.87527" lon="1.82788">
        <ele>1046.0517578125</ele>
        <time>2012-04-08T07:18:00Z</time>
      </trkpt>
      <trkpt lat="42.8752" lon="1.82788">
        <ele>1047.9743652344</ele>
        <time>2012-04-08T07:18:06Z</time>
      </trkpt>
      <trkpt lat="42.87513" lon="1.82788">
        <ele>1047.9743652344</ele>
        <time>2012-04-08T07:18:13Z</time>
      </trkpt>
      <trkpt lat="42.87507" lon="1.82788">
        <ele>1047.9743652344</ele>
        <time>2012-04-08T07:18:19Z</time>
      </trkpt>
      <trkpt lat="42.87502" lon="1.82789">
        <ele>1043.6484375</ele>
        <time>2012-04-08T07:18:24Z</time>
      </trkpt>
      <trkpt lat="42.87497" lon="1.82789">
        <ele>1042.2065429688</ele>
        <time>2012-04-08T07:18:28Z</time>
      </trkpt>
      <trkpt lat="42.87493" lon="1.8279">
        <ele>1041.7258300781</ele>
        <time>2012-04-08T07:18:32Z</time>
      </trkpt>
      <trkpt lat="42.8749" lon="1.8279">
        <ele>1041.7258300781</ele>
        <time>2012-04-08T07:18:37Z</time>
      </trkpt>
      <trkpt lat="42.87484" lon="1.82796">
        <ele>1044.6096191406</ele>
        <time>2012-04-08T07:18:44Z</time>
      </trkpt>
      <trkpt lat="42.87482" lon="1.82799">
        <ele>1045.5710449219</ele>
        <time>2012-04-08T07:18:46Z</time>
      </trkpt>
      <trkpt lat="42.87481" lon="1.82808">
        <ele>1046.0517578125</ele>
        <time>2012-04-08T07:18:52Z</time>
      </trkpt>
      <trkpt lat="42.87481" lon="1.82811">
        <ele>1046.5324707031</ele>
        <time>2012-04-08T07:18:54Z</time>
      </trkpt>
      <trkpt lat="42.87482" lon="1.82824">
        <ele>1048.4548339844</ele>
        <time>2012-04-08T07:19:03Z</time>
      </trkpt>
      <trkpt lat="42.87482" lon="1.8283">
        <ele>1049.8969726562</ele>
        <time>2012-04-08T07:19:09Z</time>
      </trkpt>
      <trkpt lat="42.87483" lon="1.82842">
        <ele>1051.3388671875</ele>
        <time>2012-04-08T07:19:16Z</time>
      </trkpt>
      <trkpt lat="42.87483" lon="1.82852">
        <ele>1052.3002929688</ele>
        <time>2012-04-08T07:19:22Z</time>
      </trkpt>
      <trkpt lat="42.87483" lon="1.82866">
        <ele>1052.3002929688</ele>
        <time>2012-04-08T07:19:31Z</time>
      </trkpt>
      <trkpt lat="42.87482" lon="1.82867">
        <ele>1052.3002929688</ele>
        <time>2012-04-08T07:19:32Z</time>
      </trkpt>
      <trkpt lat="42.87483" lon="1.82874">
        <ele>1053.26171875</ele>
        <time>2012-04-08T07:19:37Z</time>
      </trkpt>
      <trkpt lat="42.87487" lon="1.82884">
        <ele>1053.7424316406</ele>
        <time>2012-04-08T07:19:45Z</time>
      </trkpt>
      <trkpt lat="42.87489" lon="1.82888">
        <ele>1055.6650390625</ele>
        <time>2012-04-08T07:19:49Z</time>
      </trkpt>
      <trkpt lat="42.87491" lon="1.82894">
        <ele>1055.6650390625</ele>
        <time>2012-04-08T07:19:53Z</time>
      </trkpt>
      <trkpt lat="42.87492" lon="1.82895">
        <ele>1056.6262207031</ele>
        <time>2012-04-08T07:19:54Z</time>
      </trkpt>
      <trkpt lat="42.87493" lon="1.82904">
        <ele>1057.1069335938</ele>
        <time>2012-04-08T07:20:01Z</time>
      </trkpt>
      <trkpt lat="42.87497" lon="1.82912">
        <ele>1058.548828125</ele>
        <time>2012-04-08T07:20:09Z</time>
      </trkpt>
      <trkpt lat="42.87501" lon="1.82919">
        <ele>1060.4714355469</ele>
        <time>2012-04-08T07:20:16Z</time>
      </trkpt>
      <trkpt lat="42.87505" lon="1.82924">
        <ele>1061.4328613281</ele>
        <time>2012-04-08T07:20:22Z</time>
      </trkpt>
      <trkpt lat="42.87506" lon="1.82925">
        <ele>1061.4328613281</ele>
        <time>2012-04-08T07:20:23Z</time>
      </trkpt>
      <trkpt lat="42.87511" lon="1.82929">
        <ele>1063.35546875</ele>
        <time>2012-04-08T07:20:30Z</time>
      </trkpt>
      <trkpt lat="42.87517" lon="1.82932">
        <ele>1065.7587890625</ele>
        <time>2012-04-08T07:20:37Z</time>
      </trkpt>
      <trkpt lat="42.87524" lon="1.82936">
        <ele>1065.7587890625</ele>
        <time>2012-04-08T07:20:44Z</time>
      </trkpt>
      <trkpt lat="42.87526" lon="1.8294">
        <ele>1067.6811523438</ele>
        <time>2012-04-08T07:20:50Z</time>
      </trkpt>
      <trkpt lat="42.87527" lon="1.82943">
        <ele>1068.6428222656</ele>
        <time>2012-04-08T07:20:57Z</time>
      </trkpt>
      <trkpt lat="42.87533" lon="1.82943">
        <ele>1070.0847167969</ele>
        <time>2012-04-08T07:21:06Z</time>
      </trkpt>
      <trkpt lat="42.87539" lon="1.82946">
        <ele>1071.0461425781</ele>
        <time>2012-04-08T07:21:13Z</time>
      </trkpt>
      <trkpt lat="42.87543" lon="1.82948">
        <ele>1071.5266113281</ele>
        <time>2012-04-08T07:21:17Z</time>
      </trkpt>
      <trkpt lat="42.87548" lon="1.82951">
        <ele>1073.9299316406</ele>
        <time>2012-04-08T07:21:24Z</time>
      </trkpt>
      <trkpt lat="42.87557" lon="1.82957">
        <ele>1072.96875</ele>
        <time>2012-04-08T07:21:31Z</time>
      </trkpt>
      <trkpt lat="42.87557" lon="1.82963">
        <ele>1073.4494628906</ele>
        <time>2012-04-08T07:21:37Z</time>
      </trkpt>
      <trkpt lat="42.87555" lon="1.82964">
        <ele>1075.8525390625</ele>
        <time>2012-04-08T07:21:43Z</time>
      </trkpt>
      <trkpt lat="42.8755" lon="1.82965">
        <ele>1076.8139648438</ele>
        <time>2012-04-08T07:21:48Z</time>
      </trkpt>
      <trkpt lat="42.87547" lon="1.82969">
        <ele>1079.2170410156</ele>
        <time>2012-04-08T07:21:53Z</time>
      </trkpt>
      <trkpt lat="42.87544" lon="1.82973">
        <ele>1079.2170410156</ele>
        <time>2012-04-08T07:21:58Z</time>
      </trkpt>
      <trkpt lat="42.87542" lon="1.82979">
        <ele>1080.1784667969</ele>
        <time>2012-04-08T07:22:04Z</time>
      </trkpt>
      <trkpt lat="42.87538" lon="1.82984">
        <ele>1082.1010742188</ele>
        <time>2012-04-08T07:22:11Z</time>
      </trkpt>
      <trkpt lat="42.87534" lon="1.82987">
        <ele>1082.1010742188</ele>
        <time>2012-04-08T07:22:16Z</time>
      </trkpt>
      <trkpt lat="42.87532" lon="1.82993">
        <ele>1080.1784667969</ele>
        <time>2012-04-08T07:22:20Z</time>
      </trkpt>
      <trkpt lat="42.87531" lon="1.82994">
        <ele>1080.6591796875</ele>
        <time>2012-04-08T07:22:21Z</time>
      </trkpt>
      <trkpt lat="42.87529" lon="1.82999">
        <ele>1083.0622558594</ele>
        <time>2012-04-08T07:22:27Z</time>
      </trkpt>
      <trkpt lat="42.87526" lon="1.83003">
        <ele>1084.5046386719</ele>
        <time>2012-04-08T07:22:33Z</time>
      </trkpt>
      <trkpt lat="42.87524" lon="1.8301">
        <ele>1085.4658203125</ele>
        <time>2012-04-08T07:22:38Z</time>
      </trkpt>
      <trkpt lat="42.87522" lon="1.83016">
        <ele>1088.8305664062</ele>
        <time>2012-04-08T07:22:44Z</time>
      </trkpt>
      <trkpt lat="42.87519" lon="1.83021">
        <ele>1092.67578125</ele>
        <time>2012-04-08T07:22:51Z</time>
      </trkpt>
      <trkpt lat="42.87522" lon="1.83021">
        <ele>1095.0788574219</ele>
        <time>2012-04-08T07:22:55Z</time>
      </trkpt>
      <trkpt lat="42.87522" lon="1.83026">
        <ele>1096.5209960938</ele>
        <time>2012-04-08T07:23:02Z</time>
      </trkpt>
      <trkpt lat="42.87519" lon="1.8303">
        <ele>1096.5209960938</ele>
        <time>2012-04-08T07:23:07Z</time>
      </trkpt>
      <trkpt lat="42.87515" lon="1.83037">
        <ele>1094.5981445312</ele>
        <time>2012-04-08T07:23:13Z</time>
      </trkpt>
      <trkpt lat="42.8751" lon="1.83043">
        <ele>1095.0788574219</ele>
        <time>2012-04-08T07:23:20Z</time>
      </trkpt>
      <trkpt lat="42.87506" lon="1.83048">
        <ele>1097.4821777344</ele>
        <time>2012-04-08T07:23:26Z</time>
      </trkpt>
      <trkpt lat="42.87504" lon="1.83053">
        <ele>1098.9240722656</ele>
        <time>2012-04-08T07:23:31Z</time>
      </trkpt>
      <trkpt lat="42.87503" lon="1.83058">
        <ele>1099.8854980469</ele>
        <time>2012-04-08T07:23:35Z</time>
      </trkpt>
      <trkpt lat="42.87502" lon="1.83062">
        <ele>1100.3664550781</ele>
        <time>2012-04-08T07:23:41Z</time>
      </trkpt>
      <trkpt lat="42.875" lon="1.83067">
        <ele>1101.8083496094</ele>
        <time>2012-04-08T07:23:46Z</time>
      </trkpt>
      <trkpt lat="42.87498" lon="1.83073">
        <ele>1103.7309570312</ele>
        <time>2012-04-08T07:23:51Z</time>
      </trkpt>
      <trkpt lat="42.87496" lon="1.83076">
        <ele>1104.2116699219</ele>
        <time>2012-04-08T07:23:56Z</time>
      </trkpt>
      <trkpt lat="42.87494" lon="1.83082">
        <ele>1103.7309570312</ele>
        <time>2012-04-08T07:24:02Z</time>
      </trkpt>
      <trkpt lat="42.87493" lon="1.83086">
        <ele>1105.1728515625</ele>
        <time>2012-04-08T07:24:08Z</time>
      </trkpt>
      <trkpt lat="42.87489" lon="1.83091">
        <ele>1105.1728515625</ele>
        <time>2012-04-08T07:24:13Z</time>
      </trkpt>
      <trkpt lat="42.87486" lon="1.83096">
        <ele>1108.0568847656</ele>
        <time>2012-04-08T07:24:19Z</time>
      </trkpt>
      <trkpt lat="42.87484" lon="1.83101">
        <ele>1110.9406738281</ele>
        <time>2012-04-08T07:24:25Z</time>
      </trkpt>
      <trkpt lat="42.87481" lon="1.83109">
        <ele>1113.3439941406</ele>
        <time>2012-04-08T07:24:33Z</time>
      </trkpt>
      <trkpt lat="42.8748" lon="1.83113">
        <ele>1116.2280273438</ele>
        <time>2012-04-08T07:24:39Z</time>
      </trkpt>
      <trkpt lat="42.87477" lon="1.83121">
        <ele>1116.7087402344</ele>
        <time>2012-04-08T07:24:46Z</time>
      </trkpt>
      <trkpt lat="42.87475" lon="1.83126">
        <ele>1117.669921875</ele>
        <time>2012-04-08T07:24:51Z</time>
      </trkpt>
      <trkpt lat="42.87473" lon="1.83129">
        <ele>1119.1120605469</ele>
        <time>2012-04-08T07:24:53Z</time>
      </trkpt>
      <trkpt lat="42.87474" lon="1.83134">
        <ele>1120.5539550781</ele>
        <time>2012-04-08T07:24:59Z</time>
      </trkpt>
      <trkpt lat="42.87476" lon="1.83135">
        <ele>1122.9572753906</ele>
        <time>2012-04-08T07:25:05Z</time>
      </trkpt>
      <trkpt lat="42.87481" lon="1.83133">
        <ele>1126.8024902344</ele>
        <time>2012-04-08T07:25:11Z</time>
      </trkpt>
      <trkpt lat="42.87484" lon="1.83134">
        <ele>1129.2055664062</ele>
        <time>2012-04-08T07:25:17Z</time>
      </trkpt>
      <trkpt lat="42.87487" lon="1.83131">
        <ele>1131.1284179688</ele>
        <time>2012-04-08T07:25:23Z</time>
      </trkpt>
      <trkpt lat="42.8749" lon="1.83131">
        <ele>1133.0510253906</ele>
        <time>2012-04-08T07:25:27Z</time>
      </trkpt>
      <trkpt lat="42.87493" lon="1.83135">
        <ele>1134.9738769531</ele>
        <time>2012-04-08T07:25:34Z</time>
      </trkpt>
      <trkpt lat="42.87493" lon="1.83138">
        <ele>1135.9350585938</ele>
        <time>2012-04-08T07:25:39Z</time>
      </trkpt>
      <trkpt lat="42.87494" lon="1.83141">
        <ele>1136.8962402344</ele>
        <time>2012-04-08T07:25:45Z</time>
      </trkpt>
      <trkpt lat="42.87498" lon="1.8314">
        <ele>1139.2995605469</ele>
        <time>2012-04-08T07:25:51Z</time>
      </trkpt>
      <trkpt lat="42.875" lon="1.83141">
        <ele>1141.2221679688</ele>
        <time>2012-04-08T07:25:56Z</time>
      </trkpt>
      <trkpt lat="42.87504" lon="1.83141">
        <ele>1141.7028808594</ele>
        <time>2012-04-08T07:26:01Z</time>
      </trkpt>
      <trkpt lat="42.87506" lon="1.83145">
        <ele>1143.6254882812</ele>
        <time>2012-04-08T07:26:08Z</time>
      </trkpt>
      <trkpt lat="42.87505" lon="1.83152">
        <ele>1144.5866699219</ele>
        <time>2012-04-08T07:26:16Z</time>
      </trkpt>
      <trkpt lat="42.87504" lon="1.83157">
        <ele>1146.0288085938</ele>
        <time>2012-04-08T07:26:22Z</time>
      </trkpt>
      <trkpt lat="42.87503" lon="1.83162">
        <ele>1146.5095214844</ele>
        <time>2012-04-08T07:26:28Z</time>
      </trkpt>
      <trkpt lat="42.87502" lon="1.83167">
        <ele>1148.4321289062</ele>
        <time>2012-04-08T07:26:34Z</time>
      </trkpt>
      <trkpt lat="42.87499" lon="1.83174">
        <ele>1149.8742675781</ele>
        <time>2012-04-08T07:26:41Z</time>
      </trkpt>
      <trkpt lat="42.87499" lon="1.83184">
        <ele>1152.7580566406</ele>
        <time>2012-04-08T07:26:49Z</time>
      </trkpt>
      <trkpt lat="42.87499" lon="1.83187">
        <ele>1154.2001953125</ele>
        <time>2012-04-08T07:26:54Z</time>
      </trkpt>
      <trkpt lat="42.87501" lon="1.8319">
        <ele>1157.083984375</ele>
        <time>2012-04-08T07:27:00Z</time>
      </trkpt>
      <trkpt lat="42.87502" lon="1.83194">
        <ele>1158.5258789062</ele>
        <time>2012-04-08T07:27:08Z</time>
      </trkpt>
      <trkpt lat="42.87505" lon="1.83196">
        <ele>1160.4484863281</ele>
        <time>2012-04-08T07:27:13Z</time>
      </trkpt>
      <trkpt lat="42.8751" lon="1.83196">
        <ele>1161.4099121094</ele>
        <time>2012-04-08T07:27:21Z</time>
      </trkpt>
      <trkpt lat="42.87515" lon="1.83196">
        <ele>1163.3325195312</ele>
        <time>2012-04-08T07:27:29Z</time>
      </trkpt>
      <trkpt lat="42.87517" lon="1.83197">
        <ele>1164.7746582031</ele>
        <time>2012-04-08T07:27:35Z</time>
      </trkpt>
      <trkpt lat="42.87519" lon="1.83189">
        <ele>1164.7746582031</ele>
        <time>2012-04-08T07:27:41Z</time>
      </trkpt>
      <trkpt lat="42.87522" lon="1.83186">
        <ele>1165.7360839844</ele>
        <time>2012-04-08T07:27:46Z</time>
      </trkpt>
      <trkpt lat="42.87524" lon="1.83185">
        <ele>1167.6584472656</ele>
        <time>2012-04-08T07:27:52Z</time>
      </trkpt>
      <trkpt lat="42.87527" lon="1.83183">
        <ele>1169.1005859375</ele>
        <time>2012-04-08T07:27:55Z</time>
      </trkpt>
      <trkpt lat="42.87532" lon="1.8318">
        <ele>1171.0231933594</ele>
        <time>2012-04-08T07:28:02Z</time>
      </trkpt>
      <trkpt lat="42.87538" lon="1.83174">
        <ele>1172.4650878906</ele>
        <time>2012-04-08T07:28:09Z</time>
      </trkpt>
      <trkpt lat="42.8754" lon="1.83171">
        <ele>1172.9458007812</ele>
        <time>2012-04-08T07:28:12Z</time>
      </trkpt>
      <trkpt lat="42.87542" lon="1.83167">
        <ele>1173.9069824219</ele>
        <time>2012-04-08T07:28:18Z</time>
      </trkpt>
      <trkpt lat="42.87545" lon="1.83168">
        <ele>1175.3488769531</ele>
        <time>2012-04-08T07:28:22Z</time>
      </trkpt>
      <trkpt lat="42.87545" lon="1.83172">
        <ele>1177.2717285156</ele>
        <time>2012-04-08T07:28:29Z</time>
      </trkpt>
      <trkpt lat="42.87544" lon="1.83174">
        <ele>1178.2329101562</ele>
        <time>2012-04-08T07:28:36Z</time>
      </trkpt>
      <trkpt lat="42.87544" lon="1.8318">
        <ele>1179.1940917969</ele>
        <time>2012-04-08T07:28:42Z</time>
      </trkpt>
      <trkpt lat="42.87543" lon="1.83187">
        <ele>1179.6748046875</ele>
        <time>2012-04-08T07:28:48Z</time>
      </trkpt>
      <trkpt lat="42.87543" lon="1.83191">
        <ele>1180.6364746094</ele>
        <time>2012-04-08T07:28:55Z</time>
      </trkpt>
      <trkpt lat="42.87546" lon="1.8319">
        <ele>1181.1171875</ele>
        <time>2012-04-08T07:29:02Z</time>
      </trkpt>
      <trkpt lat="42.87549" lon="1.83188">
        <ele>1180.6364746094</ele>
        <time>2012-04-08T07:29:05Z</time>
      </trkpt>
      <trkpt lat="42.87553" lon="1.83181">
        <ele>1183.5202636719</ele>
        <time>2012-04-08T07:29:12Z</time>
      </trkpt>
      <trkpt lat="42.87554" lon="1.83184">
        <ele>1184.4816894531</ele>
        <time>2012-04-08T07:29:18Z</time>
      </trkpt>
      <trkpt lat="42.87553" lon="1.8319">
        <ele>1185.9235839844</ele>
        <time>2012-04-08T07:29:24Z</time>
      </trkpt>
      <trkpt lat="42.87553" lon="1.83195">
        <ele>1187.3654785156</ele>
        <time>2012-04-08T07:29:31Z</time>
      </trkpt>
      <trkpt lat="42.87554" lon="1.83197">
        <ele>1188.8076171875</ele>
        <time>2012-04-08T07:29:39Z</time>
      </trkpt>
      <trkpt lat="42.87552" lon="1.832">
        <ele>1189.7687988281</ele>
        <time>2012-04-08T07:29:44Z</time>
      </trkpt>
      <trkpt lat="42.87553" lon="1.83207">
        <ele>1193.1333007812</ele>
        <time>2012-04-08T07:29:51Z</time>
      </trkpt>
      <trkpt lat="42.87552" lon="1.83214">
        <ele>1195.5366210938</ele>
        <time>2012-04-08T07:29:58Z</time>
      </trkpt>
      <trkpt lat="42.87551" lon="1.83221">
        <ele>1197.4594726562</ele>
        <time>2012-04-08T07:30:04Z</time>
      </trkpt>
      <trkpt lat="42.87551" lon="1.83224">
        <ele>1198.4206542969</ele>
        <time>2012-04-08T07:30:10Z</time>
      </trkpt>
      <trkpt lat="42.8755" lon="1.83231">
        <ele>1199.3820800781</ele>
        <time>2012-04-08T07:30:17Z</time>
      </trkpt>
      <trkpt lat="42.87551" lon="1.83235">
        <ele>1199.8627929688</ele>
        <time>2012-04-08T07:30:22Z</time>
      </trkpt>
      <trkpt lat="42.8755" lon="1.83238">
        <ele>1200.8239746094</ele>
        <time>2012-04-08T07:30:26Z</time>
      </trkpt>
      <trkpt lat="42.8755" lon="1.83242">
        <ele>1202.2658691406</ele>
        <time>2012-04-08T07:30:32Z</time>
      </trkpt>
      <trkpt lat="42.87552" lon="1.83244">
        <ele>1203.2272949219</ele>
        <time>2012-04-08T07:30:38Z</time>
      </trkpt>
      <trkpt lat="42.87555" lon="1.83246">
        <ele>1204.6691894531</ele>
        <time>2012-04-08T07:30:44Z</time>
      </trkpt>
      <trkpt lat="42.87561" lon="1.83242">
        <ele>1205.1499023438</ele>
        <time>2012-04-08T07:30:50Z</time>
      </trkpt>
      <trkpt lat="42.87564" lon="1.83237">
        <ele>1206.1110839844</ele>
        <time>2012-04-08T07:30:54Z</time>
      </trkpt>
      <trkpt lat="42.87566" lon="1.83238">
        <ele>1207.0725097656</ele>
        <time>2012-04-08T07:31:00Z</time>
      </trkpt>
      <trkpt lat="42.87563" lon="1.83242">
        <ele>1207.5532226562</ele>
        <time>2012-04-08T07:31:06Z</time>
      </trkpt>
      <trkpt lat="42.87562" lon="1.83247">
        <ele>1208.0339355469</ele>
        <time>2012-04-08T07:31:12Z</time>
      </trkpt>
      <trkpt lat="42.87563" lon="1.83249">
        <ele>1208.0339355469</ele>
        <time>2012-04-08T07:31:14Z</time>
      </trkpt>
      <trkpt lat="42.87566" lon="1.83254">
        <ele>1209.9562988281</ele>
        <time>2012-04-08T07:31:18Z</time>
      </trkpt>
      <trkpt lat="42.87568" lon="1.83259">
        <ele>1210.9177246094</ele>
        <time>2012-04-08T07:31:24Z</time>
      </trkpt>
      <trkpt lat="42.87568" lon="1.83267">
        <ele>1210.9177246094</ele>
        <time>2012-04-08T07:31:31Z</time>
      </trkpt>
      <trkpt lat="42.87572" lon="1.83268">
        <ele>1208.0339355469</ele>
        <time>2012-04-08T07:31:37Z</time>
      </trkpt>
      <trkpt lat="42.87577" lon="1.83252">
        <ele>1205.6306152344</ele>
        <time>2012-04-08T07:31:44Z</time>
      </trkpt>
      <trkpt lat="42.87577" lon="1.83245">
        <ele>1205.1499023438</ele>
        <time>2012-04-08T07:31:49Z</time>
      </trkpt>
      <trkpt lat="42.87582" lon="1.83241">
        <ele>1207.0725097656</ele>
        <time>2012-04-08T07:31:55Z</time>
      </trkpt>
      <trkpt lat="42.87583" lon="1.8324">
        <ele>1208.9951171875</ele>
        <time>2012-04-08T07:32:00Z</time>
      </trkpt>
      <trkpt lat="42.87587" lon="1.83238">
        <ele>1210.9177246094</ele>
        <time>2012-04-08T07:32:06Z</time>
      </trkpt>
      <trkpt lat="42.87589" lon="1.83237">
        <ele>1210.9177246094</ele>
        <time>2012-04-08T07:32:09Z</time>
      </trkpt>
      <trkpt lat="42.87597" lon="1.83231">
        <ele>1211.8791503906</ele>
        <time>2012-04-08T07:32:14Z</time>
      </trkpt>
      <trkpt lat="42.87597" lon="1.83223">
        <ele>1211.8791503906</ele>
        <time>2012-04-08T07:32:17Z</time>
      </trkpt>
      <trkpt lat="42.87593" lon="1.83222">
        <ele>1210.9177246094</ele>
        <time>2012-04-08T07:32:22Z</time>
      </trkpt>
      <trkpt lat="42.87593" lon="1.83221">
        <ele>1210.9177246094</ele>
        <time>2012-04-08T07:32:23Z</time>
      </trkpt>
      <trkpt lat="42.87589" lon="1.83219">
        <ele>1210.4370117188</ele>
        <time>2012-04-08T07:32:27Z</time>
      </trkpt>
      <trkpt lat="42.87587" lon="1.83221">
        <ele>1209.9562988281</ele>
        <time>2012-04-08T07:32:29Z</time>
      </trkpt>
      <trkpt lat="42.87584" lon="1.83222">
        <ele>1208.9951171875</ele>
        <time>2012-04-08T07:32:36Z</time>
      </trkpt>
      <trkpt lat="42.87582" lon="1.8322">
        <ele>1208.0339355469</ele>
        <time>2012-04-08T07:32:41Z</time>
      </trkpt>
      <trkpt lat="42.87581" lon="1.8322">
        <ele>1207.0725097656</ele>
        <time>2012-04-08T07:32:45Z</time>
      </trkpt>
      <trkpt lat="42.87579" lon="1.83221">
        <ele>1206.591796875</ele>
        <time>2012-04-08T07:32:50Z</time>
      </trkpt>
      <trkpt lat="42.87578" lon="1.83222">
        <ele>1205.1499023438</ele>
        <time>2012-04-08T07:32:54Z</time>
      </trkpt>
      <trkpt lat="42.87575" lon="1.83219">
        <ele>1203.2272949219</ele>
        <time>2012-04-08T07:32:59Z</time>
      </trkpt>
      <trkpt lat="42.87571" lon="1.83225">
        <ele>1202.7465820312</ele>
        <time>2012-04-08T07:33:02Z</time>
      </trkpt>
      <trkpt lat="42.87568" lon="1.83229">
        <ele>1202.2658691406</ele>
        <time>2012-04-08T07:33:04Z</time>
      </trkpt>
      <trkpt lat="42.87566" lon="1.83238">
        <ele>1200.8239746094</ele>
        <time>2012-04-08T07:33:09Z</time>
      </trkpt>
      <trkpt lat="42.87564" lon="1.83241">
        <ele>1199.3820800781</ele>
        <time>2012-04-08T07:33:15Z</time>
      </trkpt>
      <trkpt lat="42.87563" lon="1.83241">
        <ele>1200.8239746094</ele>
        <time>2012-04-08T07:33:23Z</time>
      </trkpt>
      <trkpt lat="42.87563" lon="1.83241">
        <ele>1201.3046875</ele>
        <time>2012-04-08T07:33:28Z</time>
      </trkpt>
      <trkpt lat="42.87562" lon="1.83244">
        <ele>1201.3046875</ele>
        <time>2012-04-08T07:33:33Z</time>
      </trkpt>
      <trkpt lat="42.87561" lon="1.83244">
        <ele>1201.7854003906</ele>
        <time>2012-04-08T07:33:40Z</time>
      </trkpt>
      <trkpt lat="42.87559" lon="1.83248">
        <ele>1203.2272949219</ele>
        <time>2012-04-08T07:33:47Z</time>
      </trkpt>
      <trkpt lat="42.87558" lon="1.8325">
        <ele>1202.7465820312</ele>
        <time>2012-04-08T07:33:49Z</time>
      </trkpt>
      <trkpt lat="42.87554" lon="1.83247">
        <ele>1201.7854003906</ele>
        <time>2012-04-08T07:33:53Z</time>
      </trkpt>
      <trkpt lat="42.87553" lon="1.83245">
        <ele>1201.3046875</ele>
        <time>2012-04-08T07:33:55Z</time>
      </trkpt>
      <trkpt lat="42.87552" lon="1.83239">
        <ele>1199.3820800781</ele>
        <time>2012-04-08T07:34:00Z</time>
      </trkpt>
      <trkpt lat="42.87553" lon="1.83239">
        <ele>1198.9013671875</ele>
        <time>2012-04-08T07:34:01Z</time>
      </trkpt>
      <trkpt lat="42.87554" lon="1.83237">
        <ele>1197.4594726562</ele>
        <time>2012-04-08T07:34:06Z</time>
      </trkpt>
      <trkpt lat="42.87555" lon="1.83231">
        <ele>1196.9787597656</ele>
        <time>2012-04-08T07:34:11Z</time>
      </trkpt>
      <trkpt lat="42.87554" lon="1.83224">
        <ele>1195.5366210938</ele>
        <time>2012-04-08T07:34:17Z</time>
      </trkpt>
      <trkpt lat="42.87553" lon="1.83217">
        <ele>1194.0947265625</ele>
        <time>2012-04-08T07:34:22Z</time>
      </trkpt>
      <trkpt lat="42.87555" lon="1.83209">
        <ele>1193.1333007812</ele>
        <time>2012-04-08T07:34:27Z</time>
      </trkpt>
      <trkpt lat="42.87555" lon="1.83203">
        <ele>1192.1721191406</ele>
        <time>2012-04-08T07:34:31Z</time>
      </trkpt>
      <trkpt lat="42.87555" lon="1.83201">
        <ele>1191.2106933594</ele>
        <time>2012-04-08T07:34:33Z</time>
      </trkpt>
      <trkpt lat="42.87557" lon="1.83197">
        <ele>1188.8076171875</ele>
        <time>2012-04-08T07:34:40Z</time>
      </trkpt>
      <trkpt lat="42.87557" lon="1.83192">
        <ele>1186.884765625</ele>
        <time>2012-04-08T07:34:47Z</time>
      </trkpt>
      <trkpt lat="42.87558" lon="1.83188">
        <ele>1185.9235839844</ele>
        <time>2012-04-08T07:34:53Z</time>
      </trkpt>
      <trkpt lat="42.87558" lon="1.83183">
        <ele>1184.9624023438</ele>
        <time>2012-04-08T07:34:58Z</time>
      </trkpt>
      <trkpt lat="42.87556" lon="1.83181">
        <ele>1184.0009765625</ele>
        <time>2012-04-08T07:35:04Z</time>
      </trkpt>
      <trkpt lat="42.87552" lon="1.83183">
        <ele>1183.0395507812</ele>
        <time>2012-04-08T07:35:09Z</time>
      </trkpt>
      <trkpt lat="42.8755" lon="1.83188">
        <ele>1181.59765625</ele>
        <time>2012-04-08T07:35:13Z</time>
      </trkpt>
      <trkpt lat="42.8755" lon="1.83189">
        <ele>1181.59765625</ele>
        <time>2012-04-08T07:35:14Z</time>
      </trkpt>
      <trkpt lat="42.87544" lon="1.83192">
        <ele>1179.6748046875</ele>
        <time>2012-04-08T07:35:21Z</time>
      </trkpt>
      <trkpt lat="42.87545" lon="1.83187">
        <ele>1179.1940917969</ele>
        <time>2012-04-08T07:35:24Z</time>
      </trkpt>
      <trkpt lat="42.87546" lon="1.83179">
        <ele>1178.2329101562</ele>
        <time>2012-04-08T07:35:29Z</time>
      </trkpt>
      <trkpt lat="42.87547" lon="1.83177">
        <ele>1178.2329101562</ele>
        <time>2012-04-08T07:35:30Z</time>
      </trkpt>
      <trkpt lat="42.87547" lon="1.83176">
        <ele>1177.7521972656</ele>
        <time>2012-04-08T07:35:32Z</time>
      </trkpt>
      <trkpt lat="42.87548" lon="1.83173">
        <ele>1175.3488769531</ele>
        <time>2012-04-08T07:35:37Z</time>
      </trkpt>
      <trkpt lat="42.87549" lon="1.83169">
        <ele>1173.4265136719</ele>
        <time>2012-04-08T07:35:43Z</time>
      </trkpt>
      <trkpt lat="42.87547" lon="1.83165">
        <ele>1172.4650878906</ele>
        <time>2012-04-08T07:35:47Z</time>
      </trkpt>
      <trkpt lat="42.87544" lon="1.83169">
        <ele>1172.9458007812</ele>
        <time>2012-04-08T07:35:50Z</time>
      </trkpt>
      <trkpt lat="42.87533" lon="1.83177">
        <ele>1172.9458007812</ele>
        <time>2012-04-08T07:35:55Z</time>
      </trkpt>
      <trkpt lat="42.87528" lon="1.83182">
        <ele>1171.984375</ele>
        <time>2012-04-08T07:35:59Z</time>
      </trkpt>
      <trkpt lat="42.87525" lon="1.83187">
        <ele>1171.5036621094</ele>
        <time>2012-04-08T07:36:03Z</time>
      </trkpt>
      <trkpt lat="42.87523" lon="1.8319">
        <ele>1169.5812988281</ele>
        <time>2012-04-08T07:36:09Z</time>
      </trkpt>
      <trkpt lat="42.87521" lon="1.83192">
        <ele>1168.6198730469</ele>
        <time>2012-04-08T07:36:13Z</time>
      </trkpt>
      <trkpt lat="42.87518" lon="1.83193">
        <ele>1167.6584472656</ele>
        <time>2012-04-08T07:36:18Z</time>
      </trkpt>
      <trkpt lat="42.87514" lon="1.83195">
        <ele>1165.2553710938</ele>
        <time>2012-04-08T07:36:22Z</time>
      </trkpt>
      <trkpt lat="42.87511" lon="1.83198">
        <ele>1165.2553710938</ele>
        <time>2012-04-08T07:36:27Z</time>
      </trkpt>
      <trkpt lat="42.8751" lon="1.83199">
        <ele>1163.8129882812</ele>
        <time>2012-04-08T07:36:31Z</time>
      </trkpt>
      <trkpt lat="42.87508" lon="1.832">
        <ele>1163.3325195312</ele>
        <time>2012-04-08T07:36:35Z</time>
      </trkpt>
      <trkpt lat="42.87503" lon="1.83199">
        <ele>1160.4484863281</ele>
        <time>2012-04-08T07:36:40Z</time>
      </trkpt>
      <trkpt lat="42.87502" lon="1.83194">
        <ele>1158.5258789062</ele>
        <time>2012-04-08T07:36:45Z</time>
      </trkpt>
      <trkpt lat="42.87502" lon="1.83192">
        <ele>1157.5646972656</ele>
        <time>2012-04-08T07:36:46Z</time>
      </trkpt>
      <trkpt lat="42.875" lon="1.83185">
        <ele>1153.2387695312</ele>
        <time>2012-04-08T07:36:50Z</time>
      </trkpt>
      <trkpt lat="42.875" lon="1.83177">
        <ele>1150.8354492188</ele>
        <time>2012-04-08T07:36:53Z</time>
      </trkpt>
      <trkpt lat="42.87504" lon="1.83167">
        <ele>1146.9899902344</ele>
        <time>2012-04-08T07:36:59Z</time>
      </trkpt>
      <trkpt lat="42.87504" lon="1.83166">
        <ele>1146.9899902344</ele>
        <time>2012-04-08T07:37:00Z</time>
      </trkpt>
      <trkpt lat="42.87503" lon="1.83162">
        <ele>1145.0673828125</ele>
        <time>2012-04-08T07:37:03Z</time>
      </trkpt>
      <trkpt lat="42.87506" lon="1.83157">
        <ele>1143.1447753906</ele>
        <time>2012-04-08T07:37:08Z</time>
      </trkpt>
      <trkpt lat="42.87507" lon="1.8315">
        <ele>1140.7414550781</ele>
        <time>2012-04-08T07:37:13Z</time>
      </trkpt>
      <trkpt lat="42.87508" lon="1.83148">
        <ele>1140.2609863281</ele>
        <time>2012-04-08T07:37:14Z</time>
      </trkpt>
      <trkpt lat="42.87506" lon="1.83143">
        <ele>1139.2995605469</ele>
        <time>2012-04-08T07:37:18Z</time>
      </trkpt>
      <trkpt lat="42.87501" lon="1.83144">
        <ele>1137.376953125</ele>
        <time>2012-04-08T07:37:23Z</time>
      </trkpt>
      <trkpt lat="42.87498" lon="1.83143">
        <ele>1135.4543457031</ele>
        <time>2012-04-08T07:37:29Z</time>
      </trkpt>
      <trkpt lat="42.87494" lon="1.83143">
        <ele>1134.4931640625</ele>
        <time>2012-04-08T07:37:32Z</time>
      </trkpt>
      <trkpt lat="42.87495" lon="1.83138">
        <ele>1133.5317382812</ele>
        <time>2012-04-08T07:37:35Z</time>
      </trkpt>
      <trkpt lat="42.87493" lon="1.83128">
        <ele>1129.6862792969</ele>
        <time>2012-04-08T07:37:41Z</time>
      </trkpt>
      <trkpt lat="42.87487" lon="1.8313">
        <ele>1126.8024902344</ele>
        <time>2012-04-08T07:37:46Z</time>
      </trkpt>
      <trkpt lat="42.87483" lon="1.83129">
        <ele>1123.9184570312</ele>
        <time>2012-04-08T07:37:51Z</time>
      </trkpt>
      <trkpt lat="42.87477" lon="1.83132">
        <ele>1121.9958496094</ele>
        <time>2012-04-08T07:37:58Z</time>
      </trkpt>
      <trkpt lat="42.87474" lon="1.83128">
        <ele>1120.0732421875</ele>
        <time>2012-04-08T07:38:03Z</time>
      </trkpt>
      <trkpt lat="42.87478" lon="1.83118">
        <ele>1119.1120605469</ele>
        <time>2012-04-08T07:38:07Z</time>
      </trkpt>
      <trkpt lat="42.87481" lon="1.83109">
        <ele>1116.7087402344</ele>
        <time>2012-04-08T07:38:13Z</time>
      </trkpt>
      <trkpt lat="42.87482" lon="1.83107">
        <ele>1116.7087402344</ele>
        <time>2012-04-08T07:38:14Z</time>
      </trkpt>
      <trkpt lat="42.87484" lon="1.831">
        <ele>1113.3439941406</ele>
        <time>2012-04-08T07:38:20Z</time>
      </trkpt>
      <trkpt lat="42.87487" lon="1.8309">
        <ele>1110.9406738281</ele>
        <time>2012-04-08T07:38:25Z</time>
      </trkpt>
      <trkpt lat="42.87489" lon="1.83088">
        <ele>1108.5373535156</ele>
        <time>2012-04-08T07:38:28Z</time>
      </trkpt>
      <trkpt lat="42.87494" lon="1.83083">
        <ele>1106.1340332031</ele>
        <time>2012-04-08T07:38:34Z</time>
      </trkpt>
      <trkpt lat="42.87497" lon="1.83075">
        <ele>1103.2502441406</ele>
        <time>2012-04-08T07:38:40Z</time>
      </trkpt>
      <trkpt lat="42.875" lon="1.83071">
        <ele>1100.8469238281</ele>
        <time>2012-04-08T07:38:47Z</time>
      </trkpt>
      <trkpt lat="42.87503" lon="1.83063">
        <ele>1097.962890625</ele>
        <time>2012-04-08T07:38:53Z</time>
      </trkpt>
      <trkpt lat="42.87505" lon="1.8306">
        <ele>1097.0014648438</ele>
        <time>2012-04-08T07:38:58Z</time>
      </trkpt>
      <trkpt lat="42.87506" lon="1.83057">
        <ele>1095.0788574219</ele>
        <time>2012-04-08T07:39:00Z</time>
      </trkpt>
      <trkpt lat="42.87511" lon="1.83048">
        <ele>1093.15625</ele>
        <time>2012-04-08T07:39:04Z</time>
      </trkpt>
      <trkpt lat="42.8752" lon="1.83033">
        <ele>1092.67578125</ele>
        <time>2012-04-08T07:39:11Z</time>
      </trkpt>
      <trkpt lat="42.87522" lon="1.8303">
        <ele>1094.1176757812</ele>
        <time>2012-04-08T07:39:14Z</time>
      </trkpt>
      <trkpt lat="42.87517" lon="1.83026">
        <ele>1093.15625</ele>
        <time>2012-04-08T07:39:19Z</time>
      </trkpt>
      <trkpt lat="42.87517" lon="1.83025">
        <ele>1093.15625</ele>
        <time>2012-04-08T07:39:20Z</time>
      </trkpt>
      <trkpt lat="42.87519" lon="1.83021">
        <ele>1090.2724609375</ele>
        <time>2012-04-08T07:39:25Z</time>
      </trkpt>
      <trkpt lat="42.87519" lon="1.83019">
        <ele>1089.7917480469</ele>
        <time>2012-04-08T07:39:26Z</time>
      </trkpt>
      <trkpt lat="42.87523" lon="1.83013">
        <ele>1085.9465332031</ele>
        <time>2012-04-08T07:39:32Z</time>
      </trkpt>
      <trkpt lat="42.87523" lon="1.83012">
        <ele>1084.5046386719</ele>
        <time>2012-04-08T07:39:33Z</time>
      </trkpt>
      <trkpt lat="42.87526" lon="1.83007">
        <ele>1083.54296875</ele>
        <time>2012-04-08T07:39:37Z</time>
      </trkpt>
      <trkpt lat="42.87527" lon="1.83001">
        <ele>1080.6591796875</ele>
        <time>2012-04-08T07:39:41Z</time>
      </trkpt>
      <trkpt lat="42.87537" lon="1.82991">
        <ele>1079.6977539062</ele>
        <time>2012-04-08T07:39:47Z</time>
      </trkpt>
      <trkpt lat="42.87543" lon="1.82987">
        <ele>1077.2946777344</ele>
        <time>2012-04-08T07:39:51Z</time>
      </trkpt>
      <trkpt lat="42.87545" lon="1.82982">
        <ele>1074.8913574219</ele>
        <time>2012-04-08T07:39:55Z</time>
      </trkpt>
      <trkpt lat="42.8755" lon="1.82974">
        <ele>1074.8913574219</ele>
        <time>2012-04-08T07:39:59Z</time>
      </trkpt>
      <trkpt lat="42.87557" lon="1.82967">
        <ele>1076.3332519531</ele>
        <time>2012-04-08T07:40:04Z</time>
      </trkpt>
      <trkpt lat="42.87555" lon="1.8296">
        <ele>1076.3332519531</ele>
        <time>2012-04-08T07:40:08Z</time>
      </trkpt>
      <trkpt lat="42.87547" lon="1.82955">
        <ele>1074.4106445312</ele>
        <time>2012-04-08T07:40:13Z</time>
      </trkpt>
      <trkpt lat="42.87542" lon="1.82949">
        <ele>1073.4494628906</ele>
        <time>2012-04-08T07:40:17Z</time>
      </trkpt>
      <trkpt lat="42.8754" lon="1.82947">
        <ele>1072.0073242188</ele>
        <time>2012-04-08T07:40:20Z</time>
      </trkpt>
      <trkpt lat="42.87537" lon="1.82945">
        <ele>1070.0847167969</ele>
        <time>2012-04-08T07:40:23Z</time>
      </trkpt>
      <trkpt lat="42.87529" lon="1.82945">
        <ele>1066.7199707031</ele>
        <time>2012-04-08T07:40:28Z</time>
      </trkpt>
      <trkpt lat="42.87529" lon="1.82944">
        <ele>1066.2392578125</ele>
        <time>2012-04-08T07:40:30Z</time>
      </trkpt>
      <trkpt lat="42.87526" lon="1.8294">
        <ele>1064.7973632812</ele>
        <time>2012-04-08T07:40:34Z</time>
      </trkpt>
      <trkpt lat="42.87525" lon="1.82935">
        <ele>1064.3166503906</ele>
        <time>2012-04-08T07:40:38Z</time>
      </trkpt>
      <trkpt lat="42.87524" lon="1.82934">
        <ele>1064.3166503906</ele>
        <time>2012-04-08T07:40:39Z</time>
      </trkpt>
      <trkpt lat="42.87512" lon="1.82928">
        <ele>1060.9521484375</ele>
        <time>2012-04-08T07:40:45Z</time>
      </trkpt>
      <trkpt lat="42.87498" lon="1.82905">
        <ele>1055.1843261719</ele>
        <time>2012-04-08T07:40:53Z</time>
      </trkpt>
      <trkpt lat="42.8749" lon="1.82883">
        <ele>1050.8581542969</ele>
        <time>2012-04-08T07:40:59Z</time>
      </trkpt>
      <trkpt lat="42.87485" lon="1.82861">
        <ele>1045.5710449219</ele>
        <time>2012-04-08T07:41:04Z</time>
      </trkpt>
      <trkpt lat="42.87483" lon="1.82839">
        <ele>1041.2451171875</ele>
        <time>2012-04-08T07:41:09Z</time>
      </trkpt>
      <trkpt lat="42.87482" lon="1.8282">
        <ele>1039.3225097656</ele>
        <time>2012-04-08T07:41:14Z</time>
      </trkpt>
      <trkpt lat="42.87481" lon="1.82803">
        <ele>1039.3225097656</ele>
        <time>2012-04-08T07:41:19Z</time>
      </trkpt>
      <trkpt lat="42.87483" lon="1.82788">
        <ele>1037.8806152344</ele>
        <time>2012-04-08T07:41:24Z</time>
      </trkpt>
      <trkpt lat="42.87488" lon="1.82778">
        <ele>1037.3999023438</ele>
        <time>2012-04-08T07:41:28Z</time>
      </trkpt>
      <trkpt lat="42.87494" lon="1.82769">
        <ele>1039.3225097656</ele>
        <time>2012-04-08T07:41:32Z</time>
      </trkpt>
      <trkpt lat="42.87499" lon="1.8276">
        <ele>1040.2839355469</ele>
        <time>2012-04-08T07:41:36Z</time>
      </trkpt>
      <trkpt lat="42.87509" lon="1.82743">
        <ele>1042.6872558594</ele>
        <time>2012-04-08T07:41:43Z</time>
      </trkpt>
      <trkpt lat="42.87516" lon="1.82735">
        <ele>1044.1291503906</ele>
        <time>2012-04-08T07:41:47Z</time>
      </trkpt>
      <trkpt lat="42.8752" lon="1.82725">
        <ele>1043.6484375</ele>
        <time>2012-04-08T07:41:51Z</time>
      </trkpt>
      <trkpt lat="42.87527" lon="1.82712">
        <ele>1046.0517578125</ele>
        <time>2012-04-08T07:41:56Z</time>
      </trkpt>
      <trkpt lat="42.87531" lon="1.82701">
        <ele>1047.4936523438</ele>
        <time>2012-04-08T07:42:00Z</time>
      </trkpt>
      <trkpt lat="42.87533" lon="1.82688">
        <ele>1048.4548339844</ele>
        <time>2012-04-08T07:42:05Z</time>
      </trkpt>
      <trkpt lat="42.87535" lon="1.82683">
        <ele>1047.9743652344</ele>
        <time>2012-04-08T07:42:09Z</time>
      </trkpt>
      <trkpt lat="42.8754" lon="1.8267">
        <ele>1047.4936523438</ele>
        <time>2012-04-08T07:42:13Z</time>
      </trkpt>
      <trkpt lat="42.87543" lon="1.82655">
        <ele>1047.4936523438</ele>
        <time>2012-04-08T07:42:17Z</time>
      </trkpt>
      <trkpt lat="42.87546" lon="1.82638">
        <ele>1047.9743652344</ele>
        <time>2012-04-08T07:42:22Z</time>
      </trkpt>
      <trkpt lat="42.87547" lon="1.82622">
        <ele>1047.4936523438</ele>
        <time>2012-04-08T07:42:26Z</time>
      </trkpt>
      <trkpt lat="42.8755" lon="1.82606">
        <ele>1047.9743652344</ele>
        <time>2012-04-08T07:42:31Z</time>
      </trkpt>
      <trkpt lat="42.87556" lon="1.82591">
        <ele>1048.935546875</ele>
        <time>2012-04-08T07:42:36Z</time>
      </trkpt>
      <trkpt lat="42.87569" lon="1.82575">
        <ele>1046.5324707031</ele>
        <time>2012-04-08T07:42:43Z</time>
      </trkpt>
      <trkpt lat="42.87575" lon="1.82563">
        <ele>1044.6096191406</ele>
        <time>2012-04-08T07:42:47Z</time>
      </trkpt>
      <trkpt lat="42.87584" lon="1.82558">
        <ele>1045.0903320312</ele>
        <time>2012-04-08T07:42:51Z</time>
      </trkpt>
      <trkpt lat="42.87599" lon="1.82555">
        <ele>1045.0903320312</ele>
        <time>2012-04-08T07:42:57Z</time>
      </trkpt>
      <trkpt lat="42.87611" lon="1.82551">
        <ele>1048.4548339844</ele>
        <time>2012-04-08T07:43:02Z</time>
      </trkpt>
      <trkpt lat="42.87622" lon="1.82543">
        <ele>1050.3776855469</ele>
        <time>2012-04-08T07:43:07Z</time>
      </trkpt>
      <trkpt lat="42.87628" lon="1.82533">
        <ele>1051.8195800781</ele>
        <time>2012-04-08T07:43:11Z</time>
      </trkpt>
      <trkpt lat="42.87636" lon="1.82525">
        <ele>1052.3002929688</ele>
        <time>2012-04-08T07:43:15Z</time>
      </trkpt>
      <trkpt lat="42.87643" lon="1.82513">
        <ele>1052.3002929688</ele>
        <time>2012-04-08T07:43:20Z</time>
      </trkpt>
      <trkpt lat="42.87649" lon="1.82501">
        <ele>1050.3776855469</ele>
        <time>2012-04-08T07:43:25Z</time>
      </trkpt>
      <trkpt lat="42.87653" lon="1.82489">
        <ele>1048.4548339844</ele>
        <time>2012-04-08T07:43:29Z</time>
      </trkpt>
      <trkpt lat="42.87656" lon="1.82478">
        <ele>1048.4548339844</ele>
        <time>2012-04-08T07:43:34Z</time>
      </trkpt>
      <trkpt lat="42.87661" lon="1.82465">
        <ele>1047.4936523438</ele>
        <time>2012-04-08T07:43:39Z</time>
      </trkpt>
      <trkpt lat="42.87671" lon="1.82448">
        <ele>1046.5324707031</ele>
        <time>2012-04-08T07:43:46Z</time>
      </trkpt>
      <trkpt lat="42.87672" lon="1.82446">
        <ele>1046.5324707031</ele>
        <time>2012-04-08T07:43:47Z</time>
      </trkpt>
      <trkpt lat="42.8768" lon="1.82433">
        <ele>1048.935546875</ele>
        <time>2012-04-08T07:43:53Z</time>
      </trkpt>
      <trkpt lat="42.87682" lon="1.82431">
        <ele>1049.8969726562</ele>
        <time>2012-04-08T07:43:54Z</time>
      </trkpt>
      <trkpt lat="42.87688" lon="1.82422">
        <ele>1049.8969726562</ele>
        <time>2012-04-08T07:43:59Z</time>
      </trkpt>
      <trkpt lat="42.87695" lon="1.82414">
        <ele>1050.3776855469</ele>
        <time>2012-04-08T07:44:05Z</time>
      </trkpt>
      <trkpt lat="42.87702" lon="1.82407">
        <ele>1052.3002929688</ele>
        <time>2012-04-08T07:44:09Z</time>
      </trkpt>
      <trkpt lat="42.87704" lon="1.82406">
        <ele>1052.7810058594</ele>
        <time>2012-04-08T07:44:10Z</time>
      </trkpt>
      <trkpt lat="42.87709" lon="1.82404">
        <ele>1054.2231445312</ele>
        <time>2012-04-08T07:44:13Z</time>
      </trkpt>
      <trkpt lat="42.87713" lon="1.82396">
        <ele>1053.26171875</ele>
        <time>2012-04-08T07:44:17Z</time>
      </trkpt>
      <trkpt lat="42.8772" lon="1.82383">
        <ele>1049.4162597656</ele>
        <time>2012-04-08T07:44:24Z</time>
      </trkpt>
      <trkpt lat="42.87726" lon="1.8237">
        <ele>1044.6096191406</ele>
        <time>2012-04-08T07:44:30Z</time>
      </trkpt>
      <trkpt lat="42.8773" lon="1.82357">
        <ele>1041.2451171875</ele>
        <time>2012-04-08T07:44:35Z</time>
      </trkpt>
      <trkpt lat="42.87738" lon="1.82343">
        <ele>1035.9577636719</ele>
        <time>2012-04-08T07:44:41Z</time>
      </trkpt>
      <trkpt lat="42.87743" lon="1.82333">
        <ele>1035.4770507812</ele>
        <time>2012-04-08T07:44:45Z</time>
      </trkpt>
      <trkpt lat="42.87755" lon="1.82316">
        <ele>1031.1513671875</ele>
        <time>2012-04-08T07:44:51Z</time>
      </trkpt>
      <trkpt lat="42.87762" lon="1.82303">
        <ele>1027.7866210938</ele>
        <time>2012-04-08T07:44:56Z</time>
      </trkpt>
      <trkpt lat="42.8777" lon="1.82287">
        <ele>1025.8640136719</ele>
        <time>2012-04-08T07:45:01Z</time>
      </trkpt>
      <trkpt lat="42.87775" lon="1.82275">
        <ele>1024.4221191406</ele>
        <time>2012-04-08T07:45:05Z</time>
      </trkpt>
      <trkpt lat="42.87781" lon="1.8226">
        <ele>1023.94140625</ele>
        <time>2012-04-08T07:45:09Z</time>
      </trkpt>
      <trkpt lat="42.87783" lon="1.82246">
        <ele>1018.6540527344</ele>
        <time>2012-04-08T07:45:14Z</time>
      </trkpt>
      <trkpt lat="42.87787" lon="1.8223">
        <ele>1015.2895507812</ele>
        <time>2012-04-08T07:45:19Z</time>
      </trkpt>
      <trkpt lat="42.87791" lon="1.82222">
        <ele>1013.3669433594</ele>
        <time>2012-04-08T07:45:22Z</time>
      </trkpt>
      <trkpt lat="42.87794" lon="1.82211">
        <ele>1009.5217285156</ele>
        <time>2012-04-08T07:45:27Z</time>
      </trkpt>
      <trkpt lat="42.87801" lon="1.82198">
        <ele>1006.1569824219</ele>
        <time>2012-04-08T07:45:32Z</time>
      </trkpt>
      <trkpt lat="42.87807" lon="1.82181">
        <ele>1005.1958007812</ele>
        <time>2012-04-08T07:45:38Z</time>
      </trkpt>
      <trkpt lat="42.87811" lon="1.82167">
        <ele>1004.2346191406</ele>
        <time>2012-04-08T07:45:42Z</time>
      </trkpt>
      <trkpt lat="42.87813" lon="1.82163">
        <ele>1004.2346191406</ele>
        <time>2012-04-08T07:45:43Z</time>
      </trkpt>
      <trkpt lat="42.87815" lon="1.82146">
        <ele>1001.8310546875</ele>
        <time>2012-04-08T07:45:49Z</time>
      </trkpt>
      <trkpt lat="42.87819" lon="1.82134">
        <ele>1002.7922363281</ele>
        <time>2012-04-08T07:45:53Z</time>
      </trkpt>
      <trkpt lat="42.87817" lon="1.8212">
        <ele>1000.3891601562</ele>
        <time>2012-04-08T07:45:58Z</time>
      </trkpt>
      <trkpt lat="42.87817" lon="1.82117">
        <ele>1000.3891601562</ele>
        <time>2012-04-08T07:45:59Z</time>
      </trkpt>
      <trkpt lat="42.87811" lon="1.82095">
        <ele>1003.7536621094</ele>
        <time>2012-04-08T07:46:07Z</time>
      </trkpt>
      <trkpt lat="42.87808" lon="1.82081">
        <ele>1003.7536621094</ele>
        <time>2012-04-08T07:46:11Z</time>
      </trkpt>
      <trkpt lat="42.87803" lon="1.82068">
        <ele>1003.7536621094</ele>
        <time>2012-04-08T07:46:15Z</time>
      </trkpt>
      <trkpt lat="42.87807" lon="1.8206">
        <ele>1001.8310546875</ele>
        <time>2012-04-08T07:46:19Z</time>
      </trkpt>
      <trkpt lat="42.87812" lon="1.82061">
        <ele>998.94702148438</ele>
        <time>2012-04-08T07:46:23Z</time>
      </trkpt>
      <trkpt lat="42.87813" lon="1.82062">
        <ele>998.46630859375</ele>
        <time>2012-04-08T07:46:29Z</time>
      </trkpt>
      <trkpt lat="42.87814" lon="1.82057">
        <ele>998.46630859375</ele>
        <time>2012-04-08T07:46:34Z</time>
      </trkpt>
      <trkpt lat="42.87813" lon="1.82054">
        <ele>997.98583984375</ele>
        <time>2012-04-08T07:46:36Z</time>
      </trkpt>
      <trkpt lat="42.8782" lon="1.82045">
        <ele>996.5439453125</ele>
        <time>2012-04-08T07:46:42Z</time>
      </trkpt>
      <trkpt lat="42.87826" lon="1.8204">
        <ele>995.58251953125</ele>
        <time>2012-04-08T07:46:46Z</time>
      </trkpt>
      <trkpt lat="42.87828" lon="1.82034">
        <ele>994.140625</ele>
        <time>2012-04-08T07:46:49Z</time>
      </trkpt>
      <trkpt lat="42.87828" lon="1.82031">
        <ele>994.140625</ele>
        <time>2012-04-08T07:46:50Z</time>
      </trkpt>
      <trkpt lat="42.87828" lon="1.8202">
        <ele>992.69873046875</ele>
        <time>2012-04-08T07:46:55Z</time>
      </trkpt>
      <trkpt lat="42.87827" lon="1.82015">
        <ele>989.81469726562</ele>
        <time>2012-04-08T07:46:59Z</time>
      </trkpt>
      <trkpt lat="42.87827" lon="1.82013">
        <ele>988.853515625</ele>
        <time>2012-04-08T07:47:00Z</time>
      </trkpt>
      <trkpt lat="42.8783" lon="1.82005">
        <ele>983.56591796875</ele>
        <time>2012-04-08T07:47:07Z</time>
      </trkpt>
      <trkpt lat="42.87831" lon="1.82003">
        <ele>982.60473632812</ele>
        <time>2012-04-08T07:47:09Z</time>
      </trkpt>
      <trkpt lat="42.87833" lon="1.81993">
        <ele>977.79809570312</ele>
        <time>2012-04-08T07:47:15Z</time>
      </trkpt>
      <trkpt lat="42.87835" lon="1.81986">
        <ele>975.39477539062</ele>
        <time>2012-04-08T07:47:19Z</time>
      </trkpt>
      <trkpt lat="42.87838" lon="1.81983">
        <ele>975.39477539062</ele>
        <time>2012-04-08T07:47:21Z</time>
      </trkpt>
      <trkpt lat="42.87841" lon="1.81979">
        <ele>973.47241210938</ele>
        <time>2012-04-08T07:47:24Z</time>
      </trkpt>
      <trkpt lat="42.87849" lon="1.81966">
        <ele>971.06884765625</ele>
        <time>2012-04-08T07:47:30Z</time>
      </trkpt>
      <trkpt lat="42.87857" lon="1.81958">
        <ele>969.626953125</ele>
        <time>2012-04-08T07:47:35Z</time>
      </trkpt>
      <trkpt lat="42.87862" lon="1.8195">
        <ele>966.26220703125</ele>
        <time>2012-04-08T07:47:40Z</time>
      </trkpt>
      <trkpt lat="42.87862" lon="1.81939">
        <ele>964.8203125</ele>
        <time>2012-04-08T07:47:44Z</time>
      </trkpt>
      <trkpt lat="42.87853" lon="1.81925">
        <ele>963.37841796875</ele>
        <time>2012-04-08T07:47:49Z</time>
      </trkpt>
      <trkpt lat="42.87849" lon="1.8191">
        <ele>963.85888671875</ele>
        <time>2012-04-08T07:47:53Z</time>
      </trkpt>
      <trkpt lat="42.87846" lon="1.81894">
        <ele>964.33959960938</ele>
        <time>2012-04-08T07:47:57Z</time>
      </trkpt>
      <trkpt lat="42.87841" lon="1.81878">
        <ele>966.74291992188</ele>
        <time>2012-04-08T07:48:02Z</time>
      </trkpt>
      <trkpt lat="42.87837" lon="1.8186">
        <ele>967.2236328125</ele>
        <time>2012-04-08T07:48:07Z</time>
      </trkpt>
      <trkpt lat="42.8783" lon="1.81842">
        <ele>969.14624023438</ele>
        <time>2012-04-08T07:48:12Z</time>
      </trkpt>
      <trkpt lat="42.87828" lon="1.81836">
        <ele>968.18481445312</ele>
        <time>2012-04-08T07:48:14Z</time>
      </trkpt>
      <trkpt lat="42.87825" lon="1.81811">
        <ele>970.58813476562</ele>
        <time>2012-04-08T07:48:20Z</time>
      </trkpt>
      <trkpt lat="42.87827" lon="1.81797">
        <ele>968.66552734375</ele>
        <time>2012-04-08T07:48:24Z</time>
      </trkpt>
      <trkpt lat="42.87827" lon="1.81794">
        <ele>968.18481445312</ele>
        <time>2012-04-08T07:48:25Z</time>
      </trkpt>
      <trkpt lat="42.8782" lon="1.81774">
        <ele>964.8203125</ele>
        <time>2012-04-08T07:48:31Z</time>
      </trkpt>
      <trkpt lat="42.87815" lon="1.81762">
        <ele>964.33959960938</ele>
        <time>2012-04-08T07:48:35Z</time>
      </trkpt>
      <trkpt lat="42.87814" lon="1.81759">
        <ele>964.33959960938</ele>
        <time>2012-04-08T07:48:37Z</time>
      </trkpt>
      <trkpt lat="42.87814" lon="1.81758">
        <ele>966.26220703125</ele>
        <time>2012-04-08T07:48:46Z</time>
      </trkpt>
      <trkpt lat="42.87813" lon="1.81753">
        <ele>972.99169921875</ele>
        <time>2012-04-08T07:49:13Z</time>
      </trkpt>
      <trkpt lat="42.87811" lon="1.81753">
        <ele>972.99169921875</ele>
        <time>2012-04-08T07:49:16Z</time>
      </trkpt>
      <trkpt lat="42.87797" lon="1.81748">
        <ele>970.58813476562</ele>
        <time>2012-04-08T07:49:21Z</time>
      </trkpt>
      <trkpt lat="42.87783" lon="1.81748">
        <ele>967.7041015625</ele>
        <time>2012-04-08T07:49:25Z</time>
      </trkpt>
      <trkpt lat="42.87765" lon="1.81753">
        <ele>964.8203125</ele>
        <time>2012-04-08T07:49:30Z</time>
      </trkpt>
      <trkpt lat="42.87752" lon="1.81759">
        <ele>962.89770507812</ele>
        <time>2012-04-08T07:49:34Z</time>
      </trkpt>
      <trkpt lat="42.87747" lon="1.81762">
        <ele>962.89770507812</ele>
        <time>2012-04-08T07:49:36Z</time>
      </trkpt>
      <trkpt lat="42.87743" lon="1.81756">
        <ele>960.013671875</ele>
        <time>2012-04-08T07:49:40Z</time>
      </trkpt>
      <trkpt lat="42.87753" lon="1.81746">
        <ele>955.20703125</ele>
        <time>2012-04-08T07:49:45Z</time>
      </trkpt>
      <trkpt lat="42.87759" lon="1.8174">
        <ele>952.8037109375</ele>
        <time>2012-04-08T07:49:48Z</time>
      </trkpt>
      <trkpt lat="42.87767" lon="1.81731">
        <ele>949.43920898438</ele>
        <time>2012-04-08T07:49:52Z</time>
      </trkpt>
      <trkpt lat="42.8777" lon="1.81725">
        <ele>947.5166015625</ele>
        <time>2012-04-08T07:49:54Z</time>
      </trkpt>
      <trkpt lat="42.87785" lon="1.81711">
        <ele>943.19067382812</ele>
        <time>2012-04-08T07:50:00Z</time>
      </trkpt>
      <trkpt lat="42.87794" lon="1.81695">
        <ele>939.82592773438</ele>
        <time>2012-04-08T07:50:05Z</time>
      </trkpt>
      <trkpt lat="42.87803" lon="1.81688">
        <ele>938.38403320312</ele>
        <time>2012-04-08T07:50:09Z</time>
      </trkpt>
      <trkpt lat="42.87814" lon="1.81681">
        <ele>936.46142578125</ele>
        <time>2012-04-08T07:50:13Z</time>
      </trkpt>
      <trkpt lat="42.87827" lon="1.8167">
        <ele>931.65478515625</ele>
        <time>2012-04-08T07:50:18Z</time>
      </trkpt>
      <trkpt lat="42.87835" lon="1.81663">
        <ele>929.25146484375</ele>
        <time>2012-04-08T07:50:22Z</time>
      </trkpt>
      <trkpt lat="42.8784" lon="1.8166">
        <ele>927.8095703125</ele>
        <time>2012-04-08T07:50:24Z</time>
      </trkpt>
      <trkpt lat="42.8785" lon="1.81652">
        <ele>926.84838867188</ele>
        <time>2012-04-08T07:50:29Z</time>
      </trkpt>
      <trkpt lat="42.87862" lon="1.81651">
        <ele>925.40625</ele>
        <time>2012-04-08T07:50:34Z</time>
      </trkpt>
      <trkpt lat="42.87865" lon="1.8165">
        <ele>925.40625</ele>
        <time>2012-04-08T07:50:35Z</time>
      </trkpt>
      <trkpt lat="42.87867" lon="1.81652">
        <ele>927.3291015625</ele>
        <time>2012-04-08T07:50:41Z</time>
      </trkpt>
      <trkpt lat="42.87869" lon="1.8165">
        <ele>928.29028320312</ele>
        <time>2012-04-08T07:50:44Z</time>
      </trkpt>
      <trkpt lat="42.8788" lon="1.81645">
        <ele>927.8095703125</ele>
        <time>2012-04-08T07:50:49Z</time>
      </trkpt>
      <trkpt lat="42.87891" lon="1.81635">
        <ele>926.84838867188</ele>
        <time>2012-04-08T07:50:54Z</time>
      </trkpt>
      <trkpt lat="42.87899" lon="1.81627">
        <ele>929.25146484375</ele>
        <time>2012-04-08T07:50:59Z</time>
      </trkpt>
      <trkpt lat="42.87903" lon="1.81624">
        <ele>929.73217773438</ele>
        <time>2012-04-08T07:51:01Z</time>
      </trkpt>
      <trkpt lat="42.87907" lon="1.81618">
        <ele>930.69360351562</ele>
        <time>2012-04-08T07:51:05Z</time>
      </trkpt>
      <trkpt lat="42.87914" lon="1.81594">
        <ele>928.77099609375</ele>
        <time>2012-04-08T07:51:12Z</time>
      </trkpt>
      <trkpt lat="42.87917" lon="1.81585">
        <ele>924.92578125</ele>
        <time>2012-04-08T07:51:16Z</time>
      </trkpt>
      <trkpt lat="42.87918" lon="1.81581">
        <ele>922.52221679688</ele>
        <time>2012-04-08T07:51:18Z</time>
      </trkpt>
      <trkpt lat="42.87922" lon="1.81569">
        <ele>922.52221679688</ele>
        <time>2012-04-08T07:51:24Z</time>
      </trkpt>
      <trkpt lat="42.87924" lon="1.81556">
        <ele>922.04150390625</ele>
        <time>2012-04-08T07:51:30Z</time>
      </trkpt>
      <trkpt lat="42.87926" lon="1.8154">
        <ele>922.04150390625</ele>
        <time>2012-04-08T07:51:35Z</time>
      </trkpt>
      <trkpt lat="42.8793" lon="1.81524">
        <ele>924.44506835938</ele>
        <time>2012-04-08T07:51:39Z</time>
      </trkpt>
      <trkpt lat="42.87934" lon="1.81508">
        <ele>924.92578125</ele>
        <time>2012-04-08T07:51:44Z</time>
      </trkpt>
      <trkpt lat="42.87941" lon="1.81494">
        <ele>921.56079101562</ele>
        <time>2012-04-08T07:51:49Z</time>
      </trkpt>
      <trkpt lat="42.87943" lon="1.81491">
        <ele>921.08032226562</ele>
        <time>2012-04-08T07:51:50Z</time>
      </trkpt>
      <trkpt lat="42.87947" lon="1.81471">
        <ele>918.1962890625</ele>
        <time>2012-04-08T07:51:55Z</time>
      </trkpt>
      <trkpt lat="42.87962" lon="1.81459">
        <ele>921.08032226562</ele>
        <time>2012-04-08T07:52:01Z</time>
      </trkpt>
      <trkpt lat="42.87965" lon="1.81448">
        <ele>920.11889648438</ele>
        <time>2012-04-08T07:52:05Z</time>
      </trkpt>
      <trkpt lat="42.87971" lon="1.81441">
        <ele>922.04150390625</ele>
        <time>2012-04-08T07:52:08Z</time>
      </trkpt>
      <trkpt lat="42.8798" lon="1.81428">
        <ele>917.71557617188</ele>
        <time>2012-04-08T07:52:14Z</time>
      </trkpt>
      <trkpt lat="42.87985" lon="1.81416">
        <ele>914.35107421875</ele>
        <time>2012-04-08T07:52:18Z</time>
      </trkpt>
      <trkpt lat="42.87989" lon="1.81408">
        <ele>912.42846679688</ele>
        <time>2012-04-08T07:52:22Z</time>
      </trkpt>
      <trkpt lat="42.87997" lon="1.81395">
        <ele>910.02514648438</ele>
        <time>2012-04-08T07:52:27Z</time>
      </trkpt>
      <trkpt lat="42.87999" lon="1.81387">
        <ele>907.14111328125</ele>
        <time>2012-04-08T07:52:32Z</time>
      </trkpt>
      <trkpt lat="42.87999" lon="1.81386">
        <ele>907.14111328125</ele>
        <time>2012-04-08T07:52:33Z</time>
      </trkpt>
      <trkpt lat="42.87999" lon="1.81384">
        <ele>904.73779296875</ele>
        <time>2012-04-08T07:52:35Z</time>
      </trkpt>
      <trkpt lat="42.87996" lon="1.81363">
        <ele>899.93139648438</ele>
        <time>2012-04-08T07:52:42Z</time>
      </trkpt>
      <trkpt lat="42.88001" lon="1.81347">
        <ele>901.37329101562</ele>
        <time>2012-04-08T07:52:47Z</time>
      </trkpt>
      <trkpt lat="42.88003" lon="1.81336">
        <ele>898.4892578125</ele>
        <time>2012-04-08T07:52:51Z</time>
      </trkpt>
      <trkpt lat="42.88009" lon="1.81319">
        <ele>896.56689453125</ele>
        <time>2012-04-08T07:52:57Z</time>
      </trkpt>
      <trkpt lat="42.88011" lon="1.8131">
        <ele>896.56689453125</ele>
        <time>2012-04-08T07:53:00Z</time>
      </trkpt>
      <trkpt lat="42.88016" lon="1.81294">
        <ele>892.7216796875</ele>
        <time>2012-04-08T07:53:06Z</time>
      </trkpt>
      <trkpt lat="42.88018" lon="1.81286">
        <ele>892.24096679688</ele>
        <time>2012-04-08T07:53:09Z</time>
      </trkpt>
      <trkpt lat="42.88025" lon="1.81273">
        <ele>892.7216796875</ele>
        <time>2012-04-08T07:53:14Z</time>
      </trkpt>
      <trkpt lat="42.88026" lon="1.81264">
        <ele>888.87622070312</ele>
        <time>2012-04-08T07:53:18Z</time>
      </trkpt>
      <trkpt lat="42.88026" lon="1.81261">
        <ele>887.91479492188</ele>
        <time>2012-04-08T07:53:19Z</time>
      </trkpt>
      <trkpt lat="42.88027" lon="1.81255">
        <ele>886.47290039062</ele>
        <time>2012-04-08T07:53:21Z</time>
      </trkpt>
      <trkpt lat="42.88029" lon="1.81242">
        <ele>884.06958007812</ele>
        <time>2012-04-08T07:53:26Z</time>
      </trkpt>
      <trkpt lat="42.88031" lon="1.81238">
        <ele>884.55029296875</ele>
        <time>2012-04-08T07:53:28Z</time>
      </trkpt>
      <trkpt lat="42.88031" lon="1.81229">
        <ele>885.9921875</ele>
        <time>2012-04-08T07:53:33Z</time>
      </trkpt>
      <trkpt lat="42.88034" lon="1.8122">
        <ele>885.51147460938</ele>
        <time>2012-04-08T07:53:38Z</time>
      </trkpt>
      <trkpt lat="42.88034" lon="1.81217">
        <ele>885.03100585938</ele>
        <time>2012-04-08T07:53:39Z</time>
      </trkpt>
      <trkpt lat="42.88036" lon="1.81203">
        <ele>889.83740234375</ele>
        <time>2012-04-08T07:53:44Z</time>
      </trkpt>
      <trkpt lat="42.8804" lon="1.81189">
        <ele>892.7216796875</ele>
        <time>2012-04-08T07:53:48Z</time>
      </trkpt>
      <trkpt lat="42.88042" lon="1.81186">
        <ele>892.24096679688</ele>
        <time>2012-04-08T07:53:49Z</time>
      </trkpt>
      <trkpt lat="42.88046" lon="1.81174">
        <ele>889.83740234375</ele>
        <time>2012-04-08T07:53:54Z</time>
      </trkpt>
      <trkpt lat="42.88048" lon="1.81166">
        <ele>887.91479492188</ele>
        <time>2012-04-08T07:53:58Z</time>
      </trkpt>
      <trkpt lat="42.88052" lon="1.81162">
        <ele>886.95336914062</ele>
        <time>2012-04-08T07:54:03Z</time>
      </trkpt>
      <trkpt lat="42.88047" lon="1.81157">
        <ele>885.9921875</ele>
        <time>2012-04-08T07:54:10Z</time>
      </trkpt>
      <trkpt lat="42.88052" lon="1.81143">
        <ele>884.55029296875</ele>
        <time>2012-04-08T07:54:15Z</time>
      </trkpt>
      <trkpt lat="42.88055" lon="1.8113">
        <ele>882.14697265625</ele>
        <time>2012-04-08T07:54:20Z</time>
      </trkpt>
      <trkpt lat="42.88065" lon="1.81117">
        <ele>880.705078125</ele>
        <time>2012-04-08T07:54:26Z</time>
      </trkpt>
      <trkpt lat="42.88068" lon="1.81111">
        <ele>877.82104492188</ele>
        <time>2012-04-08T07:54:29Z</time>
      </trkpt>
      <trkpt lat="42.88077" lon="1.81097">
        <ele>876.37915039062</ele>
        <time>2012-04-08T07:54:35Z</time>
      </trkpt>
      <trkpt lat="42.88081" lon="1.81094">
        <ele>876.37915039062</ele>
        <time>2012-04-08T07:54:37Z</time>
      </trkpt>
      <trkpt lat="42.88091" lon="1.81081">
        <ele>879.26293945312</ele>
        <time>2012-04-08T07:54:42Z</time>
      </trkpt>
      <trkpt lat="42.88099" lon="1.81068">
        <ele>875.89819335938</ele>
        <time>2012-04-08T07:54:47Z</time>
      </trkpt>
      <trkpt lat="42.88101" lon="1.81061">
        <ele>872.05297851562</ele>
        <time>2012-04-08T07:54:50Z</time>
      </trkpt>
      <trkpt lat="42.88105" lon="1.81046">
        <ele>865.8046875</ele>
        <time>2012-04-08T07:54:55Z</time>
      </trkpt>
      <trkpt lat="42.88112" lon="1.81034">
        <ele>862.43994140625</ele>
        <time>2012-04-08T07:55:00Z</time>
      </trkpt>
      <trkpt lat="42.88114" lon="1.81026">
        <ele>860.03662109375</ele>
        <time>2012-04-08T07:55:03Z</time>
      </trkpt>
      <trkpt lat="42.88116" lon="1.81022">
        <ele>859.0751953125</ele>
        <time>2012-04-08T07:55:06Z</time>
      </trkpt>
      <trkpt lat="42.88124" lon="1.81008">
        <ele>857.15258789062</ele>
        <time>2012-04-08T07:55:12Z</time>
      </trkpt>
      <trkpt lat="42.88129" lon="1.80997">
        <ele>855.71069335938</ele>
        <time>2012-04-08T07:55:15Z</time>
      </trkpt>
      <trkpt lat="42.88131" lon="1.8099">
        <ele>856.19116210938</ele>
        <time>2012-04-08T07:55:17Z</time>
      </trkpt>
      <trkpt lat="42.88138" lon="1.80975">
        <ele>854.74926757812</ele>
        <time>2012-04-08T07:55:22Z</time>
      </trkpt>
      <trkpt lat="42.88143" lon="1.80953">
        <ele>851.384765625</ele>
        <time>2012-04-08T07:55:28Z</time>
      </trkpt>
      <trkpt lat="42.88142" lon="1.80939">
        <ele>848.9814453125</ele>
        <time>2012-04-08T07:55:32Z</time>
      </trkpt>
      <trkpt lat="42.8814" lon="1.80922">
        <ele>850.90405273438</ele>
        <time>2012-04-08T07:55:36Z</time>
      </trkpt>
      <trkpt lat="42.88139" lon="1.80902">
        <ele>849.46215820312</ele>
        <time>2012-04-08T07:55:41Z</time>
      </trkpt>
      <trkpt lat="42.88142" lon="1.80892">
        <ele>849.46215820312</ele>
        <time>2012-04-08T07:55:44Z</time>
      </trkpt>
      <trkpt lat="42.88144" lon="1.80875">
        <ele>851.86547851562</ele>
        <time>2012-04-08T07:55:49Z</time>
      </trkpt>
      <trkpt lat="42.88144" lon="1.80863">
        <ele>852.34594726562</ele>
        <time>2012-04-08T07:55:52Z</time>
      </trkpt>
      <trkpt lat="42.88146" lon="1.80855">
        <ele>853.7880859375</ele>
        <time>2012-04-08T07:55:54Z</time>
      </trkpt>
      <trkpt lat="42.88145" lon="1.80843">
        <ele>859.0751953125</ele>
        <time>2012-04-08T07:55:59Z</time>
      </trkpt>
      <trkpt lat="42.88141" lon="1.80825">
        <ele>863.4013671875</ele>
        <time>2012-04-08T07:56:04Z</time>
      </trkpt>
      <trkpt lat="42.8814" lon="1.80811">
        <ele>861.95947265625</ele>
        <time>2012-04-08T07:56:09Z</time>
      </trkpt>
      <trkpt lat="42.88142" lon="1.80805">
        <ele>861.47875976562</ele>
        <time>2012-04-08T07:56:11Z</time>
      </trkpt>
      <trkpt lat="42.88141" lon="1.80792">
        <ele>858.11401367188</ele>
        <time>2012-04-08T07:56:17Z</time>
      </trkpt>
      <trkpt lat="42.88141" lon="1.80789">
        <ele>859.0751953125</ele>
        <time>2012-04-08T07:56:18Z</time>
      </trkpt>
      <trkpt lat="42.88141" lon="1.80775">
        <ele>856.671875</ele>
        <time>2012-04-08T07:56:23Z</time>
      </trkpt>
      <trkpt lat="42.8814" lon="1.80761">
        <ele>851.384765625</ele>
        <time>2012-04-08T07:56:29Z</time>
      </trkpt>
      <trkpt lat="42.88138" lon="1.80747">
        <ele>847.05883789062</ele>
        <time>2012-04-08T07:56:34Z</time>
      </trkpt>
      <trkpt lat="42.88139" lon="1.80733">
        <ele>844.65551757812</ele>
        <time>2012-04-08T07:56:40Z</time>
      </trkpt>
      <trkpt lat="42.88138" lon="1.80731">
        <ele>843.69409179688</ele>
        <time>2012-04-08T07:56:41Z</time>
      </trkpt>
      <trkpt lat="42.88132" lon="1.8072">
        <ele>842.25219726562</ele>
        <time>2012-04-08T07:56:47Z</time>
      </trkpt>
      <trkpt lat="42.88131" lon="1.80718">
        <ele>842.73291015625</ele>
        <time>2012-04-08T07:56:48Z</time>
      </trkpt>
      <trkpt lat="42.88129" lon="1.80711">
        <ele>844.65551757812</ele>
        <time>2012-04-08T07:56:52Z</time>
      </trkpt>
      <trkpt lat="42.8814" lon="1.80704">
        <ele>846.57836914062</ele>
        <time>2012-04-08T07:56:58Z</time>
      </trkpt>
      <trkpt lat="42.88146" lon="1.80699">
        <ele>846.09765625</ele>
        <time>2012-04-08T07:57:01Z</time>
      </trkpt>
      <trkpt lat="42.88158" lon="1.80678">
        <ele>842.25219726562</ele>
        <time>2012-04-08T07:57:08Z</time>
      </trkpt>
      <trkpt lat="42.88163" lon="1.80664">
        <ele>839.3681640625</ele>
        <time>2012-04-08T07:57:13Z</time>
      </trkpt>
      <trkpt lat="42.88173" lon="1.80648">
        <ele>837.44555664062</ele>
        <time>2012-04-08T07:57:18Z</time>
      </trkpt>
      <trkpt lat="42.8818" lon="1.80634">
        <ele>834.0810546875</ele>
        <time>2012-04-08T07:57:23Z</time>
      </trkpt>
      <trkpt lat="42.88182" lon="1.80626">
        <ele>832.63916015625</ele>
        <time>2012-04-08T07:57:26Z</time>
      </trkpt>
      <trkpt lat="42.88189" lon="1.80609">
        <ele>836.00366210938</ele>
        <time>2012-04-08T07:57:33Z</time>
      </trkpt>
      <trkpt lat="42.88197" lon="1.80597">
        <ele>837.92626953125</ele>
        <time>2012-04-08T07:57:38Z</time>
      </trkpt>
      <trkpt lat="42.88201" lon="1.8059">
        <ele>835.52294921875</ele>
        <time>2012-04-08T07:57:42Z</time>
      </trkpt>
      <trkpt lat="42.88207" lon="1.80573">
        <ele>832.15844726562</ele>
        <time>2012-04-08T07:57:48Z</time>
      </trkpt>
      <trkpt lat="42.88211" lon="1.80562">
        <ele>829.2744140625</ele>
        <time>2012-04-08T07:57:52Z</time>
      </trkpt>
      <trkpt lat="42.88218" lon="1.80548">
        <ele>826.39038085938</ele>
        <time>2012-04-08T07:57:57Z</time>
      </trkpt>
      <trkpt lat="42.88226" lon="1.80534">
        <ele>824.94848632812</ele>
        <time>2012-04-08T07:58:02Z</time>
      </trkpt>
      <trkpt lat="42.88233" lon="1.80513">
        <ele>824.94848632812</ele>
        <time>2012-04-08T07:58:08Z</time>
      </trkpt>
      <trkpt lat="42.88235" lon="1.80506">
        <ele>826.87109375</ele>
        <time>2012-04-08T07:58:10Z</time>
      </trkpt>
      <trkpt lat="42.88246" lon="1.80487">
        <ele>830.71655273438</ele>
        <time>2012-04-08T07:58:16Z</time>
      </trkpt>
      <trkpt lat="42.88253" lon="1.80477">
        <ele>827.83227539062</ele>
        <time>2012-04-08T07:58:20Z</time>
      </trkpt>
      <trkpt lat="42.88261" lon="1.80466">
        <ele>823.50659179688</ele>
        <time>2012-04-08T07:58:24Z</time>
      </trkpt>
      <trkpt lat="42.88267" lon="1.80455">
        <ele>823.50659179688</ele>
        <time>2012-04-08T07:58:28Z</time>
      </trkpt>
      <trkpt lat="42.88272" lon="1.80443">
        <ele>822.064453125</ele>
        <time>2012-04-08T07:58:32Z</time>
      </trkpt>
      <trkpt lat="42.88279" lon="1.80426">
        <ele>822.54516601562</ele>
        <time>2012-04-08T07:58:37Z</time>
      </trkpt>
      <trkpt lat="42.8828" lon="1.8042">
        <ele>821.58374023438</ele>
        <time>2012-04-08T07:58:39Z</time>
      </trkpt>
      <trkpt lat="42.88291" lon="1.80404">
        <ele>820.62255859375</ele>
        <time>2012-04-08T07:58:45Z</time>
      </trkpt>
      <trkpt lat="42.88304" lon="1.80397">
        <ele>823.98706054688</ele>
        <time>2012-04-08T07:58:51Z</time>
      </trkpt>
      <trkpt lat="42.88306" lon="1.80396">
        <ele>824.4677734375</ele>
        <time>2012-04-08T07:58:52Z</time>
      </trkpt>
      <trkpt lat="42.88314" lon="1.80391">
        <ele>826.39038085938</ele>
        <time>2012-04-08T07:58:55Z</time>
      </trkpt>
      <trkpt lat="42.88324" lon="1.80378">
        <ele>824.94848632812</ele>
        <time>2012-04-08T07:59:00Z</time>
      </trkpt>
      <trkpt lat="42.88332" lon="1.80362">
        <ele>822.54516601562</ele>
        <time>2012-04-08T07:59:05Z</time>
      </trkpt>
      <trkpt lat="42.8834" lon="1.80348">
        <ele>820.14184570312</ele>
        <time>2012-04-08T07:59:10Z</time>
      </trkpt>
      <trkpt lat="42.8835" lon="1.8033">
        <ele>819.66137695312</ele>
        <time>2012-04-08T07:59:16Z</time>
      </trkpt>
      <trkpt lat="42.88351" lon="1.80328">
        <ele>819.66137695312</ele>
        <time>2012-04-08T07:59:17Z</time>
      </trkpt>
      <trkpt lat="42.88361" lon="1.80315">
        <ele>815.33544921875</ele>
        <time>2012-04-08T07:59:22Z</time>
      </trkpt>
      <trkpt lat="42.88365" lon="1.80309">
        <ele>815.33544921875</ele>
        <time>2012-04-08T07:59:24Z</time>
      </trkpt>
      <trkpt lat="42.8837" lon="1.80297">
        <ele>814.85473632812</ele>
        <time>2012-04-08T07:59:28Z</time>
      </trkpt>
      <trkpt lat="42.88374" lon="1.80279">
        <ele>811.00927734375</ele>
        <time>2012-04-08T07:59:33Z</time>
      </trkpt>
      <trkpt lat="42.8838" lon="1.80264">
        <ele>809.08666992188</ele>
        <time>2012-04-08T07:59:37Z</time>
      </trkpt>
      <trkpt lat="42.88382" lon="1.80256">
        <ele>809.5673828125</ele>
        <time>2012-04-08T07:59:39Z</time>
      </trkpt>
      <trkpt lat="42.8839" lon="1.80238">
        <ele>810.0478515625</ele>
        <time>2012-04-08T07:59:45Z</time>
      </trkpt>
      <trkpt lat="42.88397" lon="1.80223">
        <ele>805.24145507812</ele>
        <time>2012-04-08T07:59:50Z</time>
      </trkpt>
      <trkpt lat="42.88401" lon="1.80215">
        <ele>803.79956054688</ele>
        <time>2012-04-08T07:59:53Z</time>
      </trkpt>
      <trkpt lat="42.88403" lon="1.80203">
        <ele>802.357421875</ele>
        <time>2012-04-08T07:59:57Z</time>
      </trkpt>
      <trkpt lat="42.88407" lon="1.80189">
        <ele>800.91552734375</ele>
        <time>2012-04-08T08:00:02Z</time>
      </trkpt>
      <trkpt lat="42.88411" lon="1.80179">
        <ele>801.39624023438</ele>
        <time>2012-04-08T08:00:05Z</time>
      </trkpt>
      <trkpt lat="42.88416" lon="1.80158">
        <ele>800.91552734375</ele>
        <time>2012-04-08T08:00:11Z</time>
      </trkpt>
      <trkpt lat="42.88417" lon="1.80147">
        <ele>801.876953125</ele>
        <time>2012-04-08T08:00:15Z</time>
      </trkpt>
      <trkpt lat="42.88416" lon="1.80133">
        <ele>801.39624023438</ele>
        <time>2012-04-08T08:00:19Z</time>
      </trkpt>
      <trkpt lat="42.88417" lon="1.80119">
        <ele>803.31884765625</ele>
        <time>2012-04-08T08:00:23Z</time>
      </trkpt>
      <trkpt lat="42.88422" lon="1.80114">
        <ele>806.20263671875</ele>
        <time>2012-04-08T08:00:31Z</time>
      </trkpt>
      <trkpt lat="42.88422" lon="1.80112">
        <ele>806.68334960938</ele>
        <time>2012-04-08T08:00:39Z</time>
      </trkpt>
      <trkpt lat="42.88422" lon="1.80111">
        <ele>807.1640625</ele>
        <time>2012-04-08T08:00:49Z</time>
      </trkpt>
      <trkpt lat="42.88422" lon="1.80108">
        <ele>806.68334960938</ele>
        <time>2012-04-08T08:00:58Z</time>
      </trkpt>
      <trkpt lat="42.88423" lon="1.80106">
        <ele>806.68334960938</ele>
        <time>2012-04-08T08:00:59Z</time>
      </trkpt>
      <trkpt lat="42.88426" lon="1.8009">
        <ele>803.79956054688</ele>
        <time>2012-04-08T08:01:05Z</time>
      </trkpt>
      <trkpt lat="42.88434" lon="1.80077">
        <ele>800.43505859375</ele>
        <time>2012-04-08T08:01:10Z</time>
      </trkpt>
      <trkpt lat="42.88439" lon="1.80066">
        <ele>797.55102539062</ele>
        <time>2012-04-08T08:01:14Z</time>
      </trkpt>
      <trkpt lat="42.88445" lon="1.80056">
        <ele>797.0703125</ele>
        <time>2012-04-08T08:01:19Z</time>
      </trkpt>
      <trkpt lat="42.88447" lon="1.80049">
        <ele>798.03173828125</ele>
        <time>2012-04-08T08:01:21Z</time>
      </trkpt>
      <trkpt lat="42.88453" lon="1.80033">
        <ele>797.0703125</ele>
        <time>2012-04-08T08:01:27Z</time>
      </trkpt>
      <trkpt lat="42.88456" lon="1.80013">
        <ele>798.99291992188</ele>
        <time>2012-04-08T08:01:33Z</time>
      </trkpt>
      <trkpt lat="42.88458" lon="1.80007">
        <ele>799.4736328125</ele>
        <time>2012-04-08T08:01:35Z</time>
      </trkpt>
      <trkpt lat="42.88465" lon="1.79992">
        <ele>796.10913085938</ele>
        <time>2012-04-08T08:01:41Z</time>
      </trkpt>
      <trkpt lat="42.88461" lon="1.7998">
        <ele>793.70556640625</ele>
        <time>2012-04-08T08:01:45Z</time>
      </trkpt>
      <trkpt lat="42.88465" lon="1.79971">
        <ele>794.66674804688</ele>
        <time>2012-04-08T08:01:48Z</time>
      </trkpt>
      <trkpt lat="42.88471" lon="1.79963">
        <ele>795.1474609375</ele>
        <time>2012-04-08T08:01:52Z</time>
      </trkpt>
      <trkpt lat="42.88475" lon="1.79947">
        <ele>793.70556640625</ele>
        <time>2012-04-08T08:01:57Z</time>
      </trkpt>
      <trkpt lat="42.88479" lon="1.79931">
        <ele>792.74438476562</ele>
        <time>2012-04-08T08:02:02Z</time>
      </trkpt>
      <trkpt lat="42.88481" lon="1.79914">
        <ele>791.78295898438</ele>
        <time>2012-04-08T08:02:07Z</time>
      </trkpt>
      <trkpt lat="42.88483" lon="1.79898">
        <ele>791.78295898438</ele>
        <time>2012-04-08T08:02:11Z</time>
      </trkpt>
      <trkpt lat="42.88482" lon="1.79895">
        <ele>791.78295898438</ele>
        <time>2012-04-08T08:02:12Z</time>
      </trkpt>
      <trkpt lat="42.88478" lon="1.79883">
        <ele>790.34106445312</ele>
        <time>2012-04-08T08:02:16Z</time>
      </trkpt>
      <trkpt lat="42.88475" lon="1.79874">
        <ele>790.34106445312</ele>
        <time>2012-04-08T08:02:21Z</time>
      </trkpt>
      <trkpt lat="42.88469" lon="1.79864">
        <ele>791.78295898438</ele>
        <time>2012-04-08T08:02:25Z</time>
      </trkpt>
      <trkpt lat="42.88468" lon="1.79854">
        <ele>791.30224609375</ele>
        <time>2012-04-08T08:02:28Z</time>
      </trkpt>
      <trkpt lat="42.88473" lon="1.79842">
        <ele>789.8603515625</ele>
        <time>2012-04-08T08:02:32Z</time>
      </trkpt>
      <trkpt lat="42.88477" lon="1.79828">
        <ele>788.41845703125</ele>
        <time>2012-04-08T08:02:36Z</time>
      </trkpt>
      <trkpt lat="42.88484" lon="1.79807">
        <ele>786.01513671875</ele>
        <time>2012-04-08T08:02:42Z</time>
      </trkpt>
      <trkpt lat="42.88486" lon="1.79789">
        <ele>783.61181640625</ele>
        <time>2012-04-08T08:02:47Z</time>
      </trkpt>
      <trkpt lat="42.8849" lon="1.79772">
        <ele>781.20874023438</ele>
        <time>2012-04-08T08:02:52Z</time>
      </trkpt>
      <trkpt lat="42.88494" lon="1.79758">
        <ele>779.76635742188</ele>
        <time>2012-04-08T08:02:56Z</time>
      </trkpt>
      <trkpt lat="42.88494" lon="1.79755">
        <ele>779.76635742188</ele>
        <time>2012-04-08T08:02:57Z</time>
      </trkpt>
      <trkpt lat="42.88496" lon="1.79737">
        <ele>778.32446289062</ele>
        <time>2012-04-08T08:03:02Z</time>
      </trkpt>
      <trkpt lat="42.88499" lon="1.79716">
        <ele>776.88256835938</ele>
        <time>2012-04-08T08:03:07Z</time>
      </trkpt>
      <trkpt lat="42.88498" lon="1.79699">
        <ele>775.92114257812</ele>
        <time>2012-04-08T08:03:11Z</time>
      </trkpt>
      <trkpt lat="42.88499" lon="1.79683">
        <ele>775.92114257812</ele>
        <time>2012-04-08T08:03:15Z</time>
      </trkpt>
      <trkpt lat="42.88501" lon="1.79658">
        <ele>773.03735351562</ele>
        <time>2012-04-08T08:03:21Z</time>
      </trkpt>
      <trkpt lat="42.88504" lon="1.79644">
        <ele>771.59521484375</ele>
        <time>2012-04-08T08:03:25Z</time>
      </trkpt>
      <trkpt lat="42.88504" lon="1.79625">
        <ele>771.59521484375</ele>
        <time>2012-04-08T08:03:30Z</time>
      </trkpt>
      <trkpt lat="42.88508" lon="1.79606">
        <ele>774.47924804688</ele>
        <time>2012-04-08T08:03:35Z</time>
      </trkpt>
      <trkpt lat="42.88511" lon="1.796">
        <ele>774.47924804688</ele>
        <time>2012-04-08T08:03:37Z</time>
      </trkpt>
      <trkpt lat="42.88523" lon="1.7959">
        <ele>777.84375</ele>
        <time>2012-04-08T08:03:43Z</time>
      </trkpt>
      <trkpt lat="42.88533" lon="1.79576">
        <ele>778.32446289062</ele>
        <time>2012-04-08T08:03:49Z</time>
      </trkpt>
      <trkpt lat="42.8854" lon="1.79561">
        <ele>776.40185546875</ele>
        <time>2012-04-08T08:03:53Z</time>
      </trkpt>
      <trkpt lat="42.88546" lon="1.7954">
        <ele>773.99853515625</ele>
        <time>2012-04-08T08:03:58Z</time>
      </trkpt>
      <trkpt lat="42.8855" lon="1.7952">
        <ele>770.1533203125</ele>
        <time>2012-04-08T08:04:03Z</time>
      </trkpt>
      <trkpt lat="42.88555" lon="1.79502">
        <ele>765.34692382812</ele>
        <time>2012-04-08T08:04:08Z</time>
      </trkpt>
      <trkpt lat="42.88558" lon="1.79486">
        <ele>762.943359375</ele>
        <time>2012-04-08T08:04:12Z</time>
      </trkpt>
      <trkpt lat="42.8856" lon="1.79469">
        <ele>762.46264648438</ele>
        <time>2012-04-08T08:04:17Z</time>
      </trkpt>
      <trkpt lat="42.88562" lon="1.79461">
        <ele>761.98217773438</ele>
        <time>2012-04-08T08:04:19Z</time>
      </trkpt>
      <trkpt lat="42.88563" lon="1.79445">
        <ele>761.50146484375</ele>
        <time>2012-04-08T08:04:23Z</time>
      </trkpt>
      <trkpt lat="42.88557" lon="1.7942">
        <ele>762.943359375</ele>
        <time>2012-04-08T08:04:29Z</time>
      </trkpt>
      <trkpt lat="42.88556" lon="1.79402">
        <ele>762.943359375</ele>
        <time>2012-04-08T08:04:33Z</time>
      </trkpt>
      <trkpt lat="42.88561" lon="1.79391">
        <ele>762.943359375</ele>
        <time>2012-04-08T08:04:37Z</time>
      </trkpt>
      <trkpt lat="42.88567" lon="1.79385">
        <ele>763.42407226562</ele>
        <time>2012-04-08T08:04:40Z</time>
      </trkpt>
      <trkpt lat="42.88578" lon="1.7937">
        <ele>766.30810546875</ele>
        <time>2012-04-08T08:04:46Z</time>
      </trkpt>
      <trkpt lat="42.88589" lon="1.79356">
        <ele>769.19213867188</ele>
        <time>2012-04-08T08:04:51Z</time>
      </trkpt>
      <trkpt lat="42.88598" lon="1.79347">
        <ele>768.23071289062</ele>
        <time>2012-04-08T08:04:55Z</time>
      </trkpt>
      <trkpt lat="42.8861" lon="1.79336">
        <ele>767.26953125</ele>
        <time>2012-04-08T08:05:00Z</time>
      </trkpt>
      <trkpt lat="42.88618" lon="1.79324">
        <ele>770.63403320312</ele>
        <time>2012-04-08T08:05:04Z</time>
      </trkpt>
      <trkpt lat="42.88627" lon="1.79307">
        <ele>768.23071289062</ele>
        <time>2012-04-08T08:05:09Z</time>
      </trkpt>
      <trkpt lat="42.88636" lon="1.79294">
        <ele>765.82763671875</ele>
        <time>2012-04-08T08:05:14Z</time>
      </trkpt>
      <trkpt lat="42.88647" lon="1.79283">
        <ele>766.78881835938</ele>
        <time>2012-04-08T08:05:19Z</time>
      </trkpt>
      <trkpt lat="42.88658" lon="1.79273">
        <ele>766.78881835938</ele>
        <time>2012-04-08T08:05:24Z</time>
      </trkpt>
      <trkpt lat="42.88668" lon="1.79267">
        <ele>765.82763671875</ele>
        <time>2012-04-08T08:05:28Z</time>
      </trkpt>
      <trkpt lat="42.88676" lon="1.79258">
        <ele>767.26953125</ele>
        <time>2012-04-08T08:05:32Z</time>
      </trkpt>
      <trkpt lat="42.88681" lon="1.79252">
        <ele>767.75</ele>
        <time>2012-04-08T08:05:35Z</time>
      </trkpt>
      <trkpt lat="42.88692" lon="1.7925">
        <ele>764.8662109375</ele>
        <time>2012-04-08T08:05:40Z</time>
      </trkpt>
      <trkpt lat="42.88701" lon="1.79246">
        <ele>763.90454101562</ele>
        <time>2012-04-08T08:05:44Z</time>
      </trkpt>
      <trkpt lat="42.88709" lon="1.79242">
        <ele>764.38549804688</ele>
        <time>2012-04-08T08:05:47Z</time>
      </trkpt>
      <trkpt lat="42.88721" lon="1.79237">
        <ele>762.46264648438</ele>
        <time>2012-04-08T08:05:52Z</time>
      </trkpt>
      <trkpt lat="42.88731" lon="1.79234">
        <ele>759.09814453125</ele>
        <time>2012-04-08T08:05:57Z</time>
      </trkpt>
      <trkpt lat="42.8874" lon="1.79228">
        <ele>758.13696289062</ele>
        <time>2012-04-08T08:06:01Z</time>
      </trkpt>
      <trkpt lat="42.88749" lon="1.79219">
        <ele>760.05932617188</ele>
        <time>2012-04-08T08:06:05Z</time>
      </trkpt>
      <trkpt lat="42.88759" lon="1.79213">
        <ele>758.61743164062</ele>
        <time>2012-04-08T08:06:11Z</time>
      </trkpt>
      <trkpt lat="42.88771" lon="1.79205">
        <ele>757.17553710938</ele>
        <time>2012-04-08T08:06:17Z</time>
      </trkpt>
      <trkpt lat="42.88783" lon="1.79197">
        <ele>750.44653320312</ele>
        <time>2012-04-08T08:06:23Z</time>
      </trkpt>
      <trkpt lat="42.88796" lon="1.79198">
        <ele>746.60107421875</ele>
        <time>2012-04-08T08:06:28Z</time>
      </trkpt>
      <trkpt lat="42.88807" lon="1.79197">
        <ele>744.67822265625</ele>
        <time>2012-04-08T08:06:32Z</time>
      </trkpt>
      <trkpt lat="42.88816" lon="1.79194">
        <ele>745.15893554688</ele>
        <time>2012-04-08T08:06:36Z</time>
      </trkpt>
      <trkpt lat="42.88829" lon="1.79193">
        <ele>747.56225585938</ele>
        <time>2012-04-08T08:06:41Z</time>
      </trkpt>
      <trkpt lat="42.88844" lon="1.79193">
        <ele>749.00439453125</ele>
        <time>2012-04-08T08:06:46Z</time>
      </trkpt>
      <trkpt lat="42.88858" lon="1.79193">
        <ele>749.00439453125</ele>
        <time>2012-04-08T08:06:51Z</time>
      </trkpt>
      <trkpt lat="42.88872" lon="1.79187">
        <ele>749.9658203125</ele>
        <time>2012-04-08T08:06:56Z</time>
      </trkpt>
      <trkpt lat="42.88884" lon="1.79182">
        <ele>749.48510742188</ele>
        <time>2012-04-08T08:07:01Z</time>
      </trkpt>
      <trkpt lat="42.88898" lon="1.79181">
        <ele>748.04321289062</ele>
        <time>2012-04-08T08:07:06Z</time>
      </trkpt>
      <trkpt lat="42.88911" lon="1.79182">
        <ele>745.15893554688</ele>
        <time>2012-04-08T08:07:11Z</time>
      </trkpt>
      <trkpt lat="42.88924" lon="1.79179">
        <ele>743.71704101562</ele>
        <time>2012-04-08T08:07:16Z</time>
      </trkpt>
      <trkpt lat="42.88941" lon="1.79176">
        <ele>744.19775390625</ele>
        <time>2012-04-08T08:07:22Z</time>
      </trkpt>
      <trkpt lat="42.88957" lon="1.79169">
        <ele>747.08154296875</ele>
        <time>2012-04-08T08:07:28Z</time>
      </trkpt>
      <trkpt lat="42.88965" lon="1.79166">
        <ele>747.08154296875</ele>
        <time>2012-04-08T08:07:31Z</time>
      </trkpt>
      <trkpt lat="42.88983" lon="1.79165">
        <ele>745.6396484375</ele>
        <time>2012-04-08T08:07:37Z</time>
      </trkpt>
      <trkpt lat="42.88996" lon="1.79162">
        <ele>746.60107421875</ele>
        <time>2012-04-08T08:07:41Z</time>
      </trkpt>
      <trkpt lat="42.89004" lon="1.79158">
        <ele>746.12036132812</ele>
        <time>2012-04-08T08:07:44Z</time>
      </trkpt>
      <trkpt lat="42.89011" lon="1.79162">
        <ele>741.79443359375</ele>
        <time>2012-04-08T08:07:50Z</time>
      </trkpt>
      <trkpt lat="42.89008" lon="1.79168">
        <ele>740.8330078125</ele>
        <time>2012-04-08T08:07:57Z</time>
      </trkpt>
      <trkpt lat="42.89013" lon="1.79168">
        <ele>741.79443359375</ele>
        <time>2012-04-08T08:08:04Z</time>
      </trkpt>
      <trkpt lat="42.89027" lon="1.79162">
        <ele>738.42993164062</ele>
        <time>2012-04-08T08:08:10Z</time>
      </trkpt>
      <trkpt lat="42.89043" lon="1.79155">
        <ele>735.5458984375</ele>
        <time>2012-04-08T08:08:14Z</time>
      </trkpt>
      <trkpt lat="42.8905" lon="1.7915">
        <ele>732.662109375</ele>
        <time>2012-04-08T08:08:17Z</time>
      </trkpt>
      <trkpt lat="42.89053" lon="1.7915">
        <ele>731.21997070312</ele>
        <time>2012-04-08T08:08:21Z</time>
      </trkpt>
      <trkpt lat="42.89064" lon="1.79146">
        <ele>729.77783203125</ele>
        <time>2012-04-08T08:08:25Z</time>
      </trkpt>
      <trkpt lat="42.89078" lon="1.79142">
        <ele>728.81665039062</ele>
        <time>2012-04-08T08:08:30Z</time>
      </trkpt>
      <trkpt lat="42.8909" lon="1.79144">
        <ele>726.41333007812</ele>
        <time>2012-04-08T08:08:35Z</time>
      </trkpt>
      <trkpt lat="42.89102" lon="1.79151">
        <ele>724.01000976562</ele>
        <time>2012-04-08T08:08:40Z</time>
      </trkpt>
      <trkpt lat="42.89115" lon="1.7916">
        <ele>722.56811523438</ele>
        <time>2012-04-08T08:08:45Z</time>
      </trkpt>
      <trkpt lat="42.89125" lon="1.79164">
        <ele>722.08740234375</ele>
        <time>2012-04-08T08:08:49Z</time>
      </trkpt>
      <trkpt lat="42.89146" lon="1.79169">
        <ele>720.6455078125</ele>
        <time>2012-04-08T08:08:56Z</time>
      </trkpt>
      <trkpt lat="42.89153" lon="1.79172">
        <ele>720.6455078125</ele>
        <time>2012-04-08T08:09:01Z</time>
      </trkpt>
      <trkpt lat="42.89156" lon="1.79173">
        <ele>720.16479492188</ele>
        <time>2012-04-08T08:09:06Z</time>
      </trkpt>
      <trkpt lat="42.89166" lon="1.79172">
        <ele>719.68432617188</ele>
        <time>2012-04-08T08:09:13Z</time>
      </trkpt>
      <trkpt lat="42.89172" lon="1.7917">
        <ele>718.72290039062</ele>
        <time>2012-04-08T08:09:18Z</time>
      </trkpt>
      <trkpt lat="42.89177" lon="1.79169">
        <ele>718.2421875</ele>
        <time>2012-04-08T08:09:22Z</time>
      </trkpt>
      <trkpt lat="42.89182" lon="1.79169">
        <ele>716.80029296875</ele>
        <time>2012-04-08T08:09:27Z</time>
      </trkpt>
      <trkpt lat="42.89184" lon="1.79166">
        <ele>719.68432617188</ele>
        <time>2012-04-08T08:09:34Z</time>
      </trkpt>
      <trkpt lat="42.89185" lon="1.79168">
        <ele>720.16479492188</ele>
        <time>2012-04-08T08:09:46Z</time>
      </trkpt>
      <trkpt lat="42.89187" lon="1.79169">
        <ele>721.12622070312</ele>
        <time>2012-04-08T08:09:53Z</time>
      </trkpt>
      <trkpt lat="42.89187" lon="1.7917">
        <ele>719.68432617188</ele>
        <time>2012-04-08T08:10:03Z</time>
      </trkpt>
      <trkpt lat="42.8919" lon="1.7917">
        <ele>719.68432617188</ele>
        <time>2012-04-08T08:10:10Z</time>
      </trkpt>
      <trkpt lat="42.8919" lon="1.79171">
        <ele>720.6455078125</ele>
        <time>2012-04-08T08:10:18Z</time>
      </trkpt>
      <trkpt lat="42.89191" lon="1.7917">
        <ele>721.60668945312</ele>
        <time>2012-04-08T08:10:32Z</time>
      </trkpt>
      <trkpt lat="42.89194" lon="1.79171">
        <ele>725.45190429688</ele>
        <time>2012-04-08T08:10:44Z</time>
      </trkpt>
      <trkpt lat="42.89195" lon="1.79172">
        <ele>726.41333007812</ele>
        <time>2012-04-08T08:10:50Z</time>
      </trkpt>
      <trkpt lat="42.89196" lon="1.79172">
        <ele>727.37475585938</ele>
        <time>2012-04-08T08:11:02Z</time>
      </trkpt>
      <trkpt lat="42.89195" lon="1.79172">
        <ele>727.37475585938</ele>
        <time>2012-04-08T08:11:10Z</time>
      </trkpt>
      <trkpt lat="42.89194" lon="1.79172">
        <ele>727.37475585938</ele>
        <time>2012-04-08T08:11:18Z</time>
      </trkpt>
      <trkpt lat="42.89192" lon="1.79173">
        <ele>724.01000976562</ele>
        <time>2012-04-08T08:11:36Z</time>
      </trkpt>
      <trkpt lat="42.89191" lon="1.79173">
        <ele>723.52954101562</ele>
        <time>2012-04-08T08:11:41Z</time>
      </trkpt>
      <trkpt lat="42.8919" lon="1.79173">
        <ele>722.56811523438</ele>
        <time>2012-04-08T08:11:48Z</time>
      </trkpt>
      <trkpt lat="42.8919" lon="1.79171">
        <ele>722.08740234375</ele>
        <time>2012-04-08T08:11:58Z</time>
      </trkpt>
      <trkpt lat="42.8919" lon="1.7917">
        <ele>720.6455078125</ele>
        <time>2012-04-08T08:12:05Z</time>
      </trkpt>
      <trkpt lat="42.89191" lon="1.79169">
        <ele>720.6455078125</ele>
        <time>2012-04-08T08:12:14Z</time>
      </trkpt>
      <trkpt lat="42.89191" lon="1.79169">
        <ele>720.6455078125</ele>
        <time>2012-04-08T08:12:24Z</time>
      </trkpt>
      <trkpt lat="42.89189" lon="1.79169">
        <ele>720.16479492188</ele>
        <time>2012-04-08T08:12:30Z</time>
      </trkpt>
      <trkpt lat="42.89188" lon="1.79171">
        <ele>719.68432617188</ele>
        <time>2012-04-08T08:12:40Z</time>
      </trkpt>
      <trkpt lat="42.89187" lon="1.79169">
        <ele>719.20361328125</ele>
        <time>2012-04-08T08:12:46Z</time>
      </trkpt>
      <trkpt lat="42.89183" lon="1.79168">
        <ele>719.68432617188</ele>
        <time>2012-04-08T08:12:56Z</time>
      </trkpt>
      <trkpt lat="42.89179" lon="1.7917">
        <ele>719.20361328125</ele>
        <time>2012-04-08T08:13:01Z</time>
      </trkpt>
      <trkpt lat="42.89178" lon="1.79174">
        <ele>718.72290039062</ele>
        <time>2012-04-08T08:13:04Z</time>
      </trkpt>
      <trkpt lat="42.89182" lon="1.7918">
        <ele>718.2421875</ele>
        <time>2012-04-08T08:13:11Z</time>
      </trkpt>
      <trkpt lat="42.89184" lon="1.79182">
        <ele>717.76147460938</ele>
        <time>2012-04-08T08:13:13Z</time>
      </trkpt>
      <trkpt lat="42.89193" lon="1.79183">
        <ele>717.28100585938</ele>
        <time>2012-04-08T08:13:21Z</time>
      </trkpt>
      <trkpt lat="42.89194" lon="1.79183">
        <ele>716.80029296875</ele>
        <time>2012-04-08T08:13:22Z</time>
      </trkpt>
      <trkpt lat="42.89209" lon="1.79179">
        <ele>715.8388671875</ele>
        <time>2012-04-08T08:13:32Z</time>
      </trkpt>
      <trkpt lat="42.89215" lon="1.79179">
        <ele>714.87744140625</ele>
        <time>2012-04-08T08:13:35Z</time>
      </trkpt>
      <trkpt lat="42.89226" lon="1.79186">
        <ele>713.435546875</ele>
        <time>2012-04-08T08:13:40Z</time>
      </trkpt>
      <trkpt lat="42.89236" lon="1.792">
        <ele>709.10961914062</ele>
        <time>2012-04-08T08:13:46Z</time>
      </trkpt>
      <trkpt lat="42.89245" lon="1.79217">
        <ele>707.18701171875</ele>
        <time>2012-04-08T08:13:52Z</time>
      </trkpt>
      <trkpt lat="42.89246" lon="1.7922">
        <ele>706.70629882812</ele>
        <time>2012-04-08T08:13:53Z</time>
      </trkpt>
      <trkpt lat="42.89259" lon="1.79221">
        <ele>706.2255859375</ele>
        <time>2012-04-08T08:13:58Z</time>
      </trkpt>
      <trkpt lat="42.89275" lon="1.79219">
        <ele>706.2255859375</ele>
        <time>2012-04-08T08:14:04Z</time>
      </trkpt>
      <trkpt lat="42.89286" lon="1.7922">
        <ele>705.26440429688</ele>
        <time>2012-04-08T08:14:08Z</time>
      </trkpt>
      <trkpt lat="42.893" lon="1.79225">
        <ele>706.70629882812</ele>
        <time>2012-04-08T08:14:14Z</time>
      </trkpt>
      <trkpt lat="42.89312" lon="1.79233">
        <ele>705.26440429688</ele>
        <time>2012-04-08T08:14:19Z</time>
      </trkpt>
      <trkpt lat="42.89328" lon="1.79246">
        <ele>701.89990234375</ele>
        <time>2012-04-08T08:14:26Z</time>
      </trkpt>
      <trkpt lat="42.89341" lon="1.79257">
        <ele>699.015625</ele>
        <time>2012-04-08T08:14:32Z</time>
      </trkpt>
      <trkpt lat="42.89352" lon="1.79268">
        <ele>699.015625</ele>
        <time>2012-04-08T08:14:37Z</time>
      </trkpt>
      <trkpt lat="42.8936" lon="1.79273">
        <ele>697.57373046875</ele>
        <time>2012-04-08T08:14:41Z</time>
      </trkpt>
      <trkpt lat="42.89371" lon="1.79286">
        <ele>697.57373046875</ele>
        <time>2012-04-08T08:14:47Z</time>
      </trkpt>
      <trkpt lat="42.89379" lon="1.79297">
        <ele>697.09301757812</ele>
        <time>2012-04-08T08:14:51Z</time>
      </trkpt>
      <trkpt lat="42.89388" lon="1.79316">
        <ele>697.57373046875</ele>
        <time>2012-04-08T08:14:57Z</time>
      </trkpt>
      <trkpt lat="42.89389" lon="1.79319">
        <ele>698.05444335938</ele>
        <time>2012-04-08T08:14:58Z</time>
      </trkpt>
      <trkpt lat="42.89396" lon="1.79337">
        <ele>699.49633789062</ele>
        <time>2012-04-08T08:15:03Z</time>
      </trkpt>
      <trkpt lat="42.89401" lon="1.79357">
        <ele>700.4580078125</ele>
        <time>2012-04-08T08:15:09Z</time>
      </trkpt>
      <trkpt lat="42.89406" lon="1.79372">
        <ele>699.49633789062</ele>
        <time>2012-04-08T08:15:14Z</time>
      </trkpt>
      <trkpt lat="42.89414" lon="1.79381">
        <ele>700.4580078125</ele>
        <time>2012-04-08T08:15:18Z</time>
      </trkpt>
      <trkpt lat="42.89416" lon="1.79383">
        <ele>700.9384765625</ele>
        <time>2012-04-08T08:15:19Z</time>
      </trkpt>
      <trkpt lat="42.89425" lon="1.79377">
        <ele>700.4580078125</ele>
        <time>2012-04-08T08:15:23Z</time>
      </trkpt>
      <trkpt lat="42.89427" lon="1.7937">
        <ele>699.97705078125</ele>
        <time>2012-04-08T08:15:25Z</time>
      </trkpt>
      <trkpt lat="42.8944" lon="1.79353">
        <ele>700.4580078125</ele>
        <time>2012-04-08T08:15:32Z</time>
      </trkpt>
      <trkpt lat="42.89451" lon="1.79345">
        <ele>700.9384765625</ele>
        <time>2012-04-08T08:15:37Z</time>
      </trkpt>
      <trkpt lat="42.8946" lon="1.79344">
        <ele>701.41918945312</ele>
        <time>2012-04-08T08:15:42Z</time>
      </trkpt>
      <trkpt lat="42.89468" lon="1.79344">
        <ele>702.38037109375</ele>
        <time>2012-04-08T08:15:47Z</time>
      </trkpt>
      <trkpt lat="42.89469" lon="1.79345">
        <ele>701.89990234375</ele>
        <time>2012-04-08T08:15:48Z</time>
      </trkpt>
      <trkpt lat="42.8947" lon="1.79341">
        <ele>701.41918945312</ele>
        <time>2012-04-08T08:15:52Z</time>
      </trkpt>
      <trkpt lat="42.89463" lon="1.79334">
        <ele>699.97705078125</ele>
        <time>2012-04-08T08:15:58Z</time>
      </trkpt>
      <trkpt lat="42.89457" lon="1.79327">
        <ele>699.49633789062</ele>
        <time>2012-04-08T08:16:03Z</time>
      </trkpt>
      <trkpt lat="42.89452" lon="1.79323">
        <ele>700.9384765625</ele>
        <time>2012-04-08T08:16:07Z</time>
      </trkpt>
      <trkpt lat="42.89445" lon="1.79312">
        <ele>702.86108398438</ele>
        <time>2012-04-08T08:16:14Z</time>
      </trkpt>
      <trkpt lat="42.89441" lon="1.79301">
        <ele>703.82250976562</ele>
        <time>2012-04-08T08:16:20Z</time>
      </trkpt>
      <trkpt lat="42.89439" lon="1.79296">
        <ele>704.30322265625</ele>
        <time>2012-04-08T08:16:23Z</time>
      </trkpt>
      <trkpt lat="42.89433" lon="1.79288">
        <ele>705.26440429688</ele>
        <time>2012-04-08T08:16:29Z</time>
      </trkpt>
      <trkpt lat="42.89431" lon="1.79284">
        <ele>705.7451171875</ele>
        <time>2012-04-08T08:16:31Z</time>
      </trkpt>
      <trkpt lat="42.89425" lon="1.79261">
        <ele>707.66772460938</ele>
        <time>2012-04-08T08:16:43Z</time>
      </trkpt>
      <trkpt lat="42.89425" lon="1.79253">
        <ele>709.59033203125</ele>
        <time>2012-04-08T08:16:47Z</time>
      </trkpt>
      <trkpt lat="42.89426" lon="1.79239">
        <ele>709.59033203125</ele>
        <time>2012-04-08T08:16:55Z</time>
      </trkpt>
      <trkpt lat="42.89428" lon="1.79237">
        <ele>709.10961914062</ele>
        <time>2012-04-08T08:16:57Z</time>
      </trkpt>
      <trkpt lat="42.89429" lon="1.79223">
        <ele>709.59033203125</ele>
        <time>2012-04-08T08:17:06Z</time>
      </trkpt>
      <trkpt lat="42.89428" lon="1.79214">
        <ele>710.07080078125</ele>
        <time>2012-04-08T08:17:11Z</time>
      </trkpt>
      <trkpt lat="42.89426" lon="1.79201">
        <ele>710.55151367188</ele>
        <time>2012-04-08T08:17:17Z</time>
      </trkpt>
      <trkpt lat="42.89424" lon="1.79183">
        <ele>714.39672851562</ele>
        <time>2012-04-08T08:17:26Z</time>
      </trkpt>
      <trkpt lat="42.89423" lon="1.79168">
        <ele>716.31958007812</ele>
        <time>2012-04-08T08:17:33Z</time>
      </trkpt>
      <trkpt lat="42.89424" lon="1.79157">
        <ele>717.28100585938</ele>
        <time>2012-04-08T08:17:39Z</time>
      </trkpt>
      <trkpt lat="42.89426" lon="1.79149">
        <ele>719.20361328125</ele>
        <time>2012-04-08T08:17:44Z</time>
      </trkpt>
      <trkpt lat="42.89431" lon="1.79142">
        <ele>718.72290039062</ele>
        <time>2012-04-08T08:17:49Z</time>
      </trkpt>
      <trkpt lat="42.89437" lon="1.79131">
        <ele>719.68432617188</ele>
        <time>2012-04-08T08:17:57Z</time>
      </trkpt>
      <trkpt lat="42.89444" lon="1.79125">
        <ele>720.6455078125</ele>
        <time>2012-04-08T08:18:03Z</time>
      </trkpt>
      <trkpt lat="42.89447" lon="1.79123">
        <ele>721.12622070312</ele>
        <time>2012-04-08T08:18:06Z</time>
      </trkpt>
      <trkpt lat="42.89454" lon="1.79118">
        <ele>722.56811523438</ele>
        <time>2012-04-08T08:18:12Z</time>
      </trkpt>
      <trkpt lat="42.89463" lon="1.79111">
        <ele>722.56811523438</ele>
        <time>2012-04-08T08:18:20Z</time>
      </trkpt>
      <trkpt lat="42.89464" lon="1.7911">
        <ele>722.56811523438</ele>
        <time>2012-04-08T08:18:21Z</time>
      </trkpt>
      <trkpt lat="42.89472" lon="1.79101">
        <ele>724.49072265625</ele>
        <time>2012-04-08T08:18:30Z</time>
      </trkpt>
      <trkpt lat="42.89475" lon="1.79096">
        <ele>725.9326171875</ele>
        <time>2012-04-08T08:18:34Z</time>
      </trkpt>
      <trkpt lat="42.8948" lon="1.79082">
        <ele>727.85522460938</ele>
        <time>2012-04-08T08:18:44Z</time>
      </trkpt>
      <trkpt lat="42.89479" lon="1.79069">
        <ele>727.85522460938</ele>
        <time>2012-04-08T08:18:52Z</time>
      </trkpt>
      <trkpt lat="42.89478" lon="1.79057">
        <ele>732.662109375</ele>
        <time>2012-04-08T08:18:58Z</time>
      </trkpt>
      <trkpt lat="42.89478" lon="1.79053">
        <ele>733.62329101562</ele>
        <time>2012-04-08T08:19:00Z</time>
      </trkpt>
      <trkpt lat="42.89481" lon="1.79039">
        <ele>734.58471679688</ele>
        <time>2012-04-08T08:19:08Z</time>
      </trkpt>
      <trkpt lat="42.89484" lon="1.7903">
        <ele>735.5458984375</ele>
        <time>2012-04-08T08:19:15Z</time>
      </trkpt>
      <trkpt lat="42.89492" lon="1.79017">
        <ele>737.46850585938</ele>
        <time>2012-04-08T08:19:26Z</time>
      </trkpt>
      <trkpt lat="42.89494" lon="1.79009">
        <ele>738.91064453125</ele>
        <time>2012-04-08T08:19:33Z</time>
      </trkpt>
      <trkpt lat="42.89496" lon="1.78996">
        <ele>740.3525390625</ele>
        <time>2012-04-08T08:19:41Z</time>
      </trkpt>
      <trkpt lat="42.89498" lon="1.78988">
        <ele>742.755859375</ele>
        <time>2012-04-08T08:19:47Z</time>
      </trkpt>
      <trkpt lat="42.895" lon="1.78978">
        <ele>741.79443359375</ele>
        <time>2012-04-08T08:19:53Z</time>
      </trkpt>
      <trkpt lat="42.89501" lon="1.78977">
        <ele>741.79443359375</ele>
        <time>2012-04-08T08:19:54Z</time>
      </trkpt>
      <trkpt lat="42.89502" lon="1.78971">
        <ele>744.19775390625</ele>
        <time>2012-04-08T08:20:01Z</time>
      </trkpt>
      <trkpt lat="42.89507" lon="1.78965">
        <ele>743.71704101562</ele>
        <time>2012-04-08T08:20:08Z</time>
      </trkpt>
      <trkpt lat="42.89511" lon="1.78959">
        <ele>746.12036132812</ele>
        <time>2012-04-08T08:20:15Z</time>
      </trkpt>
      <trkpt lat="42.89515" lon="1.78953">
        <ele>747.56225585938</ele>
        <time>2012-04-08T08:20:21Z</time>
      </trkpt>
      <trkpt lat="42.89516" lon="1.78949">
        <ele>751.88842773438</ele>
        <time>2012-04-08T08:20:26Z</time>
      </trkpt>
      <trkpt lat="42.8952" lon="1.78943">
        <ele>752.849609375</ele>
        <time>2012-04-08T08:20:32Z</time>
      </trkpt>
      <trkpt lat="42.89522" lon="1.78936">
        <ele>754.29174804688</ele>
        <time>2012-04-08T08:20:39Z</time>
      </trkpt>
      <trkpt lat="42.89525" lon="1.78929">
        <ele>756.69482421875</ele>
        <time>2012-04-08T08:20:45Z</time>
      </trkpt>
      <trkpt lat="42.89528" lon="1.78923">
        <ele>756.69482421875</ele>
        <time>2012-04-08T08:20:51Z</time>
      </trkpt>
      <trkpt lat="42.89529" lon="1.78918">
        <ele>757.17553710938</ele>
        <time>2012-04-08T08:20:56Z</time>
      </trkpt>
      <trkpt lat="42.89532" lon="1.7891">
        <ele>758.61743164062</ele>
        <time>2012-04-08T08:21:03Z</time>
      </trkpt>
      <trkpt lat="42.89535" lon="1.78907">
        <ele>760.05932617188</ele>
        <time>2012-04-08T08:21:06Z</time>
      </trkpt>
      <trkpt lat="42.89537" lon="1.78901">
        <ele>760.5400390625</ele>
        <time>2012-04-08T08:21:11Z</time>
      </trkpt>
      <trkpt lat="42.89539" lon="1.78896">
        <ele>762.46264648438</ele>
        <time>2012-04-08T08:21:15Z</time>
      </trkpt>
      <trkpt lat="42.89542" lon="1.78892">
        <ele>763.90454101562</ele>
        <time>2012-04-08T08:21:19Z</time>
      </trkpt>
      <trkpt lat="42.89544" lon="1.78884">
        <ele>766.30810546875</ele>
        <time>2012-04-08T08:21:26Z</time>
      </trkpt>
      <trkpt lat="42.89547" lon="1.78879">
        <ele>772.556640625</ele>
        <time>2012-04-08T08:21:33Z</time>
      </trkpt>
      <trkpt lat="42.8955" lon="1.78877">
        <ele>774.47924804688</ele>
        <time>2012-04-08T08:21:39Z</time>
      </trkpt>
      <trkpt lat="42.89555" lon="1.78875">
        <ele>773.99853515625</ele>
        <time>2012-04-08T08:21:44Z</time>
      </trkpt>
      <trkpt lat="42.89558" lon="1.78872">
        <ele>772.07592773438</ele>
        <time>2012-04-08T08:21:50Z</time>
      </trkpt>
      <trkpt lat="42.8956" lon="1.78868">
        <ele>774.47924804688</ele>
        <time>2012-04-08T08:21:55Z</time>
      </trkpt>
      <trkpt lat="42.89561" lon="1.78865">
        <ele>775.92114257812</ele>
        <time>2012-04-08T08:22:02Z</time>
      </trkpt>
      <trkpt lat="42.89564" lon="1.78863">
        <ele>782.65063476562</ele>
        <time>2012-04-08T08:22:10Z</time>
      </trkpt>
      <trkpt lat="42.89564" lon="1.78861">
        <ele>785.05395507812</ele>
        <time>2012-04-08T08:22:18Z</time>
      </trkpt>
      <trkpt lat="42.89567" lon="1.78854">
        <ele>786.01513671875</ele>
        <time>2012-04-08T08:22:23Z</time>
      </trkpt>
      <trkpt lat="42.89569" lon="1.78845">
        <ele>783.13110351562</ele>
        <time>2012-04-08T08:22:30Z</time>
      </trkpt>
      <trkpt lat="42.89571" lon="1.78837">
        <ele>784.09252929688</ele>
        <time>2012-04-08T08:22:35Z</time>
      </trkpt>
      <trkpt lat="42.89573" lon="1.78834">
        <ele>783.13110351562</ele>
        <time>2012-04-08T08:22:38Z</time>
      </trkpt>
      <trkpt lat="42.89573" lon="1.78826">
        <ele>782.169921875</ele>
        <time>2012-04-08T08:22:44Z</time>
      </trkpt>
      <trkpt lat="42.89574" lon="1.78819">
        <ele>783.61181640625</ele>
        <time>2012-04-08T08:22:50Z</time>
      </trkpt>
      <trkpt lat="42.89573" lon="1.78813">
        <ele>784.09252929688</ele>
        <time>2012-04-08T08:22:55Z</time>
      </trkpt>
      <trkpt lat="42.89573" lon="1.78806">
        <ele>784.09252929688</ele>
        <time>2012-04-08T08:22:59Z</time>
      </trkpt>
      <trkpt lat="42.89574" lon="1.78795">
        <ele>783.61181640625</ele>
        <time>2012-04-08T08:23:05Z</time>
      </trkpt>
      <trkpt lat="42.89575" lon="1.78781">
        <ele>782.169921875</ele>
        <time>2012-04-08T08:23:10Z</time>
      </trkpt>
      <trkpt lat="42.89576" lon="1.78771">
        <ele>781.20874023438</ele>
        <time>2012-04-08T08:23:14Z</time>
      </trkpt>
      <trkpt lat="42.89576" lon="1.78768">
        <ele>780.72802734375</ele>
        <time>2012-04-08T08:23:15Z</time>
      </trkpt>
      <trkpt lat="42.89578" lon="1.78756">
        <ele>780.24731445312</ele>
        <time>2012-04-08T08:23:19Z</time>
      </trkpt>
      <trkpt lat="42.89579" lon="1.78749">
        <ele>782.65063476562</ele>
        <time>2012-04-08T08:23:24Z</time>
      </trkpt>
      <trkpt lat="42.89581" lon="1.78744">
        <ele>785.05395507812</ele>
        <time>2012-04-08T08:23:29Z</time>
      </trkpt>
      <trkpt lat="42.89584" lon="1.78738">
        <ele>782.65063476562</ele>
        <time>2012-04-08T08:23:35Z</time>
      </trkpt>
      <trkpt lat="42.89587" lon="1.78735">
        <ele>782.169921875</ele>
        <time>2012-04-08T08:23:39Z</time>
      </trkpt>
      <trkpt lat="42.89595" lon="1.78728">
        <ele>783.13110351562</ele>
        <time>2012-04-08T08:23:46Z</time>
      </trkpt>
      <trkpt lat="42.89605" lon="1.78723">
        <ele>780.72802734375</ele>
        <time>2012-04-08T08:23:51Z</time>
      </trkpt>
      <trkpt lat="42.8961" lon="1.78721">
        <ele>779.28564453125</ele>
        <time>2012-04-08T08:23:54Z</time>
      </trkpt>
      <trkpt lat="42.89618" lon="1.78719">
        <ele>779.28564453125</ele>
        <time>2012-04-08T08:23:58Z</time>
      </trkpt>
      <trkpt lat="42.8963" lon="1.78709">
        <ele>786.97631835938</ele>
        <time>2012-04-08T08:24:04Z</time>
      </trkpt>
      <trkpt lat="42.89642" lon="1.78703">
        <ele>792.74438476562</ele>
        <time>2012-04-08T08:24:10Z</time>
      </trkpt>
      <trkpt lat="42.89645" lon="1.787">
        <ele>795.1474609375</ele>
        <time>2012-04-08T08:24:12Z</time>
      </trkpt>
      <trkpt lat="42.89655" lon="1.7869">
        <ele>796.58984375</ele>
        <time>2012-04-08T08:24:19Z</time>
      </trkpt>
      <trkpt lat="42.8966" lon="1.78686">
        <ele>798.51220703125</ele>
        <time>2012-04-08T08:24:23Z</time>
      </trkpt>
      <trkpt lat="42.89662" lon="1.78683">
        <ele>799.95434570312</ele>
        <time>2012-04-08T08:24:25Z</time>
      </trkpt>
      <trkpt lat="42.89662" lon="1.78675">
        <ele>803.79956054688</ele>
        <time>2012-04-08T08:24:33Z</time>
      </trkpt>
      <trkpt lat="42.89658" lon="1.78671">
        <ele>804.2802734375</ele>
        <time>2012-04-08T08:24:38Z</time>
      </trkpt>
      <trkpt lat="42.89658" lon="1.78666">
        <ele>802.83813476562</ele>
        <time>2012-04-08T08:24:43Z</time>
      </trkpt>
      <trkpt lat="42.8966" lon="1.78665">
        <ele>802.83813476562</ele>
        <time>2012-04-08T08:24:51Z</time>
      </trkpt>
      <trkpt lat="42.89663" lon="1.78661">
        <ele>801.39624023438</ele>
        <time>2012-04-08T08:24:57Z</time>
      </trkpt>
      <trkpt lat="42.89663" lon="1.7866">
        <ele>800.91552734375</ele>
        <time>2012-04-08T08:24:58Z</time>
      </trkpt>
      <trkpt lat="42.89666" lon="1.78658">
        <ele>801.39624023438</ele>
        <time>2012-04-08T08:25:02Z</time>
      </trkpt>
      <trkpt lat="42.8967" lon="1.78656">
        <ele>802.357421875</ele>
        <time>2012-04-08T08:25:07Z</time>
      </trkpt>
      <trkpt lat="42.89678" lon="1.78655">
        <ele>801.39624023438</ele>
        <time>2012-04-08T08:25:11Z</time>
      </trkpt>
      <trkpt lat="42.89683" lon="1.78654">
        <ele>799.95434570312</ele>
        <time>2012-04-08T08:25:14Z</time>
      </trkpt>
      <trkpt lat="42.8969" lon="1.78645">
        <ele>799.4736328125</ele>
        <time>2012-04-08T08:25:19Z</time>
      </trkpt>
      <trkpt lat="42.89695" lon="1.78638">
        <ele>798.51220703125</ele>
        <time>2012-04-08T08:25:23Z</time>
      </trkpt>
      <trkpt lat="42.897" lon="1.7863">
        <ele>800.43505859375</ele>
        <time>2012-04-08T08:25:28Z</time>
      </trkpt>
      <trkpt lat="42.89701" lon="1.78626">
        <ele>800.91552734375</ele>
        <time>2012-04-08T08:25:31Z</time>
      </trkpt>
      <trkpt lat="42.89703" lon="1.78621">
        <ele>798.51220703125</ele>
        <time>2012-04-08T08:25:35Z</time>
      </trkpt>
      <trkpt lat="42.89711" lon="1.78606">
        <ele>805.72216796875</ele>
        <time>2012-04-08T08:25:44Z</time>
      </trkpt>
      <trkpt lat="42.89713" lon="1.78603">
        <ele>808.12548828125</ele>
        <time>2012-04-08T08:25:50Z</time>
      </trkpt>
      <trkpt lat="42.89715" lon="1.786">
        <ele>807.64477539062</ele>
        <time>2012-04-08T08:25:54Z</time>
      </trkpt>
      <trkpt lat="42.89717" lon="1.78594">
        <ele>806.20263671875</ele>
        <time>2012-04-08T08:25:58Z</time>
      </trkpt>
      <trkpt lat="42.89718" lon="1.78593">
        <ele>806.20263671875</ele>
        <time>2012-04-08T08:25:59Z</time>
      </trkpt>
      <trkpt lat="42.89722" lon="1.78584">
        <ele>805.72216796875</ele>
        <time>2012-04-08T08:26:05Z</time>
      </trkpt>
      <trkpt lat="42.89724" lon="1.78577">
        <ele>806.20263671875</ele>
        <time>2012-04-08T08:26:08Z</time>
      </trkpt>
      <trkpt lat="42.89725" lon="1.78565">
        <ele>810.0478515625</ele>
        <time>2012-04-08T08:26:14Z</time>
      </trkpt>
      <trkpt lat="42.89726" lon="1.78558">
        <ele>810.52856445312</ele>
        <time>2012-04-08T08:26:18Z</time>
      </trkpt>
      <trkpt lat="42.89728" lon="1.78555">
        <ele>811.48999023438</ele>
        <time>2012-04-08T08:26:24Z</time>
      </trkpt>
      <trkpt lat="42.89727" lon="1.78555">
        <ele>812.45141601562</ele>
        <time>2012-04-08T08:26:30Z</time>
      </trkpt>
      <trkpt lat="42.89732" lon="1.78548">
        <ele>812.45141601562</ele>
        <time>2012-04-08T08:26:35Z</time>
      </trkpt>
      <trkpt lat="42.89738" lon="1.78528">
        <ele>812.45141601562</ele>
        <time>2012-04-08T08:26:41Z</time>
      </trkpt>
      <trkpt lat="42.89743" lon="1.78511">
        <ele>812.45141601562</ele>
        <time>2012-04-08T08:26:46Z</time>
      </trkpt>
      <trkpt lat="42.89746" lon="1.78493">
        <ele>812.45141601562</ele>
        <time>2012-04-08T08:26:51Z</time>
      </trkpt>
      <trkpt lat="42.89753" lon="1.7847">
        <ele>811.970703125</ele>
        <time>2012-04-08T08:26:58Z</time>
      </trkpt>
      <trkpt lat="42.89758" lon="1.78454">
        <ele>811.970703125</ele>
        <time>2012-04-08T08:27:03Z</time>
      </trkpt>
      <trkpt lat="42.89762" lon="1.78435">
        <ele>813.41284179688</ele>
        <time>2012-04-08T08:27:09Z</time>
      </trkpt>
      <trkpt lat="42.89765" lon="1.78418">
        <ele>813.89331054688</ele>
        <time>2012-04-08T08:27:14Z</time>
      </trkpt>
      <trkpt lat="42.89769" lon="1.78398">
        <ele>814.3740234375</ele>
        <time>2012-04-08T08:27:20Z</time>
      </trkpt>
      <trkpt lat="42.89771" lon="1.78384">
        <ele>813.89331054688</ele>
        <time>2012-04-08T08:27:24Z</time>
      </trkpt>
      <trkpt lat="42.89773" lon="1.7837">
        <ele>813.89331054688</ele>
        <time>2012-04-08T08:27:28Z</time>
      </trkpt>
      <trkpt lat="42.89777" lon="1.78349">
        <ele>814.3740234375</ele>
        <time>2012-04-08T08:27:34Z</time>
      </trkpt>
      <trkpt lat="42.89783" lon="1.78339">
        <ele>814.85473632812</ele>
        <time>2012-04-08T08:27:39Z</time>
      </trkpt>
      <trkpt lat="42.89785" lon="1.78337">
        <ele>815.33544921875</ele>
        <time>2012-04-08T08:27:44Z</time>
      </trkpt>
      <trkpt lat="42.89786" lon="1.78335">
        <ele>816.77734375</ele>
        <time>2012-04-08T08:27:48Z</time>
      </trkpt>
      <trkpt lat="42.89789" lon="1.78329">
        <ele>815.33544921875</ele>
        <time>2012-04-08T08:27:53Z</time>
      </trkpt>
      <trkpt lat="42.8979" lon="1.78313">
        <ele>813.89331054688</ele>
        <time>2012-04-08T08:27:59Z</time>
      </trkpt>
      <trkpt lat="42.8979" lon="1.78311">
        <ele>813.41284179688</ele>
        <time>2012-04-08T08:28:00Z</time>
      </trkpt>
      <trkpt lat="42.8979" lon="1.78309">
        <ele>812.93212890625</ele>
        <time>2012-04-08T08:28:02Z</time>
      </trkpt>
      <trkpt lat="42.89795" lon="1.78299">
        <ele>814.3740234375</ele>
        <time>2012-04-08T08:28:09Z</time>
      </trkpt>
      <trkpt lat="42.89796" lon="1.78297">
        <ele>813.89331054688</ele>
        <time>2012-04-08T08:28:11Z</time>
      </trkpt>
      <trkpt lat="42.89799" lon="1.78289">
        <ele>817.25805664062</ele>
        <time>2012-04-08T08:28:17Z</time>
      </trkpt>
      <trkpt lat="42.89801" lon="1.78284">
        <ele>816.77734375</ele>
        <time>2012-04-08T08:28:24Z</time>
      </trkpt>
      <trkpt lat="42.89803" lon="1.78275">
        <ele>821.58374023438</ele>
        <time>2012-04-08T08:28:30Z</time>
      </trkpt>
      <trkpt lat="42.89806" lon="1.78267">
        <ele>823.50659179688</ele>
        <time>2012-04-08T08:28:35Z</time>
      </trkpt>
      <trkpt lat="42.89808" lon="1.78263">
        <ele>820.14184570312</ele>
        <time>2012-04-08T08:28:38Z</time>
      </trkpt>
      <trkpt lat="42.89809" lon="1.78257">
        <ele>818.21923828125</ele>
        <time>2012-04-08T08:28:42Z</time>
      </trkpt>
      <trkpt lat="42.89811" lon="1.78249">
        <ele>823.98706054688</ele>
        <time>2012-04-08T08:28:51Z</time>
      </trkpt>
      <trkpt lat="42.89812" lon="1.78242">
        <ele>820.62255859375</ele>
        <time>2012-04-08T08:28:57Z</time>
      </trkpt>
      <trkpt lat="42.89812" lon="1.78236">
        <ele>821.10327148438</ele>
        <time>2012-04-08T08:29:01Z</time>
      </trkpt>
      <trkpt lat="42.89812" lon="1.78234">
        <ele>820.14184570312</ele>
        <time>2012-04-08T08:29:02Z</time>
      </trkpt>
      <trkpt lat="42.89812" lon="1.78224">
        <ele>823.02587890625</ele>
        <time>2012-04-08T08:29:08Z</time>
      </trkpt>
      <trkpt lat="42.89812" lon="1.7822">
        <ele>824.94848632812</ele>
        <time>2012-04-08T08:29:11Z</time>
      </trkpt>
      <trkpt lat="42.89812" lon="1.78213">
        <ele>825.90966796875</ele>
        <time>2012-04-08T08:29:15Z</time>
      </trkpt>
      <trkpt lat="42.89817" lon="1.78205">
        <ele>825.42895507812</ele>
        <time>2012-04-08T08:29:22Z</time>
      </trkpt>
      <trkpt lat="42.89819" lon="1.78201">
        <ele>822.54516601562</ele>
        <time>2012-04-08T08:29:26Z</time>
      </trkpt>
      <trkpt lat="42.89822" lon="1.7819">
        <ele>819.1806640625</ele>
        <time>2012-04-08T08:29:34Z</time>
      </trkpt>
      <trkpt lat="42.89822" lon="1.78189">
        <ele>818.21923828125</ele>
        <time>2012-04-08T08:29:35Z</time>
      </trkpt>
      <trkpt lat="42.89824" lon="1.78183">
        <ele>820.62255859375</ele>
        <time>2012-04-08T08:29:39Z</time>
      </trkpt>
      <trkpt lat="42.89824" lon="1.78175">
        <ele>823.02587890625</ele>
        <time>2012-04-08T08:29:43Z</time>
      </trkpt>
      <trkpt lat="42.89824" lon="1.78171">
        <ele>823.50659179688</ele>
        <time>2012-04-08T08:29:45Z</time>
      </trkpt>
      <trkpt lat="42.89821" lon="1.78159">
        <ele>826.39038085938</ele>
        <time>2012-04-08T08:29:49Z</time>
      </trkpt>
      <trkpt lat="42.89827" lon="1.78139">
        <ele>826.39038085938</ele>
        <time>2012-04-08T08:29:55Z</time>
      </trkpt>
      <trkpt lat="42.89829" lon="1.78129">
        <ele>824.94848632812</ele>
        <time>2012-04-08T08:30:00Z</time>
      </trkpt>
      <trkpt lat="42.8983" lon="1.78122">
        <ele>825.90966796875</ele>
        <time>2012-04-08T08:30:07Z</time>
      </trkpt>
      <trkpt lat="42.89831" lon="1.78117">
        <ele>826.39038085938</ele>
        <time>2012-04-08T08:30:10Z</time>
      </trkpt>
      <trkpt lat="42.89833" lon="1.78111">
        <ele>827.83227539062</ele>
        <time>2012-04-08T08:30:15Z</time>
      </trkpt>
      <trkpt lat="42.89833" lon="1.78107">
        <ele>828.31323242188</ele>
        <time>2012-04-08T08:30:26Z</time>
      </trkpt>
      <trkpt lat="42.89833" lon="1.78104">
        <ele>828.7939453125</ele>
        <time>2012-04-08T08:30:32Z</time>
      </trkpt>
      <trkpt lat="42.89836" lon="1.78099">
        <ele>827.35180664062</ele>
        <time>2012-04-08T08:30:37Z</time>
      </trkpt>
      <trkpt lat="42.89835" lon="1.78095">
        <ele>827.35180664062</ele>
        <time>2012-04-08T08:30:40Z</time>
      </trkpt>
      <trkpt lat="42.89835" lon="1.78087">
        <ele>828.7939453125</ele>
        <time>2012-04-08T08:30:44Z</time>
      </trkpt>
      <trkpt lat="42.89838" lon="1.78079">
        <ele>832.15844726562</ele>
        <time>2012-04-08T08:30:51Z</time>
      </trkpt>
      <trkpt lat="42.89839" lon="1.78074">
        <ele>831.677734375</ele>
        <time>2012-04-08T08:30:55Z</time>
      </trkpt>
      <trkpt lat="42.8984" lon="1.78068">
        <ele>829.75512695312</ele>
        <time>2012-04-08T08:30:59Z</time>
      </trkpt>
      <trkpt lat="42.89845" lon="1.78061">
        <ele>827.35180664062</ele>
        <time>2012-04-08T08:31:05Z</time>
      </trkpt>
      <trkpt lat="42.89846" lon="1.78057">
        <ele>830.71655273438</ele>
        <time>2012-04-08T08:31:08Z</time>
      </trkpt>
      <trkpt lat="42.8985" lon="1.78052">
        <ele>829.2744140625</ele>
        <time>2012-04-08T08:31:13Z</time>
      </trkpt>
      <trkpt lat="42.89851" lon="1.78047">
        <ele>829.2744140625</ele>
        <time>2012-04-08T08:31:19Z</time>
      </trkpt>
      <trkpt lat="42.89857" lon="1.78042">
        <ele>831.197265625</ele>
        <time>2012-04-08T08:31:25Z</time>
      </trkpt>
      <trkpt lat="42.8986" lon="1.78037">
        <ele>833.11962890625</ele>
        <time>2012-04-08T08:31:30Z</time>
      </trkpt>
      <trkpt lat="42.89866" lon="1.78027">
        <ele>840.32958984375</ele>
        <time>2012-04-08T08:31:37Z</time>
      </trkpt>
      <trkpt lat="42.89867" lon="1.78022">
        <ele>840.81005859375</ele>
        <time>2012-04-08T08:31:41Z</time>
      </trkpt>
      <trkpt lat="42.89869" lon="1.78016">
        <ele>843.69409179688</ele>
        <time>2012-04-08T08:31:44Z</time>
      </trkpt>
      <trkpt lat="42.8987" lon="1.78006">
        <ele>844.17504882812</ele>
        <time>2012-04-08T08:31:50Z</time>
      </trkpt>
      <trkpt lat="42.89874" lon="1.77998">
        <ele>847.05883789062</ele>
        <time>2012-04-08T08:31:55Z</time>
      </trkpt>
      <trkpt lat="42.89876" lon="1.77993">
        <ele>846.09765625</ele>
        <time>2012-04-08T08:32:00Z</time>
      </trkpt>
      <trkpt lat="42.89881" lon="1.77988">
        <ele>844.65551757812</ele>
        <time>2012-04-08T08:32:07Z</time>
      </trkpt>
      <trkpt lat="42.89884" lon="1.77982">
        <ele>846.09765625</ele>
        <time>2012-04-08T08:32:12Z</time>
      </trkpt>
      <trkpt lat="42.89886" lon="1.77975">
        <ele>844.65551757812</ele>
        <time>2012-04-08T08:32:18Z</time>
      </trkpt>
      <trkpt lat="42.89889" lon="1.77968">
        <ele>852.34594726562</ele>
        <time>2012-04-08T08:32:22Z</time>
      </trkpt>
      <trkpt lat="42.89891" lon="1.77963">
        <ele>853.30737304688</ele>
        <time>2012-04-08T08:32:26Z</time>
      </trkpt>
      <trkpt lat="42.89893" lon="1.77955">
        <ele>851.384765625</ele>
        <time>2012-04-08T08:32:34Z</time>
      </trkpt>
      <trkpt lat="42.89894" lon="1.77948">
        <ele>849.46215820312</ele>
        <time>2012-04-08T08:32:39Z</time>
      </trkpt>
      <trkpt lat="42.89894" lon="1.77941">
        <ele>846.57836914062</ele>
        <time>2012-04-08T08:32:45Z</time>
      </trkpt>
      <trkpt lat="42.89894" lon="1.77939">
        <ele>848.50073242188</ele>
        <time>2012-04-08T08:32:46Z</time>
      </trkpt>
      <trkpt lat="42.89896" lon="1.77929">
        <ele>851.384765625</ele>
        <time>2012-04-08T08:32:53Z</time>
      </trkpt>
      <trkpt lat="42.89896" lon="1.77921">
        <ele>853.7880859375</ele>
        <time>2012-04-08T08:32:57Z</time>
      </trkpt>
      <trkpt lat="42.89895" lon="1.77906">
        <ele>860.03662109375</ele>
        <time>2012-04-08T08:33:05Z</time>
      </trkpt>
      <trkpt lat="42.89896" lon="1.779">
        <ele>860.998046875</ele>
        <time>2012-04-08T08:33:09Z</time>
      </trkpt>
      <trkpt lat="42.89898" lon="1.77898">
        <ele>862.43994140625</ele>
        <time>2012-04-08T08:33:12Z</time>
      </trkpt>
      <trkpt lat="42.89902" lon="1.77895">
        <ele>865.32397460938</ele>
        <time>2012-04-08T08:33:18Z</time>
      </trkpt>
      <trkpt lat="42.89904" lon="1.77889">
        <ele>866.76586914062</ele>
        <time>2012-04-08T08:33:22Z</time>
      </trkpt>
      <trkpt lat="42.89904" lon="1.77883">
        <ele>867.24658203125</ele>
        <time>2012-04-08T08:33:26Z</time>
      </trkpt>
      <trkpt lat="42.89904" lon="1.7788">
        <ele>867.72705078125</ele>
        <time>2012-04-08T08:33:28Z</time>
      </trkpt>
      <trkpt lat="42.89902" lon="1.77868">
        <ele>870.13037109375</ele>
        <time>2012-04-08T08:33:36Z</time>
      </trkpt>
      <trkpt lat="42.89901" lon="1.77853">
        <ele>872.05297851562</ele>
        <time>2012-04-08T08:33:45Z</time>
      </trkpt>
      <trkpt lat="42.89901" lon="1.77839">
        <ele>873.01440429688</ele>
        <time>2012-04-08T08:33:54Z</time>
      </trkpt>
      <trkpt lat="42.89901" lon="1.77822">
        <ele>872.53369140625</ele>
        <time>2012-04-08T08:34:04Z</time>
      </trkpt>
      <trkpt lat="42.89901" lon="1.77811">
        <ele>873.01440429688</ele>
        <time>2012-04-08T08:34:10Z</time>
      </trkpt>
      <trkpt lat="42.89902" lon="1.77801">
        <ele>875.41748046875</ele>
        <time>2012-04-08T08:34:16Z</time>
      </trkpt>
      <trkpt lat="42.89902" lon="1.77797">
        <ele>874.93701171875</ele>
        <time>2012-04-08T08:34:19Z</time>
      </trkpt>
      <trkpt lat="42.89902" lon="1.77794">
        <ele>874.93701171875</ele>
        <time>2012-04-08T08:34:27Z</time>
      </trkpt>
      <trkpt lat="42.89899" lon="1.77792">
        <ele>876.85986328125</ele>
        <time>2012-04-08T08:34:43Z</time>
      </trkpt>
      <trkpt lat="42.89899" lon="1.77785">
        <ele>874.45629882812</ele>
        <time>2012-04-08T08:34:48Z</time>
      </trkpt>
      <trkpt lat="42.89906" lon="1.77779">
        <ele>873.4951171875</ele>
        <time>2012-04-08T08:34:53Z</time>
      </trkpt>
      <trkpt lat="42.89915" lon="1.77773">
        <ele>873.4951171875</ele>
        <time>2012-04-08T08:34:58Z</time>
      </trkpt>
      <trkpt lat="42.89925" lon="1.77763">
        <ele>873.4951171875</ele>
        <time>2012-04-08T08:35:04Z</time>
      </trkpt>
      <trkpt lat="42.89933" lon="1.77752">
        <ele>870.61108398438</ele>
        <time>2012-04-08T08:35:09Z</time>
      </trkpt>
      <trkpt lat="42.89939" lon="1.77745">
        <ele>869.64990234375</ele>
        <time>2012-04-08T08:35:14Z</time>
      </trkpt>
      <trkpt lat="42.89944" lon="1.77737">
        <ele>868.6884765625</ele>
        <time>2012-04-08T08:35:18Z</time>
      </trkpt>
      <trkpt lat="42.89954" lon="1.77726">
        <ele>866.76586914062</ele>
        <time>2012-04-08T08:35:24Z</time>
      </trkpt>
      <trkpt lat="42.89959" lon="1.77723">
        <ele>866.28515625</ele>
        <time>2012-04-08T08:35:27Z</time>
      </trkpt>
      <trkpt lat="42.89962" lon="1.7772">
        <ele>865.8046875</ele>
        <time>2012-04-08T08:35:29Z</time>
      </trkpt>
      <trkpt lat="42.89976" lon="1.77711">
        <ele>861.47875976562</ele>
        <time>2012-04-08T08:35:35Z</time>
      </trkpt>
      <trkpt lat="42.89993" lon="1.777">
        <ele>859.0751953125</ele>
        <time>2012-04-08T08:35:42Z</time>
      </trkpt>
      <trkpt lat="42.89997" lon="1.77698">
        <ele>858.59448242188</ele>
        <time>2012-04-08T08:35:44Z</time>
      </trkpt>
      <trkpt lat="42.90006" lon="1.77691">
        <ele>856.671875</ele>
        <time>2012-04-08T08:35:49Z</time>
      </trkpt>
      <trkpt lat="42.90008" lon="1.77689">
        <ele>855.22998046875</ele>
        <time>2012-04-08T08:35:51Z</time>
      </trkpt>
      <trkpt lat="42.9001" lon="1.77687">
        <ele>855.22998046875</ele>
        <time>2012-04-08T08:35:53Z</time>
      </trkpt>
      <trkpt lat="42.90016" lon="1.77683">
        <ele>855.22998046875</ele>
        <time>2012-04-08T08:35:59Z</time>
      </trkpt>
      <trkpt lat="42.90024" lon="1.77682">
        <ele>852.82666015625</ele>
        <time>2012-04-08T08:36:05Z</time>
      </trkpt>
      <trkpt lat="42.90028" lon="1.77681">
        <ele>852.34594726562</ele>
        <time>2012-04-08T08:36:07Z</time>
      </trkpt>
      <trkpt lat="42.90041" lon="1.77677">
        <ele>850.42358398438</ele>
        <time>2012-04-08T08:36:12Z</time>
      </trkpt>
      <trkpt lat="42.90049" lon="1.77678">
        <ele>852.34594726562</ele>
        <time>2012-04-08T08:36:18Z</time>
      </trkpt>
      <trkpt lat="42.90048" lon="1.77678">
        <ele>854.74926757812</ele>
        <time>2012-04-08T08:36:20Z</time>
      </trkpt>
      <trkpt lat="42.90057" lon="1.77674">
        <ele>854.26879882812</ele>
        <time>2012-04-08T08:36:25Z</time>
      </trkpt>
      <trkpt lat="42.9006" lon="1.77674">
        <ele>853.7880859375</ele>
        <time>2012-04-08T08:36:26Z</time>
      </trkpt>
      <trkpt lat="42.90081" lon="1.77674">
        <ele>853.30737304688</ele>
        <time>2012-04-08T08:36:33Z</time>
      </trkpt>
      <trkpt lat="42.90096" lon="1.77684">
        <ele>851.86547851562</ele>
        <time>2012-04-08T08:36:39Z</time>
      </trkpt>
      <trkpt lat="42.90109" lon="1.77698">
        <ele>849.46215820312</ele>
        <time>2012-04-08T08:36:45Z</time>
      </trkpt>
      <trkpt lat="42.90111" lon="1.777">
        <ele>849.94287109375</ele>
        <time>2012-04-08T08:36:46Z</time>
      </trkpt>
      <trkpt lat="42.90116" lon="1.77712">
        <ele>848.9814453125</ele>
        <time>2012-04-08T08:36:50Z</time>
      </trkpt>
      <trkpt lat="42.9012" lon="1.77718">
        <ele>848.9814453125</ele>
        <time>2012-04-08T08:36:52Z</time>
      </trkpt>
      <trkpt lat="42.90132" lon="1.77734">
        <ele>848.50073242188</ele>
        <time>2012-04-08T08:36:59Z</time>
      </trkpt>
      <trkpt lat="42.90141" lon="1.77745">
        <ele>849.46215820312</ele>
        <time>2012-04-08T08:37:04Z</time>
      </trkpt>
      <trkpt lat="42.90142" lon="1.77748">
        <ele>849.46215820312</ele>
        <time>2012-04-08T08:37:05Z</time>
      </trkpt>
      <trkpt lat="42.90155" lon="1.77766">
        <ele>848.02026367188</ele>
        <time>2012-04-08T08:37:12Z</time>
      </trkpt>
      <trkpt lat="42.90166" lon="1.77776">
        <ele>848.02026367188</ele>
        <time>2012-04-08T08:37:18Z</time>
      </trkpt>
      <trkpt lat="42.90182" lon="1.77788">
        <ele>851.384765625</ele>
        <time>2012-04-08T08:37:23Z</time>
      </trkpt>
      <trkpt lat="42.90191" lon="1.77797">
        <ele>850.90405273438</ele>
        <time>2012-04-08T08:37:27Z</time>
      </trkpt>
      <trkpt lat="42.90202" lon="1.77807">
        <ele>850.90405273438</ele>
        <time>2012-04-08T08:37:32Z</time>
      </trkpt>
      <trkpt lat="42.90203" lon="1.77809">
        <ele>850.90405273438</ele>
        <time>2012-04-08T08:37:33Z</time>
      </trkpt>
      <trkpt lat="42.90211" lon="1.77814">
        <ele>849.94287109375</ele>
        <time>2012-04-08T08:37:38Z</time>
      </trkpt>
      <trkpt lat="42.90217" lon="1.77819">
        <ele>847.53955078125</ele>
        <time>2012-04-08T08:37:41Z</time>
      </trkpt>
      <trkpt lat="42.90229" lon="1.77826">
        <ele>845.61694335938</ele>
        <time>2012-04-08T08:37:46Z</time>
      </trkpt>
      <trkpt lat="42.90238" lon="1.77835">
        <ele>843.21337890625</ele>
        <time>2012-04-08T08:37:50Z</time>
      </trkpt>
      <trkpt lat="42.9025" lon="1.7785">
        <ele>839.84887695312</ele>
        <time>2012-04-08T08:37:56Z</time>
      </trkpt>
      <trkpt lat="42.90258" lon="1.7786">
        <ele>839.3681640625</ele>
        <time>2012-04-08T08:38:00Z</time>
      </trkpt>
      <trkpt lat="42.9027" lon="1.77873">
        <ele>838.8876953125</ele>
        <time>2012-04-08T08:38:05Z</time>
      </trkpt>
      <trkpt lat="42.90283" lon="1.7789">
        <ele>836.96484375</ele>
        <time>2012-04-08T08:38:11Z</time>
      </trkpt>
      <trkpt lat="42.9029" lon="1.779">
        <ele>835.52294921875</ele>
        <time>2012-04-08T08:38:15Z</time>
      </trkpt>
      <trkpt lat="42.90292" lon="1.77902">
        <ele>835.52294921875</ele>
        <time>2012-04-08T08:38:16Z</time>
      </trkpt>
      <trkpt lat="42.90299" lon="1.77899">
        <ele>835.04248046875</ele>
        <time>2012-04-08T08:38:20Z</time>
      </trkpt>
      <trkpt lat="42.90294" lon="1.77881">
        <ele>830.23583984375</ele>
        <time>2012-04-08T08:38:27Z</time>
      </trkpt>
      <trkpt lat="42.90291" lon="1.77865">
        <ele>825.42895507812</ele>
        <time>2012-04-08T08:38:32Z</time>
      </trkpt>
      <trkpt lat="42.90288" lon="1.77844">
        <ele>818.69995117188</ele>
        <time>2012-04-08T08:38:38Z</time>
      </trkpt>
      <trkpt lat="42.90284" lon="1.77828">
        <ele>812.93212890625</ele>
        <time>2012-04-08T08:38:43Z</time>
      </trkpt>
      <trkpt lat="42.90279" lon="1.77813">
        <ele>808.12548828125</ele>
        <time>2012-04-08T08:38:48Z</time>
      </trkpt>
      <trkpt lat="42.90276" lon="1.778">
        <ele>804.2802734375</ele>
        <time>2012-04-08T08:38:52Z</time>
      </trkpt>
      <trkpt lat="42.90269" lon="1.77783">
        <ele>798.99291992188</ele>
        <time>2012-04-08T08:38:58Z</time>
      </trkpt>
      <trkpt lat="42.90266" lon="1.77775">
        <ele>797.0703125</ele>
        <time>2012-04-08T08:39:01Z</time>
      </trkpt>
      <trkpt lat="42.90266" lon="1.77768">
        <ele>795.62817382812</ele>
        <time>2012-04-08T08:39:03Z</time>
      </trkpt>
      <trkpt lat="42.9026" lon="1.77749">
        <ele>794.66674804688</ele>
        <time>2012-04-08T08:39:09Z</time>
      </trkpt>
      <trkpt lat="42.90255" lon="1.77736">
        <ele>793.22485351562</ele>
        <time>2012-04-08T08:39:13Z</time>
      </trkpt>
      <trkpt lat="42.90255" lon="1.77732">
        <ele>792.263671875</ele>
        <time>2012-04-08T08:39:14Z</time>
      </trkpt>
      <trkpt lat="42.90247" lon="1.77715">
        <ele>790.82153320312</ele>
        <time>2012-04-08T08:39:19Z</time>
      </trkpt>
      <trkpt lat="42.90243" lon="1.77704">
        <ele>790.82153320312</ele>
        <time>2012-04-08T08:39:22Z</time>
      </trkpt>
      <trkpt lat="42.90239" lon="1.77693">
        <ele>789.8603515625</ele>
        <time>2012-04-08T08:39:25Z</time>
      </trkpt>
      <trkpt lat="42.90233" lon="1.77685">
        <ele>786.97631835938</ele>
        <time>2012-04-08T08:39:29Z</time>
      </trkpt>
      <trkpt lat="42.90229" lon="1.7768">
        <ele>786.49584960938</ele>
        <time>2012-04-08T08:39:31Z</time>
      </trkpt>
      <trkpt lat="42.90225" lon="1.77671">
        <ele>786.01513671875</ele>
        <time>2012-04-08T08:39:34Z</time>
      </trkpt>
      <trkpt lat="42.9023" lon="1.77668">
        <ele>786.01513671875</ele>
        <time>2012-04-08T08:39:37Z</time>
      </trkpt>
      <trkpt lat="42.90239" lon="1.77677">
        <ele>786.01513671875</ele>
        <time>2012-04-08T08:39:41Z</time>
      </trkpt>
      <trkpt lat="42.90251" lon="1.77683">
        <ele>783.13110351562</ele>
        <time>2012-04-08T08:39:46Z</time>
      </trkpt>
      <trkpt lat="42.90263" lon="1.77698">
        <ele>780.72802734375</ele>
        <time>2012-04-08T08:39:52Z</time>
      </trkpt>
      <trkpt lat="42.90273" lon="1.7771">
        <ele>779.76635742188</ele>
        <time>2012-04-08T08:39:57Z</time>
      </trkpt>
      <trkpt lat="42.90286" lon="1.77718">
        <ele>778.32446289062</ele>
        <time>2012-04-08T08:40:03Z</time>
      </trkpt>
      <trkpt lat="42.90296" lon="1.77721">
        <ele>778.32446289062</ele>
        <time>2012-04-08T08:40:07Z</time>
      </trkpt>
      <trkpt lat="42.90314" lon="1.77727">
        <ele>779.28564453125</ele>
        <time>2012-04-08T08:40:13Z</time>
      </trkpt>
      <trkpt lat="42.90325" lon="1.77737">
        <ele>778.80517578125</ele>
        <time>2012-04-08T08:40:17Z</time>
      </trkpt>
      <trkpt lat="42.90334" lon="1.77747">
        <ele>776.88256835938</ele>
        <time>2012-04-08T08:40:21Z</time>
      </trkpt>
      <trkpt lat="42.90347" lon="1.7775">
        <ele>776.88256835938</ele>
        <time>2012-04-08T08:40:26Z</time>
      </trkpt>
      <trkpt lat="42.90349" lon="1.77751">
        <ele>775.92114257812</ele>
        <time>2012-04-08T08:40:27Z</time>
      </trkpt>
      <trkpt lat="42.90361" lon="1.7775">
        <ele>774.47924804688</ele>
        <time>2012-04-08T08:40:32Z</time>
      </trkpt>
      <trkpt lat="42.90376" lon="1.77755">
        <ele>772.556640625</ele>
        <time>2012-04-08T08:40:37Z</time>
      </trkpt>
      <trkpt lat="42.90392" lon="1.77757">
        <ele>770.63403320312</ele>
        <time>2012-04-08T08:40:42Z</time>
      </trkpt>
      <trkpt lat="42.90403" lon="1.77759">
        <ele>768.71142578125</ele>
        <time>2012-04-08T08:40:46Z</time>
      </trkpt>
      <trkpt lat="42.90415" lon="1.77764">
        <ele>768.23071289062</ele>
        <time>2012-04-08T08:40:50Z</time>
      </trkpt>
      <trkpt lat="42.90436" lon="1.77776">
        <ele>762.943359375</ele>
        <time>2012-04-08T08:40:58Z</time>
      </trkpt>
      <trkpt lat="42.90447" lon="1.77783">
        <ele>759.57885742188</ele>
        <time>2012-04-08T08:41:02Z</time>
      </trkpt>
      <trkpt lat="42.90461" lon="1.77795">
        <ele>754.77221679688</ele>
        <time>2012-04-08T08:41:08Z</time>
      </trkpt>
      <trkpt lat="42.90474" lon="1.77806">
        <ele>752.849609375</ele>
        <time>2012-04-08T08:41:13Z</time>
      </trkpt>
      <trkpt lat="42.90487" lon="1.77815">
        <ele>751.88842773438</ele>
        <time>2012-04-08T08:41:17Z</time>
      </trkpt>
      <trkpt lat="42.90498" lon="1.77827">
        <ele>749.48510742188</ele>
        <time>2012-04-08T08:41:22Z</time>
      </trkpt>
      <trkpt lat="42.90507" lon="1.77839">
        <ele>747.08154296875</ele>
        <time>2012-04-08T08:41:26Z</time>
      </trkpt>
      <trkpt lat="42.90519" lon="1.77849">
        <ele>744.67822265625</ele>
        <time>2012-04-08T08:41:31Z</time>
      </trkpt>
      <trkpt lat="42.90527" lon="1.77855">
        <ele>741.79443359375</ele>
        <time>2012-04-08T08:41:35Z</time>
      </trkpt>
      <trkpt lat="42.9053" lon="1.77857">
        <ele>741.31372070312</ele>
        <time>2012-04-08T08:41:36Z</time>
      </trkpt>
      <trkpt lat="42.90547" lon="1.77865">
        <ele>738.42993164062</ele>
        <time>2012-04-08T08:41:42Z</time>
      </trkpt>
      <trkpt lat="42.90562" lon="1.77875">
        <ele>736.02661132812</ele>
        <time>2012-04-08T08:41:47Z</time>
      </trkpt>
      <trkpt lat="42.90576" lon="1.7789">
        <ele>734.10400390625</ele>
        <time>2012-04-08T08:41:53Z</time>
      </trkpt>
      <trkpt lat="42.90586" lon="1.77902">
        <ele>731.21997070312</ele>
        <time>2012-04-08T08:41:57Z</time>
      </trkpt>
      <trkpt lat="42.90591" lon="1.77915">
        <ele>728.3359375</ele>
        <time>2012-04-08T08:42:01Z</time>
      </trkpt>
      <trkpt lat="42.90598" lon="1.77928">
        <ele>724.01000976562</ele>
        <time>2012-04-08T08:42:05Z</time>
      </trkpt>
      <trkpt lat="42.90604" lon="1.77947">
        <ele>719.20361328125</ele>
        <time>2012-04-08T08:42:11Z</time>
      </trkpt>
      <trkpt lat="42.90606" lon="1.77968">
        <ele>714.87744140625</ele>
        <time>2012-04-08T08:42:17Z</time>
      </trkpt>
      <trkpt lat="42.90606" lon="1.77986">
        <ele>712.95483398438</ele>
        <time>2012-04-08T08:42:22Z</time>
      </trkpt>
      <trkpt lat="42.90604" lon="1.77999">
        <ele>711.51293945312</ele>
        <time>2012-04-08T08:42:26Z</time>
      </trkpt>
      <trkpt lat="42.90596" lon="1.78023">
        <ele>707.66772460938</ele>
        <time>2012-04-08T08:42:33Z</time>
      </trkpt>
      <trkpt lat="42.90586" lon="1.78041">
        <ele>703.341796875</ele>
        <time>2012-04-08T08:42:39Z</time>
      </trkpt>
      <trkpt lat="42.9058" lon="1.78051">
        <ele>700.9384765625</ele>
        <time>2012-04-08T08:42:43Z</time>
      </trkpt>
      <trkpt lat="42.90573" lon="1.78061">
        <ele>699.97705078125</ele>
        <time>2012-04-08T08:42:47Z</time>
      </trkpt>
      <trkpt lat="42.90566" lon="1.78073">
        <ele>697.57373046875</ele>
        <time>2012-04-08T08:42:53Z</time>
      </trkpt>
      <trkpt lat="42.90562" lon="1.78085">
        <ele>696.61254882812</ele>
        <time>2012-04-08T08:42:58Z</time>
      </trkpt>
      <trkpt lat="42.90553" lon="1.78102">
        <ele>693.24780273438</ele>
        <time>2012-04-08T08:43:05Z</time>
      </trkpt>
      <trkpt lat="42.90543" lon="1.78113">
        <ele>691.3251953125</ele>
        <time>2012-04-08T08:43:11Z</time>
      </trkpt>
      <trkpt lat="42.90537" lon="1.78121">
        <ele>689.88330078125</ele>
        <time>2012-04-08T08:43:15Z</time>
      </trkpt>
      <trkpt lat="42.90536" lon="1.78123">
        <ele>689.88330078125</ele>
        <time>2012-04-08T08:43:16Z</time>
      </trkpt>
      <trkpt lat="42.90541" lon="1.78132">
        <ele>695.17041015625</ele>
        <time>2012-04-08T08:43:23Z</time>
      </trkpt>
      <trkpt lat="42.90543" lon="1.78135">
        <ele>697.09301757812</ele>
        <time>2012-04-08T08:43:25Z</time>
      </trkpt>
      <trkpt lat="42.90548" lon="1.78139">
        <ele>699.015625</ele>
        <time>2012-04-08T08:43:28Z</time>
      </trkpt>
      <trkpt lat="42.90554" lon="1.78149">
        <ele>699.97705078125</ele>
        <time>2012-04-08T08:43:33Z</time>
      </trkpt>
      <trkpt lat="42.90563" lon="1.78145">
        <ele>700.4580078125</ele>
        <time>2012-04-08T08:43:37Z</time>
      </trkpt>
      <trkpt lat="42.90568" lon="1.78142">
        <ele>701.89990234375</ele>
        <time>2012-04-08T08:43:39Z</time>
      </trkpt>
      <trkpt lat="42.90586" lon="1.78137">
        <ele>701.89990234375</ele>
        <time>2012-04-08T08:43:46Z</time>
      </trkpt>
      <trkpt lat="42.90598" lon="1.78136">
        <ele>703.82250976562</ele>
        <time>2012-04-08T08:43:50Z</time>
      </trkpt>
      <trkpt lat="42.90606" lon="1.78134">
        <ele>702.38037109375</ele>
        <time>2012-04-08T08:43:53Z</time>
      </trkpt>
      <trkpt lat="42.90617" lon="1.7813">
        <ele>701.89990234375</ele>
        <time>2012-04-08T08:43:58Z</time>
      </trkpt>
      <trkpt lat="42.90626" lon="1.78125">
        <ele>702.38037109375</ele>
        <time>2012-04-08T08:44:03Z</time>
      </trkpt>
      <trkpt lat="42.90635" lon="1.78119">
        <ele>702.38037109375</ele>
        <time>2012-04-08T08:44:07Z</time>
      </trkpt>
      <trkpt lat="42.90639" lon="1.78116">
        <ele>701.89990234375</ele>
        <time>2012-04-08T08:44:11Z</time>
      </trkpt>
      <trkpt lat="42.90639" lon="1.78124">
        <ele>704.30322265625</ele>
        <time>2012-04-08T08:44:19Z</time>
      </trkpt>
      <trkpt lat="42.90642" lon="1.78128">
        <ele>700.4580078125</ele>
        <time>2012-04-08T08:44:31Z</time>
      </trkpt>
      <trkpt lat="42.90642" lon="1.78134">
        <ele>695.65112304688</ele>
        <time>2012-04-08T08:44:45Z</time>
      </trkpt>
      <trkpt lat="42.90642" lon="1.78134">
        <ele>693.728515625</ele>
        <time>2012-04-08T08:44:47Z</time>
      </trkpt>
      <trkpt lat="42.90648" lon="1.78127">
        <ele>690.36401367188</ele>
        <time>2012-04-08T08:44:52Z</time>
      </trkpt>
      <trkpt lat="42.90651" lon="1.78125">
        <ele>691.3251953125</ele>
        <time>2012-04-08T08:44:55Z</time>
      </trkpt>
      <trkpt lat="42.90656" lon="1.78122">
        <ele>693.24780273438</ele>
        <time>2012-04-08T08:44:59Z</time>
      </trkpt>
      <trkpt lat="42.90662" lon="1.78124">
        <ele>697.57373046875</ele>
        <time>2012-04-08T08:45:04Z</time>
      </trkpt>
      <trkpt lat="42.90662" lon="1.78125">
        <ele>698.05444335938</ele>
        <time>2012-04-08T08:45:10Z</time>
      </trkpt>
      <trkpt lat="42.90667" lon="1.78121">
        <ele>694.68969726562</ele>
        <time>2012-04-08T08:45:15Z</time>
      </trkpt>
      <trkpt lat="42.90673" lon="1.78121">
        <ele>687.96069335938</ele>
        <time>2012-04-08T08:45:21Z</time>
      </trkpt>
      <trkpt lat="42.90688" lon="1.78126">
        <ele>684.11547851562</ele>
        <time>2012-04-08T08:45:29Z</time>
      </trkpt>
      <trkpt lat="42.90693" lon="1.78131">
        <ele>683.15380859375</ele>
        <time>2012-04-08T08:45:31Z</time>
      </trkpt>
      <trkpt lat="42.90704" lon="1.78142">
        <ele>682.67333984375</ele>
        <time>2012-04-08T08:45:36Z</time>
      </trkpt>
      <trkpt lat="42.90714" lon="1.78141">
        <ele>681.2314453125</ele>
        <time>2012-04-08T08:45:40Z</time>
      </trkpt>
      <trkpt lat="42.90723" lon="1.78136">
        <ele>682.19262695312</ele>
        <time>2012-04-08T08:45:43Z</time>
      </trkpt>
      <trkpt lat="42.90739" lon="1.7813">
        <ele>683.15380859375</ele>
        <time>2012-04-08T08:45:48Z</time>
      </trkpt>
      <trkpt lat="42.90752" lon="1.78127">
        <ele>683.63452148438</ele>
        <time>2012-04-08T08:45:52Z</time>
      </trkpt>
      <trkpt lat="42.90761" lon="1.78127">
        <ele>685.07690429688</ele>
        <time>2012-04-08T08:45:56Z</time>
      </trkpt>
      <trkpt lat="42.9077" lon="1.78127">
        <ele>684.59619140625</ele>
        <time>2012-04-08T08:46:00Z</time>
      </trkpt>
      <trkpt lat="42.90783" lon="1.78135">
        <ele>683.15380859375</ele>
        <time>2012-04-08T08:46:05Z</time>
      </trkpt>
      <trkpt lat="42.90788" lon="1.78144">
        <ele>681.2314453125</ele>
        <time>2012-04-08T08:46:09Z</time>
      </trkpt>
      <trkpt lat="42.90799" lon="1.78153">
        <ele>680.27001953125</ele>
        <time>2012-04-08T08:46:14Z</time>
      </trkpt>
      <trkpt lat="42.90809" lon="1.78165">
        <ele>677.38623046875</ele>
        <time>2012-04-08T08:46:19Z</time>
      </trkpt>
      <trkpt lat="42.90812" lon="1.78167">
        <ele>676.90551757812</ele>
        <time>2012-04-08T08:46:20Z</time>
      </trkpt>
      <trkpt lat="42.90825" lon="1.78179">
        <ele>674.98291015625</ele>
        <time>2012-04-08T08:46:26Z</time>
      </trkpt>
      <trkpt lat="42.90842" lon="1.78182">
        <ele>675.46337890625</ele>
        <time>2012-04-08T08:46:31Z</time>
      </trkpt>
      <trkpt lat="42.90847" lon="1.78183">
        <ele>675.46337890625</ele>
        <time>2012-04-08T08:46:33Z</time>
      </trkpt>
      <trkpt lat="42.90862" lon="1.78192">
        <ele>674.98291015625</ele>
        <time>2012-04-08T08:46:38Z</time>
      </trkpt>
      <trkpt lat="42.90878" lon="1.78201">
        <ele>668.734375</ele>
        <time>2012-04-08T08:46:44Z</time>
      </trkpt>
      <trkpt lat="42.90886" lon="1.78204">
        <ele>665.36962890625</ele>
        <time>2012-04-08T08:46:48Z</time>
      </trkpt>
      <trkpt lat="42.90887" lon="1.78204">
        <ele>664.408203125</ele>
        <time>2012-04-08T08:46:49Z</time>
      </trkpt>
      <trkpt lat="42.90898" lon="1.78206">
        <ele>661.04370117188</ele>
        <time>2012-04-08T08:46:55Z</time>
      </trkpt>
      <trkpt lat="42.90911" lon="1.78207">
        <ele>654.31469726562</ele>
        <time>2012-04-08T08:47:00Z</time>
      </trkpt>
      <trkpt lat="42.90924" lon="1.78207">
        <ele>653.833984375</ele>
        <time>2012-04-08T08:47:05Z</time>
      </trkpt>
      <trkpt lat="42.90928" lon="1.78208">
        <ele>652.39184570312</ele>
        <time>2012-04-08T08:47:07Z</time>
      </trkpt>
      <trkpt lat="42.9094" lon="1.78211">
        <ele>648.06591796875</ele>
        <time>2012-04-08T08:47:13Z</time>
      </trkpt>
      <trkpt lat="42.9095" lon="1.78211">
        <ele>647.1044921875</ele>
        <time>2012-04-08T08:47:17Z</time>
      </trkpt>
      <trkpt lat="42.90955" lon="1.78209">
        <ele>646.6240234375</ele>
        <time>2012-04-08T08:47:19Z</time>
      </trkpt>
      <trkpt lat="42.90967" lon="1.78198">
        <ele>646.14331054688</ele>
        <time>2012-04-08T08:47:24Z</time>
      </trkpt>
      <trkpt lat="42.90982" lon="1.78188">
        <ele>646.14331054688</ele>
        <time>2012-04-08T08:47:30Z</time>
      </trkpt>
      <trkpt lat="42.90992" lon="1.78186">
        <ele>644.220703125</ele>
        <time>2012-04-08T08:47:35Z</time>
      </trkpt>
      <trkpt lat="42.90999" lon="1.78183">
        <ele>641.8173828125</ele>
        <time>2012-04-08T08:47:39Z</time>
      </trkpt>
      <trkpt lat="42.91011" lon="1.78192">
        <ele>633.16528320312</ele>
        <time>2012-04-08T08:47:45Z</time>
      </trkpt>
      <trkpt lat="42.91021" lon="1.78209">
        <ele>630.76220703125</ele>
        <time>2012-04-08T08:47:50Z</time>
      </trkpt>
      <trkpt lat="42.91022" lon="1.78211">
        <ele>630.28149414062</ele>
        <time>2012-04-08T08:47:51Z</time>
      </trkpt>
      <trkpt lat="42.91026" lon="1.78222">
        <ele>627.87817382812</ele>
        <time>2012-04-08T08:47:55Z</time>
      </trkpt>
      <trkpt lat="42.91031" lon="1.78246">
        <ele>624.99438476562</ele>
        <time>2012-04-08T08:48:01Z</time>
      </trkpt>
      <trkpt lat="42.91031" lon="1.78258">
        <ele>621.14916992188</ele>
        <time>2012-04-08T08:48:06Z</time>
      </trkpt>
      <trkpt lat="42.91031" lon="1.78261">
        <ele>619.70703125</ele>
        <time>2012-04-08T08:48:08Z</time>
      </trkpt>
      <trkpt lat="42.91029" lon="1.78274">
        <ele>615.86181640625</ele>
        <time>2012-04-08T08:48:13Z</time>
      </trkpt>
      <trkpt lat="42.91029" lon="1.78281">
        <ele>615.86181640625</ele>
        <time>2012-04-08T08:48:19Z</time>
      </trkpt>
      <trkpt lat="42.91031" lon="1.78284">
        <ele>617.3037109375</ele>
        <time>2012-04-08T08:48:22Z</time>
      </trkpt>
      <trkpt lat="42.91025" lon="1.78293">
        <ele>616.82299804688</ele>
        <time>2012-04-08T08:48:28Z</time>
      </trkpt>
      <trkpt lat="42.91021" lon="1.78301">
        <ele>615.38110351562</ele>
        <time>2012-04-08T08:48:32Z</time>
      </trkpt>
      <trkpt lat="42.91014" lon="1.78314">
        <ele>615.38110351562</ele>
        <time>2012-04-08T08:48:37Z</time>
      </trkpt>
      <trkpt lat="42.91014" lon="1.78318">
        <ele>614.900390625</ele>
        <time>2012-04-08T08:48:39Z</time>
      </trkpt>
      <trkpt lat="42.91013" lon="1.78323">
        <ele>614.900390625</ele>
        <time>2012-04-08T08:48:42Z</time>
      </trkpt>
      <trkpt lat="42.91011" lon="1.78329">
        <ele>619.70703125</ele>
        <time>2012-04-08T08:48:51Z</time>
      </trkpt>
      <trkpt lat="42.91012" lon="1.78336">
        <ele>617.3037109375</ele>
        <time>2012-04-08T08:48:57Z</time>
      </trkpt>
      <trkpt lat="42.91013" lon="1.78337">
        <ele>618.74560546875</ele>
        <time>2012-04-08T08:48:59Z</time>
      </trkpt>
      <trkpt lat="42.91015" lon="1.78337">
        <ele>619.70703125</ele>
        <time>2012-04-08T08:49:05Z</time>
      </trkpt>
      <trkpt lat="42.91018" lon="1.7834">
        <ele>619.22631835938</ele>
        <time>2012-04-08T08:49:09Z</time>
      </trkpt>
      <trkpt lat="42.91019" lon="1.78342">
        <ele>623.07177734375</ele>
        <time>2012-04-08T08:49:13Z</time>
      </trkpt>
      <trkpt lat="42.91025" lon="1.78347">
        <ele>620.66845703125</ele>
        <time>2012-04-08T08:49:18Z</time>
      </trkpt>
      <trkpt lat="42.91025" lon="1.7835">
        <ele>618.26489257812</ele>
        <time>2012-04-08T08:49:20Z</time>
      </trkpt>
      <trkpt lat="42.91025" lon="1.78363">
        <ele>612.97778320312</ele>
        <time>2012-04-08T08:49:26Z</time>
      </trkpt>
      <trkpt lat="42.91034" lon="1.78368">
        <ele>614.900390625</ele>
        <time>2012-04-08T08:49:29Z</time>
      </trkpt>
      <trkpt lat="42.91043" lon="1.78377">
        <ele>613.93896484375</ele>
        <time>2012-04-08T08:49:35Z</time>
      </trkpt>
      <trkpt lat="42.91051" lon="1.7839">
        <ele>610.57446289062</ele>
        <time>2012-04-08T08:49:40Z</time>
      </trkpt>
      <trkpt lat="42.91059" lon="1.78401">
        <ele>608.65185546875</ele>
        <time>2012-04-08T08:49:45Z</time>
      </trkpt>
      <trkpt lat="42.91063" lon="1.78402">
        <ele>609.61328125</ele>
        <time>2012-04-08T08:49:47Z</time>
      </trkpt>
      <trkpt lat="42.9107" lon="1.78404">
        <ele>610.57446289062</ele>
        <time>2012-04-08T08:49:52Z</time>
      </trkpt>
      <trkpt lat="42.91077" lon="1.78402">
        <ele>609.61328125</ele>
        <time>2012-04-08T08:49:59Z</time>
      </trkpt>
      <trkpt lat="42.91076" lon="1.78406">
        <ele>606.24853515625</ele>
        <time>2012-04-08T08:50:02Z</time>
      </trkpt>
      <trkpt lat="42.91079" lon="1.7841">
        <ele>606.72924804688</ele>
        <time>2012-04-08T08:50:08Z</time>
      </trkpt>
      <trkpt lat="42.91082" lon="1.7841">
        <ele>603.84521484375</ele>
        <time>2012-04-08T08:50:13Z</time>
      </trkpt>
      <trkpt lat="42.91088" lon="1.78409">
        <ele>600.96118164062</ele>
        <time>2012-04-08T08:50:21Z</time>
      </trkpt>
      <trkpt lat="42.91092" lon="1.78414">
        <ele>600.48071289062</ele>
        <time>2012-04-08T08:50:26Z</time>
      </trkpt>
      <trkpt lat="42.91099" lon="1.78416">
        <ele>603.36450195312</ele>
        <time>2012-04-08T08:50:33Z</time>
      </trkpt>
      <trkpt lat="42.91102" lon="1.78408">
        <ele>602.8837890625</ele>
        <time>2012-04-08T08:50:38Z</time>
      </trkpt>
      <trkpt lat="42.91105" lon="1.78406">
        <ele>601.44189453125</ele>
        <time>2012-04-08T08:50:42Z</time>
      </trkpt>
      <trkpt lat="42.91108" lon="1.78411">
        <ele>601.92260742188</ele>
        <time>2012-04-08T08:50:55Z</time>
      </trkpt>
      <trkpt lat="42.91108" lon="1.78412">
        <ele>601.44189453125</ele>
        <time>2012-04-08T08:50:56Z</time>
      </trkpt>
      <trkpt lat="42.91116" lon="1.78412">
        <ele>597.5966796875</ele>
        <time>2012-04-08T08:51:02Z</time>
      </trkpt>
      <trkpt lat="42.91122" lon="1.78417">
        <ele>594.71264648438</ele>
        <time>2012-04-08T08:51:08Z</time>
      </trkpt>
      <trkpt lat="42.91123" lon="1.78418">
        <ele>594.71264648438</ele>
        <time>2012-04-08T08:51:09Z</time>
      </trkpt>
      <trkpt lat="42.91128" lon="1.78428">
        <ele>591.82885742188</ele>
        <time>2012-04-08T08:51:14Z</time>
      </trkpt>
      <trkpt lat="42.9113" lon="1.78442">
        <ele>586.54150390625</ele>
        <time>2012-04-08T08:51:21Z</time>
      </trkpt>
      <trkpt lat="42.91133" lon="1.78449">
        <ele>586.06079101562</ele>
        <time>2012-04-08T08:51:25Z</time>
      </trkpt>
      <trkpt lat="42.91139" lon="1.78459">
        <ele>583.1767578125</ele>
        <time>2012-04-08T08:51:29Z</time>
      </trkpt>
      <trkpt lat="42.91142" lon="1.78471">
        <ele>578.85107421875</ele>
        <time>2012-04-08T08:51:34Z</time>
      </trkpt>
      <trkpt lat="42.9115" lon="1.78488">
        <ele>573.56396484375</ele>
        <time>2012-04-08T08:51:41Z</time>
      </trkpt>
      <trkpt lat="42.91154" lon="1.78509">
        <ele>567.79565429688</ele>
        <time>2012-04-08T08:51:47Z</time>
      </trkpt>
      <trkpt lat="42.9116" lon="1.78526">
        <ele>562.02807617188</ele>
        <time>2012-04-08T08:51:52Z</time>
      </trkpt>
      <trkpt lat="42.91162" lon="1.78536">
        <ele>557.7021484375</ele>
        <time>2012-04-08T08:51:56Z</time>
      </trkpt>
      <trkpt lat="42.91163" lon="1.78539">
        <ele>556.26000976562</ele>
        <time>2012-04-08T08:51:57Z</time>
      </trkpt>
      <trkpt lat="42.91168" lon="1.78559">
        <ele>555.29858398438</ele>
        <time>2012-04-08T08:52:03Z</time>
      </trkpt>
      <trkpt lat="42.9117" lon="1.78571">
        <ele>556.26000976562</ele>
        <time>2012-04-08T08:52:08Z</time>
      </trkpt>
      <trkpt lat="42.91171" lon="1.78574">
        <ele>558.18286132812</ele>
        <time>2012-04-08T08:52:10Z</time>
      </trkpt>
      <trkpt lat="42.91185" lon="1.7858">
        <ele>561.54736328125</ele>
        <time>2012-04-08T08:52:15Z</time>
      </trkpt>
      <trkpt lat="42.9119" lon="1.78582">
        <ele>562.50854492188</ele>
        <time>2012-04-08T08:52:17Z</time>
      </trkpt>
      <trkpt lat="42.91195" lon="1.78583">
        <ele>562.9892578125</ele>
        <time>2012-04-08T08:52:21Z</time>
      </trkpt>
      <trkpt lat="42.912" lon="1.78584">
        <ele>564.91186523438</ele>
        <time>2012-04-08T08:52:25Z</time>
      </trkpt>
      <trkpt lat="42.91206" lon="1.78588">
        <ele>562.50854492188</ele>
        <time>2012-04-08T08:52:32Z</time>
      </trkpt>
      <trkpt lat="42.91214" lon="1.78592">
        <ele>563.95043945312</ele>
        <time>2012-04-08T08:52:38Z</time>
      </trkpt>
      <trkpt lat="42.91217" lon="1.78591">
        <ele>566.35375976562</ele>
        <time>2012-04-08T08:52:41Z</time>
      </trkpt>
      <trkpt lat="42.91217" lon="1.78589">
        <ele>568.75708007812</ele>
        <time>2012-04-08T08:52:46Z</time>
      </trkpt>
      <trkpt lat="42.91229" lon="1.78583">
        <ele>568.75708007812</ele>
        <time>2012-04-08T08:52:51Z</time>
      </trkpt>
      <trkpt lat="42.91233" lon="1.78588">
        <ele>568.2763671875</ele>
        <time>2012-04-08T08:52:59Z</time>
      </trkpt>
      <trkpt lat="42.91234" lon="1.78595">
        <ele>571.16040039062</ele>
        <time>2012-04-08T08:53:04Z</time>
      </trkpt>
      <trkpt lat="42.9124" lon="1.78605">
        <ele>571.16040039062</ele>
        <time>2012-04-08T08:53:09Z</time>
      </trkpt>
      <trkpt lat="42.91245" lon="1.78619">
        <ele>572.6025390625</ele>
        <time>2012-04-08T08:53:13Z</time>
      </trkpt>
      <trkpt lat="42.91251" lon="1.78636">
        <ele>575.005859375</ele>
        <time>2012-04-08T08:53:18Z</time>
      </trkpt>
      <trkpt lat="42.91259" lon="1.78653">
        <ele>575.005859375</ele>
        <time>2012-04-08T08:53:23Z</time>
      </trkpt>
      <trkpt lat="42.91259" lon="1.78657">
        <ele>575.005859375</ele>
        <time>2012-04-08T08:53:24Z</time>
      </trkpt>
      <trkpt lat="42.91261" lon="1.78671">
        <ele>575.486328125</ele>
        <time>2012-04-08T08:53:28Z</time>
      </trkpt>
      <trkpt lat="42.91264" lon="1.78683">
        <ele>576.44775390625</ele>
        <time>2012-04-08T08:53:31Z</time>
      </trkpt>
      <trkpt lat="42.91269" lon="1.7869">
        <ele>575.96704101562</ele>
        <time>2012-04-08T08:53:33Z</time>
      </trkpt>
      <trkpt lat="42.91271" lon="1.78702">
        <ele>575.005859375</ele>
        <time>2012-04-08T08:53:37Z</time>
      </trkpt>
      <trkpt lat="42.91272" lon="1.78719">
        <ele>575.486328125</ele>
        <time>2012-04-08T08:53:43Z</time>
      </trkpt>
      <trkpt lat="42.91272" lon="1.78724">
        <ele>575.486328125</ele>
        <time>2012-04-08T08:53:46Z</time>
      </trkpt>
      <trkpt lat="42.91274" lon="1.78727">
        <ele>575.96704101562</ele>
        <time>2012-04-08T08:53:49Z</time>
      </trkpt>
      <trkpt lat="42.91276" lon="1.78728">
        <ele>577.4091796875</ele>
        <time>2012-04-08T08:53:52Z</time>
      </trkpt>
      <trkpt lat="42.91279" lon="1.78731">
        <ele>578.85107421875</ele>
        <time>2012-04-08T08:53:58Z</time>
      </trkpt>
      <trkpt lat="42.9128" lon="1.78728">
        <ele>579.81225585938</ele>
        <time>2012-04-08T08:54:05Z</time>
      </trkpt>
      <trkpt lat="42.9129" lon="1.78727">
        <ele>578.85107421875</ele>
        <time>2012-04-08T08:54:12Z</time>
      </trkpt>
      <trkpt lat="42.91296" lon="1.78734">
        <ele>576.44775390625</ele>
        <time>2012-04-08T08:54:18Z</time>
      </trkpt>
      <trkpt lat="42.91299" lon="1.78739">
        <ele>575.486328125</ele>
        <time>2012-04-08T08:54:21Z</time>
      </trkpt>
      <trkpt lat="42.91303" lon="1.78751">
        <ele>575.486328125</ele>
        <time>2012-04-08T08:54:27Z</time>
      </trkpt>
      <trkpt lat="42.91306" lon="1.78765">
        <ele>574.52514648438</ele>
        <time>2012-04-08T08:54:34Z</time>
      </trkpt>
      <trkpt lat="42.91311" lon="1.78777">
        <ele>574.52514648438</ele>
        <time>2012-04-08T08:54:42Z</time>
      </trkpt>
      <trkpt lat="42.9132" lon="1.78785">
        <ele>574.52514648438</ele>
        <time>2012-04-08T08:54:50Z</time>
      </trkpt>
      <trkpt lat="42.9133" lon="1.78784">
        <ele>575.486328125</ele>
        <time>2012-04-08T08:54:58Z</time>
      </trkpt>
      <trkpt lat="42.91339" lon="1.78777">
        <ele>576.92846679688</ele>
        <time>2012-04-08T08:55:06Z</time>
      </trkpt>
      <trkpt lat="42.91346" lon="1.78774">
        <ele>579.33154296875</ele>
        <time>2012-04-08T08:55:12Z</time>
      </trkpt>
      <trkpt lat="42.91351" lon="1.78775">
        <ele>580.29296875</ele>
        <time>2012-04-08T08:55:17Z</time>
      </trkpt>
      <trkpt lat="42.91359" lon="1.78778">
        <ele>584.13818359375</ele>
        <time>2012-04-08T08:55:24Z</time>
      </trkpt>
      <trkpt lat="42.9136" lon="1.78778">
        <ele>586.06079101562</ele>
        <time>2012-04-08T08:55:28Z</time>
      </trkpt>
      <trkpt lat="42.91365" lon="1.78779">
        <ele>587.50268554688</ele>
        <time>2012-04-08T08:55:32Z</time>
      </trkpt>
      <trkpt lat="42.91369" lon="1.78779">
        <ele>587.9833984375</ele>
        <time>2012-04-08T08:55:35Z</time>
      </trkpt>
      <trkpt lat="42.91377" lon="1.78783">
        <ele>588.46435546875</ele>
        <time>2012-04-08T08:55:43Z</time>
      </trkpt>
      <trkpt lat="42.91383" lon="1.78788">
        <ele>589.42553710938</ele>
        <time>2012-04-08T08:55:49Z</time>
      </trkpt>
      <trkpt lat="42.91388" lon="1.78796">
        <ele>589.90625</ele>
        <time>2012-04-08T08:55:55Z</time>
      </trkpt>
      <trkpt lat="42.91394" lon="1.78804">
        <ele>589.90625</ele>
        <time>2012-04-08T08:56:01Z</time>
      </trkpt>
      <trkpt lat="42.91395" lon="1.7881">
        <ele>591.82885742188</ele>
        <time>2012-04-08T08:56:05Z</time>
      </trkpt>
      <trkpt lat="42.91397" lon="1.78814">
        <ele>592.3095703125</ele>
        <time>2012-04-08T08:56:08Z</time>
      </trkpt>
      <trkpt lat="42.91401" lon="1.7882">
        <ele>592.79028320312</ele>
        <time>2012-04-08T08:56:12Z</time>
      </trkpt>
      <trkpt lat="42.91403" lon="1.78825">
        <ele>592.79028320312</ele>
        <time>2012-04-08T08:56:15Z</time>
      </trkpt>
      <trkpt lat="42.91406" lon="1.78831">
        <ele>593.27075195312</ele>
        <time>2012-04-08T08:56:19Z</time>
      </trkpt>
      <trkpt lat="42.91409" lon="1.78835">
        <ele>594.23217773438</ele>
        <time>2012-04-08T08:56:23Z</time>
      </trkpt>
      <trkpt lat="42.91413" lon="1.78845">
        <ele>594.71264648438</ele>
        <time>2012-04-08T08:56:29Z</time>
      </trkpt>
      <trkpt lat="42.91415" lon="1.78848">
        <ele>595.67407226562</ele>
        <time>2012-04-08T08:56:32Z</time>
      </trkpt>
      <trkpt lat="42.91419" lon="1.78853">
        <ele>595.193359375</ele>
        <time>2012-04-08T08:56:37Z</time>
      </trkpt>
      <trkpt lat="42.91421" lon="1.7886">
        <ele>599.51928710938</ele>
        <time>2012-04-08T08:56:43Z</time>
      </trkpt>
      <trkpt lat="42.91426" lon="1.78866">
        <ele>601.92260742188</ele>
        <time>2012-04-08T08:56:50Z</time>
      </trkpt>
      <trkpt lat="42.91431" lon="1.78871">
        <ele>605.76806640625</ele>
        <time>2012-04-08T08:56:57Z</time>
      </trkpt>
      <trkpt lat="42.91436" lon="1.78878">
        <ele>607.69067382812</ele>
        <time>2012-04-08T08:57:04Z</time>
      </trkpt>
      <trkpt lat="42.91439" lon="1.7888">
        <ele>606.72924804688</ele>
        <time>2012-04-08T08:57:07Z</time>
      </trkpt>
      <trkpt lat="42.91448" lon="1.78889">
        <ele>606.24853515625</ele>
        <time>2012-04-08T08:57:15Z</time>
      </trkpt>
      <trkpt lat="42.91449" lon="1.7889">
        <ele>606.24853515625</ele>
        <time>2012-04-08T08:57:16Z</time>
      </trkpt>
      <trkpt lat="42.91454" lon="1.78898">
        <ele>605.76806640625</ele>
        <time>2012-04-08T08:57:21Z</time>
      </trkpt>
      <trkpt lat="42.91458" lon="1.78908">
        <ele>606.72924804688</ele>
        <time>2012-04-08T08:57:28Z</time>
      </trkpt>
      <trkpt lat="42.91463" lon="1.78914">
        <ele>604.806640625</ele>
        <time>2012-04-08T08:57:33Z</time>
      </trkpt>
      <trkpt lat="42.91467" lon="1.78925">
        <ele>604.806640625</ele>
        <time>2012-04-08T08:57:39Z</time>
      </trkpt>
      <trkpt lat="42.9147" lon="1.78931">
        <ele>605.28735351562</ele>
        <time>2012-04-08T08:57:45Z</time>
      </trkpt>
      <trkpt lat="42.91473" lon="1.78935">
        <ele>606.72924804688</ele>
        <time>2012-04-08T08:57:50Z</time>
      </trkpt>
      <trkpt lat="42.91477" lon="1.78939">
        <ele>607.69067382812</ele>
        <time>2012-04-08T08:57:55Z</time>
      </trkpt>
      <trkpt lat="42.91481" lon="1.78942">
        <ele>609.61328125</ele>
        <time>2012-04-08T08:58:01Z</time>
      </trkpt>
      <trkpt lat="42.91484" lon="1.78943">
        <ele>610.09375</ele>
        <time>2012-04-08T08:58:03Z</time>
      </trkpt>
      <trkpt lat="42.9149" lon="1.78944">
        <ele>613.45849609375</ele>
        <time>2012-04-08T08:58:12Z</time>
      </trkpt>
      <trkpt lat="42.9149" lon="1.78944">
        <ele>613.93896484375</ele>
        <time>2012-04-08T08:58:13Z</time>
      </trkpt>
      <trkpt lat="42.915" lon="1.78941">
        <ele>614.41967773438</ele>
        <time>2012-04-08T08:58:21Z</time>
      </trkpt>
      <trkpt lat="42.91505" lon="1.78939">
        <ele>613.93896484375</ele>
        <time>2012-04-08T08:58:26Z</time>
      </trkpt>
      <trkpt lat="42.9151" lon="1.78937">
        <ele>615.38110351562</ele>
        <time>2012-04-08T08:58:31Z</time>
      </trkpt>
      <trkpt lat="42.91515" lon="1.78934">
        <ele>614.41967773438</ele>
        <time>2012-04-08T08:58:37Z</time>
      </trkpt>
      <trkpt lat="42.91521" lon="1.78929">
        <ele>614.900390625</ele>
        <time>2012-04-08T08:58:44Z</time>
      </trkpt>
      <trkpt lat="42.91524" lon="1.78924">
        <ele>613.45849609375</ele>
        <time>2012-04-08T08:58:50Z</time>
      </trkpt>
      <trkpt lat="42.91526" lon="1.78919">
        <ele>615.38110351562</ele>
        <time>2012-04-08T08:58:55Z</time>
      </trkpt>
      <trkpt lat="42.91529" lon="1.78912">
        <ele>617.3037109375</ele>
        <time>2012-04-08T08:59:01Z</time>
      </trkpt>
      <trkpt lat="42.91532" lon="1.78904">
        <ele>618.74560546875</ele>
        <time>2012-04-08T08:59:08Z</time>
      </trkpt>
      <trkpt lat="42.91534" lon="1.78893">
        <ele>621.62963867188</ele>
        <time>2012-04-08T08:59:15Z</time>
      </trkpt>
      <trkpt lat="42.91535" lon="1.78891">
        <ele>621.62963867188</ele>
        <time>2012-04-08T08:59:17Z</time>
      </trkpt>
      <trkpt lat="42.91538" lon="1.78887">
        <ele>621.62963867188</ele>
        <time>2012-04-08T08:59:21Z</time>
      </trkpt>
      <trkpt lat="42.91539" lon="1.78883">
        <ele>621.14916992188</ele>
        <time>2012-04-08T08:59:25Z</time>
      </trkpt>
      <trkpt lat="42.91541" lon="1.78875">
        <ele>623.55249023438</ele>
        <time>2012-04-08T08:59:30Z</time>
      </trkpt>
      <trkpt lat="42.91543" lon="1.78867">
        <ele>627.39770507812</ele>
        <time>2012-04-08T08:59:36Z</time>
      </trkpt>
      <trkpt lat="42.91548" lon="1.78859">
        <ele>629.80078125</ele>
        <time>2012-04-08T08:59:43Z</time>
      </trkpt>
      <trkpt lat="42.91551" lon="1.78856">
        <ele>631.24291992188</ele>
        <time>2012-04-08T08:59:47Z</time>
      </trkpt>
      <trkpt lat="42.91556" lon="1.78848">
        <ele>633.16528320312</ele>
        <time>2012-04-08T08:59:54Z</time>
      </trkpt>
      <trkpt lat="42.91558" lon="1.78836">
        <ele>634.607421875</ele>
        <time>2012-04-08T09:00:03Z</time>
      </trkpt>
      <trkpt lat="42.91558" lon="1.78829">
        <ele>631.72338867188</ele>
        <time>2012-04-08T09:00:09Z</time>
      </trkpt>
      <trkpt lat="42.91558" lon="1.78823">
        <ele>630.28149414062</ele>
        <time>2012-04-08T09:00:12Z</time>
      </trkpt>
      <trkpt lat="42.91559" lon="1.78817">
        <ele>634.12670898438</ele>
        <time>2012-04-08T09:00:18Z</time>
      </trkpt>
      <trkpt lat="42.91555" lon="1.78809">
        <ele>635.08813476562</ele>
        <time>2012-04-08T09:00:25Z</time>
      </trkpt>
      <trkpt lat="42.9155" lon="1.78804">
        <ele>637.49145507812</ele>
        <time>2012-04-08T09:00:32Z</time>
      </trkpt>
      <trkpt lat="42.91549" lon="1.788">
        <ele>641.33666992188</ele>
        <time>2012-04-08T09:00:37Z</time>
      </trkpt>
      <trkpt lat="42.91544" lon="1.78795">
        <ele>643.25927734375</ele>
        <time>2012-04-08T09:00:44Z</time>
      </trkpt>
      <trkpt lat="42.91542" lon="1.78789">
        <ele>645.66259765625</ele>
        <time>2012-04-08T09:00:50Z</time>
      </trkpt>
      <trkpt lat="42.9154" lon="1.78778">
        <ele>646.6240234375</ele>
        <time>2012-04-08T09:00:59Z</time>
      </trkpt>
      <trkpt lat="42.91539" lon="1.78766">
        <ele>651.43041992188</ele>
        <time>2012-04-08T09:01:05Z</time>
      </trkpt>
      <trkpt lat="42.91539" lon="1.7876">
        <ele>653.35327148438</ele>
        <time>2012-04-08T09:01:09Z</time>
      </trkpt>
      <trkpt lat="42.91541" lon="1.78752">
        <ele>657.19848632812</ele>
        <time>2012-04-08T09:01:15Z</time>
      </trkpt>
      <trkpt lat="42.91542" lon="1.78746">
        <ele>661.5244140625</ele>
        <time>2012-04-08T09:01:19Z</time>
      </trkpt>
      <trkpt lat="42.91544" lon="1.78735">
        <ele>660.08227539062</ele>
        <time>2012-04-08T09:01:26Z</time>
      </trkpt>
      <trkpt lat="42.91544" lon="1.78728">
        <ele>658.64038085938</ele>
        <time>2012-04-08T09:01:31Z</time>
      </trkpt>
      <trkpt lat="42.91544" lon="1.78727">
        <ele>658.64038085938</ele>
        <time>2012-04-08T09:01:32Z</time>
      </trkpt>
      <trkpt lat="42.91543" lon="1.78723">
        <ele>658.15991210938</ele>
        <time>2012-04-08T09:01:35Z</time>
      </trkpt>
      <trkpt lat="42.91541" lon="1.78717">
        <ele>659.12109375</ele>
        <time>2012-04-08T09:01:41Z</time>
      </trkpt>
      <trkpt lat="42.91541" lon="1.7871">
        <ele>660.08227539062</ele>
        <time>2012-04-08T09:01:47Z</time>
      </trkpt>
      <trkpt lat="42.91541" lon="1.78702">
        <ele>659.12109375</ele>
        <time>2012-04-08T09:01:54Z</time>
      </trkpt>
      <trkpt lat="42.91537" lon="1.78694">
        <ele>659.60180664062</ele>
        <time>2012-04-08T09:02:03Z</time>
      </trkpt>
      <trkpt lat="42.91536" lon="1.78686">
        <ele>659.12109375</ele>
        <time>2012-04-08T09:02:08Z</time>
      </trkpt>
      <trkpt lat="42.91535" lon="1.78683">
        <ele>661.04370117188</ele>
        <time>2012-04-08T09:02:12Z</time>
      </trkpt>
      <trkpt lat="42.91531" lon="1.78678">
        <ele>662.00512695312</ele>
        <time>2012-04-08T09:02:18Z</time>
      </trkpt>
      <trkpt lat="42.91527" lon="1.78675">
        <ele>662.48559570312</ele>
        <time>2012-04-08T09:02:24Z</time>
      </trkpt>
      <trkpt lat="42.91526" lon="1.78672">
        <ele>662.48559570312</ele>
        <time>2012-04-08T09:02:26Z</time>
      </trkpt>
      <trkpt lat="42.91525" lon="1.78665">
        <ele>662.00512695312</ele>
        <time>2012-04-08T09:02:30Z</time>
      </trkpt>
      <trkpt lat="42.91528" lon="1.7865">
        <ele>662.96630859375</ele>
        <time>2012-04-08T09:02:38Z</time>
      </trkpt>
      <trkpt lat="42.9153" lon="1.78643">
        <ele>662.96630859375</ele>
        <time>2012-04-08T09:02:43Z</time>
      </trkpt>
      <trkpt lat="42.91533" lon="1.78637">
        <ele>662.96630859375</ele>
        <time>2012-04-08T09:02:48Z</time>
      </trkpt>
      <trkpt lat="42.91534" lon="1.7863">
        <ele>666.33081054688</ele>
        <time>2012-04-08T09:02:53Z</time>
      </trkpt>
      <trkpt lat="42.91535" lon="1.78623">
        <ele>666.8115234375</ele>
        <time>2012-04-08T09:02:58Z</time>
      </trkpt>
      <trkpt lat="42.91536" lon="1.78616">
        <ele>667.77270507812</ele>
        <time>2012-04-08T09:03:02Z</time>
      </trkpt>
      <trkpt lat="42.91539" lon="1.78612">
        <ele>668.734375</ele>
        <time>2012-04-08T09:03:05Z</time>
      </trkpt>
      <trkpt lat="42.91539" lon="1.78596">
        <ele>666.8115234375</ele>
        <time>2012-04-08T09:03:11Z</time>
      </trkpt>
      <trkpt lat="42.91537" lon="1.78588">
        <ele>666.8115234375</ele>
        <time>2012-04-08T09:03:13Z</time>
      </trkpt>
      <trkpt lat="42.91536" lon="1.78565">
        <ele>667.77270507812</ele>
        <time>2012-04-08T09:03:20Z</time>
      </trkpt>
      <trkpt lat="42.91536" lon="1.78549">
        <ele>667.29223632812</ele>
        <time>2012-04-08T09:03:25Z</time>
      </trkpt>
      <trkpt lat="42.91537" lon="1.78534">
        <ele>668.734375</ele>
        <time>2012-04-08T09:03:31Z</time>
      </trkpt>
      <trkpt lat="42.91537" lon="1.78527">
        <ele>669.21508789062</ele>
        <time>2012-04-08T09:03:33Z</time>
      </trkpt>
      <trkpt lat="42.91537" lon="1.78515">
        <ele>671.1376953125</ele>
        <time>2012-04-08T09:03:37Z</time>
      </trkpt>
      <trkpt lat="42.91536" lon="1.78499">
        <ele>671.6181640625</ele>
        <time>2012-04-08T09:03:42Z</time>
      </trkpt>
      <trkpt lat="42.91535" lon="1.7848">
        <ele>671.1376953125</ele>
        <time>2012-04-08T09:03:48Z</time>
      </trkpt>
      <trkpt lat="42.91539" lon="1.78458">
        <ele>673.541015625</ele>
        <time>2012-04-08T09:03:54Z</time>
      </trkpt>
      <trkpt lat="42.91542" lon="1.78453">
        <ele>674.021484375</ele>
        <time>2012-04-08T09:03:56Z</time>
      </trkpt>
      <trkpt lat="42.91543" lon="1.78447">
        <ele>673.06030273438</ele>
        <time>2012-04-08T09:04:00Z</time>
      </trkpt>
      <trkpt lat="42.91545" lon="1.7844">
        <ele>674.98291015625</ele>
        <time>2012-04-08T09:04:05Z</time>
      </trkpt>
      <trkpt lat="42.91551" lon="1.78433">
        <ele>679.78930664062</ele>
        <time>2012-04-08T09:04:12Z</time>
      </trkpt>
      <trkpt lat="42.91555" lon="1.78428">
        <ele>679.30859375</ele>
        <time>2012-04-08T09:04:17Z</time>
      </trkpt>
      <trkpt lat="42.91559" lon="1.78424">
        <ele>679.30859375</ele>
        <time>2012-04-08T09:04:24Z</time>
      </trkpt>
      <trkpt lat="42.9156" lon="1.78421">
        <ele>677.38623046875</ele>
        <time>2012-04-08T09:04:29Z</time>
      </trkpt>
      <trkpt lat="42.91563" lon="1.78417">
        <ele>678.828125</ele>
        <time>2012-04-08T09:04:33Z</time>
      </trkpt>
      <trkpt lat="42.91568" lon="1.78411">
        <ele>681.2314453125</ele>
        <time>2012-04-08T09:04:40Z</time>
      </trkpt>
      <trkpt lat="42.91569" lon="1.78408">
        <ele>681.7119140625</ele>
        <time>2012-04-08T09:04:42Z</time>
      </trkpt>
      <trkpt lat="42.91572" lon="1.78403">
        <ele>682.19262695312</ele>
        <time>2012-04-08T09:04:47Z</time>
      </trkpt>
      <trkpt lat="42.91574" lon="1.78397">
        <ele>684.11547851562</ele>
        <time>2012-04-08T09:04:52Z</time>
      </trkpt>
      <trkpt lat="42.91579" lon="1.78392">
        <ele>685.07690429688</ele>
        <time>2012-04-08T09:04:57Z</time>
      </trkpt>
      <trkpt lat="42.91583" lon="1.78385">
        <ele>685.55737304688</ele>
        <time>2012-04-08T09:05:04Z</time>
      </trkpt>
      <trkpt lat="42.91586" lon="1.78382">
        <ele>686.0380859375</ele>
        <time>2012-04-08T09:05:07Z</time>
      </trkpt>
      <trkpt lat="42.91592" lon="1.78379">
        <ele>686.51879882812</ele>
        <time>2012-04-08T09:05:13Z</time>
      </trkpt>
      <trkpt lat="42.91596" lon="1.78372">
        <ele>687.47998046875</ele>
        <time>2012-04-08T09:05:20Z</time>
      </trkpt>
      <trkpt lat="42.91597" lon="1.78367">
        <ele>688.92211914062</ele>
        <time>2012-04-08T09:05:25Z</time>
      </trkpt>
      <trkpt lat="42.916" lon="1.78361">
        <ele>686.99926757812</ele>
        <time>2012-04-08T09:05:31Z</time>
      </trkpt>
      <trkpt lat="42.91605" lon="1.78354">
        <ele>684.59619140625</ele>
        <time>2012-04-08T09:05:37Z</time>
      </trkpt>
      <trkpt lat="42.91607" lon="1.78348">
        <ele>682.67333984375</ele>
        <time>2012-04-08T09:05:41Z</time>
      </trkpt>
      <trkpt lat="42.91609" lon="1.78343">
        <ele>682.67333984375</ele>
        <time>2012-04-08T09:05:45Z</time>
      </trkpt>
      <trkpt lat="42.91611" lon="1.78338">
        <ele>682.67333984375</ele>
        <time>2012-04-08T09:05:49Z</time>
      </trkpt>
      <trkpt lat="42.91615" lon="1.78329">
        <ele>684.11547851562</ele>
        <time>2012-04-08T09:05:56Z</time>
      </trkpt>
      <trkpt lat="42.9162" lon="1.78318">
        <ele>685.07690429688</ele>
        <time>2012-04-08T09:06:04Z</time>
      </trkpt>
      <trkpt lat="42.91622" lon="1.7831">
        <ele>687.47998046875</ele>
        <time>2012-04-08T09:06:10Z</time>
      </trkpt>
      <trkpt lat="42.91625" lon="1.78307">
        <ele>689.40258789062</ele>
        <time>2012-04-08T09:06:14Z</time>
      </trkpt>
      <trkpt lat="42.91627" lon="1.783">
        <ele>692.76733398438</ele>
        <time>2012-04-08T09:06:20Z</time>
      </trkpt>
      <trkpt lat="42.91629" lon="1.78291">
        <ele>694.68969726562</ele>
        <time>2012-04-08T09:06:27Z</time>
      </trkpt>
      <trkpt lat="42.91631" lon="1.78286">
        <ele>697.57373046875</ele>
        <time>2012-04-08T09:06:33Z</time>
      </trkpt>
      <trkpt lat="42.91634" lon="1.78279">
        <ele>699.49633789062</ele>
        <time>2012-04-08T09:06:39Z</time>
      </trkpt>
      <trkpt lat="42.91636" lon="1.78273">
        <ele>697.57373046875</ele>
        <time>2012-04-08T09:06:45Z</time>
      </trkpt>
      <trkpt lat="42.91638" lon="1.78264">
        <ele>700.4580078125</ele>
        <time>2012-04-08T09:06:54Z</time>
      </trkpt>
      <trkpt lat="42.9164" lon="1.78256">
        <ele>700.9384765625</ele>
        <time>2012-04-08T09:07:00Z</time>
      </trkpt>
      <trkpt lat="42.91643" lon="1.78247">
        <ele>700.9384765625</ele>
        <time>2012-04-08T09:07:08Z</time>
      </trkpt>
      <trkpt lat="42.91642" lon="1.7824">
        <ele>703.341796875</ele>
        <time>2012-04-08T09:07:14Z</time>
      </trkpt>
      <trkpt lat="42.91645" lon="1.78232">
        <ele>702.38037109375</ele>
        <time>2012-04-08T09:07:20Z</time>
      </trkpt>
      <trkpt lat="42.91647" lon="1.78225">
        <ele>704.30322265625</ele>
        <time>2012-04-08T09:07:26Z</time>
      </trkpt>
      <trkpt lat="42.91648" lon="1.78214">
        <ele>703.82250976562</ele>
        <time>2012-04-08T09:07:34Z</time>
      </trkpt>
      <trkpt lat="42.91648" lon="1.78211">
        <ele>704.78369140625</ele>
        <time>2012-04-08T09:07:36Z</time>
      </trkpt>
      <trkpt lat="42.9165" lon="1.78202">
        <ele>706.70629882812</ele>
        <time>2012-04-08T09:07:42Z</time>
      </trkpt>
      <trkpt lat="42.9165" lon="1.78195">
        <ele>705.7451171875</ele>
        <time>2012-04-08T09:07:49Z</time>
      </trkpt>
      <trkpt lat="42.91652" lon="1.78188">
        <ele>705.7451171875</ele>
        <time>2012-04-08T09:07:54Z</time>
      </trkpt>
      <trkpt lat="42.91652" lon="1.78181">
        <ele>707.66772460938</ele>
        <time>2012-04-08T09:07:59Z</time>
      </trkpt>
      <trkpt lat="42.91652" lon="1.78174">
        <ele>708.62890625</ele>
        <time>2012-04-08T09:08:03Z</time>
      </trkpt>
      <trkpt lat="42.91653" lon="1.78162">
        <ele>709.59033203125</ele>
        <time>2012-04-08T09:08:12Z</time>
      </trkpt>
      <trkpt lat="42.91656" lon="1.78154">
        <ele>710.55151367188</ele>
        <time>2012-04-08T09:08:19Z</time>
      </trkpt>
      <trkpt lat="42.91658" lon="1.78143">
        <ele>712.95483398438</ele>
        <time>2012-04-08T09:08:27Z</time>
      </trkpt>
      <trkpt lat="42.91659" lon="1.78141">
        <ele>713.916015625</ele>
        <time>2012-04-08T09:08:29Z</time>
      </trkpt>
      <trkpt lat="42.9166" lon="1.78129">
        <ele>715.35815429688</ele>
        <time>2012-04-08T09:08:37Z</time>
      </trkpt>
      <trkpt lat="42.91661" lon="1.78128">
        <ele>715.35815429688</ele>
        <time>2012-04-08T09:08:38Z</time>
      </trkpt>
      <trkpt lat="42.91662" lon="1.78118">
        <ele>716.80029296875</ele>
        <time>2012-04-08T09:08:46Z</time>
      </trkpt>
      <trkpt lat="42.91664" lon="1.7811">
        <ele>718.72290039062</ele>
        <time>2012-04-08T09:08:53Z</time>
      </trkpt>
      <trkpt lat="42.91666" lon="1.781">
        <ele>719.68432617188</ele>
        <time>2012-04-08T09:09:01Z</time>
      </trkpt>
      <trkpt lat="42.91667" lon="1.78093">
        <ele>720.6455078125</ele>
        <time>2012-04-08T09:09:07Z</time>
      </trkpt>
      <trkpt lat="42.91667" lon="1.7808">
        <ele>723.52954101562</ele>
        <time>2012-04-08T09:09:15Z</time>
      </trkpt>
      <trkpt lat="42.91668" lon="1.78074">
        <ele>725.9326171875</ele>
        <time>2012-04-08T09:09:20Z</time>
      </trkpt>
      <trkpt lat="42.9167" lon="1.78068">
        <ele>725.9326171875</ele>
        <time>2012-04-08T09:09:26Z</time>
      </trkpt>
      <trkpt lat="42.9167" lon="1.78063">
        <ele>726.41333007812</ele>
        <time>2012-04-08T09:09:31Z</time>
      </trkpt>
      <trkpt lat="42.91673" lon="1.78058">
        <ele>726.89404296875</ele>
        <time>2012-04-08T09:09:37Z</time>
      </trkpt>
      <trkpt lat="42.91673" lon="1.7805">
        <ele>730.7392578125</ele>
        <time>2012-04-08T09:09:42Z</time>
      </trkpt>
      <trkpt lat="42.91676" lon="1.78043">
        <ele>729.77783203125</ele>
        <time>2012-04-08T09:09:48Z</time>
      </trkpt>
      <trkpt lat="42.91678" lon="1.78041">
        <ele>730.25854492188</ele>
        <time>2012-04-08T09:09:53Z</time>
      </trkpt>
      <trkpt lat="42.9168" lon="1.78038">
        <ele>731.21997070312</ele>
        <time>2012-04-08T09:09:58Z</time>
      </trkpt>
      <trkpt lat="42.91682" lon="1.78031">
        <ele>729.29711914062</ele>
        <time>2012-04-08T09:10:04Z</time>
      </trkpt>
      <trkpt lat="42.91684" lon="1.78026">
        <ele>727.37475585938</ele>
        <time>2012-04-08T09:10:08Z</time>
      </trkpt>
      <trkpt lat="42.91685" lon="1.7802">
        <ele>727.37475585938</ele>
        <time>2012-04-08T09:10:13Z</time>
      </trkpt>
      <trkpt lat="42.91685" lon="1.78018">
        <ele>726.89404296875</ele>
        <time>2012-04-08T09:10:14Z</time>
      </trkpt>
      <trkpt lat="42.91686" lon="1.78014">
        <ele>727.37475585938</ele>
        <time>2012-04-08T09:10:16Z</time>
      </trkpt>
      <trkpt lat="42.91686" lon="1.7801">
        <ele>728.3359375</ele>
        <time>2012-04-08T09:10:19Z</time>
      </trkpt>
      <trkpt lat="42.91689" lon="1.78002">
        <ele>728.81665039062</ele>
        <time>2012-04-08T09:10:25Z</time>
      </trkpt>
      <trkpt lat="42.9169" lon="1.78">
        <ele>728.3359375</ele>
        <time>2012-04-08T09:10:26Z</time>
      </trkpt>
      <trkpt lat="42.91692" lon="1.77994">
        <ele>729.77783203125</ele>
        <time>2012-04-08T09:10:31Z</time>
      </trkpt>
      <trkpt lat="42.91693" lon="1.7799">
        <ele>730.7392578125</ele>
        <time>2012-04-08T09:10:34Z</time>
      </trkpt>
      <trkpt lat="42.91693" lon="1.7799">
        <ele>730.7392578125</ele>
        <time>2012-04-08T09:10:42Z</time>
      </trkpt>
      <trkpt lat="42.91695" lon="1.77986">
        <ele>732.662109375</ele>
        <time>2012-04-08T09:10:51Z</time>
      </trkpt>
      <trkpt lat="42.91698" lon="1.77979">
        <ele>732.18139648438</ele>
        <time>2012-04-08T09:10:57Z</time>
      </trkpt>
      <trkpt lat="42.917" lon="1.77975">
        <ele>731.21997070312</ele>
        <time>2012-04-08T09:11:00Z</time>
      </trkpt>
      <trkpt lat="42.91703" lon="1.77971">
        <ele>730.25854492188</ele>
        <time>2012-04-08T09:11:03Z</time>
      </trkpt>
      <trkpt lat="42.91702" lon="1.77959">
        <ele>729.77783203125</ele>
        <time>2012-04-08T09:11:09Z</time>
      </trkpt>
      <trkpt lat="42.91705" lon="1.7795">
        <ele>729.29711914062</ele>
        <time>2012-04-08T09:11:14Z</time>
      </trkpt>
      <trkpt lat="42.9171" lon="1.77943">
        <ele>724.01000976562</ele>
        <time>2012-04-08T09:11:22Z</time>
      </trkpt>
      <trkpt lat="42.91717" lon="1.77938">
        <ele>722.56811523438</ele>
        <time>2012-04-08T09:11:29Z</time>
      </trkpt>
      <trkpt lat="42.91722" lon="1.77933">
        <ele>722.08740234375</ele>
        <time>2012-04-08T09:11:35Z</time>
      </trkpt>
      <trkpt lat="42.91731" lon="1.77926">
        <ele>720.6455078125</ele>
        <time>2012-04-08T09:11:41Z</time>
      </trkpt>
      <trkpt lat="42.91735" lon="1.77923">
        <ele>719.68432617188</ele>
        <time>2012-04-08T09:11:43Z</time>
      </trkpt>
      <trkpt lat="42.91742" lon="1.77918">
        <ele>720.6455078125</ele>
        <time>2012-04-08T09:11:46Z</time>
      </trkpt>
      <trkpt lat="42.91747" lon="1.77914">
        <ele>722.56811523438</ele>
        <time>2012-04-08T09:11:48Z</time>
      </trkpt>
      <trkpt lat="42.91761" lon="1.77896">
        <ele>725.9326171875</ele>
        <time>2012-04-08T09:11:56Z</time>
      </trkpt>
      <trkpt lat="42.91765" lon="1.77891">
        <ele>726.41333007812</ele>
        <time>2012-04-08T09:11:58Z</time>
      </trkpt>
      <trkpt lat="42.91766" lon="1.77888">
        <ele>727.85522460938</ele>
        <time>2012-04-08T09:12:00Z</time>
      </trkpt>
      <trkpt lat="42.91773" lon="1.77878">
        <ele>729.77783203125</ele>
        <time>2012-04-08T09:12:06Z</time>
      </trkpt>
      <trkpt lat="42.91781" lon="1.77874">
        <ele>728.81665039062</ele>
        <time>2012-04-08T09:12:10Z</time>
      </trkpt>
      <trkpt lat="42.91787" lon="1.77863">
        <ele>730.7392578125</ele>
        <time>2012-04-08T09:12:15Z</time>
      </trkpt>
      <trkpt lat="42.91793" lon="1.77854">
        <ele>731.70043945312</ele>
        <time>2012-04-08T09:12:21Z</time>
      </trkpt>
      <trkpt lat="42.91793" lon="1.77853">
        <ele>731.70043945312</ele>
        <time>2012-04-08T09:12:22Z</time>
      </trkpt>
      <trkpt lat="42.91797" lon="1.77846">
        <ele>731.70043945312</ele>
        <time>2012-04-08T09:12:28Z</time>
      </trkpt>
      <trkpt lat="42.91803" lon="1.77839">
        <ele>732.662109375</ele>
        <time>2012-04-08T09:12:35Z</time>
      </trkpt>
      <trkpt lat="42.91809" lon="1.77827">
        <ele>733.142578125</ele>
        <time>2012-04-08T09:12:39Z</time>
      </trkpt>
      <trkpt lat="42.91816" lon="1.77817">
        <ele>734.58471679688</ele>
        <time>2012-04-08T09:12:43Z</time>
      </trkpt>
      <trkpt lat="42.9182" lon="1.77809">
        <ele>736.98779296875</ele>
        <time>2012-04-08T09:12:48Z</time>
      </trkpt>
      <trkpt lat="42.91822" lon="1.77808">
        <ele>737.46850585938</ele>
        <time>2012-04-08T09:12:50Z</time>
      </trkpt>
      <trkpt lat="42.91824" lon="1.77803">
        <ele>739.39111328125</ele>
        <time>2012-04-08T09:12:54Z</time>
      </trkpt>
      <trkpt lat="42.91827" lon="1.77791">
        <ele>738.42993164062</ele>
        <time>2012-04-08T09:13:01Z</time>
      </trkpt>
      <trkpt lat="42.91832" lon="1.77783">
        <ele>739.87182617188</ele>
        <time>2012-04-08T09:13:06Z</time>
      </trkpt>
      <trkpt lat="42.91834" lon="1.77772">
        <ele>739.39111328125</ele>
        <time>2012-04-08T09:13:12Z</time>
      </trkpt>
      <trkpt lat="42.91838" lon="1.77767">
        <ele>741.79443359375</ele>
        <time>2012-04-08T09:13:16Z</time>
      </trkpt>
      <trkpt lat="42.91838" lon="1.77761">
        <ele>741.31372070312</ele>
        <time>2012-04-08T09:13:19Z</time>
      </trkpt>
      <trkpt lat="42.91841" lon="1.77753">
        <ele>739.87182617188</ele>
        <time>2012-04-08T09:13:25Z</time>
      </trkpt>
      <trkpt lat="42.91846" lon="1.77746">
        <ele>743.71704101562</ele>
        <time>2012-04-08T09:13:32Z</time>
      </trkpt>
      <trkpt lat="42.9185" lon="1.77736">
        <ele>742.755859375</ele>
        <time>2012-04-08T09:13:39Z</time>
      </trkpt>
      <trkpt lat="42.91851" lon="1.7773">
        <ele>742.27514648438</ele>
        <time>2012-04-08T09:13:43Z</time>
      </trkpt>
      <trkpt lat="42.91855" lon="1.77726">
        <ele>742.755859375</ele>
        <time>2012-04-08T09:13:45Z</time>
      </trkpt>
      <trkpt lat="42.91861" lon="1.7771">
        <ele>741.79443359375</ele>
        <time>2012-04-08T09:13:51Z</time>
      </trkpt>
      <trkpt lat="42.91862" lon="1.77708">
        <ele>741.79443359375</ele>
        <time>2012-04-08T09:13:52Z</time>
      </trkpt>
      <trkpt lat="42.91865" lon="1.77699">
        <ele>739.87182617188</ele>
        <time>2012-04-08T09:13:56Z</time>
      </trkpt>
      <trkpt lat="42.91874" lon="1.77684">
        <ele>736.02661132812</ele>
        <time>2012-04-08T09:14:02Z</time>
      </trkpt>
      <trkpt lat="42.91878" lon="1.77671">
        <ele>733.62329101562</ele>
        <time>2012-04-08T09:14:08Z</time>
      </trkpt>
      <trkpt lat="42.91883" lon="1.77655">
        <ele>742.27514648438</ele>
        <time>2012-04-08T09:14:15Z</time>
      </trkpt>
      <trkpt lat="42.91886" lon="1.77649">
        <ele>740.8330078125</ele>
        <time>2012-04-08T09:14:17Z</time>
      </trkpt>
      <trkpt lat="42.91893" lon="1.77636">
        <ele>738.42993164062</ele>
        <time>2012-04-08T09:14:23Z</time>
      </trkpt>
      <trkpt lat="42.91894" lon="1.77634">
        <ele>737.46850585938</ele>
        <time>2012-04-08T09:14:24Z</time>
      </trkpt>
      <trkpt lat="42.91895" lon="1.77632">
        <ele>736.50732421875</ele>
        <time>2012-04-08T09:14:26Z</time>
      </trkpt>
      <trkpt lat="42.91903" lon="1.77621">
        <ele>735.0654296875</ele>
        <time>2012-04-08T09:14:31Z</time>
      </trkpt>
      <trkpt lat="42.91913" lon="1.77616">
        <ele>733.142578125</ele>
        <time>2012-04-08T09:14:36Z</time>
      </trkpt>
      <trkpt lat="42.91922" lon="1.77609">
        <ele>727.37475585938</ele>
        <time>2012-04-08T09:14:41Z</time>
      </trkpt>
      <trkpt lat="42.91923" lon="1.77607">
        <ele>726.89404296875</ele>
        <time>2012-04-08T09:14:42Z</time>
      </trkpt>
      <trkpt lat="42.91934" lon="1.77605">
        <ele>723.048828125</ele>
        <time>2012-04-08T09:14:47Z</time>
      </trkpt>
      <trkpt lat="42.91938" lon="1.77604">
        <ele>720.6455078125</ele>
        <time>2012-04-08T09:14:49Z</time>
      </trkpt>
      <trkpt lat="42.91949" lon="1.77597">
        <ele>716.31958007812</ele>
        <time>2012-04-08T09:14:54Z</time>
      </trkpt>
      <trkpt lat="42.91958" lon="1.77591">
        <ele>715.35815429688</ele>
        <time>2012-04-08T09:14:58Z</time>
      </trkpt>
      <trkpt lat="42.91975" lon="1.77581">
        <ele>709.10961914062</ele>
        <time>2012-04-08T09:15:05Z</time>
      </trkpt>
      <trkpt lat="42.91979" lon="1.77578">
        <ele>706.70629882812</ele>
        <time>2012-04-08T09:15:07Z</time>
      </trkpt>
      <trkpt lat="42.91991" lon="1.77572">
        <ele>701.89990234375</ele>
        <time>2012-04-08T09:15:12Z</time>
      </trkpt>
      <trkpt lat="42.91995" lon="1.7757">
        <ele>699.015625</ele>
        <time>2012-04-08T09:15:14Z</time>
      </trkpt>
      <trkpt lat="42.92002" lon="1.77565">
        <ele>695.17041015625</ele>
        <time>2012-04-08T09:15:19Z</time>
      </trkpt>
      <trkpt lat="42.92012" lon="1.77559">
        <ele>695.65112304688</ele>
        <time>2012-04-08T09:15:23Z</time>
      </trkpt>
      <trkpt lat="42.92018" lon="1.7755">
        <ele>692.28662109375</ele>
        <time>2012-04-08T09:15:27Z</time>
      </trkpt>
      <trkpt lat="42.92028" lon="1.77539">
        <ele>686.99926757812</ele>
        <time>2012-04-08T09:15:33Z</time>
      </trkpt>
      <trkpt lat="42.92031" lon="1.77536">
        <ele>685.55737304688</ele>
        <time>2012-04-08T09:15:35Z</time>
      </trkpt>
      <trkpt lat="42.92038" lon="1.77522">
        <ele>681.7119140625</ele>
        <time>2012-04-08T09:15:41Z</time>
      </trkpt>
      <trkpt lat="42.92043" lon="1.77516">
        <ele>678.828125</ele>
        <time>2012-04-08T09:15:45Z</time>
      </trkpt>
      <trkpt lat="42.92051" lon="1.77508">
        <ele>678.34741210938</ele>
        <time>2012-04-08T09:15:49Z</time>
      </trkpt>
      <trkpt lat="42.92059" lon="1.77503">
        <ele>678.828125</ele>
        <time>2012-04-08T09:15:52Z</time>
      </trkpt>
      <trkpt lat="42.92065" lon="1.77501">
        <ele>678.34741210938</ele>
        <time>2012-04-08T09:15:55Z</time>
      </trkpt>
      <trkpt lat="42.92076" lon="1.77488">
        <ele>677.86669921875</ele>
        <time>2012-04-08T09:16:02Z</time>
      </trkpt>
      <trkpt lat="42.92081" lon="1.77483">
        <ele>678.828125</ele>
        <time>2012-04-08T09:16:05Z</time>
      </trkpt>
      <trkpt lat="42.92091" lon="1.77473">
        <ele>677.86669921875</ele>
        <time>2012-04-08T09:16:11Z</time>
      </trkpt>
      <trkpt lat="42.92098" lon="1.77467">
        <ele>675.94409179688</ele>
        <time>2012-04-08T09:16:15Z</time>
      </trkpt>
      <trkpt lat="42.92111" lon="1.77468">
        <ele>676.4248046875</ele>
        <time>2012-04-08T09:16:20Z</time>
      </trkpt>
      <trkpt lat="42.92122" lon="1.77475">
        <ele>676.90551757812</ele>
        <time>2012-04-08T09:16:24Z</time>
      </trkpt>
      <trkpt lat="42.92127" lon="1.77487">
        <ele>683.15380859375</ele>
        <time>2012-04-08T09:16:28Z</time>
      </trkpt>
      <trkpt lat="42.92132" lon="1.77492">
        <ele>687.47998046875</ele>
        <time>2012-04-08T09:16:31Z</time>
      </trkpt>
      <trkpt lat="42.92139" lon="1.775">
        <ele>697.09301757812</ele>
        <time>2012-04-08T09:16:36Z</time>
      </trkpt>
      <trkpt lat="42.92143" lon="1.77504">
        <ele>699.49633789062</ele>
        <time>2012-04-08T09:16:39Z</time>
      </trkpt>
      <trkpt lat="42.92153" lon="1.77499">
        <ele>699.49633789062</ele>
        <time>2012-04-08T09:16:44Z</time>
      </trkpt>
      <trkpt lat="42.92161" lon="1.77495">
        <ele>697.09301757812</ele>
        <time>2012-04-08T09:16:48Z</time>
      </trkpt>
      <trkpt lat="42.9217" lon="1.77493">
        <ele>693.24780273438</ele>
        <time>2012-04-08T09:16:51Z</time>
      </trkpt>
      <trkpt lat="42.92189" lon="1.77487">
        <ele>687.47998046875</ele>
        <time>2012-04-08T09:16:58Z</time>
      </trkpt>
      <trkpt lat="42.92199" lon="1.77485">
        <ele>683.15380859375</ele>
        <time>2012-04-08T09:17:02Z</time>
      </trkpt>
      <trkpt lat="42.92204" lon="1.77483">
        <ele>681.7119140625</ele>
        <time>2012-04-08T09:17:04Z</time>
      </trkpt>
      <trkpt lat="42.92221" lon="1.77476">
        <ele>675.46337890625</ele>
        <time>2012-04-08T09:17:10Z</time>
      </trkpt>
      <trkpt lat="42.92234" lon="1.77472">
        <ele>674.50219726562</ele>
        <time>2012-04-08T09:17:14Z</time>
      </trkpt>
      <trkpt lat="42.92248" lon="1.77471">
        <ele>675.94409179688</ele>
        <time>2012-04-08T09:17:18Z</time>
      </trkpt>
      <trkpt lat="42.92259" lon="1.77466">
        <ele>676.90551757812</ele>
        <time>2012-04-08T09:17:21Z</time>
      </trkpt>
      <trkpt lat="42.92266" lon="1.77459">
        <ele>678.34741210938</ele>
        <time>2012-04-08T09:17:24Z</time>
      </trkpt>
      <trkpt lat="42.92279" lon="1.77448">
        <ele>678.34741210938</ele>
        <time>2012-04-08T09:17:29Z</time>
      </trkpt>
      <trkpt lat="42.9229" lon="1.77437">
        <ele>680.75073242188</ele>
        <time>2012-04-08T09:17:34Z</time>
      </trkpt>
      <trkpt lat="42.92292" lon="1.77435">
        <ele>681.7119140625</ele>
        <time>2012-04-08T09:17:35Z</time>
      </trkpt>
      <trkpt lat="42.92307" lon="1.77425">
        <ele>686.51879882812</ele>
        <time>2012-04-08T09:17:40Z</time>
      </trkpt>
      <trkpt lat="42.92308" lon="1.77423">
        <ele>686.99926757812</ele>
        <time>2012-04-08T09:17:41Z</time>
      </trkpt>
      <trkpt lat="42.9232" lon="1.77413">
        <ele>688.44140625</ele>
        <time>2012-04-08T09:17:47Z</time>
      </trkpt>
      <trkpt lat="42.92327" lon="1.77409">
        <ele>689.40258789062</ele>
        <time>2012-04-08T09:17:51Z</time>
      </trkpt>
      <trkpt lat="42.9234" lon="1.77402">
        <ele>697.09301757812</ele>
        <time>2012-04-08T09:17:57Z</time>
      </trkpt>
      <trkpt lat="42.92346" lon="1.77396">
        <ele>700.9384765625</ele>
        <time>2012-04-08T09:18:00Z</time>
      </trkpt>
      <trkpt lat="42.92358" lon="1.7739">
        <ele>706.70629882812</ele>
        <time>2012-04-08T09:18:05Z</time>
      </trkpt>
      <trkpt lat="42.92371" lon="1.7738">
        <ele>712.47412109375</ele>
        <time>2012-04-08T09:18:11Z</time>
      </trkpt>
      <trkpt lat="42.92385" lon="1.77367">
        <ele>710.07080078125</ele>
        <time>2012-04-08T09:18:18Z</time>
      </trkpt>
      <trkpt lat="42.92395" lon="1.77363">
        <ele>706.2255859375</ele>
        <time>2012-04-08T09:18:22Z</time>
      </trkpt>
      <trkpt lat="42.92399" lon="1.77361">
        <ele>704.78369140625</ele>
        <time>2012-04-08T09:18:25Z</time>
      </trkpt>
      <trkpt lat="42.92402" lon="1.7736">
        <ele>704.30322265625</ele>
        <time>2012-04-08T09:18:28Z</time>
      </trkpt>
      <trkpt lat="42.92408" lon="1.77361">
        <ele>708.62890625</ele>
        <time>2012-04-08T09:18:31Z</time>
      </trkpt>
      <trkpt lat="42.92413" lon="1.77363">
        <ele>715.35815429688</ele>
        <time>2012-04-08T09:18:41Z</time>
      </trkpt>
      <trkpt lat="42.92413" lon="1.77364">
        <ele>716.31958007812</ele>
        <time>2012-04-08T09:18:53Z</time>
      </trkpt>
      <trkpt lat="42.92412" lon="1.77362">
        <ele>714.87744140625</ele>
        <time>2012-04-08T09:19:02Z</time>
      </trkpt>
      <trkpt lat="42.92414" lon="1.77361">
        <ele>714.87744140625</ele>
        <time>2012-04-08T09:19:11Z</time>
      </trkpt>
      <trkpt lat="42.92414" lon="1.77363">
        <ele>720.16479492188</ele>
        <time>2012-04-08T09:19:26Z</time>
      </trkpt>
      <trkpt lat="42.92417" lon="1.77363">
        <ele>720.16479492188</ele>
        <time>2012-04-08T09:19:37Z</time>
      </trkpt>
      <trkpt lat="42.92421" lon="1.77363">
        <ele>718.2421875</ele>
        <time>2012-04-08T09:19:40Z</time>
      </trkpt>
      <trkpt lat="42.92429" lon="1.77361">
        <ele>716.31958007812</ele>
        <time>2012-04-08T09:19:43Z</time>
      </trkpt>
      <trkpt lat="42.92439" lon="1.77356">
        <ele>714.87744140625</ele>
        <time>2012-04-08T09:19:47Z</time>
      </trkpt>
      <trkpt lat="42.92443" lon="1.77351">
        <ele>714.39672851562</ele>
        <time>2012-04-08T09:19:49Z</time>
      </trkpt>
      <trkpt lat="42.92456" lon="1.77344">
        <ele>712.47412109375</ele>
        <time>2012-04-08T09:19:54Z</time>
      </trkpt>
      <trkpt lat="42.92466" lon="1.77338">
        <ele>711.0322265625</ele>
        <time>2012-04-08T09:19:58Z</time>
      </trkpt>
      <trkpt lat="42.92477" lon="1.77338">
        <ele>710.07080078125</ele>
        <time>2012-04-08T09:20:03Z</time>
      </trkpt>
      <trkpt lat="42.92488" lon="1.7734">
        <ele>711.99365234375</ele>
        <time>2012-04-08T09:20:08Z</time>
      </trkpt>
      <trkpt lat="42.92502" lon="1.77346">
        <ele>713.916015625</ele>
        <time>2012-04-08T09:20:14Z</time>
      </trkpt>
      <trkpt lat="42.92515" lon="1.77352">
        <ele>715.35815429688</ele>
        <time>2012-04-08T09:20:20Z</time>
      </trkpt>
      <trkpt lat="42.92526" lon="1.77358">
        <ele>716.80029296875</ele>
        <time>2012-04-08T09:20:26Z</time>
      </trkpt>
      <trkpt lat="42.92532" lon="1.77361">
        <ele>717.28100585938</ele>
        <time>2012-04-08T09:20:31Z</time>
      </trkpt>
      <trkpt lat="42.9254" lon="1.77368">
        <ele>719.20361328125</ele>
        <time>2012-04-08T09:20:39Z</time>
      </trkpt>
      <trkpt lat="42.92546" lon="1.77379">
        <ele>719.68432617188</ele>
        <time>2012-04-08T09:20:47Z</time>
      </trkpt>
      <trkpt lat="42.92549" lon="1.77382">
        <ele>719.68432617188</ele>
        <time>2012-04-08T09:20:49Z</time>
      </trkpt>
      <trkpt lat="42.92554" lon="1.77395">
        <ele>721.12622070312</ele>
        <time>2012-04-08T09:20:57Z</time>
      </trkpt>
      <trkpt lat="42.92558" lon="1.77409">
        <ele>719.68432617188</ele>
        <time>2012-04-08T09:21:06Z</time>
      </trkpt>
      <trkpt lat="42.92559" lon="1.77419">
        <ele>719.68432617188</ele>
        <time>2012-04-08T09:21:12Z</time>
      </trkpt>
      <trkpt lat="42.92561" lon="1.77428">
        <ele>720.16479492188</ele>
        <time>2012-04-08T09:21:18Z</time>
      </trkpt>
      <trkpt lat="42.92564" lon="1.77441">
        <ele>720.6455078125</ele>
        <time>2012-04-08T09:21:25Z</time>
      </trkpt>
      <trkpt lat="42.92568" lon="1.77455">
        <ele>720.6455078125</ele>
        <time>2012-04-08T09:21:33Z</time>
      </trkpt>
      <trkpt lat="42.92574" lon="1.77465">
        <ele>723.52954101562</ele>
        <time>2012-04-08T09:21:40Z</time>
      </trkpt>
      <trkpt lat="42.92581" lon="1.77469">
        <ele>725.9326171875</ele>
        <time>2012-04-08T09:21:47Z</time>
      </trkpt>
      <trkpt lat="42.9259" lon="1.77465">
        <ele>727.37475585938</ele>
        <time>2012-04-08T09:21:54Z</time>
      </trkpt>
      <trkpt lat="42.92603" lon="1.77457">
        <ele>728.3359375</ele>
        <time>2012-04-08T09:22:04Z</time>
      </trkpt>
      <trkpt lat="42.92612" lon="1.7745">
        <ele>728.81665039062</ele>
        <time>2012-04-08T09:22:12Z</time>
      </trkpt>
      <trkpt lat="42.9262" lon="1.77443">
        <ele>729.29711914062</ele>
        <time>2012-04-08T09:22:18Z</time>
      </trkpt>
      <trkpt lat="42.92625" lon="1.77441">
        <ele>730.7392578125</ele>
        <time>2012-04-08T09:22:22Z</time>
      </trkpt>
      <trkpt lat="42.92629" lon="1.77436">
        <ele>731.70043945312</ele>
        <time>2012-04-08T09:22:27Z</time>
      </trkpt>
      <trkpt lat="42.92637" lon="1.77431">
        <ele>733.62329101562</ele>
        <time>2012-04-08T09:22:33Z</time>
      </trkpt>
      <trkpt lat="42.92646" lon="1.7743">
        <ele>734.58471679688</ele>
        <time>2012-04-08T09:22:40Z</time>
      </trkpt>
      <trkpt lat="42.92655" lon="1.77424">
        <ele>734.58471679688</ele>
        <time>2012-04-08T09:22:47Z</time>
      </trkpt>
      <trkpt lat="42.92664" lon="1.77419">
        <ele>733.62329101562</ele>
        <time>2012-04-08T09:22:53Z</time>
      </trkpt>
      <trkpt lat="42.92664" lon="1.77414">
        <ele>737.94921875</ele>
        <time>2012-04-08T09:22:57Z</time>
      </trkpt>
      <trkpt lat="42.9267" lon="1.77409">
        <ele>738.42993164062</ele>
        <time>2012-04-08T09:23:03Z</time>
      </trkpt>
      <trkpt lat="42.92675" lon="1.77404">
        <ele>738.42993164062</ele>
        <time>2012-04-08T09:23:09Z</time>
      </trkpt>
      <trkpt lat="42.9268" lon="1.77401">
        <ele>738.91064453125</ele>
        <time>2012-04-08T09:23:12Z</time>
      </trkpt>
      <trkpt lat="42.92696" lon="1.77397">
        <ele>743.236328125</ele>
        <time>2012-04-08T09:23:20Z</time>
      </trkpt>
      <trkpt lat="42.92706" lon="1.77395">
        <ele>745.6396484375</ele>
        <time>2012-04-08T09:23:26Z</time>
      </trkpt>
      <trkpt lat="42.92709" lon="1.77396">
        <ele>745.6396484375</ele>
        <time>2012-04-08T09:23:28Z</time>
      </trkpt>
      <trkpt lat="42.92717" lon="1.77394">
        <ele>745.15893554688</ele>
        <time>2012-04-08T09:23:33Z</time>
      </trkpt>
      <trkpt lat="42.92727" lon="1.77393">
        <ele>746.60107421875</ele>
        <time>2012-04-08T09:23:41Z</time>
      </trkpt>
      <trkpt lat="42.92732" lon="1.77394">
        <ele>745.15893554688</ele>
        <time>2012-04-08T09:23:44Z</time>
      </trkpt>
      <trkpt lat="42.92741" lon="1.77393">
        <ele>745.6396484375</ele>
        <time>2012-04-08T09:23:51Z</time>
      </trkpt>
      <trkpt lat="42.92747" lon="1.77392">
        <ele>746.60107421875</ele>
        <time>2012-04-08T09:23:55Z</time>
      </trkpt>
      <trkpt lat="42.92756" lon="1.77385">
        <ele>742.755859375</ele>
        <time>2012-04-08T09:24:02Z</time>
      </trkpt>
      <trkpt lat="42.92758" lon="1.77383">
        <ele>742.27514648438</ele>
        <time>2012-04-08T09:24:04Z</time>
      </trkpt>
      <trkpt lat="42.92766" lon="1.77376">
        <ele>740.3525390625</ele>
        <time>2012-04-08T09:24:10Z</time>
      </trkpt>
      <trkpt lat="42.9277" lon="1.77374">
        <ele>739.39111328125</ele>
        <time>2012-04-08T09:24:13Z</time>
      </trkpt>
      <trkpt lat="42.92774" lon="1.77374">
        <ele>740.3525390625</ele>
        <time>2012-04-08T09:24:15Z</time>
      </trkpt>
      <trkpt lat="42.92777" lon="1.7737">
        <ele>740.8330078125</ele>
        <time>2012-04-08T09:24:18Z</time>
      </trkpt>
      <trkpt lat="42.92781" lon="1.77368">
        <ele>741.79443359375</ele>
        <time>2012-04-08T09:24:21Z</time>
      </trkpt>
      <trkpt lat="42.92787" lon="1.77363">
        <ele>742.755859375</ele>
        <time>2012-04-08T09:24:27Z</time>
      </trkpt>
      <trkpt lat="42.9279" lon="1.77355">
        <ele>743.71704101562</ele>
        <time>2012-04-08T09:24:32Z</time>
      </trkpt>
      <trkpt lat="42.92796" lon="1.77354">
        <ele>743.236328125</ele>
        <time>2012-04-08T09:24:37Z</time>
      </trkpt>
      <trkpt lat="42.928" lon="1.7735">
        <ele>744.19775390625</ele>
        <time>2012-04-08T09:24:40Z</time>
      </trkpt>
      <trkpt lat="42.92807" lon="1.77346">
        <ele>744.67822265625</ele>
        <time>2012-04-08T09:24:45Z</time>
      </trkpt>
      <trkpt lat="42.92811" lon="1.77341">
        <ele>746.12036132812</ele>
        <time>2012-04-08T09:24:51Z</time>
      </trkpt>
      <trkpt lat="42.92818" lon="1.77335">
        <ele>746.60107421875</ele>
        <time>2012-04-08T09:24:57Z</time>
      </trkpt>
      <trkpt lat="42.92822" lon="1.7733">
        <ele>747.56225585938</ele>
        <time>2012-04-08T09:25:01Z</time>
      </trkpt>
      <trkpt lat="42.92826" lon="1.77321">
        <ele>749.00439453125</ele>
        <time>2012-04-08T09:25:07Z</time>
      </trkpt>
      <trkpt lat="42.92833" lon="1.77312">
        <ele>749.00439453125</ele>
        <time>2012-04-08T09:25:14Z</time>
      </trkpt>
      <trkpt lat="42.92841" lon="1.77301">
        <ele>750.44653320312</ele>
        <time>2012-04-08T09:25:23Z</time>
      </trkpt>
      <trkpt lat="42.92845" lon="1.77294">
        <ele>750.44653320312</ele>
        <time>2012-04-08T09:25:28Z</time>
      </trkpt>
      <trkpt lat="42.92848" lon="1.77289">
        <ele>751.88842773438</ele>
        <time>2012-04-08T09:25:32Z</time>
      </trkpt>
      <trkpt lat="42.9285" lon="1.77287">
        <ele>752.36889648438</ele>
        <time>2012-04-08T09:25:34Z</time>
      </trkpt>
      <trkpt lat="42.92858" lon="1.77285">
        <ele>752.849609375</ele>
        <time>2012-04-08T09:25:40Z</time>
      </trkpt>
      <trkpt lat="42.9287" lon="1.77287">
        <ele>754.29174804688</ele>
        <time>2012-04-08T09:25:47Z</time>
      </trkpt>
      <trkpt lat="42.92879" lon="1.77291">
        <ele>756.21411132812</ele>
        <time>2012-04-08T09:25:54Z</time>
      </trkpt>
      <trkpt lat="42.92892" lon="1.77298">
        <ele>760.05932617188</ele>
        <time>2012-04-08T09:26:04Z</time>
      </trkpt>
      <trkpt lat="42.92894" lon="1.77299">
        <ele>761.02075195312</ele>
        <time>2012-04-08T09:26:05Z</time>
      </trkpt>
      <trkpt lat="42.92898" lon="1.77302">
        <ele>762.46264648438</ele>
        <time>2012-04-08T09:26:09Z</time>
      </trkpt>
      <trkpt lat="42.92909" lon="1.77307">
        <ele>764.38549804688</ele>
        <time>2012-04-08T09:26:17Z</time>
      </trkpt>
      <trkpt lat="42.92916" lon="1.77311">
        <ele>765.82763671875</ele>
        <time>2012-04-08T09:26:23Z</time>
      </trkpt>
      <trkpt lat="42.92926" lon="1.77318">
        <ele>767.75</ele>
        <time>2012-04-08T09:26:31Z</time>
      </trkpt>
      <trkpt lat="42.92935" lon="1.77327">
        <ele>770.1533203125</ele>
        <time>2012-04-08T09:26:39Z</time>
      </trkpt>
      <trkpt lat="42.92938" lon="1.77331">
        <ele>771.11474609375</ele>
        <time>2012-04-08T09:26:42Z</time>
      </trkpt>
      <trkpt lat="42.9294" lon="1.77336">
        <ele>771.59521484375</ele>
        <time>2012-04-08T09:26:46Z</time>
      </trkpt>
      <trkpt lat="42.92948" lon="1.7735">
        <ele>772.07592773438</ele>
        <time>2012-04-08T09:26:56Z</time>
      </trkpt>
      <trkpt lat="42.92953" lon="1.77361">
        <ele>772.07592773438</ele>
        <time>2012-04-08T09:27:03Z</time>
      </trkpt>
      <trkpt lat="42.92958" lon="1.77371">
        <ele>771.59521484375</ele>
        <time>2012-04-08T09:27:10Z</time>
      </trkpt>
      <trkpt lat="42.92961" lon="1.77378">
        <ele>771.11474609375</ele>
        <time>2012-04-08T09:27:14Z</time>
      </trkpt>
      <trkpt lat="42.92964" lon="1.77388">
        <ele>769.19213867188</ele>
        <time>2012-04-08T09:27:20Z</time>
      </trkpt>
      <trkpt lat="42.92965" lon="1.77392">
        <ele>769.6728515625</ele>
        <time>2012-04-08T09:27:22Z</time>
      </trkpt>
      <trkpt lat="42.92967" lon="1.77404">
        <ele>770.63403320312</ele>
        <time>2012-04-08T09:27:29Z</time>
      </trkpt>
      <trkpt lat="42.92967" lon="1.77408">
        <ele>771.11474609375</ele>
        <time>2012-04-08T09:27:31Z</time>
      </trkpt>
      <trkpt lat="42.92968" lon="1.77413">
        <ele>771.11474609375</ele>
        <time>2012-04-08T09:27:33Z</time>
      </trkpt>
      <trkpt lat="42.9297" lon="1.77424">
        <ele>772.07592773438</ele>
        <time>2012-04-08T09:27:39Z</time>
      </trkpt>
      <trkpt lat="42.92975" lon="1.77436">
        <ele>772.07592773438</ele>
        <time>2012-04-08T09:27:46Z</time>
      </trkpt>
      <trkpt lat="42.9298" lon="1.77448">
        <ele>773.99853515625</ele>
        <time>2012-04-08T09:27:54Z</time>
      </trkpt>
      <trkpt lat="42.92986" lon="1.77459">
        <ele>775.92114257812</ele>
        <time>2012-04-08T09:28:01Z</time>
      </trkpt>
      <trkpt lat="42.92989" lon="1.77466">
        <ele>777.84375</ele>
        <time>2012-04-08T09:28:06Z</time>
      </trkpt>
      <trkpt lat="42.92995" lon="1.77477">
        <ele>779.28564453125</ele>
        <time>2012-04-08T09:28:14Z</time>
      </trkpt>
      <trkpt lat="42.93001" lon="1.77486">
        <ele>781.20874023438</ele>
        <time>2012-04-08T09:28:21Z</time>
      </trkpt>
      <trkpt lat="42.93003" lon="1.77491">
        <ele>781.68920898438</ele>
        <time>2012-04-08T09:28:24Z</time>
      </trkpt>
      <trkpt lat="42.93007" lon="1.77497">
        <ele>783.61181640625</ele>
        <time>2012-04-08T09:28:29Z</time>
      </trkpt>
      <trkpt lat="42.93013" lon="1.7751">
        <ele>786.01513671875</ele>
        <time>2012-04-08T09:28:37Z</time>
      </trkpt>
      <trkpt lat="42.93021" lon="1.77523">
        <ele>786.49584960938</ele>
        <time>2012-04-08T09:28:45Z</time>
      </trkpt>
      <trkpt lat="42.93026" lon="1.77532">
        <ele>785.53442382812</ele>
        <time>2012-04-08T09:28:51Z</time>
      </trkpt>
      <trkpt lat="42.93029" lon="1.77537">
        <ele>784.5732421875</ele>
        <time>2012-04-08T09:28:57Z</time>
      </trkpt>
      <trkpt lat="42.93031" lon="1.77544">
        <ele>785.05395507812</ele>
        <time>2012-04-08T09:29:03Z</time>
      </trkpt>
      <trkpt lat="42.93033" lon="1.77547">
        <ele>785.05395507812</ele>
        <time>2012-04-08T09:29:05Z</time>
      </trkpt>
      <trkpt lat="42.93037" lon="1.77556">
        <ele>785.05395507812</ele>
        <time>2012-04-08T09:29:11Z</time>
      </trkpt>
      <trkpt lat="42.9304" lon="1.77562">
        <ele>785.05395507812</ele>
        <time>2012-04-08T09:29:15Z</time>
      </trkpt>
      <trkpt lat="42.93047" lon="1.77572">
        <ele>783.61181640625</ele>
        <time>2012-04-08T09:29:22Z</time>
      </trkpt>
      <trkpt lat="42.9305" lon="1.7758">
        <ele>784.5732421875</ele>
        <time>2012-04-08T09:29:27Z</time>
      </trkpt>
      <trkpt lat="42.93056" lon="1.77592">
        <ele>785.53442382812</ele>
        <time>2012-04-08T09:29:35Z</time>
      </trkpt>
      <trkpt lat="42.93059" lon="1.77605">
        <ele>785.53442382812</ele>
        <time>2012-04-08T09:29:43Z</time>
      </trkpt>
      <trkpt lat="42.93062" lon="1.77618">
        <ele>786.01513671875</ele>
        <time>2012-04-08T09:29:50Z</time>
      </trkpt>
      <trkpt lat="42.93062" lon="1.77623">
        <ele>786.49584960938</ele>
        <time>2012-04-08T09:29:53Z</time>
      </trkpt>
      <trkpt lat="42.93065" lon="1.77635">
        <ele>787.45703125</ele>
        <time>2012-04-08T09:30:00Z</time>
      </trkpt>
      <trkpt lat="42.93068" lon="1.77649">
        <ele>787.93774414062</ele>
        <time>2012-04-08T09:30:07Z</time>
      </trkpt>
      <trkpt lat="42.9307" lon="1.77657">
        <ele>787.93774414062</ele>
        <time>2012-04-08T09:30:13Z</time>
      </trkpt>
      <trkpt lat="42.93071" lon="1.77659">
        <ele>787.45703125</ele>
        <time>2012-04-08T09:30:14Z</time>
      </trkpt>
      <trkpt lat="42.93073" lon="1.77669">
        <ele>786.97631835938</ele>
        <time>2012-04-08T09:30:19Z</time>
      </trkpt>
      <trkpt lat="42.93078" lon="1.77681">
        <ele>787.93774414062</ele>
        <time>2012-04-08T09:30:27Z</time>
      </trkpt>
      <trkpt lat="42.93079" lon="1.77682">
        <ele>788.41845703125</ele>
        <time>2012-04-08T09:30:28Z</time>
      </trkpt>
      <trkpt lat="42.93081" lon="1.77687">
        <ele>787.93774414062</ele>
        <time>2012-04-08T09:30:31Z</time>
      </trkpt>
      <trkpt lat="42.93085" lon="1.77695">
        <ele>789.37963867188</ele>
        <time>2012-04-08T09:30:37Z</time>
      </trkpt>
      <trkpt lat="42.93085" lon="1.77696">
        <ele>789.8603515625</ele>
        <time>2012-04-08T09:30:38Z</time>
      </trkpt>
      <trkpt lat="42.9309" lon="1.77704">
        <ele>791.78295898438</ele>
        <time>2012-04-08T09:30:44Z</time>
      </trkpt>
      <trkpt lat="42.93091" lon="1.77705">
        <ele>791.30224609375</ele>
        <time>2012-04-08T09:30:45Z</time>
      </trkpt>
      <trkpt lat="42.93098" lon="1.77709">
        <ele>792.74438476562</ele>
        <time>2012-04-08T09:30:51Z</time>
      </trkpt>
      <trkpt lat="42.93105" lon="1.77708">
        <ele>793.22485351562</ele>
        <time>2012-04-08T09:30:58Z</time>
      </trkpt>
      <trkpt lat="42.9311" lon="1.77702">
        <ele>793.70556640625</ele>
        <time>2012-04-08T09:31:04Z</time>
      </trkpt>
      <trkpt lat="42.93115" lon="1.77696">
        <ele>795.62817382812</ele>
        <time>2012-04-08T09:31:10Z</time>
      </trkpt>
      <trkpt lat="42.93122" lon="1.77688">
        <ele>796.58984375</ele>
        <time>2012-04-08T09:31:16Z</time>
      </trkpt>
      <trkpt lat="42.93126" lon="1.77683">
        <ele>796.10913085938</ele>
        <time>2012-04-08T09:31:20Z</time>
      </trkpt>
      <trkpt lat="42.9313" lon="1.77678">
        <ele>795.1474609375</ele>
        <time>2012-04-08T09:31:24Z</time>
      </trkpt>
      <trkpt lat="42.93132" lon="1.77673">
        <ele>795.62817382812</ele>
        <time>2012-04-08T09:31:27Z</time>
      </trkpt>
      <trkpt lat="42.93136" lon="1.77664">
        <ele>797.0703125</ele>
        <time>2012-04-08T09:31:32Z</time>
      </trkpt>
      <trkpt lat="42.93141" lon="1.77656">
        <ele>798.99291992188</ele>
        <time>2012-04-08T09:31:37Z</time>
      </trkpt>
      <trkpt lat="42.93146" lon="1.77651">
        <ele>799.4736328125</ele>
        <time>2012-04-08T09:31:40Z</time>
      </trkpt>
      <trkpt lat="42.9315" lon="1.77644">
        <ele>797.0703125</ele>
        <time>2012-04-08T09:31:45Z</time>
      </trkpt>
      <trkpt lat="42.93153" lon="1.77635">
        <ele>796.10913085938</ele>
        <time>2012-04-08T09:31:51Z</time>
      </trkpt>
      <trkpt lat="42.93155" lon="1.77631">
        <ele>796.10913085938</ele>
        <time>2012-04-08T09:31:53Z</time>
      </trkpt>
      <trkpt lat="42.93163" lon="1.77626">
        <ele>796.58984375</ele>
        <time>2012-04-08T09:31:58Z</time>
      </trkpt>
      <trkpt lat="42.93166" lon="1.7762">
        <ele>796.10913085938</ele>
        <time>2012-04-08T09:32:02Z</time>
      </trkpt>
      <trkpt lat="42.93172" lon="1.77618">
        <ele>796.10913085938</ele>
        <time>2012-04-08T09:32:05Z</time>
      </trkpt>
      <trkpt lat="42.93174" lon="1.77615">
        <ele>796.10913085938</ele>
        <time>2012-04-08T09:32:07Z</time>
      </trkpt>
      <trkpt lat="42.93179" lon="1.776">
        <ele>798.03173828125</ele>
        <time>2012-04-08T09:32:15Z</time>
      </trkpt>
      <trkpt lat="42.9318" lon="1.77598">
        <ele>798.03173828125</ele>
        <time>2012-04-08T09:32:16Z</time>
      </trkpt>
      <trkpt lat="42.93183" lon="1.77588">
        <ele>798.03173828125</ele>
        <time>2012-04-08T09:32:21Z</time>
      </trkpt>
      <trkpt lat="42.93185" lon="1.77584">
        <ele>798.51220703125</ele>
        <time>2012-04-08T09:32:24Z</time>
      </trkpt>
      <trkpt lat="42.93188" lon="1.77578">
        <ele>799.95434570312</ele>
        <time>2012-04-08T09:32:28Z</time>
      </trkpt>
      <trkpt lat="42.93198" lon="1.77567">
        <ele>800.43505859375</ele>
        <time>2012-04-08T09:32:35Z</time>
      </trkpt>
      <trkpt lat="42.932" lon="1.77564">
        <ele>800.91552734375</ele>
        <time>2012-04-08T09:32:37Z</time>
      </trkpt>
      <trkpt lat="42.93205" lon="1.77556">
        <ele>803.31884765625</ele>
        <time>2012-04-08T09:32:42Z</time>
      </trkpt>
      <trkpt lat="42.93212" lon="1.77549">
        <ele>803.31884765625</ele>
        <time>2012-04-08T09:32:47Z</time>
      </trkpt>
      <trkpt lat="42.93216" lon="1.77542">
        <ele>804.2802734375</ele>
        <time>2012-04-08T09:32:52Z</time>
      </trkpt>
      <trkpt lat="42.9322" lon="1.77534">
        <ele>804.7607421875</ele>
        <time>2012-04-08T09:32:57Z</time>
      </trkpt>
      <trkpt lat="42.93225" lon="1.77522">
        <ele>805.24145507812</ele>
        <time>2012-04-08T09:33:03Z</time>
      </trkpt>
      <trkpt lat="42.93227" lon="1.77519">
        <ele>805.72216796875</ele>
        <time>2012-04-08T09:33:05Z</time>
      </trkpt>
      <trkpt lat="42.93231" lon="1.77504">
        <ele>805.24145507812</ele>
        <time>2012-04-08T09:33:14Z</time>
      </trkpt>
      <trkpt lat="42.93233" lon="1.77491">
        <ele>805.72216796875</ele>
        <time>2012-04-08T09:33:21Z</time>
      </trkpt>
      <trkpt lat="42.93233" lon="1.77489">
        <ele>806.68334960938</ele>
        <time>2012-04-08T09:33:22Z</time>
      </trkpt>
      <trkpt lat="42.93235" lon="1.77484">
        <ele>807.1640625</ele>
        <time>2012-04-08T09:33:25Z</time>
      </trkpt>
      <trkpt lat="42.93238" lon="1.77474">
        <ele>807.64477539062</ele>
        <time>2012-04-08T09:33:31Z</time>
      </trkpt>
      <trkpt lat="42.93242" lon="1.77466">
        <ele>807.64477539062</ele>
        <time>2012-04-08T09:33:36Z</time>
      </trkpt>
      <trkpt lat="42.93243" lon="1.77459">
        <ele>807.64477539062</ele>
        <time>2012-04-08T09:33:40Z</time>
      </trkpt>
      <trkpt lat="42.93244" lon="1.77452">
        <ele>807.1640625</ele>
        <time>2012-04-08T09:33:43Z</time>
      </trkpt>
      <trkpt lat="42.93249" lon="1.77435">
        <ele>809.5673828125</ele>
        <time>2012-04-08T09:33:48Z</time>
      </trkpt>
      <trkpt lat="42.93254" lon="1.77417">
        <ele>810.52856445312</ele>
        <time>2012-04-08T09:33:53Z</time>
      </trkpt>
      <trkpt lat="42.93259" lon="1.77401">
        <ele>811.00927734375</ele>
        <time>2012-04-08T09:33:58Z</time>
      </trkpt>
      <trkpt lat="42.93262" lon="1.77383">
        <ele>810.52856445312</ele>
        <time>2012-04-08T09:34:03Z</time>
      </trkpt>
      <trkpt lat="42.93265" lon="1.7737">
        <ele>811.48999023438</ele>
        <time>2012-04-08T09:34:07Z</time>
      </trkpt>
      <trkpt lat="42.93265" lon="1.77367">
        <ele>811.00927734375</ele>
        <time>2012-04-08T09:34:08Z</time>
      </trkpt>
      <trkpt lat="42.93272" lon="1.77347">
        <ele>809.5673828125</ele>
        <time>2012-04-08T09:34:15Z</time>
      </trkpt>
      <trkpt lat="42.9328" lon="1.77333">
        <ele>809.08666992188</ele>
        <time>2012-04-08T09:34:20Z</time>
      </trkpt>
      <trkpt lat="42.93283" lon="1.77324">
        <ele>808.12548828125</ele>
        <time>2012-04-08T09:34:24Z</time>
      </trkpt>
      <trkpt lat="42.93286" lon="1.77319">
        <ele>808.12548828125</ele>
        <time>2012-04-08T09:34:26Z</time>
      </trkpt>
      <trkpt lat="42.93289" lon="1.77301">
        <ele>807.64477539062</ele>
        <time>2012-04-08T09:34:32Z</time>
      </trkpt>
      <trkpt lat="42.93289" lon="1.77299">
        <ele>807.64477539062</ele>
        <time>2012-04-08T09:34:34Z</time>
      </trkpt>
      <trkpt lat="42.93288" lon="1.77285">
        <ele>809.5673828125</ele>
        <time>2012-04-08T09:34:41Z</time>
      </trkpt>
      <trkpt lat="42.93288" lon="1.77275">
        <ele>809.5673828125</ele>
        <time>2012-04-08T09:34:47Z</time>
      </trkpt>
      <trkpt lat="42.93289" lon="1.77261">
        <ele>809.08666992188</ele>
        <time>2012-04-08T09:34:54Z</time>
      </trkpt>
      <trkpt lat="42.9329" lon="1.77255">
        <ele>808.60595703125</ele>
        <time>2012-04-08T09:34:57Z</time>
      </trkpt>
      <trkpt lat="42.93291" lon="1.77239">
        <ele>809.5673828125</ele>
        <time>2012-04-08T09:35:02Z</time>
      </trkpt>
      <trkpt lat="42.93293" lon="1.77218">
        <ele>809.5673828125</ele>
        <time>2012-04-08T09:35:08Z</time>
      </trkpt>
      <trkpt lat="42.93294" lon="1.77203">
        <ele>810.52856445312</ele>
        <time>2012-04-08T09:35:12Z</time>
      </trkpt>
      <trkpt lat="42.93293" lon="1.77199">
        <ele>810.52856445312</ele>
        <time>2012-04-08T09:35:13Z</time>
      </trkpt>
      <trkpt lat="42.93293" lon="1.7718">
        <ele>810.0478515625</ele>
        <time>2012-04-08T09:35:18Z</time>
      </trkpt>
      <trkpt lat="42.93292" lon="1.77168">
        <ele>809.5673828125</ele>
        <time>2012-04-08T09:35:21Z</time>
      </trkpt>
      <trkpt lat="42.93289" lon="1.77148">
        <ele>808.60595703125</ele>
        <time>2012-04-08T09:35:27Z</time>
      </trkpt>
      <trkpt lat="42.93286" lon="1.77131">
        <ele>807.64477539062</ele>
        <time>2012-04-08T09:35:32Z</time>
      </trkpt>
      <trkpt lat="42.93282" lon="1.77113">
        <ele>806.20263671875</ele>
        <time>2012-04-08T09:35:37Z</time>
      </trkpt>
      <trkpt lat="42.93282" lon="1.77097">
        <ele>807.64477539062</ele>
        <time>2012-04-08T09:35:41Z</time>
      </trkpt>
      <trkpt lat="42.93284" lon="1.77082">
        <ele>806.68334960938</ele>
        <time>2012-04-08T09:35:46Z</time>
      </trkpt>
      <trkpt lat="42.93284" lon="1.77073">
        <ele>805.72216796875</ele>
        <time>2012-04-08T09:35:49Z</time>
      </trkpt>
      <trkpt lat="42.93287" lon="1.77054">
        <ele>805.72216796875</ele>
        <time>2012-04-08T09:35:55Z</time>
      </trkpt>
      <trkpt lat="42.93288" lon="1.77046">
        <ele>805.72216796875</ele>
        <time>2012-04-08T09:35:58Z</time>
      </trkpt>
      <trkpt lat="42.93288" lon="1.7704">
        <ele>805.24145507812</ele>
        <time>2012-04-08T09:36:00Z</time>
      </trkpt>
      <trkpt lat="42.93288" lon="1.77023">
        <ele>805.72216796875</ele>
        <time>2012-04-08T09:36:05Z</time>
      </trkpt>
      <trkpt lat="42.93288" lon="1.77013">
        <ele>804.2802734375</ele>
        <time>2012-04-08T09:36:08Z</time>
      </trkpt>
      <trkpt lat="42.93286" lon="1.76989">
        <ele>805.72216796875</ele>
        <time>2012-04-08T09:36:14Z</time>
      </trkpt>
      <trkpt lat="42.93282" lon="1.76971">
        <ele>806.68334960938</ele>
        <time>2012-04-08T09:36:19Z</time>
      </trkpt>
      <trkpt lat="42.93278" lon="1.76959">
        <ele>808.12548828125</ele>
        <time>2012-04-08T09:36:23Z</time>
      </trkpt>
      <trkpt lat="42.93272" lon="1.76949">
        <ele>810.52856445312</ele>
        <time>2012-04-08T09:36:27Z</time>
      </trkpt>
      <trkpt lat="42.93267" lon="1.7694">
        <ele>811.00927734375</ele>
        <time>2012-04-08T09:36:30Z</time>
      </trkpt>
      <trkpt lat="42.93261" lon="1.76926">
        <ele>810.0478515625</ele>
        <time>2012-04-08T09:36:35Z</time>
      </trkpt>
      <trkpt lat="42.93259" lon="1.76918">
        <ele>809.5673828125</ele>
        <time>2012-04-08T09:36:38Z</time>
      </trkpt>
      <trkpt lat="42.93255" lon="1.76895">
        <ele>807.1640625</ele>
        <time>2012-04-08T09:36:45Z</time>
      </trkpt>
      <trkpt lat="42.93253" lon="1.7688">
        <ele>804.7607421875</ele>
        <time>2012-04-08T09:36:50Z</time>
      </trkpt>
      <trkpt lat="42.93253" lon="1.76862">
        <ele>802.83813476562</ele>
        <time>2012-04-08T09:36:56Z</time>
      </trkpt>
      <trkpt lat="42.93248" lon="1.76846">
        <ele>805.24145507812</ele>
        <time>2012-04-08T09:37:01Z</time>
      </trkpt>
      <trkpt lat="42.93249" lon="1.76827">
        <ele>805.72216796875</ele>
        <time>2012-04-08T09:37:06Z</time>
      </trkpt>
      <trkpt lat="42.9325" lon="1.76815">
        <ele>807.1640625</ele>
        <time>2012-04-08T09:37:10Z</time>
      </trkpt>
      <trkpt lat="42.93251" lon="1.76794">
        <ele>810.0478515625</ele>
        <time>2012-04-08T09:37:16Z</time>
      </trkpt>
      <trkpt lat="42.93252" lon="1.76772">
        <ele>809.5673828125</ele>
        <time>2012-04-08T09:37:22Z</time>
      </trkpt>
      <trkpt lat="42.9325" lon="1.76751">
        <ele>809.08666992188</ele>
        <time>2012-04-08T09:37:28Z</time>
      </trkpt>
      <trkpt lat="42.93248" lon="1.76733">
        <ele>808.12548828125</ele>
        <time>2012-04-08T09:37:33Z</time>
      </trkpt>
      <trkpt lat="42.93251" lon="1.76716">
        <ele>807.1640625</ele>
        <time>2012-04-08T09:37:38Z</time>
      </trkpt>
      <trkpt lat="42.93255" lon="1.76699">
        <ele>805.24145507812</ele>
        <time>2012-04-08T09:37:43Z</time>
      </trkpt>
      <trkpt lat="42.93258" lon="1.76689">
        <ele>804.7607421875</ele>
        <time>2012-04-08T09:37:46Z</time>
      </trkpt>
      <trkpt lat="42.93263" lon="1.76676">
        <ele>804.2802734375</ele>
        <time>2012-04-08T09:37:50Z</time>
      </trkpt>
      <trkpt lat="42.9327" lon="1.76666">
        <ele>804.7607421875</ele>
        <time>2012-04-08T09:37:54Z</time>
      </trkpt>
      <trkpt lat="42.9328" lon="1.76652">
        <ele>804.2802734375</ele>
        <time>2012-04-08T09:38:00Z</time>
      </trkpt>
      <trkpt lat="42.93288" lon="1.76639">
        <ele>803.31884765625</ele>
        <time>2012-04-08T09:38:05Z</time>
      </trkpt>
      <trkpt lat="42.9329" lon="1.76637">
        <ele>802.83813476562</ele>
        <time>2012-04-08T09:38:06Z</time>
      </trkpt>
      <trkpt lat="42.93296" lon="1.76627">
        <ele>801.876953125</ele>
        <time>2012-04-08T09:38:10Z</time>
      </trkpt>
      <trkpt lat="42.933" lon="1.76612">
        <ele>800.43505859375</ele>
        <time>2012-04-08T09:38:15Z</time>
      </trkpt>
      <trkpt lat="42.93303" lon="1.76592">
        <ele>799.95434570312</ele>
        <time>2012-04-08T09:38:20Z</time>
      </trkpt>
      <trkpt lat="42.93306" lon="1.76578">
        <ele>799.95434570312</ele>
        <time>2012-04-08T09:38:24Z</time>
      </trkpt>
      <trkpt lat="42.93311" lon="1.76561">
        <ele>798.51220703125</ele>
        <time>2012-04-08T09:38:29Z</time>
      </trkpt>
      <trkpt lat="42.93315" lon="1.76551">
        <ele>798.03173828125</ele>
        <time>2012-04-08T09:38:32Z</time>
      </trkpt>
      <trkpt lat="42.93319" lon="1.76541">
        <ele>798.03173828125</ele>
        <time>2012-04-08T09:38:35Z</time>
      </trkpt>
      <trkpt lat="42.93322" lon="1.76528">
        <ele>798.03173828125</ele>
        <time>2012-04-08T09:38:39Z</time>
      </trkpt>
      <trkpt lat="42.93331" lon="1.7651">
        <ele>798.03173828125</ele>
        <time>2012-04-08T09:38:45Z</time>
      </trkpt>
      <trkpt lat="42.93335" lon="1.76505">
        <ele>797.55102539062</ele>
        <time>2012-04-08T09:38:49Z</time>
      </trkpt>
      <trkpt lat="42.93338" lon="1.76501">
        <ele>796.58984375</ele>
        <time>2012-04-08T09:38:52Z</time>
      </trkpt>
      <trkpt lat="42.93343" lon="1.76493">
        <ele>795.1474609375</ele>
        <time>2012-04-08T09:38:58Z</time>
      </trkpt>
      <trkpt lat="42.93344" lon="1.76486">
        <ele>795.1474609375</ele>
        <time>2012-04-08T09:39:02Z</time>
      </trkpt>
      <trkpt lat="42.93344" lon="1.76484">
        <ele>795.1474609375</ele>
        <time>2012-04-08T09:39:03Z</time>
      </trkpt>
      <trkpt lat="42.9335" lon="1.7647">
        <ele>796.10913085938</ele>
        <time>2012-04-08T09:39:10Z</time>
      </trkpt>
      <trkpt lat="42.93354" lon="1.76463">
        <ele>795.62817382812</ele>
        <time>2012-04-08T09:39:15Z</time>
      </trkpt>
      <trkpt lat="42.93359" lon="1.76456">
        <ele>794.18627929688</ele>
        <time>2012-04-08T09:39:21Z</time>
      </trkpt>
      <trkpt lat="42.93364" lon="1.76451">
        <ele>793.70556640625</ele>
        <time>2012-04-08T09:39:25Z</time>
      </trkpt>
      <trkpt lat="42.9337" lon="1.76439">
        <ele>793.70556640625</ele>
        <time>2012-04-08T09:39:30Z</time>
      </trkpt>
      <trkpt lat="42.93373" lon="1.76419">
        <ele>795.1474609375</ele>
        <time>2012-04-08T09:39:35Z</time>
      </trkpt>
      <trkpt lat="42.93375" lon="1.76405">
        <ele>796.10913085938</ele>
        <time>2012-04-08T09:39:38Z</time>
      </trkpt>
      <trkpt lat="42.93383" lon="1.76386">
        <ele>796.58984375</ele>
        <time>2012-04-08T09:39:44Z</time>
      </trkpt>
      <trkpt lat="42.93386" lon="1.76375">
        <ele>797.55102539062</ele>
        <time>2012-04-08T09:39:47Z</time>
      </trkpt>
      <trkpt lat="42.93394" lon="1.76368">
        <ele>798.99291992188</ele>
        <time>2012-04-08T09:39:51Z</time>
      </trkpt>
      <trkpt lat="42.93395" lon="1.76365">
        <ele>799.4736328125</ele>
        <time>2012-04-08T09:39:53Z</time>
      </trkpt>
      <trkpt lat="42.93402" lon="1.76348">
        <ele>801.876953125</ele>
        <time>2012-04-08T09:40:04Z</time>
      </trkpt>
      <trkpt lat="42.93406" lon="1.76338">
        <ele>802.357421875</ele>
        <time>2012-04-08T09:40:10Z</time>
      </trkpt>
      <trkpt lat="42.9341" lon="1.76329">
        <ele>802.83813476562</ele>
        <time>2012-04-08T09:40:17Z</time>
      </trkpt>
      <trkpt lat="42.93414" lon="1.76319">
        <ele>804.7607421875</ele>
        <time>2012-04-08T09:40:23Z</time>
      </trkpt>
      <trkpt lat="42.93414" lon="1.76315">
        <ele>805.24145507812</ele>
        <time>2012-04-08T09:40:25Z</time>
      </trkpt>
      <trkpt lat="42.93417" lon="1.76304">
        <ele>805.72216796875</ele>
        <time>2012-04-08T09:40:32Z</time>
      </trkpt>
      <trkpt lat="42.93419" lon="1.763">
        <ele>805.24145507812</ele>
        <time>2012-04-08T09:40:35Z</time>
      </trkpt>
      <trkpt lat="42.93421" lon="1.76284">
        <ele>806.68334960938</ele>
        <time>2012-04-08T09:40:40Z</time>
      </trkpt>
      <trkpt lat="42.93422" lon="1.76273">
        <ele>807.1640625</ele>
        <time>2012-04-08T09:40:43Z</time>
      </trkpt>
      <trkpt lat="42.93426" lon="1.7626">
        <ele>806.68334960938</ele>
        <time>2012-04-08T09:40:47Z</time>
      </trkpt>
      <trkpt lat="42.93427" lon="1.76256">
        <ele>807.1640625</ele>
        <time>2012-04-08T09:40:48Z</time>
      </trkpt>
      <trkpt lat="42.93428" lon="1.76248">
        <ele>807.64477539062</ele>
        <time>2012-04-08T09:40:50Z</time>
      </trkpt>
      <trkpt lat="42.93436" lon="1.76237">
        <ele>807.64477539062</ele>
        <time>2012-04-08T09:40:54Z</time>
      </trkpt>
      <trkpt lat="42.93441" lon="1.76222">
        <ele>807.1640625</ele>
        <time>2012-04-08T09:40:59Z</time>
      </trkpt>
      <trkpt lat="42.93443" lon="1.76208">
        <ele>806.68334960938</ele>
        <time>2012-04-08T09:41:03Z</time>
      </trkpt>
      <trkpt lat="42.93443" lon="1.76195">
        <ele>806.68334960938</ele>
        <time>2012-04-08T09:41:06Z</time>
      </trkpt>
      <trkpt lat="42.93449" lon="1.76181">
        <ele>804.7607421875</ele>
        <time>2012-04-08T09:41:11Z</time>
      </trkpt>
      <trkpt lat="42.93452" lon="1.76173">
        <ele>803.79956054688</ele>
        <time>2012-04-08T09:41:14Z</time>
      </trkpt>
      <trkpt lat="42.93457" lon="1.76151">
        <ele>801.876953125</ele>
        <time>2012-04-08T09:41:20Z</time>
      </trkpt>
      <trkpt lat="42.93459" lon="1.76145">
        <ele>801.39624023438</ele>
        <time>2012-04-08T09:41:22Z</time>
      </trkpt>
      <trkpt lat="42.93459" lon="1.76142">
        <ele>801.39624023438</ele>
        <time>2012-04-08T09:41:24Z</time>
      </trkpt>
      <trkpt lat="42.93465" lon="1.76134">
        <ele>800.43505859375</ele>
        <time>2012-04-08T09:41:29Z</time>
      </trkpt>
      <trkpt lat="42.93473" lon="1.7612">
        <ele>799.95434570312</ele>
        <time>2012-04-08T09:41:34Z</time>
      </trkpt>
      <trkpt lat="42.93479" lon="1.76102">
        <ele>799.4736328125</ele>
        <time>2012-04-08T09:41:39Z</time>
      </trkpt>
      <trkpt lat="42.93482" lon="1.76086">
        <ele>798.99291992188</ele>
        <time>2012-04-08T09:41:43Z</time>
      </trkpt>
      <trkpt lat="42.93487" lon="1.76068">
        <ele>797.0703125</ele>
        <time>2012-04-08T09:41:48Z</time>
      </trkpt>
      <trkpt lat="42.93491" lon="1.76049">
        <ele>795.1474609375</ele>
        <time>2012-04-08T09:41:53Z</time>
      </trkpt>
      <trkpt lat="42.93493" lon="1.76029">
        <ele>794.66674804688</ele>
        <time>2012-04-08T09:41:58Z</time>
      </trkpt>
      <trkpt lat="42.93493" lon="1.76008">
        <ele>794.66674804688</ele>
        <time>2012-04-08T09:42:03Z</time>
      </trkpt>
      <trkpt lat="42.93494" lon="1.76001">
        <ele>794.18627929688</ele>
        <time>2012-04-08T09:42:05Z</time>
      </trkpt>
      <trkpt lat="42.93497" lon="1.75987">
        <ele>793.22485351562</ele>
        <time>2012-04-08T09:42:09Z</time>
      </trkpt>
      <trkpt lat="42.93501" lon="1.75968">
        <ele>792.74438476562</ele>
        <time>2012-04-08T09:42:14Z</time>
      </trkpt>
      <trkpt lat="42.93502" lon="1.75949">
        <ele>792.74438476562</ele>
        <time>2012-04-08T09:42:19Z</time>
      </trkpt>
      <trkpt lat="42.93505" lon="1.75934">
        <ele>792.263671875</ele>
        <time>2012-04-08T09:42:24Z</time>
      </trkpt>
      <trkpt lat="42.93509" lon="1.75921">
        <ele>789.8603515625</ele>
        <time>2012-04-08T09:42:29Z</time>
      </trkpt>
      <trkpt lat="42.93509" lon="1.75917">
        <ele>789.37963867188</ele>
        <time>2012-04-08T09:42:30Z</time>
      </trkpt>
      <trkpt lat="42.93506" lon="1.75899">
        <ele>786.01513671875</ele>
        <time>2012-04-08T09:42:35Z</time>
      </trkpt>
      <trkpt lat="42.93506" lon="1.75895">
        <ele>785.53442382812</ele>
        <time>2012-04-08T09:42:36Z</time>
      </trkpt>
      <trkpt lat="42.93505" lon="1.7588">
        <ele>784.5732421875</ele>
        <time>2012-04-08T09:42:40Z</time>
      </trkpt>
      <trkpt lat="42.93504" lon="1.75862">
        <ele>783.13110351562</ele>
        <time>2012-04-08T09:42:45Z</time>
      </trkpt>
      <trkpt lat="42.93499" lon="1.75834">
        <ele>782.169921875</ele>
        <time>2012-04-08T09:42:53Z</time>
      </trkpt>
      <trkpt lat="42.93492" lon="1.75818">
        <ele>783.13110351562</ele>
        <time>2012-04-08T09:42:58Z</time>
      </trkpt>
      <trkpt lat="42.93488" lon="1.75798">
        <ele>780.72802734375</ele>
        <time>2012-04-08T09:43:03Z</time>
      </trkpt>
      <trkpt lat="42.93496" lon="1.75778">
        <ele>774.9599609375</ele>
        <time>2012-04-08T09:43:09Z</time>
      </trkpt>
      <trkpt lat="42.93501" lon="1.75763">
        <ele>772.07592773438</ele>
        <time>2012-04-08T09:43:13Z</time>
      </trkpt>
      <trkpt lat="42.93507" lon="1.75753">
        <ele>769.6728515625</ele>
        <time>2012-04-08T09:43:17Z</time>
      </trkpt>
      <trkpt lat="42.93514" lon="1.75742">
        <ele>768.71142578125</ele>
        <time>2012-04-08T09:43:21Z</time>
      </trkpt>
      <trkpt lat="42.93521" lon="1.7573">
        <ele>768.23071289062</ele>
        <time>2012-04-08T09:43:25Z</time>
      </trkpt>
      <trkpt lat="42.93529" lon="1.75715">
        <ele>765.82763671875</ele>
        <time>2012-04-08T09:43:30Z</time>
      </trkpt>
      <trkpt lat="42.93535" lon="1.75701">
        <ele>765.82763671875</ele>
        <time>2012-04-08T09:43:35Z</time>
      </trkpt>
      <trkpt lat="42.93542" lon="1.75687">
        <ele>765.34692382812</ele>
        <time>2012-04-08T09:43:40Z</time>
      </trkpt>
      <trkpt lat="42.93545" lon="1.75676">
        <ele>765.82763671875</ele>
        <time>2012-04-08T09:43:45Z</time>
      </trkpt>
      <trkpt lat="42.93546" lon="1.75667">
        <ele>767.26953125</ele>
        <time>2012-04-08T09:43:50Z</time>
      </trkpt>
      <trkpt lat="42.93546" lon="1.75663">
        <ele>768.23071289062</ele>
        <time>2012-04-08T09:43:53Z</time>
      </trkpt>
      <trkpt lat="42.9355" lon="1.75661">
        <ele>770.63403320312</ele>
        <time>2012-04-08T09:44:00Z</time>
      </trkpt>
      <trkpt lat="42.93554" lon="1.75658">
        <ele>773.51806640625</ele>
        <time>2012-04-08T09:44:07Z</time>
      </trkpt>
      <trkpt lat="42.93562" lon="1.75656">
        <ele>774.47924804688</ele>
        <time>2012-04-08T09:44:14Z</time>
      </trkpt>
      <trkpt lat="42.93567" lon="1.75654">
        <ele>774.47924804688</ele>
        <time>2012-04-08T09:44:19Z</time>
      </trkpt>
      <trkpt lat="42.93567" lon="1.75654">
        <ele>773.99853515625</ele>
        <time>2012-04-08T09:44:20Z</time>
      </trkpt>
      <trkpt lat="42.9357" lon="1.75647">
        <ele>774.9599609375</ele>
        <time>2012-04-08T09:44:25Z</time>
      </trkpt>
      <trkpt lat="42.93575" lon="1.75637">
        <ele>774.9599609375</ele>
        <time>2012-04-08T09:44:29Z</time>
      </trkpt>
      <trkpt lat="42.93583" lon="1.75621">
        <ele>773.99853515625</ele>
        <time>2012-04-08T09:44:34Z</time>
      </trkpt>
      <trkpt lat="42.93588" lon="1.75612">
        <ele>773.03735351562</ele>
        <time>2012-04-08T09:44:37Z</time>
      </trkpt>
      <trkpt lat="42.93592" lon="1.75602">
        <ele>773.03735351562</ele>
        <time>2012-04-08T09:44:40Z</time>
      </trkpt>
      <trkpt lat="42.93597" lon="1.75582">
        <ele>773.99853515625</ele>
        <time>2012-04-08T09:44:45Z</time>
      </trkpt>
      <trkpt lat="42.93604" lon="1.75571">
        <ele>774.9599609375</ele>
        <time>2012-04-08T09:44:49Z</time>
      </trkpt>
      <trkpt lat="42.93608" lon="1.75564">
        <ele>775.4404296875</ele>
        <time>2012-04-08T09:44:52Z</time>
      </trkpt>
      <trkpt lat="42.9361" lon="1.75552">
        <ele>775.92114257812</ele>
        <time>2012-04-08T09:44:57Z</time>
      </trkpt>
      <trkpt lat="42.93613" lon="1.75545">
        <ele>775.92114257812</ele>
        <time>2012-04-08T09:45:00Z</time>
      </trkpt>
      <trkpt lat="42.93618" lon="1.75533">
        <ele>777.84375</ele>
        <time>2012-04-08T09:45:06Z</time>
      </trkpt>
      <trkpt lat="42.93623" lon="1.75524">
        <ele>778.32446289062</ele>
        <time>2012-04-08T09:45:11Z</time>
      </trkpt>
      <trkpt lat="42.93629" lon="1.75513">
        <ele>780.72802734375</ele>
        <time>2012-04-08T09:45:19Z</time>
      </trkpt>
      <trkpt lat="42.93633" lon="1.75508">
        <ele>782.169921875</ele>
        <time>2012-04-08T09:45:24Z</time>
      </trkpt>
      <trkpt lat="42.93638" lon="1.75504">
        <ele>782.65063476562</ele>
        <time>2012-04-08T09:45:28Z</time>
      </trkpt>
      <trkpt lat="42.93648" lon="1.75501">
        <ele>783.61181640625</ele>
        <time>2012-04-08T09:45:36Z</time>
      </trkpt>
      <trkpt lat="42.9365" lon="1.75499">
        <ele>783.13110351562</ele>
        <time>2012-04-08T09:45:39Z</time>
      </trkpt>
      <trkpt lat="42.93655" lon="1.75496">
        <ele>783.61181640625</ele>
        <time>2012-04-08T09:45:43Z</time>
      </trkpt>
      <trkpt lat="42.93664" lon="1.7549">
        <ele>784.5732421875</ele>
        <time>2012-04-08T09:45:51Z</time>
      </trkpt>
      <trkpt lat="42.93673" lon="1.75486">
        <ele>785.53442382812</ele>
        <time>2012-04-08T09:45:59Z</time>
      </trkpt>
      <trkpt lat="42.93682" lon="1.75481">
        <ele>786.01513671875</ele>
        <time>2012-04-08T09:46:07Z</time>
      </trkpt>
      <trkpt lat="42.93686" lon="1.7548">
        <ele>786.49584960938</ele>
        <time>2012-04-08T09:46:12Z</time>
      </trkpt>
      <trkpt lat="42.93694" lon="1.75473">
        <ele>787.45703125</ele>
        <time>2012-04-08T09:46:19Z</time>
      </trkpt>
      <trkpt lat="42.93697" lon="1.75471">
        <ele>787.45703125</ele>
        <time>2012-04-08T09:46:21Z</time>
      </trkpt>
      <trkpt lat="42.93703" lon="1.75466">
        <ele>787.93774414062</ele>
        <time>2012-04-08T09:46:27Z</time>
      </trkpt>
      <trkpt lat="42.93711" lon="1.7546">
        <ele>787.45703125</ele>
        <time>2012-04-08T09:46:34Z</time>
      </trkpt>
      <trkpt lat="42.93716" lon="1.75456">
        <ele>787.93774414062</ele>
        <time>2012-04-08T09:46:39Z</time>
      </trkpt>
      <trkpt lat="42.93723" lon="1.7545">
        <ele>788.89916992188</ele>
        <time>2012-04-08T09:46:45Z</time>
      </trkpt>
      <trkpt lat="42.93732" lon="1.7544">
        <ele>791.30224609375</ele>
        <time>2012-04-08T09:46:53Z</time>
      </trkpt>
      <trkpt lat="42.93736" lon="1.75433">
        <ele>792.74438476562</ele>
        <time>2012-04-08T09:46:59Z</time>
      </trkpt>
      <trkpt lat="42.9374" lon="1.75418">
        <ele>792.74438476562</ele>
        <time>2012-04-08T09:47:05Z</time>
      </trkpt>
      <trkpt lat="42.93742" lon="1.75405">
        <ele>794.18627929688</ele>
        <time>2012-04-08T09:47:10Z</time>
      </trkpt>
      <trkpt lat="42.93745" lon="1.75395">
        <ele>796.58984375</ele>
        <time>2012-04-08T09:47:16Z</time>
      </trkpt>
      <trkpt lat="42.93752" lon="1.75384">
        <ele>798.03173828125</ele>
        <time>2012-04-08T09:47:25Z</time>
      </trkpt>
      <trkpt lat="42.93759" lon="1.75376">
        <ele>798.99291992188</ele>
        <time>2012-04-08T09:47:33Z</time>
      </trkpt>
      <trkpt lat="42.93763" lon="1.75372">
        <ele>799.4736328125</ele>
        <time>2012-04-08T09:47:37Z</time>
      </trkpt>
      <trkpt lat="42.93767" lon="1.75362">
        <ele>800.43505859375</ele>
        <time>2012-04-08T09:47:45Z</time>
      </trkpt>
      <trkpt lat="42.93774" lon="1.75353">
        <ele>801.39624023438</ele>
        <time>2012-04-08T09:47:53Z</time>
      </trkpt>
      <trkpt lat="42.93778" lon="1.75346">
        <ele>802.83813476562</ele>
        <time>2012-04-08T09:47:59Z</time>
      </trkpt>
      <trkpt lat="42.93784" lon="1.75338">
        <ele>803.79956054688</ele>
        <time>2012-04-08T09:48:06Z</time>
      </trkpt>
      <trkpt lat="42.93787" lon="1.75333">
        <ele>805.24145507812</ele>
        <time>2012-04-08T09:48:10Z</time>
      </trkpt>
      <trkpt lat="42.93793" lon="1.75323">
        <ele>807.64477539062</ele>
        <time>2012-04-08T09:48:17Z</time>
      </trkpt>
      <trkpt lat="42.93795" lon="1.75318">
        <ele>807.64477539062</ele>
        <time>2012-04-08T09:48:21Z</time>
      </trkpt>
      <trkpt lat="42.938" lon="1.75312">
        <ele>809.08666992188</ele>
        <time>2012-04-08T09:48:26Z</time>
      </trkpt>
      <trkpt lat="42.93804" lon="1.75303">
        <ele>810.0478515625</ele>
        <time>2012-04-08T09:48:32Z</time>
      </trkpt>
      <trkpt lat="42.93811" lon="1.75291">
        <ele>811.970703125</ele>
        <time>2012-04-08T09:48:41Z</time>
      </trkpt>
      <trkpt lat="42.93818" lon="1.75281">
        <ele>811.48999023438</ele>
        <time>2012-04-08T09:48:50Z</time>
      </trkpt>
      <trkpt lat="42.93822" lon="1.75271">
        <ele>811.00927734375</ele>
        <time>2012-04-08T09:48:57Z</time>
      </trkpt>
      <trkpt lat="42.93826" lon="1.75266">
        <ele>811.00927734375</ele>
        <time>2012-04-08T09:49:01Z</time>
      </trkpt>
      <trkpt lat="42.93831" lon="1.75259">
        <ele>812.45141601562</ele>
        <time>2012-04-08T09:49:06Z</time>
      </trkpt>
      <trkpt lat="42.93838" lon="1.75254">
        <ele>813.89331054688</ele>
        <time>2012-04-08T09:49:13Z</time>
      </trkpt>
      <trkpt lat="42.93842" lon="1.7525">
        <ele>815.81616210938</ele>
        <time>2012-04-08T09:49:18Z</time>
      </trkpt>
      <trkpt lat="42.93848" lon="1.75243">
        <ele>816.77734375</ele>
        <time>2012-04-08T09:49:24Z</time>
      </trkpt>
      <trkpt lat="42.93851" lon="1.75238">
        <ele>816.29663085938</ele>
        <time>2012-04-08T09:49:28Z</time>
      </trkpt>
      <trkpt lat="42.93855" lon="1.75231">
        <ele>815.81616210938</ele>
        <time>2012-04-08T09:49:33Z</time>
      </trkpt>
      <trkpt lat="42.93858" lon="1.75226">
        <ele>817.73852539062</ele>
        <time>2012-04-08T09:49:37Z</time>
      </trkpt>
      <trkpt lat="42.93862" lon="1.7522">
        <ele>820.14184570312</ele>
        <time>2012-04-08T09:49:42Z</time>
      </trkpt>
      <trkpt lat="42.93869" lon="1.75213">
        <ele>820.62255859375</ele>
        <time>2012-04-08T09:49:49Z</time>
      </trkpt>
      <trkpt lat="42.93875" lon="1.75206">
        <ele>821.58374023438</ele>
        <time>2012-04-08T09:49:55Z</time>
      </trkpt>
      <trkpt lat="42.93881" lon="1.75204">
        <ele>822.064453125</ele>
        <time>2012-04-08T09:50:00Z</time>
      </trkpt>
      <trkpt lat="42.9389" lon="1.75206">
        <ele>822.54516601562</ele>
        <time>2012-04-08T09:50:07Z</time>
      </trkpt>
      <trkpt lat="42.93896" lon="1.75209">
        <ele>823.50659179688</ele>
        <time>2012-04-08T09:50:13Z</time>
      </trkpt>
      <trkpt lat="42.93903" lon="1.75215">
        <ele>823.98706054688</ele>
        <time>2012-04-08T09:50:21Z</time>
      </trkpt>
      <trkpt lat="42.93912" lon="1.7522">
        <ele>822.54516601562</ele>
        <time>2012-04-08T09:50:29Z</time>
      </trkpt>
      <trkpt lat="42.93921" lon="1.75224">
        <ele>821.10327148438</ele>
        <time>2012-04-08T09:50:37Z</time>
      </trkpt>
      <trkpt lat="42.93926" lon="1.75225">
        <ele>823.98706054688</ele>
        <time>2012-04-08T09:50:44Z</time>
      </trkpt>
      <trkpt lat="42.93927" lon="1.7523">
        <ele>826.87109375</ele>
        <time>2012-04-08T09:50:50Z</time>
      </trkpt>
      <trkpt lat="42.93931" lon="1.75234">
        <ele>829.75512695312</ele>
        <time>2012-04-08T09:50:56Z</time>
      </trkpt>
      <trkpt lat="42.93934" lon="1.75239">
        <ele>830.71655273438</ele>
        <time>2012-04-08T09:51:02Z</time>
      </trkpt>
      <trkpt lat="42.93938" lon="1.75243">
        <ele>833.60034179688</ele>
        <time>2012-04-08T09:51:09Z</time>
      </trkpt>
      <trkpt lat="42.93942" lon="1.75243">
        <ele>835.52294921875</ele>
        <time>2012-04-08T09:51:14Z</time>
      </trkpt>
      <trkpt lat="42.93943" lon="1.75247">
        <ele>837.44555664062</ele>
        <time>2012-04-08T09:51:19Z</time>
      </trkpt>
      <trkpt lat="42.9394" lon="1.75251">
        <ele>839.3681640625</ele>
        <time>2012-04-08T09:51:25Z</time>
      </trkpt>
      <trkpt lat="42.93935" lon="1.75257">
        <ele>842.73291015625</ele>
        <time>2012-04-08T09:51:33Z</time>
      </trkpt>
      <trkpt lat="42.9394" lon="1.75259">
        <ele>844.17504882812</ele>
        <time>2012-04-08T09:51:39Z</time>
      </trkpt>
      <trkpt lat="42.93941" lon="1.75266">
        <ele>846.09765625</ele>
        <time>2012-04-08T09:51:46Z</time>
      </trkpt>
      <trkpt lat="42.93938" lon="1.75273">
        <ele>848.02026367188</ele>
        <time>2012-04-08T09:51:52Z</time>
      </trkpt>
      <trkpt lat="42.93937" lon="1.75281">
        <ele>848.02026367188</ele>
        <time>2012-04-08T09:51:59Z</time>
      </trkpt>
      <trkpt lat="42.93936" lon="1.75291">
        <ele>847.53955078125</ele>
        <time>2012-04-08T09:52:08Z</time>
      </trkpt>
      <trkpt lat="42.93934" lon="1.753">
        <ele>848.50073242188</ele>
        <time>2012-04-08T09:52:16Z</time>
      </trkpt>
      <trkpt lat="42.93933" lon="1.75308">
        <ele>849.94287109375</ele>
        <time>2012-04-08T09:52:24Z</time>
      </trkpt>
      <trkpt lat="42.93935" lon="1.75315">
        <ele>851.384765625</ele>
        <time>2012-04-08T09:52:31Z</time>
      </trkpt>
      <trkpt lat="42.93936" lon="1.75326">
        <ele>853.30737304688</ele>
        <time>2012-04-08T09:52:40Z</time>
      </trkpt>
      <trkpt lat="42.93936" lon="1.75333">
        <ele>855.22998046875</ele>
        <time>2012-04-08T09:52:47Z</time>
      </trkpt>
      <trkpt lat="42.93936" lon="1.75341">
        <ele>858.11401367188</ele>
        <time>2012-04-08T09:52:55Z</time>
      </trkpt>
      <trkpt lat="42.93933" lon="1.75351">
        <ele>860.998046875</ele>
        <time>2012-04-08T09:53:05Z</time>
      </trkpt>
      <trkpt lat="42.93932" lon="1.75359">
        <ele>864.36254882812</ele>
        <time>2012-04-08T09:53:12Z</time>
      </trkpt>
      <trkpt lat="42.93932" lon="1.75365">
        <ele>864.84326171875</ele>
        <time>2012-04-08T09:53:18Z</time>
      </trkpt>
      <trkpt lat="42.93929" lon="1.7537">
        <ele>867.24658203125</ele>
        <time>2012-04-08T09:53:23Z</time>
      </trkpt>
      <trkpt lat="42.93926" lon="1.75376">
        <ele>868.20776367188</ele>
        <time>2012-04-08T09:53:29Z</time>
      </trkpt>
      <trkpt lat="42.93923" lon="1.75381">
        <ele>869.64990234375</ele>
        <time>2012-04-08T09:53:33Z</time>
      </trkpt>
      <trkpt lat="42.93917" lon="1.75389">
        <ele>872.53369140625</ele>
        <time>2012-04-08T09:53:40Z</time>
      </trkpt>
      <trkpt lat="42.93917" lon="1.7539">
        <ele>872.53369140625</ele>
        <time>2012-04-08T09:53:42Z</time>
      </trkpt>
      <trkpt lat="42.93913" lon="1.75395">
        <ele>873.01440429688</ele>
        <time>2012-04-08T09:53:47Z</time>
      </trkpt>
      <trkpt lat="42.93911" lon="1.75399">
        <ele>874.93701171875</ele>
        <time>2012-04-08T09:53:51Z</time>
      </trkpt>
      <trkpt lat="42.93909" lon="1.75402">
        <ele>875.41748046875</ele>
        <time>2012-04-08T09:53:55Z</time>
      </trkpt>
      <trkpt lat="42.93904" lon="1.75407">
        <ele>877.34057617188</ele>
        <time>2012-04-08T09:54:02Z</time>
      </trkpt>
      <trkpt lat="42.939" lon="1.75411">
        <ele>877.82104492188</ele>
        <time>2012-04-08T09:54:08Z</time>
      </trkpt>
      <trkpt lat="42.93895" lon="1.75416">
        <ele>880.22436523438</ele>
        <time>2012-04-08T09:54:13Z</time>
      </trkpt>
      <trkpt lat="42.93892" lon="1.75417">
        <ele>881.18579101562</ele>
        <time>2012-04-08T09:54:17Z</time>
      </trkpt>
      <trkpt lat="42.93883" lon="1.75418">
        <ele>881.18579101562</ele>
        <time>2012-04-08T09:54:27Z</time>
      </trkpt>
      <trkpt lat="42.93878" lon="1.75423">
        <ele>882.14697265625</ele>
        <time>2012-04-08T09:54:36Z</time>
      </trkpt>
      <trkpt lat="42.93875" lon="1.75424">
        <ele>884.06958007812</ele>
        <time>2012-04-08T09:54:43Z</time>
      </trkpt>
      <trkpt lat="42.93874" lon="1.7543">
        <ele>885.03100585938</ele>
        <time>2012-04-08T09:54:49Z</time>
      </trkpt>
      <trkpt lat="42.93869" lon="1.75431">
        <ele>886.95336914062</ele>
        <time>2012-04-08T09:54:55Z</time>
      </trkpt>
      <trkpt lat="42.93865" lon="1.75435">
        <ele>890.31811523438</ele>
        <time>2012-04-08T09:55:04Z</time>
      </trkpt>
      <trkpt lat="42.93862" lon="1.7544">
        <ele>892.24096679688</ele>
        <time>2012-04-08T09:55:11Z</time>
      </trkpt>
      <trkpt lat="42.93864" lon="1.75448">
        <ele>893.2021484375</ele>
        <time>2012-04-08T09:55:20Z</time>
      </trkpt>
      <trkpt lat="42.93866" lon="1.75451">
        <ele>894.16357421875</ele>
        <time>2012-04-08T09:55:27Z</time>
      </trkpt>
      <trkpt lat="42.93867" lon="1.75456">
        <ele>896.08618164062</ele>
        <time>2012-04-08T09:55:41Z</time>
      </trkpt>
      <trkpt lat="42.93869" lon="1.75461">
        <ele>897.52807617188</ele>
        <time>2012-04-08T09:55:47Z</time>
      </trkpt>
      <trkpt lat="42.93868" lon="1.75467">
        <ele>899.45068359375</ele>
        <time>2012-04-08T09:55:54Z</time>
      </trkpt>
      <trkpt lat="42.93867" lon="1.75476">
        <ele>901.85400390625</ele>
        <time>2012-04-08T09:56:03Z</time>
      </trkpt>
      <trkpt lat="42.93864" lon="1.75487">
        <ele>904.73779296875</ele>
        <time>2012-04-08T09:56:15Z</time>
      </trkpt>
      <trkpt lat="42.93861" lon="1.75492">
        <ele>904.73779296875</ele>
        <time>2012-04-08T09:56:21Z</time>
      </trkpt>
      <trkpt lat="42.93857" lon="1.75498">
        <ele>907.14111328125</ele>
        <time>2012-04-08T09:56:30Z</time>
      </trkpt>
      <trkpt lat="42.93853" lon="1.75503">
        <ele>909.06396484375</ele>
        <time>2012-04-08T09:56:38Z</time>
      </trkpt>
      <trkpt lat="42.93855" lon="1.75509">
        <ele>910.505859375</ele>
        <time>2012-04-08T09:56:45Z</time>
      </trkpt>
      <trkpt lat="42.93857" lon="1.7551">
        <ele>911.46728515625</ele>
        <time>2012-04-08T09:56:52Z</time>
      </trkpt>
      <trkpt lat="42.93861" lon="1.75513">
        <ele>913.87036132812</ele>
        <time>2012-04-08T09:56:58Z</time>
      </trkpt>
      <trkpt lat="42.93865" lon="1.75513">
        <ele>916.27368164062</ele>
        <time>2012-04-08T09:57:05Z</time>
      </trkpt>
      <trkpt lat="42.93867" lon="1.75515">
        <ele>917.71557617188</ele>
        <time>2012-04-08T09:57:11Z</time>
      </trkpt>
      <trkpt lat="42.93871" lon="1.75514">
        <ele>919.63842773438</ele>
        <time>2012-04-08T09:57:17Z</time>
      </trkpt>
      <trkpt lat="42.93872" lon="1.75513">
        <ele>920.11889648438</ele>
        <time>2012-04-08T09:57:22Z</time>
      </trkpt>
      <trkpt lat="42.93874" lon="1.75515">
        <ele>922.52221679688</ele>
        <time>2012-04-08T09:57:27Z</time>
      </trkpt>
      <trkpt lat="42.93879" lon="1.75515">
        <ele>924.44506835938</ele>
        <time>2012-04-08T09:57:33Z</time>
      </trkpt>
      <trkpt lat="42.93881" lon="1.75512">
        <ele>925.40625</ele>
        <time>2012-04-08T09:57:36Z</time>
      </trkpt>
      <trkpt lat="42.93882" lon="1.75514">
        <ele>927.3291015625</ele>
        <time>2012-04-08T09:57:42Z</time>
      </trkpt>
      <trkpt lat="42.93884" lon="1.75515">
        <ele>927.8095703125</ele>
        <time>2012-04-08T09:57:53Z</time>
      </trkpt>
      <trkpt lat="42.93887" lon="1.75518">
        <ele>929.73217773438</ele>
        <time>2012-04-08T09:57:58Z</time>
      </trkpt>
      <trkpt lat="42.93889" lon="1.75523">
        <ele>932.6162109375</ele>
        <time>2012-04-08T09:58:04Z</time>
      </trkpt>
      <trkpt lat="42.93891" lon="1.75529">
        <ele>935.01953125</ele>
        <time>2012-04-08T09:58:11Z</time>
      </trkpt>
      <trkpt lat="42.93893" lon="1.75531">
        <ele>935.98071289062</ele>
        <time>2012-04-08T09:58:16Z</time>
      </trkpt>
      <trkpt lat="42.93895" lon="1.75533">
        <ele>937.9033203125</ele>
        <time>2012-04-08T09:58:22Z</time>
      </trkpt>
      <trkpt lat="42.93899" lon="1.75536">
        <ele>939.82592773438</ele>
        <time>2012-04-08T09:58:29Z</time>
      </trkpt>
      <trkpt lat="42.93902" lon="1.7554">
        <ele>940.78735351562</ele>
        <time>2012-04-08T09:58:35Z</time>
      </trkpt>
      <trkpt lat="42.93906" lon="1.75544">
        <ele>942.2294921875</ele>
        <time>2012-04-08T09:58:43Z</time>
      </trkpt>
      <trkpt lat="42.93908" lon="1.75549">
        <ele>942.2294921875</ele>
        <time>2012-04-08T09:58:50Z</time>
      </trkpt>
      <trkpt lat="42.93909" lon="1.7555">
        <ele>942.2294921875</ele>
        <time>2012-04-08T09:58:57Z</time>
      </trkpt>
      <trkpt lat="42.93911" lon="1.75552">
        <ele>941.74877929688</ele>
        <time>2012-04-08T09:59:03Z</time>
      </trkpt>
      <trkpt lat="42.93914" lon="1.75556">
        <ele>942.71020507812</ele>
        <time>2012-04-08T09:59:08Z</time>
      </trkpt>
      <trkpt lat="42.93913" lon="1.75557">
        <ele>943.67138671875</ele>
        <time>2012-04-08T09:59:13Z</time>
      </trkpt>
      <trkpt lat="42.93912" lon="1.75557">
        <ele>944.15209960938</ele>
        <time>2012-04-08T09:59:21Z</time>
      </trkpt>
      <trkpt lat="42.93912" lon="1.75558">
        <ele>943.67138671875</ele>
        <time>2012-04-08T09:59:36Z</time>
      </trkpt>
      <trkpt lat="42.9391" lon="1.75556">
        <ele>944.15209960938</ele>
        <time>2012-04-08T09:59:45Z</time>
      </trkpt>
      <trkpt lat="42.9391" lon="1.75558">
        <ele>945.11328125</ele>
        <time>2012-04-08T09:59:51Z</time>
      </trkpt>
      <trkpt lat="42.93911" lon="1.75563">
        <ele>946.55541992188</ele>
        <time>2012-04-08T09:59:56Z</time>
      </trkpt>
      <trkpt lat="42.9391" lon="1.75559">
        <ele>946.07470703125</ele>
        <time>2012-04-08T10:00:01Z</time>
      </trkpt>
      <trkpt lat="42.93909" lon="1.75556">
        <ele>945.11328125</ele>
        <time>2012-04-08T10:00:08Z</time>
      </trkpt>
      <trkpt lat="42.93909" lon="1.75555">
        <ele>945.11328125</ele>
        <time>2012-04-08T10:00:15Z</time>
      </trkpt>
      <trkpt lat="42.93909" lon="1.75556">
        <ele>944.63256835938</ele>
        <time>2012-04-08T10:00:29Z</time>
      </trkpt>
      <trkpt lat="42.93907" lon="1.75552">
        <ele>943.67138671875</ele>
        <time>2012-04-08T10:00:41Z</time>
      </trkpt>
      <trkpt lat="42.93907" lon="1.75552">
        <ele>942.2294921875</ele>
        <time>2012-04-08T10:00:48Z</time>
      </trkpt>
      <trkpt lat="42.9391" lon="1.75551">
        <ele>941.26806640625</ele>
        <time>2012-04-08T10:01:09Z</time>
      </trkpt>
      <trkpt lat="42.93912" lon="1.75553">
        <ele>940.78735351562</ele>
        <time>2012-04-08T10:01:11Z</time>
      </trkpt>
      <trkpt lat="42.93918" lon="1.75554">
        <ele>941.74877929688</ele>
        <time>2012-04-08T10:01:17Z</time>
      </trkpt>
      <trkpt lat="42.93925" lon="1.75551">
        <ele>942.2294921875</ele>
        <time>2012-04-08T10:01:23Z</time>
      </trkpt>
      <trkpt lat="42.93932" lon="1.75543">
        <ele>940.30688476562</ele>
        <time>2012-04-08T10:01:31Z</time>
      </trkpt>
      <trkpt lat="42.93938" lon="1.75539">
        <ele>940.30688476562</ele>
        <time>2012-04-08T10:01:36Z</time>
      </trkpt>
      <trkpt lat="42.93942" lon="1.75534">
        <ele>938.38403320312</ele>
        <time>2012-04-08T10:01:41Z</time>
      </trkpt>
      <trkpt lat="42.93943" lon="1.75533">
        <ele>937.9033203125</ele>
        <time>2012-04-08T10:01:42Z</time>
      </trkpt>
      <trkpt lat="42.93954" lon="1.75523">
        <ele>935.5</ele>
        <time>2012-04-08T10:01:49Z</time>
      </trkpt>
      <trkpt lat="42.93969" lon="1.75511">
        <ele>933.0966796875</ele>
        <time>2012-04-08T10:01:56Z</time>
      </trkpt>
      <trkpt lat="42.93982" lon="1.75502">
        <ele>931.17431640625</ele>
        <time>2012-04-08T10:02:02Z</time>
      </trkpt>
      <trkpt lat="42.93993" lon="1.75492">
        <ele>929.73217773438</ele>
        <time>2012-04-08T10:02:08Z</time>
      </trkpt>
      <trkpt lat="42.94006" lon="1.75479">
        <ele>928.77099609375</ele>
        <time>2012-04-08T10:02:15Z</time>
      </trkpt>
      <trkpt lat="42.94012" lon="1.75462">
        <ele>928.77099609375</ele>
        <time>2012-04-08T10:02:21Z</time>
      </trkpt>
      <trkpt lat="42.94016" lon="1.75448">
        <ele>928.77099609375</ele>
        <time>2012-04-08T10:02:26Z</time>
      </trkpt>
      <trkpt lat="42.94021" lon="1.75435">
        <ele>928.77099609375</ele>
        <time>2012-04-08T10:02:31Z</time>
      </trkpt>
      <trkpt lat="42.94028" lon="1.75423">
        <ele>928.77099609375</ele>
        <time>2012-04-08T10:02:36Z</time>
      </trkpt>
      <trkpt lat="42.94041" lon="1.75409">
        <ele>927.8095703125</ele>
        <time>2012-04-08T10:02:43Z</time>
      </trkpt>
      <trkpt lat="42.94047" lon="1.75399">
        <ele>926.84838867188</ele>
        <time>2012-04-08T10:02:48Z</time>
      </trkpt>
      <trkpt lat="42.94054" lon="1.75384">
        <ele>926.84838867188</ele>
        <time>2012-04-08T10:02:54Z</time>
      </trkpt>
      <trkpt lat="42.94063" lon="1.75369">
        <ele>926.36767578125</ele>
        <time>2012-04-08T10:03:00Z</time>
      </trkpt>
      <trkpt lat="42.94072" lon="1.75355">
        <ele>925.40625</ele>
        <time>2012-04-08T10:03:06Z</time>
      </trkpt>
      <trkpt lat="42.94078" lon="1.7535">
        <ele>925.40625</ele>
        <time>2012-04-08T10:03:11Z</time>
      </trkpt>
      <trkpt lat="42.94082" lon="1.75348">
        <ele>925.88696289062</ele>
        <time>2012-04-08T10:03:15Z</time>
      </trkpt>
      <trkpt lat="42.94088" lon="1.75342">
        <ele>926.84838867188</ele>
        <time>2012-04-08T10:03:21Z</time>
      </trkpt>
      <trkpt lat="42.94091" lon="1.75338">
        <ele>926.84838867188</ele>
        <time>2012-04-08T10:03:25Z</time>
      </trkpt>
      <trkpt lat="42.94094" lon="1.75333">
        <ele>926.84838867188</ele>
        <time>2012-04-08T10:03:31Z</time>
      </trkpt>
      <trkpt lat="42.94097" lon="1.75327">
        <ele>927.3291015625</ele>
        <time>2012-04-08T10:03:36Z</time>
      </trkpt>
      <trkpt lat="42.94098" lon="1.75326">
        <ele>927.3291015625</ele>
        <time>2012-04-08T10:03:37Z</time>
      </trkpt>
      <trkpt lat="42.94103" lon="1.75319">
        <ele>928.29028320312</ele>
        <time>2012-04-08T10:03:43Z</time>
      </trkpt>
      <trkpt lat="42.94104" lon="1.7531">
        <ele>929.73217773438</ele>
        <time>2012-04-08T10:03:47Z</time>
      </trkpt>
      <trkpt lat="42.94104" lon="1.75299">
        <ele>929.73217773438</ele>
        <time>2012-04-08T10:03:51Z</time>
      </trkpt>
      <trkpt lat="42.94105" lon="1.75289">
        <ele>928.77099609375</ele>
        <time>2012-04-08T10:03:55Z</time>
      </trkpt>
      <trkpt lat="42.94111" lon="1.75279">
        <ele>925.88696289062</ele>
        <time>2012-04-08T10:04:01Z</time>
      </trkpt>
      <trkpt lat="42.94113" lon="1.75275">
        <ele>924.92578125</ele>
        <time>2012-04-08T10:04:03Z</time>
      </trkpt>
      <trkpt lat="42.94118" lon="1.75262">
        <ele>922.52221679688</ele>
        <time>2012-04-08T10:04:09Z</time>
      </trkpt>
      <trkpt lat="42.94124" lon="1.75253">
        <ele>918.67700195312</ele>
        <time>2012-04-08T10:04:15Z</time>
      </trkpt>
      <trkpt lat="42.94129" lon="1.75246">
        <ele>917.71557617188</ele>
        <time>2012-04-08T10:04:20Z</time>
      </trkpt>
      <trkpt lat="42.9413" lon="1.75246">
        <ele>917.71557617188</ele>
        <time>2012-04-08T10:04:22Z</time>
      </trkpt>
      <trkpt lat="42.94134" lon="1.75237">
        <ele>917.23510742188</ele>
        <time>2012-04-08T10:04:27Z</time>
      </trkpt>
      <trkpt lat="42.94137" lon="1.7523">
        <ele>917.23510742188</ele>
        <time>2012-04-08T10:04:31Z</time>
      </trkpt>
      <trkpt lat="42.94139" lon="1.75226">
        <ele>915.79321289062</ele>
        <time>2012-04-08T10:04:34Z</time>
      </trkpt>
      <trkpt lat="42.94144" lon="1.75219">
        <ele>914.35107421875</ele>
        <time>2012-04-08T10:04:39Z</time>
      </trkpt>
      <trkpt lat="42.94146" lon="1.75214">
        <ele>913.38989257812</ele>
        <time>2012-04-08T10:04:42Z</time>
      </trkpt>
      <trkpt lat="42.94151" lon="1.75206">
        <ele>911.94799804688</ele>
        <time>2012-04-08T10:04:48Z</time>
      </trkpt>
      <trkpt lat="42.94153" lon="1.75199">
        <ele>910.02514648438</ele>
        <time>2012-04-08T10:04:52Z</time>
      </trkpt>
      <trkpt lat="42.94154" lon="1.75193">
        <ele>909.54467773438</ele>
        <time>2012-04-08T10:04:57Z</time>
      </trkpt>
      <trkpt lat="42.94153" lon="1.7519">
        <ele>908.58325195312</ele>
        <time>2012-04-08T10:05:00Z</time>
      </trkpt>
      <trkpt lat="42.94152" lon="1.75182">
        <ele>907.14111328125</ele>
        <time>2012-04-08T10:05:07Z</time>
      </trkpt>
      <trkpt lat="42.94152" lon="1.75177">
        <ele>905.69921875</ele>
        <time>2012-04-08T10:05:10Z</time>
      </trkpt>
      <trkpt lat="42.94152" lon="1.75171">
        <ele>904.25732421875</ele>
        <time>2012-04-08T10:05:15Z</time>
      </trkpt>
      <trkpt lat="42.94153" lon="1.75168">
        <ele>903.2958984375</ele>
        <time>2012-04-08T10:05:20Z</time>
      </trkpt>
      <trkpt lat="42.94155" lon="1.75167">
        <ele>901.37329101562</ele>
        <time>2012-04-08T10:05:25Z</time>
      </trkpt>
      <trkpt lat="42.94158" lon="1.75163">
        <ele>899.93139648438</ele>
        <time>2012-04-08T10:05:30Z</time>
      </trkpt>
      <trkpt lat="42.94161" lon="1.75162">
        <ele>899.45068359375</ele>
        <time>2012-04-08T10:05:33Z</time>
      </trkpt>
      <trkpt lat="42.94168" lon="1.75163">
        <ele>898.96997070312</ele>
        <time>2012-04-08T10:05:38Z</time>
      </trkpt>
      <trkpt lat="42.94169" lon="1.75163">
        <ele>898.96997070312</ele>
        <time>2012-04-08T10:05:39Z</time>
      </trkpt>
      <trkpt lat="42.94172" lon="1.75162">
        <ele>898.96997070312</ele>
        <time>2012-04-08T10:05:43Z</time>
      </trkpt>
      <trkpt lat="42.94178" lon="1.7516">
        <ele>897.52807617188</ele>
        <time>2012-04-08T10:05:46Z</time>
      </trkpt>
      <trkpt lat="42.94187" lon="1.75147">
        <ele>895.12475585938</ele>
        <time>2012-04-08T10:05:51Z</time>
      </trkpt>
      <trkpt lat="42.94191" lon="1.75144">
        <ele>894.64404296875</ele>
        <time>2012-04-08T10:05:53Z</time>
      </trkpt>
      <trkpt lat="42.94199" lon="1.75133">
        <ele>892.7216796875</ele>
        <time>2012-04-08T10:05:58Z</time>
      </trkpt>
      <trkpt lat="42.94207" lon="1.75126">
        <ele>891.76000976562</ele>
        <time>2012-04-08T10:06:02Z</time>
      </trkpt>
      <trkpt lat="42.94214" lon="1.75119">
        <ele>890.31811523438</ele>
        <time>2012-04-08T10:06:07Z</time>
      </trkpt>
      <trkpt lat="42.94219" lon="1.75117">
        <ele>888.87622070312</ele>
        <time>2012-04-08T10:06:11Z</time>
      </trkpt>
      <trkpt lat="42.94221" lon="1.75121">
        <ele>887.91479492188</ele>
        <time>2012-04-08T10:06:13Z</time>
      </trkpt>
      <trkpt lat="42.94219" lon="1.75131">
        <ele>885.9921875</ele>
        <time>2012-04-08T10:06:22Z</time>
      </trkpt>
      <trkpt lat="42.94217" lon="1.75138">
        <ele>884.55029296875</ele>
        <time>2012-04-08T10:06:29Z</time>
      </trkpt>
      <trkpt lat="42.94217" lon="1.75149">
        <ele>883.10815429688</ele>
        <time>2012-04-08T10:06:37Z</time>
      </trkpt>
      <trkpt lat="42.94217" lon="1.75164">
        <ele>881.66625976562</ele>
        <time>2012-04-08T10:06:45Z</time>
      </trkpt>
      <trkpt lat="42.94217" lon="1.75183">
        <ele>882.14697265625</ele>
        <time>2012-04-08T10:06:50Z</time>
      </trkpt>
      <trkpt lat="42.94217" lon="1.75188">
        <ele>882.14697265625</ele>
        <time>2012-04-08T10:06:52Z</time>
      </trkpt>
      <trkpt lat="42.94217" lon="1.75191">
        <ele>882.62768554688</ele>
        <time>2012-04-08T10:06:55Z</time>
      </trkpt>
      <trkpt lat="42.94217" lon="1.75204">
        <ele>884.06958007812</ele>
        <time>2012-04-08T10:07:00Z</time>
      </trkpt>
      <trkpt lat="42.94215" lon="1.75222">
        <ele>886.47290039062</ele>
        <time>2012-04-08T10:07:05Z</time>
      </trkpt>
      <trkpt lat="42.94215" lon="1.75229">
        <ele>887.43408203125</ele>
        <time>2012-04-08T10:07:07Z</time>
      </trkpt>
      <trkpt lat="42.94215" lon="1.75246">
        <ele>889.35668945312</ele>
        <time>2012-04-08T10:07:12Z</time>
      </trkpt>
      <trkpt lat="42.94215" lon="1.75264">
        <ele>889.83740234375</ele>
        <time>2012-04-08T10:07:17Z</time>
      </trkpt>
      <trkpt lat="42.94217" lon="1.75271">
        <ele>889.35668945312</ele>
        <time>2012-04-08T10:07:19Z</time>
      </trkpt>
      <trkpt lat="42.94218" lon="1.75278">
        <ele>889.35668945312</ele>
        <time>2012-04-08T10:07:21Z</time>
      </trkpt>
      <trkpt lat="42.9422" lon="1.75295">
        <ele>887.91479492188</ele>
        <time>2012-04-08T10:07:26Z</time>
      </trkpt>
      <trkpt lat="42.94221" lon="1.75309">
        <ele>886.95336914062</ele>
        <time>2012-04-08T10:07:30Z</time>
      </trkpt>
      <trkpt lat="42.94223" lon="1.75322">
        <ele>885.9921875</ele>
        <time>2012-04-08T10:07:34Z</time>
      </trkpt>
      <trkpt lat="42.94223" lon="1.75329">
        <ele>885.9921875</ele>
        <time>2012-04-08T10:07:36Z</time>
      </trkpt>
      <trkpt lat="42.94225" lon="1.75346">
        <ele>883.5888671875</ele>
        <time>2012-04-08T10:07:42Z</time>
      </trkpt>
      <trkpt lat="42.94226" lon="1.75364">
        <ele>882.14697265625</ele>
        <time>2012-04-08T10:07:47Z</time>
      </trkpt>
      <trkpt lat="42.94226" lon="1.7538">
        <ele>881.66625976562</ele>
        <time>2012-04-08T10:07:52Z</time>
      </trkpt>
      <trkpt lat="42.94226" lon="1.75388">
        <ele>880.705078125</ele>
        <time>2012-04-08T10:07:54Z</time>
      </trkpt>
      <trkpt lat="42.94226" lon="1.75403">
        <ele>880.22436523438</ele>
        <time>2012-04-08T10:07:58Z</time>
      </trkpt>
      <trkpt lat="42.9423" lon="1.75423">
        <ele>880.22436523438</ele>
        <time>2012-04-08T10:08:03Z</time>
      </trkpt>
      <trkpt lat="42.94231" lon="1.75444">
        <ele>879.26293945312</ele>
        <time>2012-04-08T10:08:09Z</time>
      </trkpt>
      <trkpt lat="42.9423" lon="1.75461">
        <ele>876.85986328125</ele>
        <time>2012-04-08T10:08:14Z</time>
      </trkpt>
      <trkpt lat="42.94226" lon="1.75477">
        <ele>875.89819335938</ele>
        <time>2012-04-08T10:08:19Z</time>
      </trkpt>
      <trkpt lat="42.94224" lon="1.75497">
        <ele>875.89819335938</ele>
        <time>2012-04-08T10:08:25Z</time>
      </trkpt>
      <trkpt lat="42.94224" lon="1.75512">
        <ele>875.41748046875</ele>
        <time>2012-04-08T10:08:31Z</time>
      </trkpt>
      <trkpt lat="42.94225" lon="1.75522">
        <ele>874.93701171875</ele>
        <time>2012-04-08T10:08:36Z</time>
      </trkpt>
      <trkpt lat="42.9423" lon="1.75529">
        <ele>873.4951171875</ele>
        <time>2012-04-08T10:08:41Z</time>
      </trkpt>
      <trkpt lat="42.94231" lon="1.75533">
        <ele>873.9755859375</ele>
        <time>2012-04-08T10:08:44Z</time>
      </trkpt>
      <trkpt lat="42.94233" lon="1.75536">
        <ele>873.9755859375</ele>
        <time>2012-04-08T10:08:47Z</time>
      </trkpt>
      <trkpt lat="42.94237" lon="1.75543">
        <ele>873.01440429688</ele>
        <time>2012-04-08T10:08:52Z</time>
      </trkpt>
      <trkpt lat="42.94242" lon="1.75555">
        <ele>872.53369140625</ele>
        <time>2012-04-08T10:08:59Z</time>
      </trkpt>
      <trkpt lat="42.94245" lon="1.75562">
        <ele>871.572265625</ele>
        <time>2012-04-08T10:09:04Z</time>
      </trkpt>
      <trkpt lat="42.94249" lon="1.75567">
        <ele>871.091796875</ele>
        <time>2012-04-08T10:09:09Z</time>
      </trkpt>
      <trkpt lat="42.94252" lon="1.75573">
        <ele>871.091796875</ele>
        <time>2012-04-08T10:09:13Z</time>
      </trkpt>
      <trkpt lat="42.94258" lon="1.75582">
        <ele>870.13037109375</ele>
        <time>2012-04-08T10:09:19Z</time>
      </trkpt>
      <trkpt lat="42.9426" lon="1.75586">
        <ele>870.61108398438</ele>
        <time>2012-04-08T10:09:23Z</time>
      </trkpt>
      <trkpt lat="42.94262" lon="1.75597">
        <ele>869.64990234375</ele>
        <time>2012-04-08T10:09:29Z</time>
      </trkpt>
      <trkpt lat="42.94263" lon="1.75602">
        <ele>869.64990234375</ele>
        <time>2012-04-08T10:09:32Z</time>
      </trkpt>
      <trkpt lat="42.94263" lon="1.75608">
        <ele>869.16918945312</ele>
        <time>2012-04-08T10:09:35Z</time>
      </trkpt>
      <trkpt lat="42.94266" lon="1.75614">
        <ele>867.24658203125</ele>
        <time>2012-04-08T10:09:39Z</time>
      </trkpt>
      <trkpt lat="42.94272" lon="1.75625">
        <ele>865.8046875</ele>
        <time>2012-04-08T10:09:46Z</time>
      </trkpt>
      <trkpt lat="42.94279" lon="1.75635">
        <ele>865.32397460938</ele>
        <time>2012-04-08T10:09:54Z</time>
      </trkpt>
      <trkpt lat="42.94283" lon="1.75643">
        <ele>866.28515625</ele>
        <time>2012-04-08T10:09:59Z</time>
      </trkpt>
      <trkpt lat="42.94288" lon="1.75649">
        <ele>865.8046875</ele>
        <time>2012-04-08T10:10:04Z</time>
      </trkpt>
      <trkpt lat="42.94294" lon="1.75661">
        <ele>867.24658203125</ele>
        <time>2012-04-08T10:10:09Z</time>
      </trkpt>
      <trkpt lat="42.94302" lon="1.75674">
        <ele>868.6884765625</ele>
        <time>2012-04-08T10:10:14Z</time>
      </trkpt>
      <trkpt lat="42.94308" lon="1.75688">
        <ele>869.16918945312</ele>
        <time>2012-04-08T10:10:19Z</time>
      </trkpt>
      <trkpt lat="42.94315" lon="1.75705">
        <ele>868.20776367188</ele>
        <time>2012-04-08T10:10:24Z</time>
      </trkpt>
      <trkpt lat="42.94318" lon="1.75727">
        <ele>863.8818359375</ele>
        <time>2012-04-08T10:10:30Z</time>
      </trkpt>
      <trkpt lat="42.94318" lon="1.75745">
        <ele>861.95947265625</ele>
        <time>2012-04-08T10:10:35Z</time>
      </trkpt>
      <trkpt lat="42.94319" lon="1.75753">
        <ele>862.43994140625</ele>
        <time>2012-04-08T10:10:37Z</time>
      </trkpt>
      <trkpt lat="42.94319" lon="1.75769">
        <ele>863.8818359375</ele>
        <time>2012-04-08T10:10:42Z</time>
      </trkpt>
      <trkpt lat="42.9432" lon="1.75782">
        <ele>863.4013671875</ele>
        <time>2012-04-08T10:10:47Z</time>
      </trkpt>
      <trkpt lat="42.94324" lon="1.75797">
        <ele>860.03662109375</ele>
        <time>2012-04-08T10:10:52Z</time>
      </trkpt>
      <trkpt lat="42.94326" lon="1.758">
        <ele>860.51733398438</ele>
        <time>2012-04-08T10:10:53Z</time>
      </trkpt>
      <trkpt lat="42.94332" lon="1.75811">
        <ele>859.55590820312</ele>
        <time>2012-04-08T10:10:57Z</time>
      </trkpt>
      <trkpt lat="42.94341" lon="1.75826">
        <ele>858.59448242188</ele>
        <time>2012-04-08T10:11:02Z</time>
      </trkpt>
      <trkpt lat="42.94345" lon="1.7584">
        <ele>856.19116210938</ele>
        <time>2012-04-08T10:11:07Z</time>
      </trkpt>
      <trkpt lat="42.94349" lon="1.75858">
        <ele>850.42358398438</ele>
        <time>2012-04-08T10:11:13Z</time>
      </trkpt>
      <trkpt lat="42.94353" lon="1.75869">
        <ele>848.50073242188</ele>
        <time>2012-04-08T10:11:17Z</time>
      </trkpt>
      <trkpt lat="42.94357" lon="1.75884">
        <ele>847.05883789062</ele>
        <time>2012-04-08T10:11:22Z</time>
      </trkpt>
      <trkpt lat="42.94358" lon="1.75888">
        <ele>844.17504882812</ele>
        <time>2012-04-08T10:11:28Z</time>
      </trkpt>
      <trkpt lat="42.94357" lon="1.75896">
        <ele>841.771484375</ele>
        <time>2012-04-08T10:11:33Z</time>
      </trkpt>
      <trkpt lat="42.94356" lon="1.75897">
        <ele>840.81005859375</ele>
        <time>2012-04-08T10:11:34Z</time>
      </trkpt>
      <trkpt lat="42.94351" lon="1.75908">
        <ele>841.771484375</ele>
        <time>2012-04-08T10:11:40Z</time>
      </trkpt>
      <trkpt lat="42.94349" lon="1.75919">
        <ele>844.17504882812</ele>
        <time>2012-04-08T10:11:46Z</time>
      </trkpt>
      <trkpt lat="42.94347" lon="1.75927">
        <ele>843.69409179688</ele>
        <time>2012-04-08T10:11:50Z</time>
      </trkpt>
      <trkpt lat="42.94348" lon="1.75936">
        <ele>842.25219726562</ele>
        <time>2012-04-08T10:11:55Z</time>
      </trkpt>
      <trkpt lat="42.94349" lon="1.75946">
        <ele>840.81005859375</ele>
        <time>2012-04-08T10:12:00Z</time>
      </trkpt>
      <trkpt lat="42.9435" lon="1.75949">
        <ele>841.29077148438</ele>
        <time>2012-04-08T10:12:02Z</time>
      </trkpt>
      <trkpt lat="42.94353" lon="1.75958">
        <ele>841.29077148438</ele>
        <time>2012-04-08T10:12:08Z</time>
      </trkpt>
      <trkpt lat="42.94355" lon="1.75966">
        <ele>840.32958984375</ele>
        <time>2012-04-08T10:12:11Z</time>
      </trkpt>
      <trkpt lat="42.94357" lon="1.75978">
        <ele>837.92626953125</ele>
        <time>2012-04-08T10:12:17Z</time>
      </trkpt>
      <trkpt lat="42.9436" lon="1.75986">
        <ele>836.96484375</ele>
        <time>2012-04-08T10:12:22Z</time>
      </trkpt>
      <trkpt lat="42.94363" lon="1.75994">
        <ele>834.56176757812</ele>
        <time>2012-04-08T10:12:26Z</time>
      </trkpt>
      <trkpt lat="42.94368" lon="1.76001">
        <ele>831.677734375</ele>
        <time>2012-04-08T10:12:30Z</time>
      </trkpt>
      <trkpt lat="42.9437" lon="1.76014">
        <ele>827.83227539062</ele>
        <time>2012-04-08T10:12:36Z</time>
      </trkpt>
      <trkpt lat="42.94371" lon="1.76019">
        <ele>826.39038085938</ele>
        <time>2012-04-08T10:12:38Z</time>
      </trkpt>
      <trkpt lat="42.94373" lon="1.76028">
        <ele>822.064453125</ele>
        <time>2012-04-08T10:12:43Z</time>
      </trkpt>
      <trkpt lat="42.94368" lon="1.76042">
        <ele>823.50659179688</ele>
        <time>2012-04-08T10:12:50Z</time>
      </trkpt>
      <trkpt lat="42.94364" lon="1.76056">
        <ele>824.94848632812</ele>
        <time>2012-04-08T10:12:57Z</time>
      </trkpt>
      <trkpt lat="42.94361" lon="1.76069">
        <ele>825.42895507812</ele>
        <time>2012-04-08T10:13:04Z</time>
      </trkpt>
      <trkpt lat="42.94361" lon="1.76071">
        <ele>824.94848632812</ele>
        <time>2012-04-08T10:13:05Z</time>
      </trkpt>
      <trkpt lat="42.94358" lon="1.76082">
        <ele>824.94848632812</ele>
        <time>2012-04-08T10:13:10Z</time>
      </trkpt>
      <trkpt lat="42.94357" lon="1.76087">
        <ele>823.50659179688</ele>
        <time>2012-04-08T10:13:14Z</time>
      </trkpt>
      <trkpt lat="42.94355" lon="1.76092">
        <ele>821.58374023438</ele>
        <time>2012-04-08T10:13:17Z</time>
      </trkpt>
      <trkpt lat="42.94352" lon="1.76104">
        <ele>822.064453125</ele>
        <time>2012-04-08T10:13:23Z</time>
      </trkpt>
      <trkpt lat="42.94351" lon="1.76114">
        <ele>821.58374023438</ele>
        <time>2012-04-08T10:13:27Z</time>
      </trkpt>
      <trkpt lat="42.94349" lon="1.76125">
        <ele>821.10327148438</ele>
        <time>2012-04-08T10:13:32Z</time>
      </trkpt>
      <trkpt lat="42.94349" lon="1.76133">
        <ele>821.10327148438</ele>
        <time>2012-04-08T10:13:36Z</time>
      </trkpt>
      <trkpt lat="42.94349" lon="1.76137">
        <ele>821.58374023438</ele>
        <time>2012-04-08T10:13:38Z</time>
      </trkpt>
      <trkpt lat="42.94346" lon="1.76149">
        <ele>818.21923828125</ele>
        <time>2012-04-08T10:13:45Z</time>
      </trkpt>
      <trkpt lat="42.94345" lon="1.76153">
        <ele>817.73852539062</ele>
        <time>2012-04-08T10:13:47Z</time>
      </trkpt>
      <trkpt lat="42.94341" lon="1.76166">
        <ele>816.77734375</ele>
        <time>2012-04-08T10:13:54Z</time>
      </trkpt>
      <trkpt lat="42.94338" lon="1.76174">
        <ele>815.81616210938</ele>
        <time>2012-04-08T10:13:58Z</time>
      </trkpt>
      <trkpt lat="42.94337" lon="1.76179">
        <ele>813.41284179688</ele>
        <time>2012-04-08T10:14:02Z</time>
      </trkpt>
      <trkpt lat="42.94336" lon="1.76184">
        <ele>813.41284179688</ele>
        <time>2012-04-08T10:14:05Z</time>
      </trkpt>
      <trkpt lat="42.94336" lon="1.76187">
        <ele>812.93212890625</ele>
        <time>2012-04-08T10:14:07Z</time>
      </trkpt>
      <trkpt lat="42.94334" lon="1.76198">
        <ele>814.85473632812</ele>
        <time>2012-04-08T10:14:12Z</time>
      </trkpt>
      <trkpt lat="42.94334" lon="1.76206">
        <ele>816.29663085938</ele>
        <time>2012-04-08T10:14:17Z</time>
      </trkpt>
      <trkpt lat="42.94335" lon="1.76214">
        <ele>818.69995117188</ele>
        <time>2012-04-08T10:14:21Z</time>
      </trkpt>
      <trkpt lat="42.94333" lon="1.76227">
        <ele>818.69995117188</ele>
        <time>2012-04-08T10:14:27Z</time>
      </trkpt>
      <trkpt lat="42.94329" lon="1.76228">
        <ele>825.90966796875</ele>
        <time>2012-04-08T10:14:37Z</time>
      </trkpt>
      <trkpt lat="42.94327" lon="1.76231">
        <ele>827.35180664062</ele>
        <time>2012-04-08T10:14:45Z</time>
      </trkpt>
      <trkpt lat="42.94328" lon="1.76241">
        <ele>824.4677734375</ele>
        <time>2012-04-08T10:14:50Z</time>
      </trkpt>
      <trkpt lat="42.94329" lon="1.76246">
        <ele>822.064453125</ele>
        <time>2012-04-08T10:14:54Z</time>
      </trkpt>
      <trkpt lat="42.9433" lon="1.76251">
        <ele>820.14184570312</ele>
        <time>2012-04-08T10:14:56Z</time>
      </trkpt>
      <trkpt lat="42.94331" lon="1.7626">
        <ele>815.81616210938</ele>
        <time>2012-04-08T10:15:01Z</time>
      </trkpt>
      <trkpt lat="42.94331" lon="1.76266">
        <ele>812.93212890625</ele>
        <time>2012-04-08T10:15:04Z</time>
      </trkpt>
      <trkpt lat="42.94332" lon="1.7628">
        <ele>811.00927734375</ele>
        <time>2012-04-08T10:15:09Z</time>
      </trkpt>
      <trkpt lat="42.9433" lon="1.76286">
        <ele>810.0478515625</ele>
        <time>2012-04-08T10:15:12Z</time>
      </trkpt>
      <trkpt lat="42.94327" lon="1.76297">
        <ele>807.64477539062</ele>
        <time>2012-04-08T10:15:17Z</time>
      </trkpt>
      <trkpt lat="42.94328" lon="1.76307">
        <ele>807.64477539062</ele>
        <time>2012-04-08T10:15:22Z</time>
      </trkpt>
      <trkpt lat="42.94325" lon="1.76323">
        <ele>805.72216796875</ele>
        <time>2012-04-08T10:15:27Z</time>
      </trkpt>
      <trkpt lat="42.94324" lon="1.76339">
        <ele>801.876953125</ele>
        <time>2012-04-08T10:15:32Z</time>
      </trkpt>
      <trkpt lat="42.94324" lon="1.7635">
        <ele>799.4736328125</ele>
        <time>2012-04-08T10:15:36Z</time>
      </trkpt>
      <trkpt lat="42.94322" lon="1.76362">
        <ele>798.99291992188</ele>
        <time>2012-04-08T10:15:40Z</time>
      </trkpt>
      <trkpt lat="42.9432" lon="1.76373">
        <ele>797.55102539062</ele>
        <time>2012-04-08T10:15:45Z</time>
      </trkpt>
      <trkpt lat="42.94317" lon="1.76389">
        <ele>798.03173828125</ele>
        <time>2012-04-08T10:15:50Z</time>
      </trkpt>
      <trkpt lat="42.94316" lon="1.76394">
        <ele>797.55102539062</ele>
        <time>2012-04-08T10:15:52Z</time>
      </trkpt>
      <trkpt lat="42.9431" lon="1.76413">
        <ele>797.0703125</ele>
        <time>2012-04-08T10:15:57Z</time>
      </trkpt>
      <trkpt lat="42.94304" lon="1.7643">
        <ele>795.1474609375</ele>
        <time>2012-04-08T10:16:02Z</time>
      </trkpt>
      <trkpt lat="42.94302" lon="1.76449">
        <ele>794.18627929688</ele>
        <time>2012-04-08T10:16:07Z</time>
      </trkpt>
      <trkpt lat="42.943" lon="1.76467">
        <ele>794.18627929688</ele>
        <time>2012-04-08T10:16:12Z</time>
      </trkpt>
      <trkpt lat="42.94296" lon="1.76486">
        <ele>791.78295898438</ele>
        <time>2012-04-08T10:16:17Z</time>
      </trkpt>
      <trkpt lat="42.94292" lon="1.76502">
        <ele>789.8603515625</ele>
        <time>2012-04-08T10:16:21Z</time>
      </trkpt>
      <trkpt lat="42.94287" lon="1.76518">
        <ele>786.01513671875</ele>
        <time>2012-04-08T10:16:26Z</time>
      </trkpt>
      <trkpt lat="42.94281" lon="1.7653">
        <ele>784.09252929688</ele>
        <time>2012-04-08T10:16:30Z</time>
      </trkpt>
      <trkpt lat="42.94274" lon="1.76539">
        <ele>783.13110351562</ele>
        <time>2012-04-08T10:16:34Z</time>
      </trkpt>
      <trkpt lat="42.94266" lon="1.76554">
        <ele>783.13110351562</ele>
        <time>2012-04-08T10:16:40Z</time>
      </trkpt>
      <trkpt lat="42.94265" lon="1.76556">
        <ele>782.65063476562</ele>
        <time>2012-04-08T10:16:41Z</time>
      </trkpt>
      <trkpt lat="42.94266" lon="1.76562">
        <ele>783.13110351562</ele>
        <time>2012-04-08T10:16:46Z</time>
      </trkpt>
      <trkpt lat="42.94266" lon="1.76571">
        <ele>778.32446289062</ele>
        <time>2012-04-08T10:16:51Z</time>
      </trkpt>
      <trkpt lat="42.94266" lon="1.76574">
        <ele>775.92114257812</ele>
        <time>2012-04-08T10:16:53Z</time>
      </trkpt>
      <trkpt lat="42.94273" lon="1.76586">
        <ele>776.88256835938</ele>
        <time>2012-04-08T10:16:58Z</time>
      </trkpt>
      <trkpt lat="42.94275" lon="1.76591">
        <ele>776.40185546875</ele>
        <time>2012-04-08T10:17:00Z</time>
      </trkpt>
      <trkpt lat="42.94282" lon="1.76604">
        <ele>775.4404296875</ele>
        <time>2012-04-08T10:17:05Z</time>
      </trkpt>
      <trkpt lat="42.94288" lon="1.76611">
        <ele>773.51806640625</ele>
        <time>2012-04-08T10:17:09Z</time>
      </trkpt>
      <trkpt lat="42.94296" lon="1.76624">
        <ele>770.63403320312</ele>
        <time>2012-04-08T10:17:15Z</time>
      </trkpt>
      <trkpt lat="42.943" lon="1.76627">
        <ele>768.71142578125</ele>
        <time>2012-04-08T10:17:18Z</time>
      </trkpt>
      <trkpt lat="42.94308" lon="1.7662">
        <ele>764.8662109375</ele>
        <time>2012-04-08T10:17:23Z</time>
      </trkpt>
      <trkpt lat="42.94312" lon="1.76614">
        <ele>761.50146484375</ele>
        <time>2012-04-08T10:17:26Z</time>
      </trkpt>
      <trkpt lat="42.94316" lon="1.76606">
        <ele>755.73364257812</ele>
        <time>2012-04-08T10:17:32Z</time>
      </trkpt>
      <trkpt lat="42.94322" lon="1.76601">
        <ele>753.33032226562</ele>
        <time>2012-04-08T10:17:37Z</time>
      </trkpt>
      <trkpt lat="42.94325" lon="1.76597">
        <ele>750.92700195312</ele>
        <time>2012-04-08T10:17:40Z</time>
      </trkpt>
      <trkpt lat="42.94331" lon="1.76592">
        <ele>749.00439453125</ele>
        <time>2012-04-08T10:17:43Z</time>
      </trkpt>
      <trkpt lat="42.94344" lon="1.76584">
        <ele>747.08154296875</ele>
        <time>2012-04-08T10:17:48Z</time>
      </trkpt>
      <trkpt lat="42.94353" lon="1.76572">
        <ele>745.6396484375</ele>
        <time>2012-04-08T10:17:53Z</time>
      </trkpt>
      <trkpt lat="42.94362" lon="1.76568">
        <ele>743.71704101562</ele>
        <time>2012-04-08T10:17:57Z</time>
      </trkpt>
      <trkpt lat="42.9437" lon="1.76559">
        <ele>744.19775390625</ele>
        <time>2012-04-08T10:18:01Z</time>
      </trkpt>
      <trkpt lat="42.94372" lon="1.76557">
        <ele>744.19775390625</ele>
        <time>2012-04-08T10:18:03Z</time>
      </trkpt>
      <trkpt lat="42.94376" lon="1.76549">
        <ele>744.19775390625</ele>
        <time>2012-04-08T10:18:08Z</time>
      </trkpt>
      <trkpt lat="42.94383" lon="1.76539">
        <ele>744.19775390625</ele>
        <time>2012-04-08T10:18:13Z</time>
      </trkpt>
      <trkpt lat="42.94385" lon="1.76537">
        <ele>744.67822265625</ele>
        <time>2012-04-08T10:18:15Z</time>
      </trkpt>
      <trkpt lat="42.94388" lon="1.76538">
        <ele>742.755859375</ele>
        <time>2012-04-08T10:18:18Z</time>
      </trkpt>
      <trkpt lat="42.94392" lon="1.76546">
        <ele>741.31372070312</ele>
        <time>2012-04-08T10:18:23Z</time>
      </trkpt>
      <trkpt lat="42.94392" lon="1.76548">
        <ele>738.91064453125</ele>
        <time>2012-04-08T10:18:25Z</time>
      </trkpt>
      <trkpt lat="42.9439" lon="1.76561">
        <ele>734.58471679688</ele>
        <time>2012-04-08T10:18:31Z</time>
      </trkpt>
      <trkpt lat="42.94389" lon="1.76566">
        <ele>732.662109375</ele>
        <time>2012-04-08T10:18:33Z</time>
      </trkpt>
      <trkpt lat="42.94384" lon="1.7658">
        <ele>732.662109375</ele>
        <time>2012-04-08T10:18:39Z</time>
      </trkpt>
      <trkpt lat="42.9438" lon="1.76591">
        <ele>730.7392578125</ele>
        <time>2012-04-08T10:18:44Z</time>
      </trkpt>
      <trkpt lat="42.94379" lon="1.76597">
        <ele>727.37475585938</ele>
        <time>2012-04-08T10:18:48Z</time>
      </trkpt>
      <trkpt lat="42.94378" lon="1.76599">
        <ele>725.9326171875</ele>
        <time>2012-04-08T10:18:50Z</time>
      </trkpt>
      <trkpt lat="42.94376" lon="1.76608">
        <ele>724.49072265625</ele>
        <time>2012-04-08T10:18:55Z</time>
      </trkpt>
      <trkpt lat="42.94375" lon="1.76614">
        <ele>722.08740234375</ele>
        <time>2012-04-08T10:18:58Z</time>
      </trkpt>
      <trkpt lat="42.94373" lon="1.76623">
        <ele>722.08740234375</ele>
        <time>2012-04-08T10:19:03Z</time>
      </trkpt>
      <trkpt lat="42.94372" lon="1.7663">
        <ele>718.72290039062</ele>
        <time>2012-04-08T10:19:08Z</time>
      </trkpt>
      <trkpt lat="42.94373" lon="1.76638">
        <ele>716.31958007812</ele>
        <time>2012-04-08T10:19:14Z</time>
      </trkpt>
      <trkpt lat="42.94372" lon="1.76642">
        <ele>715.8388671875</ele>
        <time>2012-04-08T10:19:17Z</time>
      </trkpt>
      <trkpt lat="42.94373" lon="1.7665">
        <ele>715.35815429688</ele>
        <time>2012-04-08T10:19:22Z</time>
      </trkpt>
      <trkpt lat="42.94374" lon="1.76657">
        <ele>716.80029296875</ele>
        <time>2012-04-08T10:19:26Z</time>
      </trkpt>
      <trkpt lat="42.94374" lon="1.76665">
        <ele>718.2421875</ele>
        <time>2012-04-08T10:19:30Z</time>
      </trkpt>
      <trkpt lat="42.94373" lon="1.76676">
        <ele>717.76147460938</ele>
        <time>2012-04-08T10:19:35Z</time>
      </trkpt>
      <trkpt lat="42.94373" lon="1.76682">
        <ele>716.31958007812</ele>
        <time>2012-04-08T10:19:38Z</time>
      </trkpt>
      <trkpt lat="42.94376" lon="1.76694">
        <ele>717.28100585938</ele>
        <time>2012-04-08T10:19:43Z</time>
      </trkpt>
      <trkpt lat="42.94378" lon="1.76702">
        <ele>715.8388671875</ele>
        <time>2012-04-08T10:19:47Z</time>
      </trkpt>
      <trkpt lat="42.94379" lon="1.76704">
        <ele>715.8388671875</ele>
        <time>2012-04-08T10:19:49Z</time>
      </trkpt>
      <trkpt lat="42.94381" lon="1.76709">
        <ele>713.916015625</ele>
        <time>2012-04-08T10:19:52Z</time>
      </trkpt>
      <trkpt lat="42.94384" lon="1.76717">
        <ele>710.07080078125</ele>
        <time>2012-04-08T10:19:58Z</time>
      </trkpt>
      <trkpt lat="42.94385" lon="1.76719">
        <ele>710.07080078125</ele>
        <time>2012-04-08T10:20:00Z</time>
      </trkpt>
      <trkpt lat="42.94386" lon="1.76721">
        <ele>710.07080078125</ele>
        <time>2012-04-08T10:20:02Z</time>
      </trkpt>
      <trkpt lat="42.94388" lon="1.76727">
        <ele>708.62890625</ele>
        <time>2012-04-08T10:20:08Z</time>
      </trkpt>
      <trkpt lat="42.94391" lon="1.7673">
        <ele>706.70629882812</ele>
        <time>2012-04-08T10:20:11Z</time>
      </trkpt>
      <trkpt lat="42.94394" lon="1.76739">
        <ele>705.26440429688</ele>
        <time>2012-04-08T10:20:17Z</time>
      </trkpt>
      <trkpt lat="42.94393" lon="1.76745">
        <ele>702.86108398438</ele>
        <time>2012-04-08T10:20:21Z</time>
      </trkpt>
      <trkpt lat="42.94391" lon="1.76755">
        <ele>696.61254882812</ele>
        <time>2012-04-08T10:20:28Z</time>
      </trkpt>
      <trkpt lat="42.94393" lon="1.76762">
        <ele>693.728515625</ele>
        <time>2012-04-08T10:20:32Z</time>
      </trkpt>
      <trkpt lat="42.94393" lon="1.76765">
        <ele>692.76733398438</ele>
        <time>2012-04-08T10:20:33Z</time>
      </trkpt>
      <trkpt lat="42.9439" lon="1.7678">
        <ele>689.88330078125</ele>
        <time>2012-04-08T10:20:39Z</time>
      </trkpt>
      <trkpt lat="42.94389" lon="1.76786">
        <ele>688.44140625</ele>
        <time>2012-04-08T10:20:42Z</time>
      </trkpt>
      <trkpt lat="42.94389" lon="1.7679">
        <ele>689.88330078125</ele>
        <time>2012-04-08T10:20:44Z</time>
      </trkpt>
      <trkpt lat="42.9439" lon="1.76794">
        <ele>691.3251953125</ele>
        <time>2012-04-08T10:20:47Z</time>
      </trkpt>
      <trkpt lat="42.94392" lon="1.76802">
        <ele>694.20922851562</ele>
        <time>2012-04-08T10:20:56Z</time>
      </trkpt>
      <trkpt lat="42.94392" lon="1.76809">
        <ele>694.20922851562</ele>
        <time>2012-04-08T10:21:03Z</time>
      </trkpt>
      <trkpt lat="42.94393" lon="1.76818">
        <ele>693.24780273438</ele>
        <time>2012-04-08T10:21:08Z</time>
      </trkpt>
      <trkpt lat="42.94394" lon="1.7682">
        <ele>692.76733398438</ele>
        <time>2012-04-08T10:21:10Z</time>
      </trkpt>
      <trkpt lat="42.94399" lon="1.76828">
        <ele>689.88330078125</ele>
        <time>2012-04-08T10:21:15Z</time>
      </trkpt>
      <trkpt lat="42.94402" lon="1.76831">
        <ele>689.88330078125</ele>
        <time>2012-04-08T10:21:17Z</time>
      </trkpt>
      <trkpt lat="42.94407" lon="1.76844">
        <ele>686.51879882812</ele>
        <time>2012-04-08T10:21:24Z</time>
      </trkpt>
      <trkpt lat="42.94413" lon="1.76852">
        <ele>683.63452148438</ele>
        <time>2012-04-08T10:21:28Z</time>
      </trkpt>
      <trkpt lat="42.94418" lon="1.76864">
        <ele>682.19262695312</ele>
        <time>2012-04-08T10:21:33Z</time>
      </trkpt>
      <trkpt lat="42.94418" lon="1.76882">
        <ele>679.30859375</ele>
        <time>2012-04-08T10:21:39Z</time>
      </trkpt>
      <trkpt lat="42.94418" lon="1.7689">
        <ele>677.38623046875</ele>
        <time>2012-04-08T10:21:43Z</time>
      </trkpt>
      <trkpt lat="42.94418" lon="1.76896">
        <ele>678.34741210938</ele>
        <time>2012-04-08T10:21:48Z</time>
      </trkpt>
      <trkpt lat="42.94419" lon="1.76902">
        <ele>679.30859375</ele>
        <time>2012-04-08T10:21:54Z</time>
      </trkpt>
      <trkpt lat="42.94419" lon="1.76906">
        <ele>678.34741210938</ele>
        <time>2012-04-08T10:21:58Z</time>
      </trkpt>
      <trkpt lat="42.94419" lon="1.7691">
        <ele>676.90551757812</ele>
        <time>2012-04-08T10:22:00Z</time>
      </trkpt>
      <trkpt lat="42.94421" lon="1.76922">
        <ele>675.46337890625</ele>
        <time>2012-04-08T10:22:06Z</time>
      </trkpt>
      <trkpt lat="42.94421" lon="1.76924">
        <ele>675.46337890625</ele>
        <time>2012-04-08T10:22:08Z</time>
      </trkpt>
      <trkpt lat="42.94422" lon="1.76931">
        <ele>672.09887695312</ele>
        <time>2012-04-08T10:22:13Z</time>
      </trkpt>
      <trkpt lat="42.94423" lon="1.76934">
        <ele>671.1376953125</ele>
        <time>2012-04-08T10:22:15Z</time>
      </trkpt>
      <trkpt lat="42.94424" lon="1.76939">
        <ele>668.734375</ele>
        <time>2012-04-08T10:22:20Z</time>
      </trkpt>
      <trkpt lat="42.94426" lon="1.76948">
        <ele>668.734375</ele>
        <time>2012-04-08T10:22:27Z</time>
      </trkpt>
      <trkpt lat="42.94428" lon="1.76953">
        <ele>668.25366210938</ele>
        <time>2012-04-08T10:22:31Z</time>
      </trkpt>
      <trkpt lat="42.9443" lon="1.76959">
        <ele>666.8115234375</ele>
        <time>2012-04-08T10:22:35Z</time>
      </trkpt>
      <trkpt lat="42.94431" lon="1.76967">
        <ele>663.44702148438</ele>
        <time>2012-04-08T10:22:41Z</time>
      </trkpt>
      <trkpt lat="42.94432" lon="1.76972">
        <ele>662.48559570312</ele>
        <time>2012-04-08T10:22:46Z</time>
      </trkpt>
      <trkpt lat="42.94435" lon="1.76981">
        <ele>657.67919921875</ele>
        <time>2012-04-08T10:22:52Z</time>
      </trkpt>
      <trkpt lat="42.94438" lon="1.76986">
        <ele>655.27587890625</ele>
        <time>2012-04-08T10:22:56Z</time>
      </trkpt>
      <trkpt lat="42.94443" lon="1.76994">
        <ele>650.94970703125</ele>
        <time>2012-04-08T10:23:01Z</time>
      </trkpt>
      <trkpt lat="42.94447" lon="1.76998">
        <ele>649.5078125</ele>
        <time>2012-04-08T10:23:05Z</time>
      </trkpt>
      <trkpt lat="42.94453" lon="1.77003">
        <ele>648.54638671875</ele>
        <time>2012-04-08T10:23:11Z</time>
      </trkpt>
      <trkpt lat="42.94456" lon="1.77003">
        <ele>648.54638671875</ele>
        <time>2012-04-08T10:23:13Z</time>
      </trkpt>
      <trkpt lat="42.9446" lon="1.77002">
        <ele>648.06591796875</ele>
        <time>2012-04-08T10:23:15Z</time>
      </trkpt>
      <trkpt lat="42.94468" lon="1.76998">
        <ele>646.14331054688</ele>
        <time>2012-04-08T10:23:20Z</time>
      </trkpt>
      <trkpt lat="42.94472" lon="1.76996">
        <ele>645.18188476562</ele>
        <time>2012-04-08T10:23:23Z</time>
      </trkpt>
      <trkpt lat="42.94483" lon="1.76992">
        <ele>644.220703125</ele>
        <time>2012-04-08T10:23:28Z</time>
      </trkpt>
      <trkpt lat="42.9449" lon="1.76987">
        <ele>642.77880859375</ele>
        <time>2012-04-08T10:23:32Z</time>
      </trkpt>
      <trkpt lat="42.94496" lon="1.7698">
        <ele>643.73999023438</ele>
        <time>2012-04-08T10:23:37Z</time>
      </trkpt>
      <trkpt lat="42.94497" lon="1.76978">
        <ele>644.701171875</ele>
        <time>2012-04-08T10:23:38Z</time>
      </trkpt>
      <trkpt lat="42.94499" lon="1.76975">
        <ele>646.14331054688</ele>
        <time>2012-04-08T10:23:40Z</time>
      </trkpt>
      <trkpt lat="42.94509" lon="1.76962">
        <ele>644.701171875</ele>
        <time>2012-04-08T10:23:46Z</time>
      </trkpt>
      <trkpt lat="42.94518" lon="1.76953">
        <ele>644.701171875</ele>
        <time>2012-04-08T10:23:52Z</time>
      </trkpt>
      <trkpt lat="42.94521" lon="1.76951">
        <ele>643.73999023438</ele>
        <time>2012-04-08T10:23:54Z</time>
      </trkpt>
      <trkpt lat="42.94525" lon="1.76947">
        <ele>643.73999023438</ele>
        <time>2012-04-08T10:23:57Z</time>
      </trkpt>
      <trkpt lat="42.9453" lon="1.76944">
        <ele>642.77880859375</ele>
        <time>2012-04-08T10:24:01Z</time>
      </trkpt>
      <trkpt lat="42.94536" lon="1.76942">
        <ele>640.85595703125</ele>
        <time>2012-04-08T10:24:05Z</time>
      </trkpt>
      <trkpt lat="42.9454" lon="1.76942">
        <ele>638.93359375</ele>
        <time>2012-04-08T10:24:09Z</time>
      </trkpt>
      <trkpt lat="42.94547" lon="1.7694">
        <ele>637.49145507812</ele>
        <time>2012-04-08T10:24:15Z</time>
      </trkpt>
      <trkpt lat="42.94551" lon="1.7694">
        <ele>636.5302734375</ele>
        <time>2012-04-08T10:24:18Z</time>
      </trkpt>
      <trkpt lat="42.94559" lon="1.76934">
        <ele>635.56860351562</ele>
        <time>2012-04-08T10:24:25Z</time>
      </trkpt>
      <trkpt lat="42.94561" lon="1.76933">
        <ele>635.08813476562</ele>
        <time>2012-04-08T10:24:27Z</time>
      </trkpt>
      <trkpt lat="42.94571" lon="1.76936">
        <ele>634.12670898438</ele>
        <time>2012-04-08T10:24:33Z</time>
      </trkpt>
      <trkpt lat="42.94585" lon="1.76944">
        <ele>634.607421875</ele>
        <time>2012-04-08T10:24:40Z</time>
      </trkpt>
      <trkpt lat="42.94596" lon="1.76944">
        <ele>635.08813476562</ele>
        <time>2012-04-08T10:24:44Z</time>
      </trkpt>
      <trkpt lat="42.94609" lon="1.76937">
        <ele>637.0107421875</ele>
        <time>2012-04-08T10:24:49Z</time>
      </trkpt>
      <trkpt lat="42.94614" lon="1.76934">
        <ele>637.49145507812</ele>
        <time>2012-04-08T10:24:51Z</time>
      </trkpt>
      <trkpt lat="42.94625" lon="1.7693">
        <ele>638.93359375</ele>
        <time>2012-04-08T10:24:57Z</time>
      </trkpt>
      <trkpt lat="42.94633" lon="1.76925">
        <ele>637.49145507812</ele>
        <time>2012-04-08T10:25:01Z</time>
      </trkpt>
      <trkpt lat="42.94638" lon="1.76922">
        <ele>637.97216796875</ele>
        <time>2012-04-08T10:25:03Z</time>
      </trkpt>
      <trkpt lat="42.94653" lon="1.76917">
        <ele>637.0107421875</ele>
        <time>2012-04-08T10:25:09Z</time>
      </trkpt>
      <trkpt lat="42.94662" lon="1.76917">
        <ele>634.607421875</ele>
        <time>2012-04-08T10:25:13Z</time>
      </trkpt>
      <trkpt lat="42.94667" lon="1.76915">
        <ele>633.64599609375</ele>
        <time>2012-04-08T10:25:15Z</time>
      </trkpt>
      <trkpt lat="42.94675" lon="1.76906">
        <ele>630.76220703125</ele>
        <time>2012-04-08T10:25:20Z</time>
      </trkpt>
      <trkpt lat="42.9468" lon="1.76905">
        <ele>629.80078125</ele>
        <time>2012-04-08T10:25:22Z</time>
      </trkpt>
      <trkpt lat="42.94693" lon="1.76901">
        <ele>626.43627929688</ele>
        <time>2012-04-08T10:25:28Z</time>
      </trkpt>
      <trkpt lat="42.94701" lon="1.76899">
        <ele>625.47485351562</ele>
        <time>2012-04-08T10:25:31Z</time>
      </trkpt>
      <trkpt lat="42.94708" lon="1.76895">
        <ele>622.59106445312</ele>
        <time>2012-04-08T10:25:35Z</time>
      </trkpt>
      <trkpt lat="42.94721" lon="1.76891">
        <ele>621.14916992188</ele>
        <time>2012-04-08T10:25:41Z</time>
      </trkpt>
      <trkpt lat="42.94731" lon="1.76892">
        <ele>620.66845703125</ele>
        <time>2012-04-08T10:25:45Z</time>
      </trkpt>
      <trkpt lat="42.94733" lon="1.76893">
        <ele>620.66845703125</ele>
        <time>2012-04-08T10:25:46Z</time>
      </trkpt>
      <trkpt lat="42.94742" lon="1.76895">
        <ele>619.70703125</ele>
        <time>2012-04-08T10:25:51Z</time>
      </trkpt>
      <trkpt lat="42.94751" lon="1.76892">
        <ele>619.70703125</ele>
        <time>2012-04-08T10:25:55Z</time>
      </trkpt>
      <trkpt lat="42.94761" lon="1.76888">
        <ele>619.22631835938</ele>
        <time>2012-04-08T10:26:00Z</time>
      </trkpt>
      <trkpt lat="42.94768" lon="1.7688">
        <ele>619.22631835938</ele>
        <time>2012-04-08T10:26:04Z</time>
      </trkpt>
      <trkpt lat="42.94777" lon="1.76871">
        <ele>617.7841796875</ele>
        <time>2012-04-08T10:26:09Z</time>
      </trkpt>
      <trkpt lat="42.94787" lon="1.76849">
        <ele>610.57446289062</ele>
        <time>2012-04-08T10:26:17Z</time>
      </trkpt>
      <trkpt lat="42.9479" lon="1.76844">
        <ele>608.65185546875</ele>
        <time>2012-04-08T10:26:19Z</time>
      </trkpt>
      <trkpt lat="42.94793" lon="1.76828">
        <ele>601.44189453125</ele>
        <time>2012-04-08T10:26:24Z</time>
      </trkpt>
      <trkpt lat="42.94794" lon="1.7682">
        <ele>598.55786132812</ele>
        <time>2012-04-08T10:26:26Z</time>
      </trkpt>
      <trkpt lat="42.94801" lon="1.76807">
        <ele>600</ele>
        <time>2012-04-08T10:26:32Z</time>
      </trkpt>
      <trkpt lat="42.94807" lon="1.76799">
        <ele>600.96118164062</ele>
        <time>2012-04-08T10:26:38Z</time>
      </trkpt>
      <trkpt lat="42.94809" lon="1.76795">
        <ele>598.55786132812</ele>
        <time>2012-04-08T10:26:40Z</time>
      </trkpt>
      <trkpt lat="42.94815" lon="1.76793">
        <ele>602.40307617188</ele>
        <time>2012-04-08T10:26:49Z</time>
      </trkpt>
      <trkpt lat="42.94819" lon="1.76799">
        <ele>610.09375</ele>
        <time>2012-04-08T10:27:04Z</time>
      </trkpt>
      <trkpt lat="42.94818" lon="1.76801">
        <ele>613.45849609375</ele>
        <time>2012-04-08T10:27:06Z</time>
      </trkpt>
      <trkpt lat="42.94822" lon="1.76807">
        <ele>618.26489257812</ele>
        <time>2012-04-08T10:27:16Z</time>
      </trkpt>
      <trkpt lat="42.94827" lon="1.76801">
        <ele>612.97778320312</ele>
        <time>2012-04-08T10:27:26Z</time>
      </trkpt>
      <trkpt lat="42.9483" lon="1.76792">
        <ele>602.40307617188</ele>
        <time>2012-04-08T10:27:40Z</time>
      </trkpt>
      <trkpt lat="42.94828" lon="1.76788">
        <ele>598.07739257812</ele>
        <time>2012-04-08T10:28:01Z</time>
      </trkpt>
      <trkpt lat="42.94828" lon="1.76783">
        <ele>593.27075195312</ele>
        <time>2012-04-08T10:28:21Z</time>
      </trkpt>
      <trkpt lat="42.94826" lon="1.76789">
        <ele>597.5966796875</ele>
        <time>2012-04-08T10:28:40Z</time>
      </trkpt>
      <trkpt lat="42.94823" lon="1.76795">
        <ele>607.69067382812</ele>
        <time>2012-04-08T10:29:17Z</time>
      </trkpt>
      <trkpt lat="42.94824" lon="1.76796">
        <ele>611.53588867188</ele>
        <time>2012-04-08T10:29:22Z</time>
      </trkpt>
      <trkpt lat="42.94824" lon="1.76798">
        <ele>613.93896484375</ele>
        <time>2012-04-08T10:29:24Z</time>
      </trkpt>
      <trkpt lat="42.94826" lon="1.76808">
        <ele>628.35888671875</ele>
        <time>2012-04-08T10:29:36Z</time>
      </trkpt>
      <trkpt lat="42.94826" lon="1.76811">
        <ele>631.24291992188</ele>
        <time>2012-04-08T10:29:45Z</time>
      </trkpt>
      <trkpt lat="42.94828" lon="1.76816">
        <ele>633.64599609375</ele>
        <time>2012-04-08T10:29:55Z</time>
      </trkpt>
      <trkpt lat="42.94825" lon="1.76812">
        <ele>623.55249023438</ele>
        <time>2012-04-08T10:30:10Z</time>
      </trkpt>
      <trkpt lat="42.94828" lon="1.76803">
        <ele>617.7841796875</ele>
        <time>2012-04-08T10:30:30Z</time>
      </trkpt>
      <trkpt lat="42.94828" lon="1.76801">
        <ele>616.34228515625</ele>
        <time>2012-04-08T10:30:37Z</time>
      </trkpt>
      <trkpt lat="42.94832" lon="1.76792">
        <ele>612.4970703125</ele>
        <time>2012-04-08T10:30:42Z</time>
      </trkpt>
      <trkpt lat="42.94836" lon="1.76788">
        <ele>611.05517578125</ele>
        <time>2012-04-08T10:30:44Z</time>
      </trkpt>
      <trkpt lat="42.94852" lon="1.76781">
        <ele>609.13256835938</ele>
        <time>2012-04-08T10:30:50Z</time>
      </trkpt>
      <trkpt lat="42.94862" lon="1.76775">
        <ele>609.13256835938</ele>
        <time>2012-04-08T10:30:54Z</time>
      </trkpt>
      <trkpt lat="42.94869" lon="1.76767">
        <ele>607.69067382812</ele>
        <time>2012-04-08T10:30:57Z</time>
      </trkpt>
      <trkpt lat="42.94883" lon="1.76757">
        <ele>605.28735351562</ele>
        <time>2012-04-08T10:31:03Z</time>
      </trkpt>
      <trkpt lat="42.94892" lon="1.7675">
        <ele>603.84521484375</ele>
        <time>2012-04-08T10:31:07Z</time>
      </trkpt>
      <trkpt lat="42.94903" lon="1.76729">
        <ele>598.07739257812</ele>
        <time>2012-04-08T10:31:15Z</time>
      </trkpt>
      <trkpt lat="42.94909" lon="1.76717">
        <ele>595.193359375</ele>
        <time>2012-04-08T10:31:19Z</time>
      </trkpt>
      <trkpt lat="42.94919" lon="1.76707">
        <ele>592.3095703125</ele>
        <time>2012-04-08T10:31:24Z</time>
      </trkpt>
      <trkpt lat="42.94921" lon="1.76702">
        <ele>592.3095703125</ele>
        <time>2012-04-08T10:31:26Z</time>
      </trkpt>
      <trkpt lat="42.94928" lon="1.76687">
        <ele>583.65747070312</ele>
        <time>2012-04-08T10:31:32Z</time>
      </trkpt>
      <trkpt lat="42.94937" lon="1.7668">
        <ele>584.13818359375</ele>
        <time>2012-04-08T10:31:36Z</time>
      </trkpt>
      <trkpt lat="42.94942" lon="1.76673">
        <ele>585.099609375</ele>
        <time>2012-04-08T10:31:38Z</time>
      </trkpt>
      <trkpt lat="42.94954" lon="1.76661">
        <ele>582.21557617188</ele>
        <time>2012-04-08T10:31:44Z</time>
      </trkpt>
      <trkpt lat="42.9496" lon="1.76651">
        <ele>583.65747070312</ele>
        <time>2012-04-08T10:31:49Z</time>
      </trkpt>
      <trkpt lat="42.94962" lon="1.76649">
        <ele>584.13818359375</ele>
        <time>2012-04-08T10:31:51Z</time>
      </trkpt>
      <trkpt lat="42.94971" lon="1.76642">
        <ele>587.02197265625</ele>
        <time>2012-04-08T10:31:57Z</time>
      </trkpt>
      <trkpt lat="42.94985" lon="1.76632">
        <ele>587.9833984375</ele>
        <time>2012-04-08T10:32:03Z</time>
      </trkpt>
      <trkpt lat="42.94989" lon="1.7663">
        <ele>588.94506835938</ele>
        <time>2012-04-08T10:32:05Z</time>
      </trkpt>
      <trkpt lat="42.95003" lon="1.76624">
        <ele>589.90625</ele>
        <time>2012-04-08T10:32:10Z</time>
      </trkpt>
      <trkpt lat="42.9501" lon="1.76625">
        <ele>588.94506835938</ele>
        <time>2012-04-08T10:32:13Z</time>
      </trkpt>
      <trkpt lat="42.95016" lon="1.76624">
        <ele>588.46435546875</ele>
        <time>2012-04-08T10:32:15Z</time>
      </trkpt>
      <trkpt lat="42.95029" lon="1.76623">
        <ele>587.9833984375</ele>
        <time>2012-04-08T10:32:20Z</time>
      </trkpt>
      <trkpt lat="42.95032" lon="1.76623">
        <ele>587.9833984375</ele>
        <time>2012-04-08T10:32:21Z</time>
      </trkpt>
      <trkpt lat="42.95048" lon="1.76618">
        <ele>587.50268554688</ele>
        <time>2012-04-08T10:32:27Z</time>
      </trkpt>
      <trkpt lat="42.95058" lon="1.76606">
        <ele>587.50268554688</ele>
        <time>2012-04-08T10:32:32Z</time>
      </trkpt>
      <trkpt lat="42.95067" lon="1.76593">
        <ele>585.099609375</ele>
        <time>2012-04-08T10:32:36Z</time>
      </trkpt>
      <trkpt lat="42.95069" lon="1.7659">
        <ele>583.65747070312</ele>
        <time>2012-04-08T10:32:37Z</time>
      </trkpt>
      <trkpt lat="42.95083" lon="1.76574">
        <ele>578.85107421875</ele>
        <time>2012-04-08T10:32:43Z</time>
      </trkpt>
      <trkpt lat="42.95093" lon="1.76561">
        <ele>571.64086914062</ele>
        <time>2012-04-08T10:32:48Z</time>
      </trkpt>
      <trkpt lat="42.951" lon="1.7655">
        <ele>567.31518554688</ele>
        <time>2012-04-08T10:32:53Z</time>
      </trkpt>
      <trkpt lat="42.95106" lon="1.76538">
        <ele>565.392578125</ele>
        <time>2012-04-08T10:32:57Z</time>
      </trkpt>
      <trkpt lat="42.95116" lon="1.76521">
        <ele>561.54736328125</ele>
        <time>2012-04-08T10:33:03Z</time>
      </trkpt>
      <trkpt lat="42.95122" lon="1.7651">
        <ele>566.83447265625</ele>
        <time>2012-04-08T10:33:08Z</time>
      </trkpt>
      <trkpt lat="42.95124" lon="1.76507">
        <ele>565.87329101562</ele>
        <time>2012-04-08T10:33:10Z</time>
      </trkpt>
      <trkpt lat="42.95131" lon="1.76494">
        <ele>559.14404296875</ele>
        <time>2012-04-08T10:33:17Z</time>
      </trkpt>
      <trkpt lat="42.95132" lon="1.7649">
        <ele>557.7021484375</ele>
        <time>2012-04-08T10:33:20Z</time>
      </trkpt>
      <trkpt lat="42.95138" lon="1.76482">
        <ele>560.5859375</ele>
        <time>2012-04-08T10:33:26Z</time>
      </trkpt>
      <trkpt lat="42.95141" lon="1.76479">
        <ele>562.02807617188</ele>
        <time>2012-04-08T10:33:31Z</time>
      </trkpt>
      <trkpt lat="42.95144" lon="1.76474">
        <ele>562.50854492188</ele>
        <time>2012-04-08T10:33:35Z</time>
      </trkpt>
      <trkpt lat="42.95147" lon="1.76472">
        <ele>563.95043945312</ele>
        <time>2012-04-08T10:33:39Z</time>
      </trkpt>
      <trkpt lat="42.95155" lon="1.76466">
        <ele>564.43115234375</ele>
        <time>2012-04-08T10:33:45Z</time>
      </trkpt>
      <trkpt lat="42.95158" lon="1.76465">
        <ele>563.95043945312</ele>
        <time>2012-04-08T10:33:46Z</time>
      </trkpt>
      <trkpt lat="42.95172" lon="1.76452">
        <ele>561.54736328125</ele>
        <time>2012-04-08T10:33:52Z</time>
      </trkpt>
      <trkpt lat="42.95181" lon="1.76445">
        <ele>562.02807617188</ele>
        <time>2012-04-08T10:33:56Z</time>
      </trkpt>
      <trkpt lat="42.95192" lon="1.76439">
        <ele>560.5859375</ele>
        <time>2012-04-08T10:34:02Z</time>
      </trkpt>
      <trkpt lat="42.95198" lon="1.76436">
        <ele>559.14404296875</ele>
        <time>2012-04-08T10:34:05Z</time>
      </trkpt>
      <trkpt lat="42.95202" lon="1.76434">
        <ele>558.66333007812</ele>
        <time>2012-04-08T10:34:08Z</time>
      </trkpt>
      <trkpt lat="42.95211" lon="1.76425">
        <ele>555.29858398438</ele>
        <time>2012-04-08T10:34:14Z</time>
      </trkpt>
      <trkpt lat="42.95215" lon="1.76421">
        <ele>554.33740234375</ele>
        <time>2012-04-08T10:34:16Z</time>
      </trkpt>
      <trkpt lat="42.95222" lon="1.76413">
        <ele>550.4921875</ele>
        <time>2012-04-08T10:34:20Z</time>
      </trkpt>
      <trkpt lat="42.95236" lon="1.76399">
        <ele>542.32092285156</ele>
        <time>2012-04-08T10:34:27Z</time>
      </trkpt>
      <trkpt lat="42.95243" lon="1.76392">
        <ele>538.47570800781</ele>
        <time>2012-04-08T10:34:31Z</time>
      </trkpt>
      <trkpt lat="42.95248" lon="1.76384">
        <ele>533.6689453125</ele>
        <time>2012-04-08T10:34:35Z</time>
      </trkpt>
      <trkpt lat="42.95258" lon="1.76372">
        <ele>526.45910644531</ele>
        <time>2012-04-08T10:34:40Z</time>
      </trkpt>
      <trkpt lat="42.95267" lon="1.76362">
        <ele>522.13317871094</ele>
        <time>2012-04-08T10:34:45Z</time>
      </trkpt>
      <trkpt lat="42.95271" lon="1.76356">
        <ele>518.28784179688</ele>
        <time>2012-04-08T10:34:48Z</time>
      </trkpt>
      <trkpt lat="42.95279" lon="1.76348">
        <ele>515.40405273438</ele>
        <time>2012-04-08T10:34:53Z</time>
      </trkpt>
      <trkpt lat="42.95287" lon="1.76343">
        <ele>517.80725097656</ele>
        <time>2012-04-08T10:34:58Z</time>
      </trkpt>
      <trkpt lat="42.95289" lon="1.76343">
        <ele>518.28784179688</ele>
        <time>2012-04-08T10:34:59Z</time>
      </trkpt>
      <trkpt lat="42.95306" lon="1.76338">
        <ele>517.32666015625</ele>
        <time>2012-04-08T10:35:06Z</time>
      </trkpt>
      <trkpt lat="42.95315" lon="1.76333">
        <ele>515.40405273438</ele>
        <time>2012-04-08T10:35:10Z</time>
      </trkpt>
      <trkpt lat="42.95321" lon="1.76333">
        <ele>515.88464355469</ele>
        <time>2012-04-08T10:35:12Z</time>
      </trkpt>
      <trkpt lat="42.95339" lon="1.76325">
        <ele>517.32666015625</ele>
        <time>2012-04-08T10:35:19Z</time>
      </trkpt>
      <trkpt lat="42.95344" lon="1.76321">
        <ele>519.72985839844</ele>
        <time>2012-04-08T10:35:21Z</time>
      </trkpt>
      <trkpt lat="42.95361" lon="1.7632">
        <ele>520.21057128906</ele>
        <time>2012-04-08T10:35:27Z</time>
      </trkpt>
      <trkpt lat="42.95371" lon="1.76311">
        <ele>522.13317871094</ele>
        <time>2012-04-08T10:35:32Z</time>
      </trkpt>
      <trkpt lat="42.9538" lon="1.76299">
        <ele>522.61389160156</ele>
        <time>2012-04-08T10:35:36Z</time>
      </trkpt>
      <trkpt lat="42.95387" lon="1.76283">
        <ele>519.24926757812</ele>
        <time>2012-04-08T10:35:40Z</time>
      </trkpt>
      <trkpt lat="42.95392" lon="1.76273">
        <ele>518.7685546875</ele>
        <time>2012-04-08T10:35:44Z</time>
      </trkpt>
      <trkpt lat="42.95398" lon="1.76262">
        <ele>516.365234375</ele>
        <time>2012-04-08T10:35:51Z</time>
      </trkpt>
      <trkpt lat="42.95404" lon="1.76254">
        <ele>513.96203613281</ele>
        <time>2012-04-08T10:35:57Z</time>
      </trkpt>
      <trkpt lat="42.95404" lon="1.76252">
        <ele>513.4814453125</ele>
        <time>2012-04-08T10:35:58Z</time>
      </trkpt>
      <trkpt lat="42.95408" lon="1.76247">
        <ele>512.03942871094</ele>
        <time>2012-04-08T10:36:02Z</time>
      </trkpt>
      <trkpt lat="42.95414" lon="1.76238">
        <ele>510.11669921875</ele>
        <time>2012-04-08T10:36:06Z</time>
      </trkpt>
      <trkpt lat="42.95421" lon="1.76225">
        <ele>507.71350097656</ele>
        <time>2012-04-08T10:36:12Z</time>
      </trkpt>
      <trkpt lat="42.95428" lon="1.76207">
        <ele>505.79089355469</ele>
        <time>2012-04-08T10:36:18Z</time>
      </trkpt>
      <trkpt lat="42.95431" lon="1.76192">
        <ele>504.82946777344</ele>
        <time>2012-04-08T10:36:22Z</time>
      </trkpt>
      <trkpt lat="42.95437" lon="1.76178">
        <ele>505.79089355469</ele>
        <time>2012-04-08T10:36:26Z</time>
      </trkpt>
      <trkpt lat="42.95442" lon="1.76162">
        <ele>504.82946777344</ele>
        <time>2012-04-08T10:36:30Z</time>
      </trkpt>
      <trkpt lat="42.95444" lon="1.76158">
        <ele>504.34887695312</ele>
        <time>2012-04-08T10:36:31Z</time>
      </trkpt>
      <trkpt lat="42.95446" lon="1.76143">
        <ele>502.90673828125</ele>
        <time>2012-04-08T10:36:35Z</time>
      </trkpt>
      <trkpt lat="42.95452" lon="1.76121">
        <ele>500.02294921875</ele>
        <time>2012-04-08T10:36:41Z</time>
      </trkpt>
      <trkpt lat="42.95456" lon="1.76108">
        <ele>497.61962890625</ele>
        <time>2012-04-08T10:36:45Z</time>
      </trkpt>
      <trkpt lat="42.95459" lon="1.76092">
        <ele>494.25500488281</ele>
        <time>2012-04-08T10:36:51Z</time>
      </trkpt>
      <trkpt lat="42.95462" lon="1.76083">
        <ele>492.33239746094</ele>
        <time>2012-04-08T10:36:55Z</time>
      </trkpt>
      <trkpt lat="42.95461" lon="1.76063">
        <ele>494.73559570312</ele>
        <time>2012-04-08T10:37:01Z</time>
      </trkpt>
      <trkpt lat="42.95461" lon="1.76059">
        <ele>493.29357910156</ele>
        <time>2012-04-08T10:37:03Z</time>
      </trkpt>
      <trkpt lat="42.95466" lon="1.76046">
        <ele>494.73559570312</ele>
        <time>2012-04-08T10:37:07Z</time>
      </trkpt>
      <trkpt lat="42.95469" lon="1.76035">
        <ele>493.29357910156</ele>
        <time>2012-04-08T10:37:11Z</time>
      </trkpt>
      <trkpt lat="42.9547" lon="1.76023">
        <ele>488.48718261719</ele>
        <time>2012-04-08T10:37:18Z</time>
      </trkpt>
      <trkpt lat="42.95472" lon="1.76018">
        <ele>488.9677734375</ele>
        <time>2012-04-08T10:37:21Z</time>
      </trkpt>
      <trkpt lat="42.95474" lon="1.76005">
        <ele>483.68041992188</ele>
        <time>2012-04-08T10:37:27Z</time>
      </trkpt>
      <trkpt lat="42.95478" lon="1.75999">
        <ele>481.7578125</ele>
        <time>2012-04-08T10:37:31Z</time>
      </trkpt>
      <trkpt lat="42.95481" lon="1.75989">
        <ele>478.39318847656</ele>
        <time>2012-04-08T10:37:37Z</time>
      </trkpt>
      <trkpt lat="42.9548" lon="1.75986">
        <ele>480.31591796875</ele>
        <time>2012-04-08T10:37:41Z</time>
      </trkpt>
      <trkpt lat="42.95477" lon="1.75986">
        <ele>490.89038085938</ele>
        <time>2012-04-08T10:37:47Z</time>
      </trkpt>
      <trkpt lat="42.95474" lon="1.75987">
        <ele>498.10034179688</ele>
        <time>2012-04-08T10:37:53Z</time>
      </trkpt>
      <trkpt lat="42.95467" lon="1.75987">
        <ele>498.10034179688</ele>
        <time>2012-04-08T10:38:00Z</time>
      </trkpt>
      <trkpt lat="42.95463" lon="1.75987">
        <ele>500.50354003906</ele>
        <time>2012-04-08T10:38:05Z</time>
      </trkpt>
      <trkpt lat="42.95459" lon="1.75986">
        <ele>500.50354003906</ele>
        <time>2012-04-08T10:38:12Z</time>
      </trkpt>
      <trkpt lat="42.95459" lon="1.75977">
        <ele>501.94555664062</ele>
        <time>2012-04-08T10:38:17Z</time>
      </trkpt>
      <trkpt lat="42.95457" lon="1.75966">
        <ele>504.82946777344</ele>
        <time>2012-04-08T10:38:23Z</time>
      </trkpt>
      <trkpt lat="42.95461" lon="1.75959">
        <ele>505.31018066406</ele>
        <time>2012-04-08T10:38:28Z</time>
      </trkpt>
      <trkpt lat="42.95464" lon="1.75952">
        <ele>507.23278808594</ele>
        <time>2012-04-08T10:38:34Z</time>
      </trkpt>
      <trkpt lat="42.95469" lon="1.7595">
        <ele>504.82946777344</ele>
        <time>2012-04-08T10:38:39Z</time>
      </trkpt>
      <trkpt lat="42.95473" lon="1.75948">
        <ele>503.38745117188</ele>
        <time>2012-04-08T10:38:43Z</time>
      </trkpt>
      <trkpt lat="42.95476" lon="1.75941">
        <ele>498.58093261719</ele>
        <time>2012-04-08T10:38:49Z</time>
      </trkpt>
      <trkpt lat="42.95479" lon="1.75935">
        <ele>495.69689941406</ele>
        <time>2012-04-08T10:38:55Z</time>
      </trkpt>
      <trkpt lat="42.95482" lon="1.75933">
        <ele>494.25500488281</ele>
        <time>2012-04-08T10:38:59Z</time>
      </trkpt>
      <trkpt lat="42.95486" lon="1.75933">
        <ele>492.81298828125</ele>
        <time>2012-04-08T10:39:03Z</time>
      </trkpt>
      <trkpt lat="42.95496" lon="1.75936">
        <ele>493.29357910156</ele>
        <time>2012-04-08T10:39:08Z</time>
      </trkpt>
      <trkpt lat="42.95499" lon="1.75939">
        <ele>493.77429199219</ele>
        <time>2012-04-08T10:39:11Z</time>
      </trkpt>
      <trkpt lat="42.9551" lon="1.7595">
        <ele>491.85168457031</ele>
        <time>2012-04-08T10:39:17Z</time>
      </trkpt>
      <trkpt lat="42.95518" lon="1.75951">
        <ele>490.89038085938</ele>
        <time>2012-04-08T10:39:21Z</time>
      </trkpt>
      <trkpt lat="42.95528" lon="1.75947">
        <ele>487.52563476562</ele>
        <time>2012-04-08T10:39:28Z</time>
      </trkpt>
      <trkpt lat="42.95533" lon="1.75945">
        <ele>486.564453125</ele>
        <time>2012-04-08T10:39:31Z</time>
      </trkpt>
      <trkpt lat="42.95543" lon="1.75943">
        <ele>485.12243652344</ele>
        <time>2012-04-08T10:39:36Z</time>
      </trkpt>
      <trkpt lat="42.95551" lon="1.75943">
        <ele>483.19982910156</ele>
        <time>2012-04-08T10:39:40Z</time>
      </trkpt>
      <trkpt lat="42.95555" lon="1.75951">
        <ele>479.3544921875</ele>
        <time>2012-04-08T10:39:46Z</time>
      </trkpt>
      <trkpt lat="42.95555" lon="1.75953">
        <ele>478.87390136719</ele>
        <time>2012-04-08T10:39:47Z</time>
      </trkpt>
      <trkpt lat="42.95562" lon="1.75964">
        <ele>478.87390136719</ele>
        <time>2012-04-08T10:39:54Z</time>
      </trkpt>
      <trkpt lat="42.95563" lon="1.75965">
        <ele>478.87390136719</ele>
        <time>2012-04-08T10:39:55Z</time>
      </trkpt>
      <trkpt lat="42.95565" lon="1.75975">
        <ele>477.91247558594</ele>
        <time>2012-04-08T10:40:00Z</time>
      </trkpt>
      <trkpt lat="42.95567" lon="1.75983">
        <ele>475.50927734375</ele>
        <time>2012-04-08T10:40:04Z</time>
      </trkpt>
      <trkpt lat="42.95567" lon="1.75988">
        <ele>474.06726074219</ele>
        <time>2012-04-08T10:40:08Z</time>
      </trkpt>
      <trkpt lat="42.95572" lon="1.75994">
        <ele>474.06726074219</ele>
        <time>2012-04-08T10:40:14Z</time>
      </trkpt>
      <trkpt lat="42.95575" lon="1.75996">
        <ele>473.58666992188</ele>
        <time>2012-04-08T10:40:17Z</time>
      </trkpt>
      <trkpt lat="42.95576" lon="1.76002">
        <ele>477.43188476562</ele>
        <time>2012-04-08T10:40:26Z</time>
      </trkpt>
      <trkpt lat="42.95583" lon="1.76007">
        <ele>476.95129394531</ele>
        <time>2012-04-08T10:40:31Z</time>
      </trkpt>
      <trkpt lat="42.95584" lon="1.76008">
        <ele>476.95129394531</ele>
        <time>2012-04-08T10:40:32Z</time>
      </trkpt>
      <trkpt lat="42.95587" lon="1.76013">
        <ele>475.02868652344</ele>
        <time>2012-04-08T10:40:36Z</time>
      </trkpt>
      <trkpt lat="42.95592" lon="1.76019">
        <ele>476.47058105469</ele>
        <time>2012-04-08T10:40:41Z</time>
      </trkpt>
      <trkpt lat="42.956" lon="1.76025">
        <ele>476.47058105469</ele>
        <time>2012-04-08T10:40:47Z</time>
      </trkpt>
      <trkpt lat="42.95601" lon="1.76028">
        <ele>476.47058105469</ele>
        <time>2012-04-08T10:40:49Z</time>
      </trkpt>
      <trkpt lat="42.95608" lon="1.76033">
        <ele>475.98986816406</ele>
        <time>2012-04-08T10:40:54Z</time>
      </trkpt>
      <trkpt lat="42.95613" lon="1.76038">
        <ele>475.98986816406</ele>
        <time>2012-04-08T10:40:59Z</time>
      </trkpt>
      <trkpt lat="42.95621" lon="1.76046">
        <ele>475.02868652344</ele>
        <time>2012-04-08T10:41:05Z</time>
      </trkpt>
      <trkpt lat="42.9563" lon="1.76055">
        <ele>472.62536621094</ele>
        <time>2012-04-08T10:41:13Z</time>
      </trkpt>
      <trkpt lat="42.95638" lon="1.76066">
        <ele>470.70263671875</ele>
        <time>2012-04-08T10:41:21Z</time>
      </trkpt>
      <trkpt lat="42.95647" lon="1.76078">
        <ele>469.74133300781</ele>
        <time>2012-04-08T10:41:30Z</time>
      </trkpt>
      <trkpt lat="42.95654" lon="1.76089">
        <ele>469.2607421875</ele>
        <time>2012-04-08T10:41:37Z</time>
      </trkpt>
      <trkpt lat="42.95659" lon="1.76096">
        <ele>468.78002929688</ele>
        <time>2012-04-08T10:41:43Z</time>
      </trkpt>
      <trkpt lat="42.95663" lon="1.76101">
        <ele>468.78002929688</ele>
        <time>2012-04-08T10:41:46Z</time>
      </trkpt>
      <trkpt lat="42.95667" lon="1.76105">
        <ele>467.81872558594</ele>
        <time>2012-04-08T10:41:49Z</time>
      </trkpt>
      <trkpt lat="42.95672" lon="1.76112">
        <ele>467.81872558594</ele>
        <time>2012-04-08T10:41:54Z</time>
      </trkpt>
      <trkpt lat="42.95674" lon="1.76113">
        <ele>467.81872558594</ele>
        <time>2012-04-08T10:41:55Z</time>
      </trkpt>
      <trkpt lat="42.9568" lon="1.76123">
        <ele>464.93481445312</ele>
        <time>2012-04-08T10:42:02Z</time>
      </trkpt>
      <trkpt lat="42.95681" lon="1.76124">
        <ele>464.4541015625</ele>
        <time>2012-04-08T10:42:06Z</time>
      </trkpt>
      <trkpt lat="42.95684" lon="1.76129">
        <ele>463.49279785156</ele>
        <time>2012-04-08T10:42:10Z</time>
      </trkpt>
      <trkpt lat="42.9569" lon="1.76138">
        <ele>461.08947753906</ele>
        <time>2012-04-08T10:42:15Z</time>
      </trkpt>
      <trkpt lat="42.95691" lon="1.76144">
        <ele>459.64758300781</ele>
        <time>2012-04-08T10:42:18Z</time>
      </trkpt>
      <trkpt lat="42.95687" lon="1.76161">
        <ele>457.24426269531</ele>
        <time>2012-04-08T10:42:24Z</time>
      </trkpt>
      <trkpt lat="42.95682" lon="1.76176">
        <ele>455.80224609375</ele>
        <time>2012-04-08T10:42:29Z</time>
      </trkpt>
      <trkpt lat="42.95682" lon="1.76178">
        <ele>455.32153320312</ele>
        <time>2012-04-08T10:42:30Z</time>
      </trkpt>
      <trkpt lat="42.95682" lon="1.76197">
        <ele>453.39892578125</ele>
        <time>2012-04-08T10:42:36Z</time>
      </trkpt>
      <trkpt lat="42.95689" lon="1.7622">
        <ele>449.5537109375</ele>
        <time>2012-04-08T10:42:43Z</time>
      </trkpt>
      <trkpt lat="42.95693" lon="1.76237">
        <ele>448.59240722656</ele>
        <time>2012-04-08T10:42:48Z</time>
      </trkpt>
      <trkpt lat="42.95695" lon="1.76246">
        <ele>448.11181640625</ele>
        <time>2012-04-08T10:42:51Z</time>
      </trkpt>
      <trkpt lat="42.95709" lon="1.76262">
        <ele>450.51501464844</ele>
        <time>2012-04-08T10:42:58Z</time>
      </trkpt>
      <trkpt lat="42.95721" lon="1.76273">
        <ele>451.47631835938</ele>
        <time>2012-04-08T10:43:04Z</time>
      </trkpt>
      <trkpt lat="42.95726" lon="1.76275">
        <ele>451.47631835938</ele>
        <time>2012-04-08T10:43:06Z</time>
      </trkpt>
      <trkpt lat="42.95739" lon="1.7628">
        <ele>453.39892578125</ele>
        <time>2012-04-08T10:43:11Z</time>
      </trkpt>
      <trkpt lat="42.95742" lon="1.76281">
        <ele>452.91821289062</ele>
        <time>2012-04-08T10:43:12Z</time>
      </trkpt>
      <trkpt lat="42.95755" lon="1.76287">
        <ele>452.91821289062</ele>
        <time>2012-04-08T10:43:18Z</time>
      </trkpt>
      <trkpt lat="42.95771" lon="1.76296">
        <ele>453.39892578125</ele>
        <time>2012-04-08T10:43:25Z</time>
      </trkpt>
      <trkpt lat="42.95782" lon="1.76305">
        <ele>453.87963867188</ele>
        <time>2012-04-08T10:43:31Z</time>
      </trkpt>
      <trkpt lat="42.95788" lon="1.7631">
        <ele>453.87963867188</ele>
        <time>2012-04-08T10:43:36Z</time>
      </trkpt>
      <trkpt lat="42.9579" lon="1.76312">
        <ele>453.39892578125</ele>
        <time>2012-04-08T10:43:37Z</time>
      </trkpt>
      <trkpt lat="42.95794" lon="1.76318">
        <ele>453.39892578125</ele>
        <time>2012-04-08T10:43:42Z</time>
      </trkpt>
      <trkpt lat="42.95795" lon="1.76319">
        <ele>452.91821289062</ele>
        <time>2012-04-08T10:43:43Z</time>
      </trkpt>
      <trkpt lat="42.95796" lon="1.7632">
        <ele>452.91821289062</ele>
        <time>2012-04-08T10:43:50Z</time>
      </trkpt>
      <trkpt lat="42.95797" lon="1.7632">
        <ele>450.99560546875</ele>
        <time>2012-04-08T10:44:06Z</time>
      </trkpt>
      <trkpt lat="42.95798" lon="1.76319">
        <ele>450.51501464844</ele>
        <time>2012-04-08T10:44:16Z</time>
      </trkpt>
      <trkpt lat="42.95797" lon="1.76318">
        <ele>449.07299804688</ele>
        <time>2012-04-08T10:44:31Z</time>
      </trkpt>
      <trkpt lat="42.95797" lon="1.76319">
        <ele>450.03442382812</ele>
        <time>2012-04-08T10:44:39Z</time>
      </trkpt>
      <trkpt lat="42.95797" lon="1.76319">
        <ele>452.43762207031</ele>
        <time>2012-04-08T10:44:50Z</time>
      </trkpt>
      <trkpt lat="42.95798" lon="1.7632">
        <ele>452.43762207031</ele>
        <time>2012-04-08T10:45:05Z</time>
      </trkpt>
      <trkpt lat="42.95798" lon="1.76319">
        <ele>450.99560546875</ele>
        <time>2012-04-08T10:45:16Z</time>
      </trkpt>
      <trkpt lat="42.95797" lon="1.7632">
        <ele>449.07299804688</ele>
        <time>2012-04-08T10:45:34Z</time>
      </trkpt>
      <trkpt lat="42.95799" lon="1.76318">
        <ele>450.51501464844</ele>
        <time>2012-04-08T10:45:53Z</time>
      </trkpt>
      <trkpt lat="42.95799" lon="1.76318">
        <ele>452.91821289062</ele>
        <time>2012-04-08T10:46:08Z</time>
      </trkpt>
      <trkpt lat="42.95798" lon="1.76318">
        <ele>453.39892578125</ele>
        <time>2012-04-08T10:46:14Z</time>
      </trkpt>
      <trkpt lat="42.95798" lon="1.76319">
        <ele>450.99560546875</ele>
        <time>2012-04-08T10:46:29Z</time>
      </trkpt>
      <trkpt lat="42.95799" lon="1.7632">
        <ele>449.5537109375</ele>
        <time>2012-04-08T10:46:41Z</time>
      </trkpt>
      <trkpt lat="42.95799" lon="1.7632">
        <ele>448.11181640625</ele>
        <time>2012-04-08T10:46:48Z</time>
      </trkpt>
      <trkpt lat="42.95798" lon="1.7632">
        <ele>449.07299804688</ele>
        <time>2012-04-08T10:46:57Z</time>
      </trkpt>
      <trkpt lat="42.95798" lon="1.76319">
        <ele>450.51501464844</ele>
        <time>2012-04-08T10:47:11Z</time>
      </trkpt>
      <trkpt lat="42.95798" lon="1.76319">
        <ele>451.47631835938</ele>
        <time>2012-04-08T10:47:19Z</time>
      </trkpt>
      <trkpt lat="42.95795" lon="1.7632">
        <ele>451.47631835938</ele>
        <time>2012-04-08T10:47:26Z</time>
      </trkpt>
      <trkpt lat="42.9579" lon="1.76331">
        <ele>450.03442382812</ele>
        <time>2012-04-08T10:47:34Z</time>
      </trkpt>
      <trkpt lat="42.95783" lon="1.76345">
        <ele>449.5537109375</ele>
        <time>2012-04-08T10:47:44Z</time>
      </trkpt>
      <trkpt lat="42.95777" lon="1.76356">
        <ele>449.07299804688</ele>
        <time>2012-04-08T10:47:52Z</time>
      </trkpt>
      <trkpt lat="42.9577" lon="1.76366">
        <ele>449.07299804688</ele>
        <time>2012-04-08T10:48:00Z</time>
      </trkpt>
      <trkpt lat="42.95761" lon="1.76375">
        <ele>447.63098144531</ele>
        <time>2012-04-08T10:48:08Z</time>
      </trkpt>
      <trkpt lat="42.95749" lon="1.76382">
        <ele>446.66967773438</ele>
        <time>2012-04-08T10:48:19Z</time>
      </trkpt>
      <trkpt lat="42.95737" lon="1.76392">
        <ele>446.18908691406</ele>
        <time>2012-04-08T10:48:29Z</time>
      </trkpt>
      <trkpt lat="42.95734" lon="1.76396">
        <ele>446.18908691406</ele>
        <time>2012-04-08T10:48:32Z</time>
      </trkpt>
      <trkpt lat="42.95729" lon="1.76409">
        <ele>446.66967773438</ele>
        <time>2012-04-08T10:48:39Z</time>
      </trkpt>
      <trkpt lat="42.95724" lon="1.76422">
        <ele>446.18908691406</ele>
        <time>2012-04-08T10:48:47Z</time>
      </trkpt>
      <trkpt lat="42.95721" lon="1.76432">
        <ele>445.22766113281</ele>
        <time>2012-04-08T10:48:54Z</time>
      </trkpt>
      <trkpt lat="42.95717" lon="1.76443">
        <ele>445.70837402344</ele>
        <time>2012-04-08T10:49:01Z</time>
      </trkpt>
      <trkpt lat="42.9571" lon="1.76457">
        <ele>445.22766113281</ele>
        <time>2012-04-08T10:49:10Z</time>
      </trkpt>
      <trkpt lat="42.95706" lon="1.76474">
        <ele>444.26647949219</ele>
        <time>2012-04-08T10:49:19Z</time>
      </trkpt>
      <trkpt lat="42.95702" lon="1.7649">
        <ele>443.78576660156</ele>
        <time>2012-04-08T10:49:28Z</time>
      </trkpt>
      <trkpt lat="42.95699" lon="1.76501">
        <ele>443.30505371094</ele>
        <time>2012-04-08T10:49:34Z</time>
      </trkpt>
      <trkpt lat="42.95698" lon="1.7651">
        <ele>442.82446289062</ele>
        <time>2012-04-08T10:49:40Z</time>
      </trkpt>
      <trkpt lat="42.95695" lon="1.76521">
        <ele>445.70837402344</ele>
        <time>2012-04-08T10:49:46Z</time>
      </trkpt>
      <trkpt lat="42.95692" lon="1.76533">
        <ele>445.22766113281</ele>
        <time>2012-04-08T10:49:53Z</time>
      </trkpt>
      <trkpt lat="42.95689" lon="1.76541">
        <ele>445.22766113281</ele>
        <time>2012-04-08T10:49:58Z</time>
      </trkpt>
      <trkpt lat="42.95683" lon="1.76556">
        <ele>446.18908691406</ele>
        <time>2012-04-08T10:50:06Z</time>
      </trkpt>
      <trkpt lat="42.95679" lon="1.76568">
        <ele>447.15026855469</ele>
        <time>2012-04-08T10:50:12Z</time>
      </trkpt>
      <trkpt lat="42.95674" lon="1.7658">
        <ele>448.11181640625</ele>
        <time>2012-04-08T10:50:17Z</time>
      </trkpt>
      <trkpt lat="42.95666" lon="1.76598">
        <ele>449.5537109375</ele>
        <time>2012-04-08T10:50:22Z</time>
      </trkpt>
      <trkpt lat="42.95663" lon="1.76604">
        <ele>450.03442382812</ele>
        <time>2012-04-08T10:50:24Z</time>
      </trkpt>
      <trkpt lat="42.9566" lon="1.7661">
        <ele>449.5537109375</ele>
        <time>2012-04-08T10:50:26Z</time>
      </trkpt>
      <trkpt lat="42.95654" lon="1.76625">
        <ele>450.03442382812</ele>
        <time>2012-04-08T10:50:31Z</time>
      </trkpt>
      <trkpt lat="42.95644" lon="1.76639">
        <ele>450.51501464844</ele>
        <time>2012-04-08T10:50:36Z</time>
      </trkpt>
      <trkpt lat="42.95642" lon="1.76641">
        <ele>450.51501464844</ele>
        <time>2012-04-08T10:50:37Z</time>
      </trkpt>
      <trkpt lat="42.95628" lon="1.76662">
        <ele>449.5537109375</ele>
        <time>2012-04-08T10:50:44Z</time>
      </trkpt>
      <trkpt lat="42.95616" lon="1.76673">
        <ele>448.59240722656</ele>
        <time>2012-04-08T10:50:49Z</time>
      </trkpt>
      <trkpt lat="42.956" lon="1.76687">
        <ele>448.11181640625</ele>
        <time>2012-04-08T10:50:56Z</time>
      </trkpt>
      <trkpt lat="42.95591" lon="1.76699">
        <ele>447.15026855469</ele>
        <time>2012-04-08T10:51:01Z</time>
      </trkpt>
      <trkpt lat="42.95581" lon="1.76713">
        <ele>447.15026855469</ele>
        <time>2012-04-08T10:51:06Z</time>
      </trkpt>
      <trkpt lat="42.95573" lon="1.7673">
        <ele>447.15026855469</ele>
        <time>2012-04-08T10:51:12Z</time>
      </trkpt>
      <trkpt lat="42.95571" lon="1.76735">
        <ele>447.15026855469</ele>
        <time>2012-04-08T10:51:14Z</time>
      </trkpt>
      <trkpt lat="42.9557" lon="1.76745">
        <ele>446.18908691406</ele>
        <time>2012-04-08T10:51:18Z</time>
      </trkpt>
      <trkpt lat="42.95575" lon="1.76762">
        <ele>448.59240722656</ele>
        <time>2012-04-08T10:51:24Z</time>
      </trkpt>
      <trkpt lat="42.9558" lon="1.76778">
        <ele>446.66967773438</ele>
        <time>2012-04-08T10:51:29Z</time>
      </trkpt>
      <trkpt lat="42.95581" lon="1.76784">
        <ele>445.70837402344</ele>
        <time>2012-04-08T10:51:31Z</time>
      </trkpt>
      <trkpt lat="42.95584" lon="1.76807">
        <ele>441.38244628906</ele>
        <time>2012-04-08T10:51:38Z</time>
      </trkpt>
      <trkpt lat="42.95584" lon="1.76828">
        <ele>439.9404296875</ele>
        <time>2012-04-08T10:51:44Z</time>
      </trkpt>
      <trkpt lat="42.95586" lon="1.76833">
        <ele>440.90185546875</ele>
        <time>2012-04-08T10:51:46Z</time>
      </trkpt>
      <trkpt lat="42.95589" lon="1.76848">
        <ele>442.34387207031</ele>
        <time>2012-04-08T10:51:51Z</time>
      </trkpt>
      <trkpt lat="42.95587" lon="1.76865">
        <ele>441.38244628906</ele>
        <time>2012-04-08T10:51:56Z</time>
      </trkpt>
      <trkpt lat="42.95583" lon="1.76885">
        <ele>440.42126464844</ele>
        <time>2012-04-08T10:52:01Z</time>
      </trkpt>
      <trkpt lat="42.9558" lon="1.76901">
        <ele>440.90185546875</ele>
        <time>2012-04-08T10:52:06Z</time>
      </trkpt>
      <trkpt lat="42.95575" lon="1.76922">
        <ele>440.42126464844</ele>
        <time>2012-04-08T10:52:12Z</time>
      </trkpt>
      <trkpt lat="42.95571" lon="1.76939">
        <ele>440.42126464844</ele>
        <time>2012-04-08T10:52:17Z</time>
      </trkpt>
      <trkpt lat="42.95568" lon="1.76955">
        <ele>440.42126464844</ele>
        <time>2012-04-08T10:52:22Z</time>
      </trkpt>
      <trkpt lat="42.95565" lon="1.76971">
        <ele>439.45971679688</ele>
        <time>2012-04-08T10:52:27Z</time>
      </trkpt>
      <trkpt lat="42.95561" lon="1.76986">
        <ele>439.45971679688</ele>
        <time>2012-04-08T10:52:32Z</time>
      </trkpt>
      <trkpt lat="42.9556" lon="1.76988">
        <ele>438.97912597656</ele>
        <time>2012-04-08T10:52:33Z</time>
      </trkpt>
      <trkpt lat="42.95559" lon="1.76994">
        <ele>438.49853515625</ele>
        <time>2012-04-08T10:52:38Z</time>
      </trkpt>
      <trkpt lat="42.95556" lon="1.77003">
        <ele>438.49853515625</ele>
        <time>2012-04-08T10:52:44Z</time>
      </trkpt>
      <trkpt lat="42.95554" lon="1.7701">
        <ele>438.49853515625</ele>
        <time>2012-04-08T10:52:48Z</time>
      </trkpt>
      <trkpt lat="42.95551" lon="1.77025">
        <ele>439.45971679688</ele>
        <time>2012-04-08T10:52:56Z</time>
      </trkpt>
      <trkpt lat="42.95547" lon="1.77033">
        <ele>438.97912597656</ele>
        <time>2012-04-08T10:53:02Z</time>
      </trkpt>
      <trkpt lat="42.95546" lon="1.77043">
        <ele>438.01782226562</ele>
        <time>2012-04-08T10:53:08Z</time>
      </trkpt>
      <trkpt lat="42.95542" lon="1.77051">
        <ele>437.537109375</ele>
        <time>2012-04-08T10:53:14Z</time>
      </trkpt>
      <trkpt lat="42.95537" lon="1.77062">
        <ele>437.05651855469</ele>
        <time>2012-04-08T10:53:20Z</time>
      </trkpt>
      <trkpt lat="42.95536" lon="1.77065">
        <ele>436.57592773438</ele>
        <time>2012-04-08T10:53:21Z</time>
      </trkpt>
      <trkpt lat="42.95527" lon="1.77086">
        <ele>435.13391113281</ele>
        <time>2012-04-08T10:53:28Z</time>
      </trkpt>
      <trkpt lat="42.95523" lon="1.77104">
        <ele>435.61450195312</ele>
        <time>2012-04-08T10:53:33Z</time>
      </trkpt>
      <trkpt lat="42.95523" lon="1.77107">
        <ele>435.61450195312</ele>
        <time>2012-04-08T10:53:34Z</time>
      </trkpt>
      <trkpt lat="42.9552" lon="1.77119">
        <ele>436.09521484375</ele>
        <time>2012-04-08T10:53:38Z</time>
      </trkpt>
      <trkpt lat="42.95515" lon="1.77138">
        <ele>437.537109375</ele>
        <time>2012-04-08T10:53:44Z</time>
      </trkpt>
      <trkpt lat="42.95515" lon="1.77151">
        <ele>437.537109375</ele>
        <time>2012-04-08T10:53:48Z</time>
      </trkpt>
      <trkpt lat="42.95515" lon="1.77158">
        <ele>437.537109375</ele>
        <time>2012-04-08T10:53:51Z</time>
      </trkpt>
      <trkpt lat="42.95517" lon="1.77171">
        <ele>439.45971679688</ele>
        <time>2012-04-08T10:53:56Z</time>
      </trkpt>
      <trkpt lat="42.9552" lon="1.77186">
        <ele>440.42126464844</ele>
        <time>2012-04-08T10:54:01Z</time>
      </trkpt>
      <trkpt lat="42.95517" lon="1.77204">
        <ele>441.38244628906</ele>
        <time>2012-04-08T10:54:07Z</time>
      </trkpt>
      <trkpt lat="42.95511" lon="1.77221">
        <ele>442.34387207031</ele>
        <time>2012-04-08T10:54:13Z</time>
      </trkpt>
      <trkpt lat="42.95508" lon="1.77229">
        <ele>443.30505371094</ele>
        <time>2012-04-08T10:54:16Z</time>
      </trkpt>
      <trkpt lat="42.95502" lon="1.77243">
        <ele>444.26647949219</ele>
        <time>2012-04-08T10:54:21Z</time>
      </trkpt>
      <trkpt lat="42.95498" lon="1.77254">
        <ele>444.26647949219</ele>
        <time>2012-04-08T10:54:25Z</time>
      </trkpt>
      <trkpt lat="42.95493" lon="1.77266">
        <ele>442.82446289062</ele>
        <time>2012-04-08T10:54:30Z</time>
      </trkpt>
      <trkpt lat="42.95492" lon="1.77278">
        <ele>443.30505371094</ele>
        <time>2012-04-08T10:54:35Z</time>
      </trkpt>
      <trkpt lat="42.95488" lon="1.77293">
        <ele>443.78576660156</ele>
        <time>2012-04-08T10:54:40Z</time>
      </trkpt>
      <trkpt lat="42.95486" lon="1.77309">
        <ele>442.82446289062</ele>
        <time>2012-04-08T10:54:45Z</time>
      </trkpt>
      <trkpt lat="42.95483" lon="1.77331">
        <ele>441.86315917969</ele>
        <time>2012-04-08T10:54:52Z</time>
      </trkpt>
      <trkpt lat="42.95481" lon="1.77347">
        <ele>441.86315917969</ele>
        <time>2012-04-08T10:54:57Z</time>
      </trkpt>
      <trkpt lat="42.95474" lon="1.77355">
        <ele>441.86315917969</ele>
        <time>2012-04-08T10:55:02Z</time>
      </trkpt>
      <trkpt lat="42.95468" lon="1.77363">
        <ele>439.9404296875</ele>
        <time>2012-04-08T10:55:09Z</time>
      </trkpt>
      <trkpt lat="42.95462" lon="1.77371">
        <ele>440.42126464844</ele>
        <time>2012-04-08T10:55:15Z</time>
      </trkpt>
      <trkpt lat="42.95457" lon="1.77377">
        <ele>441.86315917969</ele>
        <time>2012-04-08T10:55:18Z</time>
      </trkpt>
      <trkpt lat="42.95452" lon="1.77384">
        <ele>442.34387207031</ele>
        <time>2012-04-08T10:55:21Z</time>
      </trkpt>
      <trkpt lat="42.95445" lon="1.77397">
        <ele>443.30505371094</ele>
        <time>2012-04-08T10:55:26Z</time>
      </trkpt>
      <trkpt lat="42.95443" lon="1.77399">
        <ele>443.30505371094</ele>
        <time>2012-04-08T10:55:27Z</time>
      </trkpt>
      <trkpt lat="42.95432" lon="1.77404">
        <ele>441.38244628906</ele>
        <time>2012-04-08T10:55:32Z</time>
      </trkpt>
      <trkpt lat="42.9542" lon="1.77414">
        <ele>440.90185546875</ele>
        <time>2012-04-08T10:55:38Z</time>
      </trkpt>
      <trkpt lat="42.95407" lon="1.77426">
        <ele>439.9404296875</ele>
        <time>2012-04-08T10:55:43Z</time>
      </trkpt>
      <trkpt lat="42.95398" lon="1.77435">
        <ele>439.45971679688</ele>
        <time>2012-04-08T10:55:47Z</time>
      </trkpt>
      <trkpt lat="42.95392" lon="1.77446">
        <ele>440.42126464844</ele>
        <time>2012-04-08T10:55:52Z</time>
      </trkpt>
      <trkpt lat="42.95385" lon="1.77457">
        <ele>442.34387207031</ele>
        <time>2012-04-08T10:55:56Z</time>
      </trkpt>
      <trkpt lat="42.95378" lon="1.77477">
        <ele>443.78576660156</ele>
        <time>2012-04-08T10:56:02Z</time>
      </trkpt>
      <trkpt lat="42.95377" lon="1.77481">
        <ele>442.82446289062</ele>
        <time>2012-04-08T10:56:04Z</time>
      </trkpt>
      <trkpt lat="42.95368" lon="1.77493">
        <ele>443.78576660156</ele>
        <time>2012-04-08T10:56:09Z</time>
      </trkpt>
      <trkpt lat="42.95359" lon="1.77508">
        <ele>442.82446289062</ele>
        <time>2012-04-08T10:56:15Z</time>
      </trkpt>
      <trkpt lat="42.95353" lon="1.77523">
        <ele>442.34387207031</ele>
        <time>2012-04-08T10:56:20Z</time>
      </trkpt>
      <trkpt lat="42.95347" lon="1.77536">
        <ele>441.38244628906</ele>
        <time>2012-04-08T10:56:25Z</time>
      </trkpt>
      <trkpt lat="42.95342" lon="1.77547">
        <ele>441.38244628906</ele>
        <time>2012-04-08T10:56:30Z</time>
      </trkpt>
      <trkpt lat="42.9534" lon="1.77554">
        <ele>442.82446289062</ele>
        <time>2012-04-08T10:56:34Z</time>
      </trkpt>
      <trkpt lat="42.95337" lon="1.7756">
        <ele>442.82446289062</ele>
        <time>2012-04-08T10:56:39Z</time>
      </trkpt>
      <trkpt lat="42.95337" lon="1.77573">
        <ele>442.34387207031</ele>
        <time>2012-04-08T10:56:46Z</time>
      </trkpt>
      <trkpt lat="42.95335" lon="1.77583">
        <ele>440.90185546875</ele>
        <time>2012-04-08T10:56:52Z</time>
      </trkpt>
      <trkpt lat="42.95333" lon="1.77596">
        <ele>440.42126464844</ele>
        <time>2012-04-08T10:56:58Z</time>
      </trkpt>
      <trkpt lat="42.95332" lon="1.77601">
        <ele>440.90185546875</ele>
        <time>2012-04-08T10:57:01Z</time>
      </trkpt>
      <trkpt lat="42.95333" lon="1.77618">
        <ele>441.38244628906</ele>
        <time>2012-04-08T10:57:11Z</time>
      </trkpt>
      <trkpt lat="42.95332" lon="1.77632">
        <ele>440.90185546875</ele>
        <time>2012-04-08T10:57:19Z</time>
      </trkpt>
      <trkpt lat="42.95331" lon="1.77637">
        <ele>440.42126464844</ele>
        <time>2012-04-08T10:57:22Z</time>
      </trkpt>
      <trkpt lat="42.95328" lon="1.77647">
        <ele>440.90185546875</ele>
        <time>2012-04-08T10:57:27Z</time>
      </trkpt>
      <trkpt lat="42.95324" lon="1.77659">
        <ele>440.42126464844</ele>
        <time>2012-04-08T10:57:32Z</time>
      </trkpt>
      <trkpt lat="42.9532" lon="1.7767">
        <ele>440.90185546875</ele>
        <time>2012-04-08T10:57:38Z</time>
      </trkpt>
      <trkpt lat="42.95315" lon="1.77684">
        <ele>442.82446289062</ele>
        <time>2012-04-08T10:57:46Z</time>
      </trkpt>
      <trkpt lat="42.95305" lon="1.77697">
        <ele>442.82446289062</ele>
        <time>2012-04-08T10:57:55Z</time>
      </trkpt>
      <trkpt lat="42.95298" lon="1.7771">
        <ele>444.26647949219</ele>
        <time>2012-04-08T10:58:03Z</time>
      </trkpt>
      <trkpt lat="42.95293" lon="1.77718">
        <ele>444.26647949219</ele>
        <time>2012-04-08T10:58:08Z</time>
      </trkpt>
      <trkpt lat="42.95289" lon="1.7773">
        <ele>445.22766113281</ele>
        <time>2012-04-08T10:58:15Z</time>
      </trkpt>
      <trkpt lat="42.95287" lon="1.77742">
        <ele>442.82446289062</ele>
        <time>2012-04-08T10:58:22Z</time>
      </trkpt>
      <trkpt lat="42.95287" lon="1.77749">
        <ele>441.86315917969</ele>
        <time>2012-04-08T10:58:26Z</time>
      </trkpt>
      <trkpt lat="42.95287" lon="1.77751">
        <ele>441.86315917969</ele>
        <time>2012-04-08T10:58:27Z</time>
      </trkpt>
      <trkpt lat="42.95289" lon="1.77759">
        <ele>441.86315917969</ele>
        <time>2012-04-08T10:58:32Z</time>
      </trkpt>
      <trkpt lat="42.95292" lon="1.77768">
        <ele>441.38244628906</ele>
        <time>2012-04-08T10:58:37Z</time>
      </trkpt>
      <trkpt lat="42.95292" lon="1.7777">
        <ele>441.38244628906</ele>
        <time>2012-04-08T10:58:38Z</time>
      </trkpt>
      <trkpt lat="42.95293" lon="1.77773">
        <ele>440.90185546875</ele>
        <time>2012-04-08T10:58:40Z</time>
      </trkpt>
      <trkpt lat="42.95292" lon="1.77783">
        <ele>439.45971679688</ele>
        <time>2012-04-08T10:58:46Z</time>
      </trkpt>
      <trkpt lat="42.95287" lon="1.77789">
        <ele>439.45971679688</ele>
        <time>2012-04-08T10:58:51Z</time>
      </trkpt>
      <trkpt lat="42.95282" lon="1.77794">
        <ele>439.45971679688</ele>
        <time>2012-04-08T10:58:55Z</time>
      </trkpt>
      <trkpt lat="42.95275" lon="1.77806">
        <ele>440.90185546875</ele>
        <time>2012-04-08T10:59:03Z</time>
      </trkpt>
      <trkpt lat="42.95272" lon="1.77816">
        <ele>440.42126464844</ele>
        <time>2012-04-08T10:59:08Z</time>
      </trkpt>
      <trkpt lat="42.95269" lon="1.77826">
        <ele>440.90185546875</ele>
        <time>2012-04-08T10:59:13Z</time>
      </trkpt>
      <trkpt lat="42.95264" lon="1.7784">
        <ele>441.86315917969</ele>
        <time>2012-04-08T10:59:20Z</time>
      </trkpt>
      <trkpt lat="42.95258" lon="1.77853">
        <ele>443.78576660156</ele>
        <time>2012-04-08T10:59:28Z</time>
      </trkpt>
      <trkpt lat="42.95248" lon="1.77863">
        <ele>444.7470703125</ele>
        <time>2012-04-08T10:59:36Z</time>
      </trkpt>
      <trkpt lat="42.95244" lon="1.77868">
        <ele>445.22766113281</ele>
        <time>2012-04-08T10:59:40Z</time>
      </trkpt>
      <trkpt lat="42.95235" lon="1.77879">
        <ele>446.66967773438</ele>
        <time>2012-04-08T10:59:45Z</time>
      </trkpt>
      <trkpt lat="42.95229" lon="1.77888">
        <ele>447.63098144531</ele>
        <time>2012-04-08T10:59:49Z</time>
      </trkpt>
      <trkpt lat="42.95219" lon="1.77899">
        <ele>448.11181640625</ele>
        <time>2012-04-08T10:59:54Z</time>
      </trkpt>
      <trkpt lat="42.95212" lon="1.77909">
        <ele>448.11181640625</ele>
        <time>2012-04-08T10:59:58Z</time>
      </trkpt>
      <trkpt lat="42.95204" lon="1.77921">
        <ele>447.63098144531</ele>
        <time>2012-04-08T11:00:03Z</time>
      </trkpt>
      <trkpt lat="42.95199" lon="1.77928">
        <ele>447.63098144531</ele>
        <time>2012-04-08T11:00:06Z</time>
      </trkpt>
      <trkpt lat="42.95193" lon="1.77941">
        <ele>448.11181640625</ele>
        <time>2012-04-08T11:00:11Z</time>
      </trkpt>
      <trkpt lat="42.95192" lon="1.77944">
        <ele>448.11181640625</ele>
        <time>2012-04-08T11:00:12Z</time>
      </trkpt>
      <trkpt lat="42.95189" lon="1.77953">
        <ele>448.11181640625</ele>
        <time>2012-04-08T11:00:15Z</time>
      </trkpt>
      <trkpt lat="42.95184" lon="1.77972">
        <ele>448.59240722656</ele>
        <time>2012-04-08T11:00:21Z</time>
      </trkpt>
      <trkpt lat="42.95181" lon="1.77984">
        <ele>448.11181640625</ele>
        <time>2012-04-08T11:00:25Z</time>
      </trkpt>
      <trkpt lat="42.9518" lon="1.77987">
        <ele>448.11181640625</ele>
        <time>2012-04-08T11:00:26Z</time>
      </trkpt>
      <trkpt lat="42.95173" lon="1.78005">
        <ele>447.63098144531</ele>
        <time>2012-04-08T11:00:32Z</time>
      </trkpt>
      <trkpt lat="42.95173" lon="1.78008">
        <ele>447.15026855469</ele>
        <time>2012-04-08T11:00:33Z</time>
      </trkpt>
      <trkpt lat="42.95166" lon="1.78023">
        <ele>447.63098144531</ele>
        <time>2012-04-08T11:00:39Z</time>
      </trkpt>
      <trkpt lat="42.9516" lon="1.78032">
        <ele>448.11181640625</ele>
        <time>2012-04-08T11:00:44Z</time>
      </trkpt>
      <trkpt lat="42.95152" lon="1.78038">
        <ele>448.11181640625</ele>
        <time>2012-04-08T11:00:48Z</time>
      </trkpt>
      <trkpt lat="42.95145" lon="1.78041">
        <ele>449.07299804688</ele>
        <time>2012-04-08T11:00:51Z</time>
      </trkpt>
      <trkpt lat="42.95135" lon="1.78051">
        <ele>449.07299804688</ele>
        <time>2012-04-08T11:00:56Z</time>
      </trkpt>
      <trkpt lat="42.95132" lon="1.78063">
        <ele>450.99560546875</ele>
        <time>2012-04-08T11:01:00Z</time>
      </trkpt>
      <trkpt lat="42.95127" lon="1.78078">
        <ele>452.91821289062</ele>
        <time>2012-04-08T11:01:07Z</time>
      </trkpt>
      <trkpt lat="42.95125" lon="1.78088">
        <ele>452.43762207031</ele>
        <time>2012-04-08T11:01:12Z</time>
      </trkpt>
      <trkpt lat="42.95124" lon="1.781">
        <ele>451.95703125</ele>
        <time>2012-04-08T11:01:18Z</time>
      </trkpt>
      <trkpt lat="42.95123" lon="1.78107">
        <ele>450.99560546875</ele>
        <time>2012-04-08T11:01:22Z</time>
      </trkpt>
      <trkpt lat="42.95123" lon="1.78119">
        <ele>449.07299804688</ele>
        <time>2012-04-08T11:01:29Z</time>
      </trkpt>
      <trkpt lat="42.95121" lon="1.78124">
        <ele>449.07299804688</ele>
        <time>2012-04-08T11:01:32Z</time>
      </trkpt>
      <trkpt lat="42.9512" lon="1.78127">
        <ele>450.03442382812</ele>
        <time>2012-04-08T11:01:34Z</time>
      </trkpt>
      <trkpt lat="42.95111" lon="1.78134">
        <ele>448.59240722656</ele>
        <time>2012-04-08T11:01:41Z</time>
      </trkpt>
      <trkpt lat="42.95106" lon="1.78135">
        <ele>448.11181640625</ele>
        <time>2012-04-08T11:01:44Z</time>
      </trkpt>
      <trkpt lat="42.95097" lon="1.78132">
        <ele>448.11181640625</ele>
        <time>2012-04-08T11:01:49Z</time>
      </trkpt>
      <trkpt lat="42.95086" lon="1.78124">
        <ele>449.07299804688</ele>
        <time>2012-04-08T11:01:53Z</time>
      </trkpt>
      <trkpt lat="42.95077" lon="1.78121">
        <ele>450.03442382812</ele>
        <time>2012-04-08T11:01:56Z</time>
      </trkpt>
      <trkpt lat="42.95058" lon="1.78125">
        <ele>450.51501464844</ele>
        <time>2012-04-08T11:02:02Z</time>
      </trkpt>
      <trkpt lat="42.95055" lon="1.78125">
        <ele>450.51501464844</ele>
        <time>2012-04-08T11:02:03Z</time>
      </trkpt>
      <trkpt lat="42.95046" lon="1.78118">
        <ele>450.03442382812</ele>
        <time>2012-04-08T11:02:07Z</time>
      </trkpt>
      <trkpt lat="42.95038" lon="1.78109">
        <ele>448.11181640625</ele>
        <time>2012-04-08T11:02:11Z</time>
      </trkpt>
      <trkpt lat="42.9503" lon="1.781">
        <ele>446.18908691406</ele>
        <time>2012-04-08T11:02:15Z</time>
      </trkpt>
      <trkpt lat="42.95025" lon="1.78097">
        <ele>445.70837402344</ele>
        <time>2012-04-08T11:02:17Z</time>
      </trkpt>
      <trkpt lat="42.9501" lon="1.78087">
        <ele>446.18908691406</ele>
        <time>2012-04-08T11:02:23Z</time>
      </trkpt>
      <trkpt lat="42.94998" lon="1.78076">
        <ele>446.66967773438</ele>
        <time>2012-04-08T11:02:29Z</time>
      </trkpt>
      <trkpt lat="42.94986" lon="1.78066">
        <ele>447.63098144531</ele>
        <time>2012-04-08T11:02:34Z</time>
      </trkpt>
      <trkpt lat="42.94975" lon="1.78059">
        <ele>447.15026855469</ele>
        <time>2012-04-08T11:02:38Z</time>
      </trkpt>
      <trkpt lat="42.94967" lon="1.7805">
        <ele>448.11181640625</ele>
        <time>2012-04-08T11:02:42Z</time>
      </trkpt>
      <trkpt lat="42.94965" lon="1.78046">
        <ele>448.11181640625</ele>
        <time>2012-04-08T11:02:43Z</time>
      </trkpt>
      <trkpt lat="42.94953" lon="1.78024">
        <ele>449.5537109375</ele>
        <time>2012-04-08T11:02:50Z</time>
      </trkpt>
      <trkpt lat="42.94947" lon="1.78014">
        <ele>449.5537109375</ele>
        <time>2012-04-08T11:02:54Z</time>
      </trkpt>
      <trkpt lat="42.94942" lon="1.78002">
        <ele>449.5537109375</ele>
        <time>2012-04-08T11:02:58Z</time>
      </trkpt>
      <trkpt lat="42.94941" lon="1.77992">
        <ele>448.59240722656</ele>
        <time>2012-04-08T11:03:01Z</time>
      </trkpt>
      <trkpt lat="42.94934" lon="1.77977">
        <ele>449.07299804688</ele>
        <time>2012-04-08T11:03:06Z</time>
      </trkpt>
      <trkpt lat="42.94932" lon="1.77965">
        <ele>447.63098144531</ele>
        <time>2012-04-08T11:03:10Z</time>
      </trkpt>
      <trkpt lat="42.9493" lon="1.77949">
        <ele>446.18908691406</ele>
        <time>2012-04-08T11:03:15Z</time>
      </trkpt>
      <trkpt lat="42.94925" lon="1.77932">
        <ele>446.18908691406</ele>
        <time>2012-04-08T11:03:20Z</time>
      </trkpt>
      <trkpt lat="42.94923" lon="1.77927">
        <ele>446.18908691406</ele>
        <time>2012-04-08T11:03:24Z</time>
      </trkpt>
      <trkpt lat="42.94918" lon="1.77917">
        <ele>445.22766113281</ele>
        <time>2012-04-08T11:03:30Z</time>
      </trkpt>
      <trkpt lat="42.94913" lon="1.77907">
        <ele>445.70837402344</ele>
        <time>2012-04-08T11:03:37Z</time>
      </trkpt>
      <trkpt lat="42.94907" lon="1.77894">
        <ele>444.26647949219</ele>
        <time>2012-04-08T11:03:45Z</time>
      </trkpt>
      <trkpt lat="42.94902" lon="1.77885">
        <ele>443.30505371094</ele>
        <time>2012-04-08T11:03:51Z</time>
      </trkpt>
      <trkpt lat="42.94896" lon="1.77877">
        <ele>443.30505371094</ele>
        <time>2012-04-08T11:03:57Z</time>
      </trkpt>
      <trkpt lat="42.94891" lon="1.77873">
        <ele>441.86315917969</ele>
        <time>2012-04-08T11:04:03Z</time>
      </trkpt>
      <trkpt lat="42.94889" lon="1.77872">
        <ele>441.86315917969</ele>
        <time>2012-04-08T11:04:04Z</time>
      </trkpt>
      <trkpt lat="42.94885" lon="1.77867">
        <ele>440.42126464844</ele>
        <time>2012-04-08T11:04:08Z</time>
      </trkpt>
      <trkpt lat="42.9488" lon="1.77863">
        <ele>437.05651855469</ele>
        <time>2012-04-08T11:04:13Z</time>
      </trkpt>
      <trkpt lat="42.94875" lon="1.77862">
        <ele>435.13391113281</ele>
        <time>2012-04-08T11:04:16Z</time>
      </trkpt>
      <trkpt lat="42.94871" lon="1.7786">
        <ele>433.69189453125</ele>
        <time>2012-04-08T11:04:20Z</time>
      </trkpt>
      <trkpt lat="42.94862" lon="1.77861">
        <ele>440.90185546875</ele>
        <time>2012-04-08T11:04:26Z</time>
      </trkpt>
      <trkpt lat="42.94856" lon="1.77863">
        <ele>442.34387207031</ele>
        <time>2012-04-08T11:04:30Z</time>
      </trkpt>
      <trkpt lat="42.9485" lon="1.77866">
        <ele>445.22766113281</ele>
        <time>2012-04-08T11:04:35Z</time>
      </trkpt>
      <trkpt lat="42.94846" lon="1.77866">
        <ele>445.70837402344</ele>
        <time>2012-04-08T11:04:38Z</time>
      </trkpt>
      <trkpt lat="42.94839" lon="1.77868">
        <ele>446.18908691406</ele>
        <time>2012-04-08T11:04:43Z</time>
      </trkpt>
      <trkpt lat="42.94831" lon="1.77872">
        <ele>446.18908691406</ele>
        <time>2012-04-08T11:04:49Z</time>
      </trkpt>
      <trkpt lat="42.94826" lon="1.77874">
        <ele>446.18908691406</ele>
        <time>2012-04-08T11:04:53Z</time>
      </trkpt>
      <trkpt lat="42.94822" lon="1.77875">
        <ele>444.26647949219</ele>
        <time>2012-04-08T11:04:57Z</time>
      </trkpt>
      <trkpt lat="42.94815" lon="1.77876">
        <ele>443.78576660156</ele>
        <time>2012-04-08T11:05:02Z</time>
      </trkpt>
      <trkpt lat="42.94813" lon="1.77877">
        <ele>444.26647949219</ele>
        <time>2012-04-08T11:05:03Z</time>
      </trkpt>
      <trkpt lat="42.94809" lon="1.77876">
        <ele>443.78576660156</ele>
        <time>2012-04-08T11:05:06Z</time>
      </trkpt>
      <trkpt lat="42.94802" lon="1.77879">
        <ele>441.38244628906</ele>
        <time>2012-04-08T11:05:12Z</time>
      </trkpt>
      <trkpt lat="42.94797" lon="1.7788">
        <ele>441.38244628906</ele>
        <time>2012-04-08T11:05:16Z</time>
      </trkpt>
      <trkpt lat="42.94788" lon="1.77882">
        <ele>438.49853515625</ele>
        <time>2012-04-08T11:05:22Z</time>
      </trkpt>
      <trkpt lat="42.94785" lon="1.77882">
        <ele>438.97912597656</ele>
        <time>2012-04-08T11:05:25Z</time>
      </trkpt>
      <trkpt lat="42.94781" lon="1.7788">
        <ele>439.45971679688</ele>
        <time>2012-04-08T11:05:29Z</time>
      </trkpt>
      <trkpt lat="42.94775" lon="1.77877">
        <ele>438.97912597656</ele>
        <time>2012-04-08T11:05:34Z</time>
      </trkpt>
      <trkpt lat="42.94772" lon="1.77877">
        <ele>439.45971679688</ele>
        <time>2012-04-08T11:05:36Z</time>
      </trkpt>
      <trkpt lat="42.94768" lon="1.77878">
        <ele>438.97912597656</ele>
        <time>2012-04-08T11:05:39Z</time>
      </trkpt>
      <trkpt lat="42.94758" lon="1.77878">
        <ele>437.05651855469</ele>
        <time>2012-04-08T11:05:46Z</time>
      </trkpt>
      <trkpt lat="42.94751" lon="1.77877">
        <ele>437.537109375</ele>
        <time>2012-04-08T11:05:51Z</time>
      </trkpt>
      <trkpt lat="42.94744" lon="1.77879">
        <ele>442.34387207031</ele>
        <time>2012-04-08T11:05:56Z</time>
      </trkpt>
      <trkpt lat="42.94743" lon="1.7788">
        <ele>443.78576660156</ele>
        <time>2012-04-08T11:05:57Z</time>
      </trkpt>
      <trkpt lat="42.9474" lon="1.77879">
        <ele>445.70837402344</ele>
        <time>2012-04-08T11:05:59Z</time>
      </trkpt>
      <trkpt lat="42.94732" lon="1.77879">
        <ele>444.7470703125</ele>
        <time>2012-04-08T11:06:05Z</time>
      </trkpt>
      <trkpt lat="42.94728" lon="1.77879">
        <ele>445.70837402344</ele>
        <time>2012-04-08T11:06:07Z</time>
      </trkpt>
      <trkpt lat="42.94719" lon="1.7788">
        <ele>448.59240722656</ele>
        <time>2012-04-08T11:06:15Z</time>
      </trkpt>
      <trkpt lat="42.94713" lon="1.77881">
        <ele>447.15026855469</ele>
        <time>2012-04-08T11:06:20Z</time>
      </trkpt>
      <trkpt lat="42.94701" lon="1.77884">
        <ele>442.34387207031</ele>
        <time>2012-04-08T11:06:27Z</time>
      </trkpt>
      <trkpt lat="42.947" lon="1.77884">
        <ele>442.34387207031</ele>
        <time>2012-04-08T11:06:28Z</time>
      </trkpt>
      <trkpt lat="42.94697" lon="1.77883">
        <ele>441.86315917969</ele>
        <time>2012-04-08T11:06:30Z</time>
      </trkpt>
      <trkpt lat="42.94688" lon="1.77881">
        <ele>441.86315917969</ele>
        <time>2012-04-08T11:06:36Z</time>
      </trkpt>
      <trkpt lat="42.94681" lon="1.77879">
        <ele>444.26647949219</ele>
        <time>2012-04-08T11:06:41Z</time>
      </trkpt>
      <trkpt lat="42.94678" lon="1.77879">
        <ele>444.26647949219</ele>
        <time>2012-04-08T11:06:43Z</time>
      </trkpt>
      <trkpt lat="42.94675" lon="1.77877">
        <ele>443.78576660156</ele>
        <time>2012-04-08T11:06:46Z</time>
      </trkpt>
      <trkpt lat="42.94666" lon="1.77876">
        <ele>446.18908691406</ele>
        <time>2012-04-08T11:06:53Z</time>
      </trkpt>
      <trkpt lat="42.94661" lon="1.77877">
        <ele>447.63098144531</ele>
        <time>2012-04-08T11:06:57Z</time>
      </trkpt>
      <trkpt lat="42.94657" lon="1.7788">
        <ele>451.95703125</ele>
        <time>2012-04-08T11:07:00Z</time>
      </trkpt>
      <trkpt lat="42.94653" lon="1.7788">
        <ele>450.99560546875</ele>
        <time>2012-04-08T11:07:04Z</time>
      </trkpt>
      <trkpt lat="42.94648" lon="1.77885">
        <ele>450.99560546875</ele>
        <time>2012-04-08T11:07:09Z</time>
      </trkpt>
      <trkpt lat="42.94643" lon="1.77892">
        <ele>452.43762207031</ele>
        <time>2012-04-08T11:07:15Z</time>
      </trkpt>
      <trkpt lat="42.94636" lon="1.77896">
        <ele>450.51501464844</ele>
        <time>2012-04-08T11:07:21Z</time>
      </trkpt>
      <trkpt lat="42.94635" lon="1.77898">
        <ele>449.5537109375</ele>
        <time>2012-04-08T11:07:23Z</time>
      </trkpt>
      <trkpt lat="42.94632" lon="1.779">
        <ele>448.59240722656</ele>
        <time>2012-04-08T11:07:25Z</time>
      </trkpt>
      <trkpt lat="42.9463" lon="1.779">
        <ele>447.63098144531</ele>
        <time>2012-04-08T11:07:27Z</time>
      </trkpt>
      <trkpt lat="42.94622" lon="1.77909">
        <ele>446.66967773438</ele>
        <time>2012-04-08T11:07:32Z</time>
      </trkpt>
      <trkpt lat="42.94614" lon="1.77919">
        <ele>446.18908691406</ele>
        <time>2012-04-08T11:07:38Z</time>
      </trkpt>
      <trkpt lat="42.94609" lon="1.7793">
        <ele>447.15026855469</ele>
        <time>2012-04-08T11:07:43Z</time>
      </trkpt>
      <trkpt lat="42.94604" lon="1.77944">
        <ele>449.5537109375</ele>
        <time>2012-04-08T11:07:49Z</time>
      </trkpt>
      <trkpt lat="42.94601" lon="1.77957">
        <ele>450.51501464844</ele>
        <time>2012-04-08T11:07:54Z</time>
      </trkpt>
      <trkpt lat="42.946" lon="1.77963">
        <ele>449.07299804688</ele>
        <time>2012-04-08T11:07:57Z</time>
      </trkpt>
      <trkpt lat="42.94598" lon="1.77968">
        <ele>448.59240722656</ele>
        <time>2012-04-08T11:08:00Z</time>
      </trkpt>
      <trkpt lat="42.94592" lon="1.77977">
        <ele>449.5537109375</ele>
        <time>2012-04-08T11:08:05Z</time>
      </trkpt>
      <trkpt lat="42.94591" lon="1.77979">
        <ele>449.5537109375</ele>
        <time>2012-04-08T11:08:06Z</time>
      </trkpt>
      <trkpt lat="42.94588" lon="1.77987">
        <ele>449.5537109375</ele>
        <time>2012-04-08T11:08:11Z</time>
      </trkpt>
      <trkpt lat="42.94582" lon="1.77999">
        <ele>450.99560546875</ele>
        <time>2012-04-08T11:08:18Z</time>
      </trkpt>
      <trkpt lat="42.94577" lon="1.78007">
        <ele>450.99560546875</ele>
        <time>2012-04-08T11:08:23Z</time>
      </trkpt>
      <trkpt lat="42.94572" lon="1.78017">
        <ele>450.51501464844</ele>
        <time>2012-04-08T11:08:29Z</time>
      </trkpt>
      <trkpt lat="42.94571" lon="1.78019">
        <ele>450.51501464844</ele>
        <time>2012-04-08T11:08:30Z</time>
      </trkpt>
      <trkpt lat="42.94564" lon="1.78027">
        <ele>451.95703125</ele>
        <time>2012-04-08T11:08:36Z</time>
      </trkpt>
      <trkpt lat="42.94561" lon="1.78029">
        <ele>450.51501464844</ele>
        <time>2012-04-08T11:08:39Z</time>
      </trkpt>
      <trkpt lat="42.94559" lon="1.7803">
        <ele>450.03442382812</ele>
        <time>2012-04-08T11:08:41Z</time>
      </trkpt>
      <trkpt lat="42.94558" lon="1.7803">
        <ele>449.07299804688</ele>
        <time>2012-04-08T11:08:43Z</time>
      </trkpt>
      <trkpt lat="42.94553" lon="1.78035">
        <ele>447.15026855469</ele>
        <time>2012-04-08T11:08:49Z</time>
      </trkpt>
      <trkpt lat="42.94545" lon="1.78044">
        <ele>449.07299804688</ele>
        <time>2012-04-08T11:08:53Z</time>
      </trkpt>
      <trkpt lat="42.94541" lon="1.78048">
        <ele>448.59240722656</ele>
        <time>2012-04-08T11:08:58Z</time>
      </trkpt>
      <trkpt lat="42.94537" lon="1.78052">
        <ele>449.07299804688</ele>
        <time>2012-04-08T11:09:03Z</time>
      </trkpt>
      <trkpt lat="42.9453" lon="1.78055">
        <ele>447.15026855469</ele>
        <time>2012-04-08T11:09:08Z</time>
      </trkpt>
      <trkpt lat="42.94528" lon="1.78057">
        <ele>447.63098144531</ele>
        <time>2012-04-08T11:09:10Z</time>
      </trkpt>
      <trkpt lat="42.94525" lon="1.7806">
        <ele>446.66967773438</ele>
        <time>2012-04-08T11:09:13Z</time>
      </trkpt>
      <trkpt lat="42.94519" lon="1.78064">
        <ele>446.18908691406</ele>
        <time>2012-04-08T11:09:18Z</time>
      </trkpt>
      <trkpt lat="42.94516" lon="1.78069">
        <ele>447.15026855469</ele>
        <time>2012-04-08T11:09:21Z</time>
      </trkpt>
      <trkpt lat="42.94513" lon="1.78072">
        <ele>447.63098144531</ele>
        <time>2012-04-08T11:09:23Z</time>
      </trkpt>
      <trkpt lat="42.94506" lon="1.78076">
        <ele>449.07299804688</ele>
        <time>2012-04-08T11:09:29Z</time>
      </trkpt>
      <trkpt lat="42.94503" lon="1.78076">
        <ele>449.07299804688</ele>
        <time>2012-04-08T11:09:32Z</time>
      </trkpt>
      <trkpt lat="42.94498" lon="1.78083">
        <ele>448.11181640625</ele>
        <time>2012-04-08T11:09:37Z</time>
      </trkpt>
      <trkpt lat="42.94497" lon="1.78086">
        <ele>449.07299804688</ele>
        <time>2012-04-08T11:09:39Z</time>
      </trkpt>
      <trkpt lat="42.94492" lon="1.78091">
        <ele>449.07299804688</ele>
        <time>2012-04-08T11:09:44Z</time>
      </trkpt>
      <trkpt lat="42.94482" lon="1.78103">
        <ele>457.24426269531</ele>
        <time>2012-04-08T11:09:52Z</time>
      </trkpt>
      <trkpt lat="42.94481" lon="1.78105">
        <ele>457.72497558594</ele>
        <time>2012-04-08T11:09:53Z</time>
      </trkpt>
      <trkpt lat="42.94479" lon="1.78111">
        <ele>462.05078125</ele>
        <time>2012-04-08T11:09:58Z</time>
      </trkpt>
      <trkpt lat="42.94477" lon="1.78122">
        <ele>463.97338867188</ele>
        <time>2012-04-08T11:10:05Z</time>
      </trkpt>
      <trkpt lat="42.94473" lon="1.78132">
        <ele>466.37670898438</ele>
        <time>2012-04-08T11:10:12Z</time>
      </trkpt>
      <trkpt lat="42.94469" lon="1.7814">
        <ele>469.74133300781</ele>
        <time>2012-04-08T11:10:18Z</time>
      </trkpt>
      <trkpt lat="42.94465" lon="1.78146">
        <ele>472.14465332031</ele>
        <time>2012-04-08T11:10:23Z</time>
      </trkpt>
      <trkpt lat="42.94461" lon="1.78147">
        <ele>471.66394042969</ele>
        <time>2012-04-08T11:10:27Z</time>
      </trkpt>
      <trkpt lat="42.94458" lon="1.78151">
        <ele>471.66394042969</ele>
        <time>2012-04-08T11:10:31Z</time>
      </trkpt>
      <trkpt lat="42.94453" lon="1.78157">
        <ele>472.14465332031</ele>
        <time>2012-04-08T11:10:38Z</time>
      </trkpt>
      <trkpt lat="42.94449" lon="1.78163">
        <ele>473.10607910156</ele>
        <time>2012-04-08T11:10:44Z</time>
      </trkpt>
      <trkpt lat="42.94447" lon="1.78167">
        <ele>473.58666992188</ele>
        <time>2012-04-08T11:10:49Z</time>
      </trkpt>
      <trkpt lat="42.94441" lon="1.78175">
        <ele>477.43188476562</ele>
        <time>2012-04-08T11:10:57Z</time>
      </trkpt>
      <trkpt lat="42.9444" lon="1.78176">
        <ele>479.3544921875</ele>
        <time>2012-04-08T11:10:58Z</time>
      </trkpt>
      <trkpt lat="42.94434" lon="1.78182">
        <ele>477.43188476562</ele>
        <time>2012-04-08T11:11:05Z</time>
      </trkpt>
      <trkpt lat="42.9443" lon="1.78182">
        <ele>475.98986816406</ele>
        <time>2012-04-08T11:11:11Z</time>
      </trkpt>
      <trkpt lat="42.94425" lon="1.78183">
        <ele>475.98986816406</ele>
        <time>2012-04-08T11:11:21Z</time>
      </trkpt>
      <trkpt lat="42.94422" lon="1.78183">
        <ele>474.06726074219</ele>
        <time>2012-04-08T11:11:28Z</time>
      </trkpt>
      <trkpt lat="42.94417" lon="1.78185">
        <ele>476.95129394531</ele>
        <time>2012-04-08T11:11:37Z</time>
      </trkpt>
      <trkpt lat="42.94412" lon="1.78188">
        <ele>478.87390136719</ele>
        <time>2012-04-08T11:11:43Z</time>
      </trkpt>
      <trkpt lat="42.94407" lon="1.78191">
        <ele>481.27722167969</ele>
        <time>2012-04-08T11:11:50Z</time>
      </trkpt>
      <trkpt lat="42.94407" lon="1.78194">
        <ele>483.68041992188</ele>
        <time>2012-04-08T11:11:55Z</time>
      </trkpt>
      <trkpt lat="42.94404" lon="1.782">
        <ele>487.04504394531</ele>
        <time>2012-04-08T11:12:00Z</time>
      </trkpt>
      <trkpt lat="42.94402" lon="1.78207">
        <ele>491.37097167969</ele>
        <time>2012-04-08T11:12:06Z</time>
      </trkpt>
      <trkpt lat="42.94397" lon="1.78209">
        <ele>490.40979003906</ele>
        <time>2012-04-08T11:12:13Z</time>
      </trkpt>
      <trkpt lat="42.94394" lon="1.78209">
        <ele>488.9677734375</ele>
        <time>2012-04-08T11:12:18Z</time>
      </trkpt>
      <trkpt lat="42.94389" lon="1.7821">
        <ele>490.40979003906</ele>
        <time>2012-04-08T11:12:25Z</time>
      </trkpt>
      <trkpt lat="42.94387" lon="1.78212">
        <ele>492.33239746094</ele>
        <time>2012-04-08T11:12:30Z</time>
      </trkpt>
      <trkpt lat="42.94385" lon="1.78214">
        <ele>494.73559570312</ele>
        <time>2012-04-08T11:12:36Z</time>
      </trkpt>
      <trkpt lat="42.94385" lon="1.78217">
        <ele>496.177734375</ele>
        <time>2012-04-08T11:12:42Z</time>
      </trkpt>
      <trkpt lat="42.94384" lon="1.78219">
        <ele>497.13891601562</ele>
        <time>2012-04-08T11:12:43Z</time>
      </trkpt>
      <trkpt lat="42.94385" lon="1.78224">
        <ele>500.02294921875</ele>
        <time>2012-04-08T11:12:49Z</time>
      </trkpt>
      <trkpt lat="42.94383" lon="1.78227">
        <ele>501.94555664062</ele>
        <time>2012-04-08T11:12:55Z</time>
      </trkpt>
      <trkpt lat="42.9438" lon="1.78232">
        <ele>502.90673828125</ele>
        <time>2012-04-08T11:13:01Z</time>
      </trkpt>
      <trkpt lat="42.94374" lon="1.78235">
        <ele>500.98413085938</ele>
        <time>2012-04-08T11:13:09Z</time>
      </trkpt>
      <trkpt lat="42.94372" lon="1.78239">
        <ele>499.0615234375</ele>
        <time>2012-04-08T11:13:15Z</time>
      </trkpt>
      <trkpt lat="42.94371" lon="1.78247">
        <ele>501.94555664062</ele>
        <time>2012-04-08T11:13:22Z</time>
      </trkpt>
      <trkpt lat="42.94369" lon="1.78255">
        <ele>505.31018066406</ele>
        <time>2012-04-08T11:13:29Z</time>
      </trkpt>
      <trkpt lat="42.94369" lon="1.78262">
        <ele>505.79089355469</ele>
        <time>2012-04-08T11:13:34Z</time>
      </trkpt>
      <trkpt lat="42.94365" lon="1.78272">
        <ele>507.71350097656</ele>
        <time>2012-04-08T11:13:41Z</time>
      </trkpt>
      <trkpt lat="42.94362" lon="1.78279">
        <ele>507.71350097656</ele>
        <time>2012-04-08T11:13:45Z</time>
      </trkpt>
      <trkpt lat="42.9436" lon="1.78287">
        <ele>508.19409179688</ele>
        <time>2012-04-08T11:13:50Z</time>
      </trkpt>
      <trkpt lat="42.94357" lon="1.78295">
        <ele>511.07800292969</ele>
        <time>2012-04-08T11:13:56Z</time>
      </trkpt>
      <trkpt lat="42.94353" lon="1.78304">
        <ele>513.00073242188</ele>
        <time>2012-04-08T11:14:02Z</time>
      </trkpt>
      <trkpt lat="42.94351" lon="1.78314">
        <ele>513.96203613281</ele>
        <time>2012-04-08T11:14:07Z</time>
      </trkpt>
      <trkpt lat="42.94349" lon="1.7832">
        <ele>514.44262695312</ele>
        <time>2012-04-08T11:14:11Z</time>
      </trkpt>
      <trkpt lat="42.94344" lon="1.78331">
        <ele>514.44262695312</ele>
        <time>2012-04-08T11:14:18Z</time>
      </trkpt>
      <trkpt lat="42.94344" lon="1.78334">
        <ele>515.40405273438</ele>
        <time>2012-04-08T11:14:20Z</time>
      </trkpt>
      <trkpt lat="42.94345" lon="1.78342">
        <ele>515.88464355469</ele>
        <time>2012-04-08T11:14:25Z</time>
      </trkpt>
      <trkpt lat="42.94345" lon="1.78345">
        <ele>515.40405273438</ele>
        <time>2012-04-08T11:14:27Z</time>
      </trkpt>
      <trkpt lat="42.9435" lon="1.78355">
        <ele>514.44262695312</ele>
        <time>2012-04-08T11:14:34Z</time>
      </trkpt>
      <trkpt lat="42.94354" lon="1.78363">
        <ele>513.4814453125</ele>
        <time>2012-04-08T11:14:40Z</time>
      </trkpt>
      <trkpt lat="42.94358" lon="1.78371">
        <ele>513.96203613281</ele>
        <time>2012-04-08T11:14:45Z</time>
      </trkpt>
      <trkpt lat="42.94361" lon="1.78381">
        <ele>513.4814453125</ele>
        <time>2012-04-08T11:14:52Z</time>
      </trkpt>
      <trkpt lat="42.94363" lon="1.78391">
        <ele>511.55871582031</ele>
        <time>2012-04-08T11:14:58Z</time>
      </trkpt>
      <trkpt lat="42.94366" lon="1.78398">
        <ele>510.59729003906</ele>
        <time>2012-04-08T11:15:03Z</time>
      </trkpt>
      <trkpt lat="42.94366" lon="1.78407">
        <ele>509.63610839844</ele>
        <time>2012-04-08T11:15:08Z</time>
      </trkpt>
      <trkpt lat="42.94369" lon="1.78413">
        <ele>509.63610839844</ele>
        <time>2012-04-08T11:15:13Z</time>
      </trkpt>
      <trkpt lat="42.94373" lon="1.78422">
        <ele>510.11669921875</ele>
        <time>2012-04-08T11:15:18Z</time>
      </trkpt>
      <trkpt lat="42.94374" lon="1.78426">
        <ele>509.63610839844</ele>
        <time>2012-04-08T11:15:20Z</time>
      </trkpt>
      <trkpt lat="42.94378" lon="1.78435">
        <ele>507.71350097656</ele>
        <time>2012-04-08T11:15:26Z</time>
      </trkpt>
      <trkpt lat="42.94384" lon="1.78442">
        <ele>509.15539550781</ele>
        <time>2012-04-08T11:15:31Z</time>
      </trkpt>
      <trkpt lat="42.94385" lon="1.78444">
        <ele>509.63610839844</ele>
        <time>2012-04-08T11:15:32Z</time>
      </trkpt>
      <trkpt lat="42.94387" lon="1.78451">
        <ele>509.63610839844</ele>
        <time>2012-04-08T11:15:35Z</time>
      </trkpt>
      <trkpt lat="42.94394" lon="1.78457">
        <ele>509.15539550781</ele>
        <time>2012-04-08T11:15:40Z</time>
      </trkpt>
      <trkpt lat="42.94402" lon="1.78472">
        <ele>506.271484375</ele>
        <time>2012-04-08T11:15:47Z</time>
      </trkpt>
      <trkpt lat="42.94406" lon="1.78479">
        <ele>504.82946777344</ele>
        <time>2012-04-08T11:15:51Z</time>
      </trkpt>
      <trkpt lat="42.94408" lon="1.7849">
        <ele>502.90673828125</ele>
        <time>2012-04-08T11:15:57Z</time>
      </trkpt>
      <trkpt lat="42.94412" lon="1.785">
        <ele>500.02294921875</ele>
        <time>2012-04-08T11:16:03Z</time>
      </trkpt>
      <trkpt lat="42.94416" lon="1.7851">
        <ele>498.10034179688</ele>
        <time>2012-04-08T11:16:08Z</time>
      </trkpt>
      <trkpt lat="42.94421" lon="1.78525">
        <ele>496.177734375</ele>
        <time>2012-04-08T11:16:15Z</time>
      </trkpt>
      <trkpt lat="42.94422" lon="1.78533">
        <ele>495.21618652344</ele>
        <time>2012-04-08T11:16:19Z</time>
      </trkpt>
      <trkpt lat="42.94423" lon="1.78542">
        <ele>494.25500488281</ele>
        <time>2012-04-08T11:16:23Z</time>
      </trkpt>
      <trkpt lat="42.94423" lon="1.7855">
        <ele>493.29357910156</ele>
        <time>2012-04-08T11:16:26Z</time>
      </trkpt>
      <trkpt lat="42.94423" lon="1.78557">
        <ele>490.89038085938</ele>
        <time>2012-04-08T11:16:29Z</time>
      </trkpt>
      <trkpt lat="42.94423" lon="1.78564">
        <ele>488.48718261719</ele>
        <time>2012-04-08T11:16:32Z</time>
      </trkpt>
      <trkpt lat="42.94425" lon="1.78569">
        <ele>487.52563476562</ele>
        <time>2012-04-08T11:16:35Z</time>
      </trkpt>
      <trkpt lat="42.94428" lon="1.78575">
        <ele>485.12243652344</ele>
        <time>2012-04-08T11:16:39Z</time>
      </trkpt>
      <trkpt lat="42.94435" lon="1.78581">
        <ele>487.04504394531</ele>
        <time>2012-04-08T11:16:43Z</time>
      </trkpt>
      <trkpt lat="42.94436" lon="1.78585">
        <ele>486.08374023438</ele>
        <time>2012-04-08T11:16:45Z</time>
      </trkpt>
      <trkpt lat="42.94441" lon="1.78596">
        <ele>486.08374023438</ele>
        <time>2012-04-08T11:16:51Z</time>
      </trkpt>
      <trkpt lat="42.94439" lon="1.78611">
        <ele>488.00646972656</ele>
        <time>2012-04-08T11:17:00Z</time>
      </trkpt>
      <trkpt lat="42.94436" lon="1.7862">
        <ele>490.89038085938</ele>
        <time>2012-04-08T11:17:06Z</time>
      </trkpt>
      <trkpt lat="42.94429" lon="1.78628">
        <ele>490.40979003906</ele>
        <time>2012-04-08T11:17:12Z</time>
      </trkpt>
      <trkpt lat="42.94423" lon="1.78636">
        <ele>490.89038085938</ele>
        <time>2012-04-08T11:17:17Z</time>
      </trkpt>
      <trkpt lat="42.94416" lon="1.78641">
        <ele>489.92907714844</ele>
        <time>2012-04-08T11:17:22Z</time>
      </trkpt>
      <trkpt lat="42.94409" lon="1.78644">
        <ele>487.52563476562</ele>
        <time>2012-04-08T11:17:27Z</time>
      </trkpt>
      <trkpt lat="42.94401" lon="1.78648">
        <ele>486.08374023438</ele>
        <time>2012-04-08T11:17:33Z</time>
      </trkpt>
      <trkpt lat="42.94398" lon="1.78649">
        <ele>486.08374023438</ele>
        <time>2012-04-08T11:17:35Z</time>
      </trkpt>
      <trkpt lat="42.9439" lon="1.78654">
        <ele>487.04504394531</ele>
        <time>2012-04-08T11:17:41Z</time>
      </trkpt>
      <trkpt lat="42.94388" lon="1.78656">
        <ele>487.04504394531</ele>
        <time>2012-04-08T11:17:44Z</time>
      </trkpt>
      <trkpt lat="42.94385" lon="1.78662">
        <ele>488.48718261719</ele>
        <time>2012-04-08T11:17:48Z</time>
      </trkpt>
      <trkpt lat="42.94378" lon="1.78677">
        <ele>492.33239746094</ele>
        <time>2012-04-08T11:17:55Z</time>
      </trkpt>
      <trkpt lat="42.94374" lon="1.78688">
        <ele>494.73559570312</ele>
        <time>2012-04-08T11:18:01Z</time>
      </trkpt>
      <trkpt lat="42.94371" lon="1.78692">
        <ele>494.73559570312</ele>
        <time>2012-04-08T11:18:04Z</time>
      </trkpt>
      <trkpt lat="42.94366" lon="1.78701">
        <ele>496.177734375</ele>
        <time>2012-04-08T11:18:09Z</time>
      </trkpt>
      <trkpt lat="42.9436" lon="1.78714">
        <ele>498.10034179688</ele>
        <time>2012-04-08T11:18:17Z</time>
      </trkpt>
      <trkpt lat="42.94356" lon="1.78723">
        <ele>498.58093261719</ele>
        <time>2012-04-08T11:18:22Z</time>
      </trkpt>
      <trkpt lat="42.94355" lon="1.78729">
        <ele>499.0615234375</ele>
        <time>2012-04-08T11:18:27Z</time>
      </trkpt>
      <trkpt lat="42.94354" lon="1.78739">
        <ele>498.58093261719</ele>
        <time>2012-04-08T11:18:32Z</time>
      </trkpt>
      <trkpt lat="42.94355" lon="1.78741">
        <ele>498.10034179688</ele>
        <time>2012-04-08T11:18:33Z</time>
      </trkpt>
      <trkpt lat="42.94355" lon="1.78745">
        <ele>497.61962890625</ele>
        <time>2012-04-08T11:18:35Z</time>
      </trkpt>
      <trkpt lat="42.94355" lon="1.78755">
        <ele>495.21618652344</ele>
        <time>2012-04-08T11:18:41Z</time>
      </trkpt>
      <trkpt lat="42.94356" lon="1.78764">
        <ele>494.73559570312</ele>
        <time>2012-04-08T11:18:46Z</time>
      </trkpt>
      <trkpt lat="42.94357" lon="1.7877">
        <ele>493.77429199219</ele>
        <time>2012-04-08T11:18:49Z</time>
      </trkpt>
      <trkpt lat="42.94357" lon="1.78783">
        <ele>494.25500488281</ele>
        <time>2012-04-08T11:18:55Z</time>
      </trkpt>
      <trkpt lat="42.94357" lon="1.78792">
        <ele>493.29357910156</ele>
        <time>2012-04-08T11:19:00Z</time>
      </trkpt>
      <trkpt lat="42.94353" lon="1.78805">
        <ele>492.33239746094</ele>
        <time>2012-04-08T11:19:07Z</time>
      </trkpt>
      <trkpt lat="42.94352" lon="1.78815">
        <ele>493.29357910156</ele>
        <time>2012-04-08T11:19:12Z</time>
      </trkpt>
      <trkpt lat="42.94351" lon="1.78822">
        <ele>494.25500488281</ele>
        <time>2012-04-08T11:19:15Z</time>
      </trkpt>
      <trkpt lat="42.94349" lon="1.78836">
        <ele>496.177734375</ele>
        <time>2012-04-08T11:19:21Z</time>
      </trkpt>
      <trkpt lat="42.9435" lon="1.78848">
        <ele>494.73559570312</ele>
        <time>2012-04-08T11:19:27Z</time>
      </trkpt>
      <trkpt lat="42.94349" lon="1.7886">
        <ele>494.25500488281</ele>
        <time>2012-04-08T11:19:33Z</time>
      </trkpt>
      <trkpt lat="42.94347" lon="1.78869">
        <ele>493.29357910156</ele>
        <time>2012-04-08T11:19:38Z</time>
      </trkpt>
      <trkpt lat="42.94346" lon="1.7887">
        <ele>493.77429199219</ele>
        <time>2012-04-08T11:19:39Z</time>
      </trkpt>
      <trkpt lat="42.94342" lon="1.78879">
        <ele>497.61962890625</ele>
        <time>2012-04-08T11:19:45Z</time>
      </trkpt>
      <trkpt lat="42.94336" lon="1.78888">
        <ele>501.46484375</ele>
        <time>2012-04-08T11:19:50Z</time>
      </trkpt>
      <trkpt lat="42.94332" lon="1.78893">
        <ele>503.38745117188</ele>
        <time>2012-04-08T11:19:55Z</time>
      </trkpt>
      <trkpt lat="42.94328" lon="1.78903">
        <ele>503.8681640625</ele>
        <time>2012-04-08T11:20:04Z</time>
      </trkpt>
      <trkpt lat="42.94324" lon="1.78913">
        <ele>504.82946777344</ele>
        <time>2012-04-08T11:20:12Z</time>
      </trkpt>
      <trkpt lat="42.94322" lon="1.78921">
        <ele>505.31018066406</ele>
        <time>2012-04-08T11:20:19Z</time>
      </trkpt>
      <trkpt lat="42.9432" lon="1.78927">
        <ele>506.75207519531</ele>
        <time>2012-04-08T11:20:26Z</time>
      </trkpt>
      <trkpt lat="42.94318" lon="1.78934">
        <ele>507.71350097656</ele>
        <time>2012-04-08T11:20:32Z</time>
      </trkpt>
      <trkpt lat="42.94317" lon="1.78936">
        <ele>510.11669921875</ele>
        <time>2012-04-08T11:20:38Z</time>
      </trkpt>
      <trkpt lat="42.94317" lon="1.78935">
        <ele>511.07800292969</ele>
        <time>2012-04-08T11:20:54Z</time>
      </trkpt>
      <trkpt lat="42.94315" lon="1.78938">
        <ele>511.55871582031</ele>
        <time>2012-04-08T11:21:05Z</time>
      </trkpt>
      <trkpt lat="42.94314" lon="1.78947">
        <ele>510.59729003906</ele>
        <time>2012-04-08T11:21:11Z</time>
      </trkpt>
      <trkpt lat="42.94314" lon="1.78951">
        <ele>509.15539550781</ele>
        <time>2012-04-08T11:21:13Z</time>
      </trkpt>
      <trkpt lat="42.94315" lon="1.78957">
        <ele>508.19409179688</ele>
        <time>2012-04-08T11:21:17Z</time>
      </trkpt>
      <trkpt lat="42.94318" lon="1.78963">
        <ele>507.23278808594</ele>
        <time>2012-04-08T11:21:21Z</time>
      </trkpt>
      <trkpt lat="42.94323" lon="1.78972">
        <ele>505.31018066406</ele>
        <time>2012-04-08T11:21:28Z</time>
      </trkpt>
      <trkpt lat="42.94325" lon="1.78979">
        <ele>503.38745117188</ele>
        <time>2012-04-08T11:21:32Z</time>
      </trkpt>
      <trkpt lat="42.94325" lon="1.78989">
        <ele>502.42614746094</ele>
        <time>2012-04-08T11:21:37Z</time>
      </trkpt>
      <trkpt lat="42.94326" lon="1.79">
        <ele>502.42614746094</ele>
        <time>2012-04-08T11:21:42Z</time>
      </trkpt>
      <trkpt lat="42.94324" lon="1.79002">
        <ele>501.46484375</ele>
        <time>2012-04-08T11:21:43Z</time>
      </trkpt>
      <trkpt lat="42.94324" lon="1.79007">
        <ele>500.98413085938</ele>
        <time>2012-04-08T11:21:45Z</time>
      </trkpt>
      <trkpt lat="42.94328" lon="1.79019">
        <ele>501.46484375</ele>
        <time>2012-04-08T11:21:51Z</time>
      </trkpt>
      <trkpt lat="42.94331" lon="1.79035">
        <ele>499.0615234375</ele>
        <time>2012-04-08T11:21:56Z</time>
      </trkpt>
      <trkpt lat="42.94338" lon="1.79049">
        <ele>496.65832519531</ele>
        <time>2012-04-08T11:22:01Z</time>
      </trkpt>
      <trkpt lat="42.94338" lon="1.79068">
        <ele>494.73559570312</ele>
        <time>2012-04-08T11:22:07Z</time>
      </trkpt>
      <trkpt lat="42.94339" lon="1.7908">
        <ele>494.25500488281</ele>
        <time>2012-04-08T11:22:11Z</time>
      </trkpt>
      <trkpt lat="42.94341" lon="1.79093">
        <ele>495.21618652344</ele>
        <time>2012-04-08T11:22:16Z</time>
      </trkpt>
      <trkpt lat="42.9434" lon="1.79106">
        <ele>494.73559570312</ele>
        <time>2012-04-08T11:22:20Z</time>
      </trkpt>
      <trkpt lat="42.94339" lon="1.79119">
        <ele>494.25500488281</ele>
        <time>2012-04-08T11:22:24Z</time>
      </trkpt>
      <trkpt lat="42.9434" lon="1.79133">
        <ele>497.13891601562</ele>
        <time>2012-04-08T11:22:29Z</time>
      </trkpt>
      <trkpt lat="42.94339" lon="1.7914">
        <ele>497.13891601562</ele>
        <time>2012-04-08T11:22:31Z</time>
      </trkpt>
      <trkpt lat="42.94338" lon="1.79157">
        <ele>497.13891601562</ele>
        <time>2012-04-08T11:22:37Z</time>
      </trkpt>
      <trkpt lat="42.94337" lon="1.7916">
        <ele>496.177734375</ele>
        <time>2012-04-08T11:22:38Z</time>
      </trkpt>
      <trkpt lat="42.94339" lon="1.79175">
        <ele>494.25500488281</ele>
        <time>2012-04-08T11:22:43Z</time>
      </trkpt>
      <trkpt lat="42.94343" lon="1.79186">
        <ele>494.73559570312</ele>
        <time>2012-04-08T11:22:46Z</time>
      </trkpt>
      <trkpt lat="42.94351" lon="1.792">
        <ele>492.81298828125</ele>
        <time>2012-04-08T11:22:51Z</time>
      </trkpt>
      <trkpt lat="42.9435" lon="1.79205">
        <ele>491.85168457031</ele>
        <time>2012-04-08T11:22:53Z</time>
      </trkpt>
      <trkpt lat="42.94343" lon="1.79215">
        <ele>486.08374023438</ele>
        <time>2012-04-08T11:23:01Z</time>
      </trkpt>
      <trkpt lat="42.94338" lon="1.7922">
        <ele>483.19982910156</ele>
        <time>2012-04-08T11:23:07Z</time>
      </trkpt>
      <trkpt lat="42.94334" lon="1.79224">
        <ele>481.27722167969</ele>
        <time>2012-04-08T11:23:11Z</time>
      </trkpt>
      <trkpt lat="42.94326" lon="1.79229">
        <ele>481.27722167969</ele>
        <time>2012-04-08T11:23:17Z</time>
      </trkpt>
      <trkpt lat="42.94316" lon="1.79232">
        <ele>480.31591796875</ele>
        <time>2012-04-08T11:23:24Z</time>
      </trkpt>
      <trkpt lat="42.94308" lon="1.79234">
        <ele>480.79663085938</ele>
        <time>2012-04-08T11:23:29Z</time>
      </trkpt>
      <trkpt lat="42.94304" lon="1.79233">
        <ele>479.83508300781</ele>
        <time>2012-04-08T11:23:32Z</time>
      </trkpt>
      <trkpt lat="42.943" lon="1.79236">
        <ele>480.31591796875</ele>
        <time>2012-04-08T11:23:36Z</time>
      </trkpt>
      <trkpt lat="42.94288" lon="1.79241">
        <ele>481.27722167969</ele>
        <time>2012-04-08T11:23:44Z</time>
      </trkpt>
      <trkpt lat="42.94278" lon="1.79246">
        <ele>483.19982910156</ele>
        <time>2012-04-08T11:23:50Z</time>
      </trkpt>
      <trkpt lat="42.94271" lon="1.79248">
        <ele>485.60302734375</ele>
        <time>2012-04-08T11:23:54Z</time>
      </trkpt>
      <trkpt lat="42.9427" lon="1.79249">
        <ele>484.64184570312</ele>
        <time>2012-04-08T11:23:55Z</time>
      </trkpt>
      <trkpt lat="42.9426" lon="1.79256">
        <ele>484.1611328125</ele>
        <time>2012-04-08T11:24:01Z</time>
      </trkpt>
      <trkpt lat="42.94253" lon="1.79257">
        <ele>482.71923828125</ele>
        <time>2012-04-08T11:24:05Z</time>
      </trkpt>
      <trkpt lat="42.94249" lon="1.79257">
        <ele>483.19982910156</ele>
        <time>2012-04-08T11:24:08Z</time>
      </trkpt>
      <trkpt lat="42.94244" lon="1.79257">
        <ele>484.64184570312</ele>
        <time>2012-04-08T11:24:10Z</time>
      </trkpt>
      <trkpt lat="42.94241" lon="1.79249">
        <ele>487.04504394531</ele>
        <time>2012-04-08T11:24:14Z</time>
      </trkpt>
      <trkpt lat="42.94236" lon="1.79244">
        <ele>489.92907714844</ele>
        <time>2012-04-08T11:24:18Z</time>
      </trkpt>
      <trkpt lat="42.94231" lon="1.79241">
        <ele>491.85168457031</ele>
        <time>2012-04-08T11:24:22Z</time>
      </trkpt>
      <trkpt lat="42.94228" lon="1.79239">
        <ele>493.29357910156</ele>
        <time>2012-04-08T11:24:24Z</time>
      </trkpt>
      <trkpt lat="42.94221" lon="1.79236">
        <ele>492.81298828125</ele>
        <time>2012-04-08T11:24:29Z</time>
      </trkpt>
      <trkpt lat="42.94219" lon="1.79233">
        <ele>493.77429199219</ele>
        <time>2012-04-08T11:24:31Z</time>
      </trkpt>
      <trkpt lat="42.94211" lon="1.79227">
        <ele>498.10034179688</ele>
        <time>2012-04-08T11:24:36Z</time>
      </trkpt>
      <trkpt lat="42.94201" lon="1.79226">
        <ele>499.0615234375</ele>
        <time>2012-04-08T11:24:41Z</time>
      </trkpt>
      <trkpt lat="42.94199" lon="1.79226">
        <ele>500.02294921875</ele>
        <time>2012-04-08T11:24:42Z</time>
      </trkpt>
      <trkpt lat="42.94192" lon="1.79226">
        <ele>500.98413085938</ele>
        <time>2012-04-08T11:24:47Z</time>
      </trkpt>
      <trkpt lat="42.94181" lon="1.79229">
        <ele>500.98413085938</ele>
        <time>2012-04-08T11:24:55Z</time>
      </trkpt>
      <trkpt lat="42.94178" lon="1.79229">
        <ele>499.54223632812</ele>
        <time>2012-04-08T11:24:58Z</time>
      </trkpt>
      <trkpt lat="42.94176" lon="1.79228">
        <ele>498.58093261719</ele>
        <time>2012-04-08T11:24:59Z</time>
      </trkpt>
      <trkpt lat="42.9417" lon="1.79228">
        <ele>493.29357910156</ele>
        <time>2012-04-08T11:25:04Z</time>
      </trkpt>
      <trkpt lat="42.94167" lon="1.7923">
        <ele>495.21618652344</ele>
        <time>2012-04-08T11:25:06Z</time>
      </trkpt>
      <trkpt lat="42.94166" lon="1.79229">
        <ele>494.73559570312</ele>
        <time>2012-04-08T11:25:08Z</time>
      </trkpt>
      <trkpt lat="42.94164" lon="1.7923">
        <ele>494.25500488281</ele>
        <time>2012-04-08T11:25:11Z</time>
      </trkpt>
      <trkpt lat="42.94154" lon="1.79238">
        <ele>492.33239746094</ele>
        <time>2012-04-08T11:25:18Z</time>
      </trkpt>
      <trkpt lat="42.94144" lon="1.79244">
        <ele>489.92907714844</ele>
        <time>2012-04-08T11:25:27Z</time>
      </trkpt>
      <trkpt lat="42.94136" lon="1.79252">
        <ele>492.33239746094</ele>
        <time>2012-04-08T11:25:33Z</time>
      </trkpt>
      <trkpt lat="42.94131" lon="1.79264">
        <ele>495.21618652344</ele>
        <time>2012-04-08T11:25:39Z</time>
      </trkpt>
      <trkpt lat="42.94125" lon="1.79276">
        <ele>495.69689941406</ele>
        <time>2012-04-08T11:25:45Z</time>
      </trkpt>
      <trkpt lat="42.94117" lon="1.79288">
        <ele>494.73559570312</ele>
        <time>2012-04-08T11:25:52Z</time>
      </trkpt>
      <trkpt lat="42.94114" lon="1.79292">
        <ele>493.77429199219</ele>
        <time>2012-04-08T11:25:56Z</time>
      </trkpt>
      <trkpt lat="42.94113" lon="1.79294">
        <ele>494.25500488281</ele>
        <time>2012-04-08T11:25:58Z</time>
      </trkpt>
      <trkpt lat="42.94113" lon="1.79301">
        <ele>496.65832519531</ele>
        <time>2012-04-08T11:26:03Z</time>
      </trkpt>
      <trkpt lat="42.94107" lon="1.79305">
        <ele>494.73559570312</ele>
        <time>2012-04-08T11:26:09Z</time>
      </trkpt>
      <trkpt lat="42.94106" lon="1.79305">
        <ele>494.25500488281</ele>
        <time>2012-04-08T11:26:10Z</time>
      </trkpt>
      <trkpt lat="42.94096" lon="1.79311">
        <ele>493.77429199219</ele>
        <time>2012-04-08T11:26:16Z</time>
      </trkpt>
      <trkpt lat="42.94093" lon="1.79314">
        <ele>493.77429199219</ele>
        <time>2012-04-08T11:26:18Z</time>
      </trkpt>
      <trkpt lat="42.9409" lon="1.7932">
        <ele>494.25500488281</ele>
        <time>2012-04-08T11:26:23Z</time>
      </trkpt>
      <trkpt lat="42.94083" lon="1.79324">
        <ele>492.81298828125</ele>
        <time>2012-04-08T11:26:28Z</time>
      </trkpt>
      <trkpt lat="42.94076" lon="1.7933">
        <ele>491.85168457031</ele>
        <time>2012-04-08T11:26:33Z</time>
      </trkpt>
      <trkpt lat="42.94071" lon="1.79335">
        <ele>491.85168457031</ele>
        <time>2012-04-08T11:26:37Z</time>
      </trkpt>
      <trkpt lat="42.94066" lon="1.79339">
        <ele>491.85168457031</ele>
        <time>2012-04-08T11:26:42Z</time>
      </trkpt>
      <trkpt lat="42.94063" lon="1.79344">
        <ele>493.29357910156</ele>
        <time>2012-04-08T11:26:45Z</time>
      </trkpt>
      <trkpt lat="42.94057" lon="1.79348">
        <ele>494.25500488281</ele>
        <time>2012-04-08T11:26:49Z</time>
      </trkpt>
      <trkpt lat="42.94053" lon="1.79348">
        <ele>495.69689941406</ele>
        <time>2012-04-08T11:26:53Z</time>
      </trkpt>
      <trkpt lat="42.94048" lon="1.79352">
        <ele>497.13891601562</ele>
        <time>2012-04-08T11:26:57Z</time>
      </trkpt>
      <trkpt lat="42.94043" lon="1.79355">
        <ele>496.177734375</ele>
        <time>2012-04-08T11:27:01Z</time>
      </trkpt>
      <trkpt lat="42.94036" lon="1.7936">
        <ele>495.69689941406</ele>
        <time>2012-04-08T11:27:07Z</time>
      </trkpt>
      <trkpt lat="42.94032" lon="1.79364">
        <ele>496.177734375</ele>
        <time>2012-04-08T11:27:11Z</time>
      </trkpt>
      <trkpt lat="42.94027" lon="1.79371">
        <ele>494.25500488281</ele>
        <time>2012-04-08T11:27:16Z</time>
      </trkpt>
      <trkpt lat="42.9402" lon="1.79379">
        <ele>496.177734375</ele>
        <time>2012-04-08T11:27:22Z</time>
      </trkpt>
      <trkpt lat="42.94015" lon="1.79384">
        <ele>497.13891601562</ele>
        <time>2012-04-08T11:27:27Z</time>
      </trkpt>
      <trkpt lat="42.94011" lon="1.79388">
        <ele>496.177734375</ele>
        <time>2012-04-08T11:27:32Z</time>
      </trkpt>
      <trkpt lat="42.94004" lon="1.79392">
        <ele>493.77429199219</ele>
        <time>2012-04-08T11:27:36Z</time>
      </trkpt>
      <trkpt lat="42.94002" lon="1.79392">
        <ele>492.81298828125</ele>
        <time>2012-04-08T11:27:38Z</time>
      </trkpt>
      <trkpt lat="42.93999" lon="1.7939">
        <ele>490.89038085938</ele>
        <time>2012-04-08T11:27:43Z</time>
      </trkpt>
      <trkpt lat="42.93992" lon="1.79389">
        <ele>492.33239746094</ele>
        <time>2012-04-08T11:27:49Z</time>
      </trkpt>
      <trkpt lat="42.93987" lon="1.79389">
        <ele>493.29357910156</ele>
        <time>2012-04-08T11:27:53Z</time>
      </trkpt>
      <trkpt lat="42.93984" lon="1.7939">
        <ele>494.25500488281</ele>
        <time>2012-04-08T11:27:56Z</time>
      </trkpt>
      <trkpt lat="42.93978" lon="1.79388">
        <ele>495.21618652344</ele>
        <time>2012-04-08T11:28:01Z</time>
      </trkpt>
      <trkpt lat="42.93977" lon="1.79388">
        <ele>495.21618652344</ele>
        <time>2012-04-08T11:28:02Z</time>
      </trkpt>
      <trkpt lat="42.93969" lon="1.79379">
        <ele>495.69689941406</ele>
        <time>2012-04-08T11:28:09Z</time>
      </trkpt>
      <trkpt lat="42.93967" lon="1.79378">
        <ele>496.65832519531</ele>
        <time>2012-04-08T11:28:11Z</time>
      </trkpt>
      <trkpt lat="42.93959" lon="1.7938">
        <ele>498.10034179688</ele>
        <time>2012-04-08T11:28:17Z</time>
      </trkpt>
      <trkpt lat="42.93954" lon="1.79381">
        <ele>498.58093261719</ele>
        <time>2012-04-08T11:28:21Z</time>
      </trkpt>
      <trkpt lat="42.93946" lon="1.79389">
        <ele>499.54223632812</ele>
        <time>2012-04-08T11:28:28Z</time>
      </trkpt>
      <trkpt lat="42.93943" lon="1.79397">
        <ele>500.98413085938</ele>
        <time>2012-04-08T11:28:33Z</time>
      </trkpt>
      <trkpt lat="42.93938" lon="1.7941">
        <ele>502.90673828125</ele>
        <time>2012-04-08T11:28:40Z</time>
      </trkpt>
      <trkpt lat="42.93937" lon="1.79415">
        <ele>502.90673828125</ele>
        <time>2012-04-08T11:28:44Z</time>
      </trkpt>
      <trkpt lat="42.93933" lon="1.79423">
        <ele>503.38745117188</ele>
        <time>2012-04-08T11:28:50Z</time>
      </trkpt>
      <trkpt lat="42.93929" lon="1.79425">
        <ele>502.90673828125</ele>
        <time>2012-04-08T11:28:54Z</time>
      </trkpt>
      <trkpt lat="42.93925" lon="1.79428">
        <ele>502.90673828125</ele>
        <time>2012-04-08T11:28:58Z</time>
      </trkpt>
      <trkpt lat="42.93918" lon="1.79429">
        <ele>501.94555664062</ele>
        <time>2012-04-08T11:29:05Z</time>
      </trkpt>
      <trkpt lat="42.9391" lon="1.7943">
        <ele>502.42614746094</ele>
        <time>2012-04-08T11:29:13Z</time>
      </trkpt>
      <trkpt lat="42.93904" lon="1.79431">
        <ele>501.46484375</ele>
        <time>2012-04-08T11:29:18Z</time>
      </trkpt>
      <trkpt lat="42.93898" lon="1.79431">
        <ele>502.42614746094</ele>
        <time>2012-04-08T11:29:24Z</time>
      </trkpt>
      <trkpt lat="42.93892" lon="1.7943">
        <ele>501.94555664062</ele>
        <time>2012-04-08T11:29:30Z</time>
      </trkpt>
      <trkpt lat="42.93887" lon="1.79432">
        <ele>501.94555664062</ele>
        <time>2012-04-08T11:29:33Z</time>
      </trkpt>
      <trkpt lat="42.93879" lon="1.79436">
        <ele>503.8681640625</ele>
        <time>2012-04-08T11:29:40Z</time>
      </trkpt>
      <trkpt lat="42.93875" lon="1.79439">
        <ele>506.271484375</ele>
        <time>2012-04-08T11:29:45Z</time>
      </trkpt>
      <trkpt lat="42.93872" lon="1.79441">
        <ele>505.79089355469</ele>
        <time>2012-04-08T11:29:49Z</time>
      </trkpt>
      <trkpt lat="42.93871" lon="1.79443">
        <ele>505.79089355469</ele>
        <time>2012-04-08T11:29:51Z</time>
      </trkpt>
      <trkpt lat="42.9386" lon="1.79451">
        <ele>507.71350097656</ele>
        <time>2012-04-08T11:29:58Z</time>
      </trkpt>
      <trkpt lat="42.93859" lon="1.79452">
        <ele>508.19409179688</ele>
        <time>2012-04-08T11:29:59Z</time>
      </trkpt>
      <trkpt lat="42.93854" lon="1.79455">
        <ele>507.71350097656</ele>
        <time>2012-04-08T11:30:05Z</time>
      </trkpt>
      <trkpt lat="42.93848" lon="1.79458">
        <ele>510.11669921875</ele>
        <time>2012-04-08T11:30:11Z</time>
      </trkpt>
      <trkpt lat="42.93839" lon="1.79463">
        <ele>510.11669921875</ele>
        <time>2012-04-08T11:30:19Z</time>
      </trkpt>
      <trkpt lat="42.93835" lon="1.79466">
        <ele>509.63610839844</ele>
        <time>2012-04-08T11:30:22Z</time>
      </trkpt>
      <trkpt lat="42.9383" lon="1.7947">
        <ele>507.71350097656</ele>
        <time>2012-04-08T11:30:26Z</time>
      </trkpt>
      <trkpt lat="42.93825" lon="1.79475">
        <ele>508.67468261719</ele>
        <time>2012-04-08T11:30:34Z</time>
      </trkpt>
      <trkpt lat="42.93822" lon="1.7948">
        <ele>509.15539550781</ele>
        <time>2012-04-08T11:30:40Z</time>
      </trkpt>
      <trkpt lat="42.9382" lon="1.79488">
        <ele>514.44262695312</ele>
        <time>2012-04-08T11:30:48Z</time>
      </trkpt>
      <trkpt lat="42.93819" lon="1.79498">
        <ele>515.88464355469</ele>
        <time>2012-04-08T11:30:55Z</time>
      </trkpt>
      <trkpt lat="42.9382" lon="1.79503">
        <ele>517.32666015625</ele>
        <time>2012-04-08T11:30:59Z</time>
      </trkpt>
      <trkpt lat="42.93824" lon="1.79506">
        <ele>518.7685546875</ele>
        <time>2012-04-08T11:31:03Z</time>
      </trkpt>
      <trkpt lat="42.9383" lon="1.79507">
        <ele>520.69128417969</ele>
        <time>2012-04-08T11:31:09Z</time>
      </trkpt>
      <trkpt lat="42.93834" lon="1.79508">
        <ele>519.72985839844</ele>
        <time>2012-04-08T11:31:13Z</time>
      </trkpt>
      <trkpt lat="42.93839" lon="1.79512">
        <ele>516.84594726562</ele>
        <time>2012-04-08T11:31:19Z</time>
      </trkpt>
      <trkpt lat="42.93848" lon="1.7952">
        <ele>519.24926757812</ele>
        <time>2012-04-08T11:31:27Z</time>
      </trkpt>
      <trkpt lat="42.93856" lon="1.79526">
        <ele>523.5751953125</ele>
        <time>2012-04-08T11:31:33Z</time>
      </trkpt>
      <trkpt lat="42.93858" lon="1.79527">
        <ele>524.05578613281</ele>
        <time>2012-04-08T11:31:35Z</time>
      </trkpt>
      <trkpt lat="42.93865" lon="1.79532">
        <ele>526.45910644531</ele>
        <time>2012-04-08T11:31:42Z</time>
      </trkpt>
      <trkpt lat="42.93869" lon="1.79537">
        <ele>523.09460449219</ele>
        <time>2012-04-08T11:31:48Z</time>
      </trkpt>
      <trkpt lat="42.93873" lon="1.79546">
        <ele>519.24926757812</ele>
        <time>2012-04-08T11:31:55Z</time>
      </trkpt>
      <trkpt lat="42.93876" lon="1.79549">
        <ele>521.17199707031</ele>
        <time>2012-04-08T11:31:58Z</time>
      </trkpt>
      <trkpt lat="42.93879" lon="1.79553">
        <ele>524.53649902344</ele>
        <time>2012-04-08T11:32:01Z</time>
      </trkpt>
      <trkpt lat="42.9388" lon="1.79562">
        <ele>525.97839355469</ele>
        <time>2012-04-08T11:32:08Z</time>
      </trkpt>
      <trkpt lat="42.9388" lon="1.79569">
        <ele>526.93981933594</ele>
        <time>2012-04-08T11:32:14Z</time>
      </trkpt>
      <trkpt lat="42.93879" lon="1.79579">
        <ele>530.30444335938</ele>
        <time>2012-04-08T11:32:21Z</time>
      </trkpt>
      <trkpt lat="42.93878" lon="1.7958">
        <ele>530.30444335938</ele>
        <time>2012-04-08T11:32:22Z</time>
      </trkpt>
      <trkpt lat="42.93876" lon="1.79583">
        <ele>530.30444335938</ele>
        <time>2012-04-08T11:32:24Z</time>
      </trkpt>
      <trkpt lat="42.93872" lon="1.79586">
        <ele>532.70776367188</ele>
        <time>2012-04-08T11:32:31Z</time>
      </trkpt>
      <trkpt lat="42.93867" lon="1.79588">
        <ele>533.6689453125</ele>
        <time>2012-04-08T11:32:36Z</time>
      </trkpt>
      <trkpt lat="42.93863" lon="1.79589">
        <ele>533.18835449219</ele>
        <time>2012-04-08T11:32:41Z</time>
      </trkpt>
      <trkpt lat="42.93859" lon="1.79589">
        <ele>533.6689453125</ele>
        <time>2012-04-08T11:32:44Z</time>
      </trkpt>
      <trkpt lat="42.93855" lon="1.79588">
        <ele>532.22705078125</ele>
        <time>2012-04-08T11:32:49Z</time>
      </trkpt>
      <trkpt lat="42.93849" lon="1.79589">
        <ele>531.74633789062</ele>
        <time>2012-04-08T11:32:54Z</time>
      </trkpt>
      <trkpt lat="42.93846" lon="1.79591">
        <ele>532.70776367188</ele>
        <time>2012-04-08T11:32:56Z</time>
      </trkpt>
      <trkpt lat="42.93842" lon="1.79598">
        <ele>534.14965820312</ele>
        <time>2012-04-08T11:33:00Z</time>
      </trkpt>
      <trkpt lat="42.93841" lon="1.79604">
        <ele>535.59155273438</ele>
        <time>2012-04-08T11:33:05Z</time>
      </trkpt>
      <trkpt lat="42.93846" lon="1.79609">
        <ele>537.03369140625</ele>
        <time>2012-04-08T11:33:13Z</time>
      </trkpt>
      <trkpt lat="42.93853" lon="1.79615">
        <ele>537.99499511719</ele>
        <time>2012-04-08T11:33:20Z</time>
      </trkpt>
      <trkpt lat="42.9386" lon="1.79621">
        <ele>539.91760253906</ele>
        <time>2012-04-08T11:33:26Z</time>
      </trkpt>
      <trkpt lat="42.93861" lon="1.79621">
        <ele>539.91760253906</ele>
        <time>2012-04-08T11:33:27Z</time>
      </trkpt>
      <trkpt lat="42.9387" lon="1.79628">
        <ele>543.76281738281</ele>
        <time>2012-04-08T11:33:34Z</time>
      </trkpt>
      <trkpt lat="42.93872" lon="1.79629">
        <ele>545.685546875</ele>
        <time>2012-04-08T11:33:36Z</time>
      </trkpt>
      <trkpt lat="42.93876" lon="1.79633">
        <ele>544.72424316406</ele>
        <time>2012-04-08T11:33:40Z</time>
      </trkpt>
      <trkpt lat="42.93879" lon="1.79637">
        <ele>544.72424316406</ele>
        <time>2012-04-08T11:33:44Z</time>
      </trkpt>
      <trkpt lat="42.93882" lon="1.79641">
        <ele>545.20483398438</ele>
        <time>2012-04-08T11:33:47Z</time>
      </trkpt>
      <trkpt lat="42.93882" lon="1.79644">
        <ele>545.20483398438</ele>
        <time>2012-04-08T11:33:49Z</time>
      </trkpt>
      <trkpt lat="42.93886" lon="1.79648">
        <ele>549.05004882812</ele>
        <time>2012-04-08T11:33:53Z</time>
      </trkpt>
      <trkpt lat="42.93886" lon="1.7965">
        <ele>549.05004882812</ele>
        <time>2012-04-08T11:33:54Z</time>
      </trkpt>
      <trkpt lat="42.9389" lon="1.79662">
        <ele>548.5693359375</ele>
        <time>2012-04-08T11:34:00Z</time>
      </trkpt>
      <trkpt lat="42.93891" lon="1.79664">
        <ele>547.60815429688</ele>
        <time>2012-04-08T11:34:01Z</time>
      </trkpt>
      <trkpt lat="42.93893" lon="1.79675">
        <ele>548.0888671875</ele>
        <time>2012-04-08T11:34:08Z</time>
      </trkpt>
      <trkpt lat="42.93896" lon="1.7968">
        <ele>550.97265625</ele>
        <time>2012-04-08T11:34:12Z</time>
      </trkpt>
      <trkpt lat="42.93896" lon="1.79684">
        <ele>550.97265625</ele>
        <time>2012-04-08T11:34:15Z</time>
      </trkpt>
      <trkpt lat="42.93895" lon="1.7969">
        <ele>551.45336914062</ele>
        <time>2012-04-08T11:34:20Z</time>
      </trkpt>
      <trkpt lat="42.9389" lon="1.79688">
        <ele>550.4921875</ele>
        <time>2012-04-08T11:34:25Z</time>
      </trkpt>
      <trkpt lat="42.93882" lon="1.79686">
        <ele>546.64685058594</ele>
        <time>2012-04-08T11:34:31Z</time>
      </trkpt>
      <trkpt lat="42.9388" lon="1.79685">
        <ele>545.685546875</ele>
        <time>2012-04-08T11:34:33Z</time>
      </trkpt>
      <trkpt lat="42.93871" lon="1.79682">
        <ele>543.76281738281</ele>
        <time>2012-04-08T11:34:41Z</time>
      </trkpt>
      <trkpt lat="42.93863" lon="1.79674">
        <ele>544.24365234375</ele>
        <time>2012-04-08T11:34:48Z</time>
      </trkpt>
      <trkpt lat="42.93859" lon="1.7967">
        <ele>546.64685058594</ele>
        <time>2012-04-08T11:34:52Z</time>
      </trkpt>
      <trkpt lat="42.93852" lon="1.7967">
        <ele>547.12744140625</ele>
        <time>2012-04-08T11:34:57Z</time>
      </trkpt>
      <trkpt lat="42.93843" lon="1.79675">
        <ele>548.0888671875</ele>
        <time>2012-04-08T11:35:04Z</time>
      </trkpt>
      <trkpt lat="42.93843" lon="1.79675">
        <ele>549.53076171875</ele>
        <time>2012-04-08T11:35:05Z</time>
      </trkpt>
      <trkpt lat="42.93842" lon="1.79677">
        <ele>551.45336914062</ele>
        <time>2012-04-08T11:35:08Z</time>
      </trkpt>
      <trkpt lat="42.93841" lon="1.79689">
        <ele>551.93408203125</ele>
        <time>2012-04-08T11:35:16Z</time>
      </trkpt>
      <trkpt lat="42.93844" lon="1.79694">
        <ele>551.45336914062</ele>
        <time>2012-04-08T11:35:22Z</time>
      </trkpt>
      <trkpt lat="42.93847" lon="1.797">
        <ele>549.05004882812</ele>
        <time>2012-04-08T11:35:28Z</time>
      </trkpt>
      <trkpt lat="42.93851" lon="1.79708">
        <ele>548.0888671875</ele>
        <time>2012-04-08T11:35:34Z</time>
      </trkpt>
      <trkpt lat="42.93854" lon="1.79716">
        <ele>550.01147460938</ele>
        <time>2012-04-08T11:35:40Z</time>
      </trkpt>
      <trkpt lat="42.93858" lon="1.79723">
        <ele>556.26000976562</ele>
        <time>2012-04-08T11:35:46Z</time>
      </trkpt>
      <trkpt lat="42.93859" lon="1.79727">
        <ele>556.74072265625</ele>
        <time>2012-04-08T11:35:49Z</time>
      </trkpt>
      <trkpt lat="42.93861" lon="1.7973">
        <ele>558.66333007812</ele>
        <time>2012-04-08T11:35:51Z</time>
      </trkpt>
      <trkpt lat="42.93864" lon="1.79735">
        <ele>561.54736328125</ele>
        <time>2012-04-08T11:35:55Z</time>
      </trkpt>
      <trkpt lat="42.93867" lon="1.79742">
        <ele>562.9892578125</ele>
        <time>2012-04-08T11:36:00Z</time>
      </trkpt>
      <trkpt lat="42.93869" lon="1.79748">
        <ele>563.95043945312</ele>
        <time>2012-04-08T11:36:05Z</time>
      </trkpt>
      <trkpt lat="42.9387" lon="1.79753">
        <ele>564.91186523438</ele>
        <time>2012-04-08T11:36:08Z</time>
      </trkpt>
      <trkpt lat="42.93872" lon="1.7976">
        <ele>565.87329101562</ele>
        <time>2012-04-08T11:36:13Z</time>
      </trkpt>
      <trkpt lat="42.93874" lon="1.79769">
        <ele>566.83447265625</ele>
        <time>2012-04-08T11:36:19Z</time>
      </trkpt>
      <trkpt lat="42.93876" lon="1.79775">
        <ele>566.83447265625</ele>
        <time>2012-04-08T11:36:24Z</time>
      </trkpt>
      <trkpt lat="42.9388" lon="1.79786">
        <ele>568.75708007812</ele>
        <time>2012-04-08T11:36:32Z</time>
      </trkpt>
      <trkpt lat="42.93882" lon="1.79794">
        <ele>567.79565429688</ele>
        <time>2012-04-08T11:36:38Z</time>
      </trkpt>
      <trkpt lat="42.93883" lon="1.79802">
        <ele>568.75708007812</ele>
        <time>2012-04-08T11:36:45Z</time>
      </trkpt>
      <trkpt lat="42.93881" lon="1.79808">
        <ele>570.6796875</ele>
        <time>2012-04-08T11:36:50Z</time>
      </trkpt>
      <trkpt lat="42.93877" lon="1.79813">
        <ele>571.64086914062</ele>
        <time>2012-04-08T11:36:57Z</time>
      </trkpt>
      <trkpt lat="42.93876" lon="1.7982">
        <ele>572.6025390625</ele>
        <time>2012-04-08T11:37:02Z</time>
      </trkpt>
      <trkpt lat="42.93876" lon="1.79822">
        <ele>573.08325195312</ele>
        <time>2012-04-08T11:37:03Z</time>
      </trkpt>
      <trkpt lat="42.93877" lon="1.79826">
        <ele>573.56396484375</ele>
        <time>2012-04-08T11:37:08Z</time>
      </trkpt>
      <trkpt lat="42.93879" lon="1.7983">
        <ele>572.6025390625</ele>
        <time>2012-04-08T11:37:12Z</time>
      </trkpt>
      <trkpt lat="42.93882" lon="1.79836">
        <ele>573.08325195312</ele>
        <time>2012-04-08T11:37:17Z</time>
      </trkpt>
      <trkpt lat="42.93883" lon="1.79841">
        <ele>571.16040039062</ele>
        <time>2012-04-08T11:37:22Z</time>
      </trkpt>
      <trkpt lat="42.93885" lon="1.79846">
        <ele>570.19897460938</ele>
        <time>2012-04-08T11:37:27Z</time>
      </trkpt>
      <trkpt lat="42.93887" lon="1.79855">
        <ele>570.6796875</ele>
        <time>2012-04-08T11:37:33Z</time>
      </trkpt>
      <trkpt lat="42.93887" lon="1.79856">
        <ele>570.6796875</ele>
        <time>2012-04-08T11:37:34Z</time>
      </trkpt>
      <trkpt lat="42.93888" lon="1.79865">
        <ele>576.44775390625</ele>
        <time>2012-04-08T11:37:41Z</time>
      </trkpt>
      <trkpt lat="42.93888" lon="1.7987">
        <ele>577.4091796875</ele>
        <time>2012-04-08T11:37:45Z</time>
      </trkpt>
      <trkpt lat="42.93889" lon="1.79877">
        <ele>580.77368164062</ele>
        <time>2012-04-08T11:37:51Z</time>
      </trkpt>
      <trkpt lat="42.93889" lon="1.79883">
        <ele>581.25439453125</ele>
        <time>2012-04-08T11:37:56Z</time>
      </trkpt>
      <trkpt lat="42.93888" lon="1.79892">
        <ele>581.73486328125</ele>
        <time>2012-04-08T11:38:02Z</time>
      </trkpt>
      <trkpt lat="42.93885" lon="1.799">
        <ele>583.1767578125</ele>
        <time>2012-04-08T11:38:08Z</time>
      </trkpt>
      <trkpt lat="42.93882" lon="1.79908">
        <ele>583.65747070312</ele>
        <time>2012-04-08T11:38:14Z</time>
      </trkpt>
      <trkpt lat="42.9388" lon="1.79912">
        <ele>584.61889648438</ele>
        <time>2012-04-08T11:38:18Z</time>
      </trkpt>
      <trkpt lat="42.93877" lon="1.79923">
        <ele>587.02197265625</ele>
        <time>2012-04-08T11:38:25Z</time>
      </trkpt>
      <trkpt lat="42.93876" lon="1.7993">
        <ele>587.50268554688</ele>
        <time>2012-04-08T11:38:31Z</time>
      </trkpt>
      <trkpt lat="42.93875" lon="1.79935">
        <ele>588.46435546875</ele>
        <time>2012-04-08T11:38:35Z</time>
      </trkpt>
      <trkpt lat="42.93872" lon="1.79945">
        <ele>588.46435546875</ele>
        <time>2012-04-08T11:38:43Z</time>
      </trkpt>
      <trkpt lat="42.93871" lon="1.79952">
        <ele>589.42553710938</ele>
        <time>2012-04-08T11:38:48Z</time>
      </trkpt>
      <trkpt lat="42.93867" lon="1.79966">
        <ele>590.86743164062</ele>
        <time>2012-04-08T11:38:58Z</time>
      </trkpt>
      <trkpt lat="42.93866" lon="1.79974">
        <ele>592.3095703125</ele>
        <time>2012-04-08T11:39:05Z</time>
      </trkpt>
      <trkpt lat="42.93863" lon="1.79982">
        <ele>593.27075195312</ele>
        <time>2012-04-08T11:39:12Z</time>
      </trkpt>
      <trkpt lat="42.93859" lon="1.79983">
        <ele>593.27075195312</ele>
        <time>2012-04-08T11:39:16Z</time>
      </trkpt>
      <trkpt lat="42.93855" lon="1.7998">
        <ele>593.75146484375</ele>
        <time>2012-04-08T11:39:21Z</time>
      </trkpt>
      <trkpt lat="42.9385" lon="1.79975">
        <ele>592.79028320312</ele>
        <time>2012-04-08T11:39:26Z</time>
      </trkpt>
      <trkpt lat="42.93845" lon="1.79971">
        <ele>591.82885742188</ele>
        <time>2012-04-08T11:39:31Z</time>
      </trkpt>
      <trkpt lat="42.93839" lon="1.79965">
        <ele>593.75146484375</ele>
        <time>2012-04-08T11:39:37Z</time>
      </trkpt>
      <trkpt lat="42.93833" lon="1.79963">
        <ele>595.193359375</ele>
        <time>2012-04-08T11:39:42Z</time>
      </trkpt>
      <trkpt lat="42.9383" lon="1.79964">
        <ele>596.63549804688</ele>
        <time>2012-04-08T11:39:45Z</time>
      </trkpt>
      <trkpt lat="42.93832" lon="1.79969">
        <ele>598.55786132812</ele>
        <time>2012-04-08T11:39:51Z</time>
      </trkpt>
      <trkpt lat="42.93834" lon="1.79971">
        <ele>599.51928710938</ele>
        <time>2012-04-08T11:39:53Z</time>
      </trkpt>
      <trkpt lat="42.93839" lon="1.79975">
        <ele>599.03857421875</ele>
        <time>2012-04-08T11:39:58Z</time>
      </trkpt>
      <trkpt lat="42.9384" lon="1.79977">
        <ele>598.55786132812</ele>
        <time>2012-04-08T11:40:00Z</time>
      </trkpt>
      <trkpt lat="42.9384" lon="1.79983">
        <ele>598.55786132812</ele>
        <time>2012-04-08T11:40:04Z</time>
      </trkpt>
      <trkpt lat="42.93842" lon="1.7999">
        <ele>599.03857421875</ele>
        <time>2012-04-08T11:40:09Z</time>
      </trkpt>
      <trkpt lat="42.93848" lon="1.79998">
        <ele>603.36450195312</ele>
        <time>2012-04-08T11:40:15Z</time>
      </trkpt>
      <trkpt lat="42.93848" lon="1.80005">
        <ele>604.326171875</ele>
        <time>2012-04-08T11:40:20Z</time>
      </trkpt>
      <trkpt lat="42.9385" lon="1.80016">
        <ele>605.28735351562</ele>
        <time>2012-04-08T11:40:28Z</time>
      </trkpt>
      <trkpt lat="42.93851" lon="1.80018">
        <ele>604.806640625</ele>
        <time>2012-04-08T11:40:30Z</time>
      </trkpt>
      <trkpt lat="42.93853" lon="1.80024">
        <ele>606.24853515625</ele>
        <time>2012-04-08T11:40:34Z</time>
      </trkpt>
      <trkpt lat="42.93854" lon="1.80026">
        <ele>606.72924804688</ele>
        <time>2012-04-08T11:40:36Z</time>
      </trkpt>
      <trkpt lat="42.93855" lon="1.80034">
        <ele>607.2099609375</ele>
        <time>2012-04-08T11:40:42Z</time>
      </trkpt>
      <trkpt lat="42.93856" lon="1.80046">
        <ele>609.13256835938</ele>
        <time>2012-04-08T11:40:50Z</time>
      </trkpt>
      <trkpt lat="42.93854" lon="1.80053">
        <ele>608.65185546875</ele>
        <time>2012-04-08T11:40:55Z</time>
      </trkpt>
      <trkpt lat="42.93851" lon="1.80062">
        <ele>609.13256835938</ele>
        <time>2012-04-08T11:41:02Z</time>
      </trkpt>
      <trkpt lat="42.93849" lon="1.80074">
        <ele>609.61328125</ele>
        <time>2012-04-08T11:41:09Z</time>
      </trkpt>
      <trkpt lat="42.93847" lon="1.80086">
        <ele>610.57446289062</ele>
        <time>2012-04-08T11:41:16Z</time>
      </trkpt>
      <trkpt lat="42.93848" lon="1.8009">
        <ele>612.4970703125</ele>
        <time>2012-04-08T11:41:19Z</time>
      </trkpt>
      <trkpt lat="42.9385" lon="1.80097">
        <ele>613.45849609375</ele>
        <time>2012-04-08T11:41:23Z</time>
      </trkpt>
      <trkpt lat="42.93851" lon="1.80101">
        <ele>613.93896484375</ele>
        <time>2012-04-08T11:41:25Z</time>
      </trkpt>
      <trkpt lat="42.93853" lon="1.80114">
        <ele>614.41967773438</ele>
        <time>2012-04-08T11:41:33Z</time>
      </trkpt>
      <trkpt lat="42.93855" lon="1.80128">
        <ele>614.41967773438</ele>
        <time>2012-04-08T11:41:41Z</time>
      </trkpt>
      <trkpt lat="42.93856" lon="1.80142">
        <ele>614.900390625</ele>
        <time>2012-04-08T11:41:49Z</time>
      </trkpt>
      <trkpt lat="42.93855" lon="1.80151">
        <ele>615.38110351562</ele>
        <time>2012-04-08T11:41:55Z</time>
      </trkpt>
      <trkpt lat="42.93855" lon="1.80154">
        <ele>615.38110351562</ele>
        <time>2012-04-08T11:41:57Z</time>
      </trkpt>
      <trkpt lat="42.93854" lon="1.80157">
        <ele>615.86181640625</ele>
        <time>2012-04-08T11:42:00Z</time>
      </trkpt>
      <trkpt lat="42.93854" lon="1.80166">
        <ele>617.3037109375</ele>
        <time>2012-04-08T11:42:06Z</time>
      </trkpt>
      <trkpt lat="42.93855" lon="1.80175">
        <ele>618.26489257812</ele>
        <time>2012-04-08T11:42:12Z</time>
      </trkpt>
      <trkpt lat="42.93854" lon="1.80188">
        <ele>619.22631835938</ele>
        <time>2012-04-08T11:42:21Z</time>
      </trkpt>
      <trkpt lat="42.93853" lon="1.80194">
        <ele>618.26489257812</ele>
        <time>2012-04-08T11:42:27Z</time>
      </trkpt>
      <trkpt lat="42.93851" lon="1.80204">
        <ele>616.34228515625</ele>
        <time>2012-04-08T11:42:33Z</time>
      </trkpt>
      <trkpt lat="42.93848" lon="1.80216">
        <ele>615.86181640625</ele>
        <time>2012-04-08T11:42:40Z</time>
      </trkpt>
      <trkpt lat="42.93852" lon="1.80224">
        <ele>617.7841796875</ele>
        <time>2012-04-08T11:42:46Z</time>
      </trkpt>
      <trkpt lat="42.93854" lon="1.80233">
        <ele>619.22631835938</ele>
        <time>2012-04-08T11:42:52Z</time>
      </trkpt>
      <trkpt lat="42.93857" lon="1.80244">
        <ele>622.1103515625</ele>
        <time>2012-04-08T11:43:01Z</time>
      </trkpt>
      <trkpt lat="42.93857" lon="1.80246">
        <ele>621.62963867188</ele>
        <time>2012-04-08T11:43:02Z</time>
      </trkpt>
      <trkpt lat="42.93856" lon="1.80251">
        <ele>621.62963867188</ele>
        <time>2012-04-08T11:43:04Z</time>
      </trkpt>
      <trkpt lat="42.93857" lon="1.80256">
        <ele>622.59106445312</ele>
        <time>2012-04-08T11:43:09Z</time>
      </trkpt>
      <trkpt lat="42.93856" lon="1.80263">
        <ele>622.59106445312</ele>
        <time>2012-04-08T11:43:13Z</time>
      </trkpt>
      <trkpt lat="42.93858" lon="1.8027">
        <ele>624.03295898438</ele>
        <time>2012-04-08T11:43:19Z</time>
      </trkpt>
      <trkpt lat="42.93865" lon="1.80272">
        <ele>624.99438476562</ele>
        <time>2012-04-08T11:43:25Z</time>
      </trkpt>
      <trkpt lat="42.93866" lon="1.80273">
        <ele>625.47485351562</ele>
        <time>2012-04-08T11:43:26Z</time>
      </trkpt>
      <trkpt lat="42.93867" lon="1.8028">
        <ele>627.39770507812</ele>
        <time>2012-04-08T11:43:33Z</time>
      </trkpt>
      <trkpt lat="42.93871" lon="1.80288">
        <ele>628.35888671875</ele>
        <time>2012-04-08T11:43:41Z</time>
      </trkpt>
      <trkpt lat="42.93877" lon="1.80295">
        <ele>628.83959960938</ele>
        <time>2012-04-08T11:43:49Z</time>
      </trkpt>
      <trkpt lat="42.93878" lon="1.80296">
        <ele>628.83959960938</ele>
        <time>2012-04-08T11:43:50Z</time>
      </trkpt>
      <trkpt lat="42.93882" lon="1.80297">
        <ele>631.72338867188</ele>
        <time>2012-04-08T11:43:53Z</time>
      </trkpt>
      <trkpt lat="42.93885" lon="1.803">
        <ele>634.607421875</ele>
        <time>2012-04-08T11:43:58Z</time>
      </trkpt>
      <trkpt lat="42.93889" lon="1.80302">
        <ele>633.16528320312</ele>
        <time>2012-04-08T11:44:04Z</time>
      </trkpt>
      <trkpt lat="42.93893" lon="1.80304">
        <ele>635.56860351562</ele>
        <time>2012-04-08T11:44:10Z</time>
      </trkpt>
      <trkpt lat="42.93897" lon="1.80308">
        <ele>640.37548828125</ele>
        <time>2012-04-08T11:44:18Z</time>
      </trkpt>
      <trkpt lat="42.93899" lon="1.80312">
        <ele>643.25927734375</ele>
        <time>2012-04-08T11:44:24Z</time>
      </trkpt>
      <trkpt lat="42.93901" lon="1.80319">
        <ele>642.29809570312</ele>
        <time>2012-04-08T11:44:31Z</time>
      </trkpt>
      <trkpt lat="42.93901" lon="1.80325">
        <ele>645.66259765625</ele>
        <time>2012-04-08T11:44:40Z</time>
      </trkpt>
      <trkpt lat="42.93903" lon="1.80329">
        <ele>649.5078125</ele>
        <time>2012-04-08T11:44:46Z</time>
      </trkpt>
      <trkpt lat="42.93904" lon="1.80334">
        <ele>650.46923828125</ele>
        <time>2012-04-08T11:44:53Z</time>
      </trkpt>
      <trkpt lat="42.93905" lon="1.80337">
        <ele>651.9111328125</ele>
        <time>2012-04-08T11:44:57Z</time>
      </trkpt>
      <trkpt lat="42.93907" lon="1.8034">
        <ele>654.31469726562</ele>
        <time>2012-04-08T11:45:02Z</time>
      </trkpt>
      <trkpt lat="42.93911" lon="1.80341">
        <ele>657.67919921875</ele>
        <time>2012-04-08T11:45:08Z</time>
      </trkpt>
      <trkpt lat="42.93913" lon="1.8034">
        <ele>659.12109375</ele>
        <time>2012-04-08T11:45:12Z</time>
      </trkpt>
      <trkpt lat="42.93916" lon="1.80339">
        <ele>659.12109375</ele>
        <time>2012-04-08T11:45:17Z</time>
      </trkpt>
      <trkpt lat="42.9392" lon="1.80339">
        <ele>658.15991210938</ele>
        <time>2012-04-08T11:45:24Z</time>
      </trkpt>
      <trkpt lat="42.93922" lon="1.8034">
        <ele>656.23706054688</ele>
        <time>2012-04-08T11:45:29Z</time>
      </trkpt>
      <trkpt lat="42.9392" lon="1.80348">
        <ele>655.27587890625</ele>
        <time>2012-04-08T11:45:38Z</time>
      </trkpt>
      <trkpt lat="42.93921" lon="1.80354">
        <ele>654.31469726562</ele>
        <time>2012-04-08T11:45:44Z</time>
      </trkpt>
      <trkpt lat="42.93922" lon="1.80356">
        <ele>655.27587890625</ele>
        <time>2012-04-08T11:45:48Z</time>
      </trkpt>
      <trkpt lat="42.93927" lon="1.80354">
        <ele>657.67919921875</ele>
        <time>2012-04-08T11:45:54Z</time>
      </trkpt>
      <trkpt lat="42.9393" lon="1.80352">
        <ele>660.08227539062</ele>
        <time>2012-04-08T11:45:59Z</time>
      </trkpt>
      <trkpt lat="42.93933" lon="1.8035">
        <ele>659.12109375</ele>
        <time>2012-04-08T11:46:04Z</time>
      </trkpt>
      <trkpt lat="42.93937" lon="1.80346">
        <ele>659.12109375</ele>
        <time>2012-04-08T11:46:11Z</time>
      </trkpt>
      <trkpt lat="42.9394" lon="1.80344">
        <ele>661.04370117188</ele>
        <time>2012-04-08T11:46:16Z</time>
      </trkpt>
      <trkpt lat="42.93945" lon="1.8034">
        <ele>661.5244140625</ele>
        <time>2012-04-08T11:46:23Z</time>
      </trkpt>
      <trkpt lat="42.93946" lon="1.80344">
        <ele>663.44702148438</ele>
        <time>2012-04-08T11:46:29Z</time>
      </trkpt>
      <trkpt lat="42.93946" lon="1.80348">
        <ele>665.85034179688</ele>
        <time>2012-04-08T11:46:34Z</time>
      </trkpt>
      <trkpt lat="42.93949" lon="1.80348">
        <ele>667.77270507812</ele>
        <time>2012-04-08T11:46:40Z</time>
      </trkpt>
      <trkpt lat="42.93954" lon="1.8035">
        <ele>670.17626953125</ele>
        <time>2012-04-08T11:46:46Z</time>
      </trkpt>
      <trkpt lat="42.93959" lon="1.80351">
        <ele>670.17626953125</ele>
        <time>2012-04-08T11:46:53Z</time>
      </trkpt>
      <trkpt lat="42.93965" lon="1.80352">
        <ele>666.8115234375</ele>
        <time>2012-04-08T11:46:59Z</time>
      </trkpt>
      <trkpt lat="42.93969" lon="1.80354">
        <ele>664.408203125</ele>
        <time>2012-04-08T11:47:02Z</time>
      </trkpt>
      <trkpt lat="42.93974" lon="1.8036">
        <ele>657.67919921875</ele>
        <time>2012-04-08T11:47:11Z</time>
      </trkpt>
      <trkpt lat="42.93975" lon="1.80365">
        <ele>654.31469726562</ele>
        <time>2012-04-08T11:47:16Z</time>
      </trkpt>
      <trkpt lat="42.93978" lon="1.80365">
        <ele>654.31469726562</ele>
        <time>2012-04-08T11:47:21Z</time>
      </trkpt>
      <trkpt lat="42.9398" lon="1.80359">
        <ele>651.43041992188</ele>
        <time>2012-04-08T11:47:28Z</time>
      </trkpt>
      <trkpt lat="42.93983" lon="1.80356">
        <ele>651.9111328125</ele>
        <time>2012-04-08T11:47:32Z</time>
      </trkpt>
      <trkpt lat="42.93985" lon="1.80352">
        <ele>650.94970703125</ele>
        <time>2012-04-08T11:47:36Z</time>
      </trkpt>
      <trkpt lat="42.93988" lon="1.8035">
        <ele>651.43041992188</ele>
        <time>2012-04-08T11:47:44Z</time>
      </trkpt>
      <trkpt lat="42.9399" lon="1.80352">
        <ele>651.43041992188</ele>
        <time>2012-04-08T11:47:49Z</time>
      </trkpt>
      <trkpt lat="42.9399" lon="1.80354">
        <ele>651.9111328125</ele>
        <time>2012-04-08T11:47:56Z</time>
      </trkpt>
      <trkpt lat="42.9399" lon="1.80355">
        <ele>652.87255859375</ele>
        <time>2012-04-08T11:48:01Z</time>
      </trkpt>
      <trkpt lat="42.93986" lon="1.80353">
        <ele>651.9111328125</ele>
        <time>2012-04-08T11:48:06Z</time>
      </trkpt>
      <trkpt lat="42.93987" lon="1.80354">
        <ele>650.94970703125</ele>
        <time>2012-04-08T11:48:08Z</time>
      </trkpt>
      <trkpt lat="42.93992" lon="1.80365">
        <ele>650.46923828125</ele>
        <time>2012-04-08T11:48:12Z</time>
      </trkpt>
      <trkpt lat="42.93993" lon="1.8038">
        <ele>649.98852539062</ele>
        <time>2012-04-08T11:48:17Z</time>
      </trkpt>
      <trkpt lat="42.93994" lon="1.80391">
        <ele>649.98852539062</ele>
        <time>2012-04-08T11:48:21Z</time>
      </trkpt>
      <trkpt lat="42.93994" lon="1.8041">
        <ele>651.9111328125</ele>
        <time>2012-04-08T11:48:27Z</time>
      </trkpt>
      <trkpt lat="42.93997" lon="1.80426">
        <ele>652.87255859375</ele>
        <time>2012-04-08T11:48:32Z</time>
      </trkpt>
      <trkpt lat="42.93998" lon="1.80444">
        <ele>650.94970703125</ele>
        <time>2012-04-08T11:48:38Z</time>
      </trkpt>
      <trkpt lat="42.93998" lon="1.80456">
        <ele>649.5078125</ele>
        <time>2012-04-08T11:48:42Z</time>
      </trkpt>
      <trkpt lat="42.93995" lon="1.80479">
        <ele>647.58520507812</ele>
        <time>2012-04-08T11:48:49Z</time>
      </trkpt>
      <trkpt lat="42.93994" lon="1.80496">
        <ele>646.14331054688</ele>
        <time>2012-04-08T11:48:54Z</time>
      </trkpt>
      <trkpt lat="42.93992" lon="1.80514">
        <ele>645.18188476562</ele>
        <time>2012-04-08T11:48:59Z</time>
      </trkpt>
      <trkpt lat="42.93991" lon="1.80536">
        <ele>642.77880859375</ele>
        <time>2012-04-08T11:49:06Z</time>
      </trkpt>
      <trkpt lat="42.93991" lon="1.80559">
        <ele>641.8173828125</ele>
        <time>2012-04-08T11:49:13Z</time>
      </trkpt>
      <trkpt lat="42.9399" lon="1.80574">
        <ele>639.4140625</ele>
        <time>2012-04-08T11:49:18Z</time>
      </trkpt>
      <trkpt lat="42.9399" lon="1.80587">
        <ele>637.49145507812</ele>
        <time>2012-04-08T11:49:25Z</time>
      </trkpt>
      <trkpt lat="42.9399" lon="1.80594">
        <ele>637.49145507812</ele>
        <time>2012-04-08T11:49:29Z</time>
      </trkpt>
      <trkpt lat="42.9399" lon="1.80609">
        <ele>634.607421875</ele>
        <time>2012-04-08T11:49:37Z</time>
      </trkpt>
      <trkpt lat="42.9399" lon="1.80613">
        <ele>633.16528320312</ele>
        <time>2012-04-08T11:49:40Z</time>
      </trkpt>
      <trkpt lat="42.9399" lon="1.80631">
        <ele>630.76220703125</ele>
        <time>2012-04-08T11:49:48Z</time>
      </trkpt>
      <trkpt lat="42.93989" lon="1.80646">
        <ele>629.80078125</ele>
        <time>2012-04-08T11:49:55Z</time>
      </trkpt>
      <trkpt lat="42.9399" lon="1.80663">
        <ele>627.87817382812</ele>
        <time>2012-04-08T11:50:03Z</time>
      </trkpt>
      <trkpt lat="42.9399" lon="1.80672">
        <ele>626.9169921875</ele>
        <time>2012-04-08T11:50:07Z</time>
      </trkpt>
      <trkpt lat="42.9399" lon="1.80684">
        <ele>626.9169921875</ele>
        <time>2012-04-08T11:50:13Z</time>
      </trkpt>
      <trkpt lat="42.93991" lon="1.80696">
        <ele>625.47485351562</ele>
        <time>2012-04-08T11:50:19Z</time>
      </trkpt>
      <trkpt lat="42.93991" lon="1.807">
        <ele>624.513671875</ele>
        <time>2012-04-08T11:50:21Z</time>
      </trkpt>
      <trkpt lat="42.93991" lon="1.80714">
        <ele>621.14916992188</ele>
        <time>2012-04-08T11:50:28Z</time>
      </trkpt>
      <trkpt lat="42.93993" lon="1.80725">
        <ele>617.7841796875</ele>
        <time>2012-04-08T11:50:34Z</time>
      </trkpt>
      <trkpt lat="42.93995" lon="1.80733">
        <ele>614.41967773438</ele>
        <time>2012-04-08T11:50:39Z</time>
      </trkpt>
      <trkpt lat="42.93996" lon="1.80743">
        <ele>609.13256835938</ele>
        <time>2012-04-08T11:50:46Z</time>
      </trkpt>
      <trkpt lat="42.93996" lon="1.80753">
        <ele>605.28735351562</ele>
        <time>2012-04-08T11:50:52Z</time>
      </trkpt>
      <trkpt lat="42.93997" lon="1.80763">
        <ele>604.326171875</ele>
        <time>2012-04-08T11:50:58Z</time>
      </trkpt>
      <trkpt lat="42.93998" lon="1.80772">
        <ele>602.40307617188</ele>
        <time>2012-04-08T11:51:04Z</time>
      </trkpt>
      <trkpt lat="42.93998" lon="1.80773">
        <ele>602.40307617188</ele>
        <time>2012-04-08T11:51:05Z</time>
      </trkpt>
      <trkpt lat="42.93998" lon="1.80778">
        <ele>602.40307617188</ele>
        <time>2012-04-08T11:51:08Z</time>
      </trkpt>
      <trkpt lat="42.94002" lon="1.8079">
        <ele>606.24853515625</ele>
        <time>2012-04-08T11:51:14Z</time>
      </trkpt>
      <trkpt lat="42.94004" lon="1.80799">
        <ele>606.72924804688</ele>
        <time>2012-04-08T11:51:17Z</time>
      </trkpt>
      <trkpt lat="42.94006" lon="1.80815">
        <ele>607.2099609375</ele>
        <time>2012-04-08T11:51:22Z</time>
      </trkpt>
      <trkpt lat="42.94011" lon="1.80839">
        <ele>606.24853515625</ele>
        <time>2012-04-08T11:51:30Z</time>
      </trkpt>
      <trkpt lat="42.94014" lon="1.8086">
        <ele>605.76806640625</ele>
        <time>2012-04-08T11:51:37Z</time>
      </trkpt>
      <trkpt lat="42.94016" lon="1.80879">
        <ele>603.36450195312</ele>
        <time>2012-04-08T11:51:43Z</time>
      </trkpt>
      <trkpt lat="42.94018" lon="1.80898">
        <ele>602.40307617188</ele>
        <time>2012-04-08T11:51:49Z</time>
      </trkpt>
      <trkpt lat="42.9402" lon="1.80917">
        <ele>601.92260742188</ele>
        <time>2012-04-08T11:51:55Z</time>
      </trkpt>
      <trkpt lat="42.94023" lon="1.80943">
        <ele>599.03857421875</ele>
        <time>2012-04-08T11:52:03Z</time>
      </trkpt>
      <trkpt lat="42.94024" lon="1.80956">
        <ele>596.63549804688</ele>
        <time>2012-04-08T11:52:08Z</time>
      </trkpt>
      <trkpt lat="42.94026" lon="1.80962">
        <ele>595.67407226562</ele>
        <time>2012-04-08T11:52:13Z</time>
      </trkpt>
      <trkpt lat="42.94026" lon="1.80963">
        <ele>595.67407226562</ele>
        <time>2012-04-08T11:52:14Z</time>
      </trkpt>
      <trkpt lat="42.94025" lon="1.80969">
        <ele>595.193359375</ele>
        <time>2012-04-08T11:52:18Z</time>
      </trkpt>
      <trkpt lat="42.94026" lon="1.80979">
        <ele>591.34814453125</ele>
        <time>2012-04-08T11:52:22Z</time>
      </trkpt>
      <trkpt lat="42.9403" lon="1.80996">
        <ele>588.94506835938</ele>
        <time>2012-04-08T11:52:27Z</time>
      </trkpt>
      <trkpt lat="42.94036" lon="1.81019">
        <ele>585.580078125</ele>
        <time>2012-04-08T11:52:34Z</time>
      </trkpt>
      <trkpt lat="42.94043" lon="1.81037">
        <ele>583.1767578125</ele>
        <time>2012-04-08T11:52:40Z</time>
      </trkpt>
      <trkpt lat="42.94054" lon="1.8106">
        <ele>580.29296875</ele>
        <time>2012-04-08T11:52:48Z</time>
      </trkpt>
      <trkpt lat="42.94062" lon="1.81073">
        <ele>578.37036132812</ele>
        <time>2012-04-08T11:52:54Z</time>
      </trkpt>
      <trkpt lat="42.94072" lon="1.8109">
        <ele>575.486328125</ele>
        <time>2012-04-08T11:53:00Z</time>
      </trkpt>
      <trkpt lat="42.94082" lon="1.81109">
        <ele>574.52514648438</ele>
        <time>2012-04-08T11:53:07Z</time>
      </trkpt>
      <trkpt lat="42.9409" lon="1.81125">
        <ele>574.52514648438</ele>
        <time>2012-04-08T11:53:13Z</time>
      </trkpt>
      <trkpt lat="42.9409" lon="1.81126">
        <ele>574.52514648438</ele>
        <time>2012-04-08T11:53:14Z</time>
      </trkpt>
      <trkpt lat="42.94088" lon="1.8114">
        <ele>575.96704101562</ele>
        <time>2012-04-08T11:53:22Z</time>
      </trkpt>
      <trkpt lat="42.94085" lon="1.81152">
        <ele>576.44775390625</ele>
        <time>2012-04-08T11:53:29Z</time>
      </trkpt>
      <trkpt lat="42.94081" lon="1.8116">
        <ele>577.8896484375</ele>
        <time>2012-04-08T11:53:34Z</time>
      </trkpt>
      <trkpt lat="42.9408" lon="1.81169">
        <ele>579.33154296875</ele>
        <time>2012-04-08T11:53:38Z</time>
      </trkpt>
      <trkpt lat="42.94074" lon="1.81183">
        <ele>579.81225585938</ele>
        <time>2012-04-08T11:53:43Z</time>
      </trkpt>
      <trkpt lat="42.94071" lon="1.81196">
        <ele>580.29296875</ele>
        <time>2012-04-08T11:53:47Z</time>
      </trkpt>
      <trkpt lat="42.94065" lon="1.81216">
        <ele>581.25439453125</ele>
        <time>2012-04-08T11:53:53Z</time>
      </trkpt>
      <trkpt lat="42.94064" lon="1.81228">
        <ele>580.77368164062</ele>
        <time>2012-04-08T11:53:59Z</time>
      </trkpt>
      <trkpt lat="42.94066" lon="1.81234">
        <ele>580.29296875</ele>
        <time>2012-04-08T11:54:03Z</time>
      </trkpt>
      <trkpt lat="42.94077" lon="1.81241">
        <ele>581.73486328125</ele>
        <time>2012-04-08T11:54:12Z</time>
      </trkpt>
      <trkpt lat="42.94086" lon="1.81245">
        <ele>583.65747070312</ele>
        <time>2012-04-08T11:54:19Z</time>
      </trkpt>
      <trkpt lat="42.94095" lon="1.81249">
        <ele>585.099609375</ele>
        <time>2012-04-08T11:54:26Z</time>
      </trkpt>
      <trkpt lat="42.94107" lon="1.81254">
        <ele>586.06079101562</ele>
        <time>2012-04-08T11:54:35Z</time>
      </trkpt>
      <trkpt lat="42.94117" lon="1.81258">
        <ele>586.54150390625</ele>
        <time>2012-04-08T11:54:43Z</time>
      </trkpt>
      <trkpt lat="42.94122" lon="1.81261">
        <ele>587.02197265625</ele>
        <time>2012-04-08T11:54:48Z</time>
      </trkpt>
      <trkpt lat="42.94132" lon="1.81264">
        <ele>587.02197265625</ele>
        <time>2012-04-08T11:54:58Z</time>
      </trkpt>
      <trkpt lat="42.94138" lon="1.81266">
        <ele>586.54150390625</ele>
        <time>2012-04-08T11:55:05Z</time>
      </trkpt>
      <trkpt lat="42.9414" lon="1.81266">
        <ele>586.54150390625</ele>
        <time>2012-04-08T11:55:11Z</time>
      </trkpt>
      <trkpt lat="42.94141" lon="1.81266">
        <ele>585.099609375</ele>
        <time>2012-04-08T11:55:18Z</time>
      </trkpt>
      <trkpt lat="42.94141" lon="1.81266">
        <ele>583.65747070312</ele>
        <time>2012-04-08T11:55:27Z</time>
      </trkpt>
      <trkpt lat="42.94142" lon="1.81266">
        <ele>583.1767578125</ele>
        <time>2012-04-08T11:55:39Z</time>
      </trkpt>
      <trkpt lat="42.94143" lon="1.81267">
        <ele>587.9833984375</ele>
        <time>2012-04-08T11:55:56Z</time>
      </trkpt>
      <trkpt lat="42.94143" lon="1.81267">
        <ele>588.94506835938</ele>
        <time>2012-04-08T11:56:03Z</time>
      </trkpt>
      <trkpt lat="42.94146" lon="1.81268">
        <ele>588.46435546875</ele>
        <time>2012-04-08T11:56:11Z</time>
      </trkpt>
      <trkpt lat="42.94153" lon="1.81273">
        <ele>587.9833984375</ele>
        <time>2012-04-08T11:56:18Z</time>
      </trkpt>
      <trkpt lat="42.94162" lon="1.81276">
        <ele>587.50268554688</ele>
        <time>2012-04-08T11:56:25Z</time>
      </trkpt>
      <trkpt lat="42.94164" lon="1.81276">
        <ele>589.42553710938</ele>
        <time>2012-04-08T11:56:29Z</time>
      </trkpt>
      <trkpt lat="42.94174" lon="1.81281">
        <ele>589.90625</ele>
        <time>2012-04-08T11:56:37Z</time>
      </trkpt>
      <trkpt lat="42.94182" lon="1.81284">
        <ele>591.82885742188</ele>
        <time>2012-04-08T11:56:45Z</time>
      </trkpt>
      <trkpt lat="42.9419" lon="1.81285">
        <ele>595.193359375</ele>
        <time>2012-04-08T11:56:53Z</time>
      </trkpt>
      <trkpt lat="42.94197" lon="1.81286">
        <ele>594.23217773438</ele>
        <time>2012-04-08T11:57:01Z</time>
      </trkpt>
      <trkpt lat="42.94203" lon="1.81287">
        <ele>594.71264648438</ele>
        <time>2012-04-08T11:57:07Z</time>
      </trkpt>
      <trkpt lat="42.9421" lon="1.81288">
        <ele>597.5966796875</ele>
        <time>2012-04-08T11:57:15Z</time>
      </trkpt>
      <trkpt lat="42.94217" lon="1.81289">
        <ele>600.48071289062</ele>
        <time>2012-04-08T11:57:24Z</time>
      </trkpt>
      <trkpt lat="42.94224" lon="1.81291">
        <ele>601.92260742188</ele>
        <time>2012-04-08T11:57:31Z</time>
      </trkpt>
      <trkpt lat="42.9423" lon="1.81291">
        <ele>603.84521484375</ele>
        <time>2012-04-08T11:57:37Z</time>
      </trkpt>
      <trkpt lat="42.94237" lon="1.81292">
        <ele>605.28735351562</ele>
        <time>2012-04-08T11:57:45Z</time>
      </trkpt>
      <trkpt lat="42.94242" lon="1.81292">
        <ele>604.806640625</ele>
        <time>2012-04-08T11:57:51Z</time>
      </trkpt>
      <trkpt lat="42.94249" lon="1.81292">
        <ele>606.24853515625</ele>
        <time>2012-04-08T11:57:58Z</time>
      </trkpt>
      <trkpt lat="42.94254" lon="1.81293">
        <ele>608.17138671875</ele>
        <time>2012-04-08T11:58:02Z</time>
      </trkpt>
      <trkpt lat="42.9426" lon="1.81294">
        <ele>609.61328125</ele>
        <time>2012-04-08T11:58:10Z</time>
      </trkpt>
      <trkpt lat="42.94263" lon="1.81296">
        <ele>611.53588867188</ele>
        <time>2012-04-08T11:58:16Z</time>
      </trkpt>
      <trkpt lat="42.94269" lon="1.81296">
        <ele>612.97778320312</ele>
        <time>2012-04-08T11:58:23Z</time>
      </trkpt>
      <trkpt lat="42.94273" lon="1.81296">
        <ele>614.41967773438</ele>
        <time>2012-04-08T11:58:29Z</time>
      </trkpt>
      <trkpt lat="42.94277" lon="1.81299">
        <ele>615.38110351562</ele>
        <time>2012-04-08T11:58:35Z</time>
      </trkpt>
      <trkpt lat="42.9428" lon="1.81305">
        <ele>617.3037109375</ele>
        <time>2012-04-08T11:58:43Z</time>
      </trkpt>
      <trkpt lat="42.94282" lon="1.81309">
        <ele>616.82299804688</ele>
        <time>2012-04-08T11:58:48Z</time>
      </trkpt>
      <trkpt lat="42.94285" lon="1.81312">
        <ele>617.7841796875</ele>
        <time>2012-04-08T11:58:53Z</time>
      </trkpt>
      <trkpt lat="42.94288" lon="1.81314">
        <ele>619.22631835938</ele>
        <time>2012-04-08T11:58:58Z</time>
      </trkpt>
      <trkpt lat="42.94291" lon="1.81318">
        <ele>619.22631835938</ele>
        <time>2012-04-08T11:59:04Z</time>
      </trkpt>
      <trkpt lat="42.94294" lon="1.8132">
        <ele>619.22631835938</ele>
        <time>2012-04-08T11:59:08Z</time>
      </trkpt>
      <trkpt lat="42.94297" lon="1.81321">
        <ele>620.18774414062</ele>
        <time>2012-04-08T11:59:14Z</time>
      </trkpt>
      <trkpt lat="42.94302" lon="1.81321">
        <ele>621.14916992188</ele>
        <time>2012-04-08T11:59:20Z</time>
      </trkpt>
      <trkpt lat="42.94305" lon="1.81321">
        <ele>621.62963867188</ele>
        <time>2012-04-08T11:59:26Z</time>
      </trkpt>
      <trkpt lat="42.94309" lon="1.8132">
        <ele>622.1103515625</ele>
        <time>2012-04-08T11:59:31Z</time>
      </trkpt>
      <trkpt lat="42.94313" lon="1.81319">
        <ele>624.513671875</ele>
        <time>2012-04-08T11:59:38Z</time>
      </trkpt>
      <trkpt lat="42.94319" lon="1.81318">
        <ele>625.95556640625</ele>
        <time>2012-04-08T11:59:46Z</time>
      </trkpt>
      <trkpt lat="42.94323" lon="1.81315">
        <ele>627.39770507812</ele>
        <time>2012-04-08T11:59:51Z</time>
      </trkpt>
      <trkpt lat="42.94325" lon="1.81311">
        <ele>628.83959960938</ele>
        <time>2012-04-08T11:59:55Z</time>
      </trkpt>
      <trkpt lat="42.94327" lon="1.81307">
        <ele>629.80078125</ele>
        <time>2012-04-08T12:00:00Z</time>
      </trkpt>
      <trkpt lat="42.9433" lon="1.81304">
        <ele>630.76220703125</ele>
        <time>2012-04-08T12:00:06Z</time>
      </trkpt>
      <trkpt lat="42.94333" lon="1.81301">
        <ele>632.68481445312</ele>
        <time>2012-04-08T12:00:11Z</time>
      </trkpt>
      <trkpt lat="42.94336" lon="1.81298">
        <ele>633.64599609375</ele>
        <time>2012-04-08T12:00:16Z</time>
      </trkpt>
      <trkpt lat="42.9434" lon="1.81294">
        <ele>634.607421875</ele>
        <time>2012-04-08T12:00:23Z</time>
      </trkpt>
      <trkpt lat="42.94343" lon="1.8129">
        <ele>639.89477539062</ele>
        <time>2012-04-08T12:00:31Z</time>
      </trkpt>
      <trkpt lat="42.94346" lon="1.81289">
        <ele>640.85595703125</ele>
        <time>2012-04-08T12:00:36Z</time>
      </trkpt>
      <trkpt lat="42.9435" lon="1.81287">
        <ele>641.8173828125</ele>
        <time>2012-04-08T12:00:41Z</time>
      </trkpt>
      <trkpt lat="42.94353" lon="1.81284">
        <ele>642.29809570312</ele>
        <time>2012-04-08T12:00:46Z</time>
      </trkpt>
      <trkpt lat="42.94357" lon="1.8128">
        <ele>642.29809570312</ele>
        <time>2012-04-08T12:00:54Z</time>
      </trkpt>
      <trkpt lat="42.94361" lon="1.81276">
        <ele>642.77880859375</ele>
        <time>2012-04-08T12:01:00Z</time>
      </trkpt>
      <trkpt lat="42.94365" lon="1.81278">
        <ele>643.25927734375</ele>
        <time>2012-04-08T12:01:05Z</time>
      </trkpt>
      <trkpt lat="42.94366" lon="1.81283">
        <ele>644.220703125</ele>
        <time>2012-04-08T12:01:11Z</time>
      </trkpt>
      <trkpt lat="42.94367" lon="1.8129">
        <ele>644.701171875</ele>
        <time>2012-04-08T12:01:19Z</time>
      </trkpt>
      <trkpt lat="42.94368" lon="1.81295">
        <ele>645.18188476562</ele>
        <time>2012-04-08T12:01:26Z</time>
      </trkpt>
      <trkpt lat="42.94369" lon="1.813">
        <ele>646.14331054688</ele>
        <time>2012-04-08T12:01:31Z</time>
      </trkpt>
      <trkpt lat="42.94371" lon="1.81308">
        <ele>646.14331054688</ele>
        <time>2012-04-08T12:01:39Z</time>
      </trkpt>
      <trkpt lat="42.94373" lon="1.81314">
        <ele>646.6240234375</ele>
        <time>2012-04-08T12:01:45Z</time>
      </trkpt>
      <trkpt lat="42.94374" lon="1.81319">
        <ele>648.06591796875</ele>
        <time>2012-04-08T12:01:52Z</time>
      </trkpt>
      <trkpt lat="42.94376" lon="1.81324">
        <ele>649.5078125</ele>
        <time>2012-04-08T12:01:58Z</time>
      </trkpt>
      <trkpt lat="42.94377" lon="1.81331">
        <ele>650.94970703125</ele>
        <time>2012-04-08T12:02:05Z</time>
      </trkpt>
      <trkpt lat="42.94378" lon="1.81336">
        <ele>652.87255859375</ele>
        <time>2012-04-08T12:02:10Z</time>
      </trkpt>
      <trkpt lat="42.9438" lon="1.81341">
        <ele>653.35327148438</ele>
        <time>2012-04-08T12:02:15Z</time>
      </trkpt>
      <trkpt lat="42.94382" lon="1.81347">
        <ele>656.7177734375</ele>
        <time>2012-04-08T12:02:21Z</time>
      </trkpt>
      <trkpt lat="42.94384" lon="1.81355">
        <ele>657.19848632812</ele>
        <time>2012-04-08T12:02:28Z</time>
      </trkpt>
      <trkpt lat="42.94386" lon="1.81362">
        <ele>660.56298828125</ele>
        <time>2012-04-08T12:02:35Z</time>
      </trkpt>
      <trkpt lat="42.94386" lon="1.81369">
        <ele>661.04370117188</ele>
        <time>2012-04-08T12:02:41Z</time>
      </trkpt>
      <trkpt lat="42.94387" lon="1.81376">
        <ele>662.96630859375</ele>
        <time>2012-04-08T12:02:47Z</time>
      </trkpt>
      <trkpt lat="42.9439" lon="1.81381">
        <ele>665.36962890625</ele>
        <time>2012-04-08T12:02:53Z</time>
      </trkpt>
      <trkpt lat="42.94391" lon="1.81388">
        <ele>667.29223632812</ele>
        <time>2012-04-08T12:02:59Z</time>
      </trkpt>
      <trkpt lat="42.9439" lon="1.81394">
        <ele>669.69580078125</ele>
        <time>2012-04-08T12:03:05Z</time>
      </trkpt>
      <trkpt lat="42.94392" lon="1.81403">
        <ele>672.57958984375</ele>
        <time>2012-04-08T12:03:13Z</time>
      </trkpt>
      <trkpt lat="42.94394" lon="1.81409">
        <ele>674.50219726562</ele>
        <time>2012-04-08T12:03:20Z</time>
      </trkpt>
      <trkpt lat="42.94395" lon="1.81414">
        <ele>674.98291015625</ele>
        <time>2012-04-08T12:03:25Z</time>
      </trkpt>
      <trkpt lat="42.94395" lon="1.81419">
        <ele>676.90551757812</ele>
        <time>2012-04-08T12:03:31Z</time>
      </trkpt>
      <trkpt lat="42.94398" lon="1.81425">
        <ele>679.30859375</ele>
        <time>2012-04-08T12:03:39Z</time>
      </trkpt>
      <trkpt lat="42.944" lon="1.81429">
        <ele>681.2314453125</ele>
        <time>2012-04-08T12:03:44Z</time>
      </trkpt>
      <trkpt lat="42.94402" lon="1.81437">
        <ele>683.15380859375</ele>
        <time>2012-04-08T12:03:52Z</time>
      </trkpt>
      <trkpt lat="42.94404" lon="1.81443">
        <ele>685.55737304688</ele>
        <time>2012-04-08T12:04:00Z</time>
      </trkpt>
      <trkpt lat="42.94406" lon="1.81448">
        <ele>686.0380859375</ele>
        <time>2012-04-08T12:04:06Z</time>
      </trkpt>
      <trkpt lat="42.94408" lon="1.81453">
        <ele>686.99926757812</ele>
        <time>2012-04-08T12:04:12Z</time>
      </trkpt>
      <trkpt lat="42.94413" lon="1.81453">
        <ele>689.88330078125</ele>
        <time>2012-04-08T12:04:19Z</time>
      </trkpt>
      <trkpt lat="42.94415" lon="1.81454">
        <ele>690.84448242188</ele>
        <time>2012-04-08T12:04:24Z</time>
      </trkpt>
      <trkpt lat="42.94418" lon="1.81456">
        <ele>690.84448242188</ele>
        <time>2012-04-08T12:04:30Z</time>
      </trkpt>
      <trkpt lat="42.94423" lon="1.81457">
        <ele>693.728515625</ele>
        <time>2012-04-08T12:04:37Z</time>
      </trkpt>
      <trkpt lat="42.94425" lon="1.81458">
        <ele>695.65112304688</ele>
        <time>2012-04-08T12:04:44Z</time>
      </trkpt>
      <trkpt lat="42.94427" lon="1.8146">
        <ele>699.015625</ele>
        <time>2012-04-08T12:04:50Z</time>
      </trkpt>
      <trkpt lat="42.94429" lon="1.81463">
        <ele>699.015625</ele>
        <time>2012-04-08T12:04:56Z</time>
      </trkpt>
      <trkpt lat="42.94431" lon="1.81466">
        <ele>700.9384765625</ele>
        <time>2012-04-08T12:05:02Z</time>
      </trkpt>
      <trkpt lat="42.94432" lon="1.81467">
        <ele>701.41918945312</ele>
        <time>2012-04-08T12:05:07Z</time>
      </trkpt>
      <trkpt lat="42.94434" lon="1.8147">
        <ele>701.41918945312</ele>
        <time>2012-04-08T12:05:14Z</time>
      </trkpt>
      <trkpt lat="42.94436" lon="1.81473">
        <ele>702.38037109375</ele>
        <time>2012-04-08T12:05:19Z</time>
      </trkpt>
      <trkpt lat="42.94437" lon="1.81475">
        <ele>702.38037109375</ele>
        <time>2012-04-08T12:05:24Z</time>
      </trkpt>
      <trkpt lat="42.94438" lon="1.81479">
        <ele>703.341796875</ele>
        <time>2012-04-08T12:05:32Z</time>
      </trkpt>
      <trkpt lat="42.94441" lon="1.81482">
        <ele>704.78369140625</ele>
        <time>2012-04-08T12:05:38Z</time>
      </trkpt>
      <trkpt lat="42.94443" lon="1.81486">
        <ele>707.18701171875</ele>
        <time>2012-04-08T12:05:45Z</time>
      </trkpt>
      <trkpt lat="42.94444" lon="1.8149">
        <ele>708.62890625</ele>
        <time>2012-04-08T12:05:51Z</time>
      </trkpt>
      <trkpt lat="42.94446" lon="1.81495">
        <ele>710.55151367188</ele>
        <time>2012-04-08T12:05:57Z</time>
      </trkpt>
      <trkpt lat="42.94447" lon="1.81499">
        <ele>711.51293945312</ele>
        <time>2012-04-08T12:06:04Z</time>
      </trkpt>
      <trkpt lat="42.94447" lon="1.81501">
        <ele>712.47412109375</ele>
        <time>2012-04-08T12:06:11Z</time>
      </trkpt>
      <trkpt lat="42.94448" lon="1.81503">
        <ele>713.435546875</ele>
        <time>2012-04-08T12:06:18Z</time>
      </trkpt>
      <trkpt lat="42.94448" lon="1.81504">
        <ele>712.47412109375</ele>
        <time>2012-04-08T12:06:27Z</time>
      </trkpt>
      <trkpt lat="42.94451" lon="1.81507">
        <ele>713.435546875</ele>
        <time>2012-04-08T12:06:34Z</time>
      </trkpt>
      <trkpt lat="42.94453" lon="1.81512">
        <ele>712.95483398438</ele>
        <time>2012-04-08T12:06:41Z</time>
      </trkpt>
      <trkpt lat="42.94453" lon="1.81518">
        <ele>714.39672851562</ele>
        <time>2012-04-08T12:06:48Z</time>
      </trkpt>
      <trkpt lat="42.94455" lon="1.81521">
        <ele>716.31958007812</ele>
        <time>2012-04-08T12:06:53Z</time>
      </trkpt>
      <trkpt lat="42.94456" lon="1.81527">
        <ele>717.28100585938</ele>
        <time>2012-04-08T12:07:00Z</time>
      </trkpt>
      <trkpt lat="42.9446" lon="1.81532">
        <ele>718.2421875</ele>
        <time>2012-04-08T12:07:08Z</time>
      </trkpt>
      <trkpt lat="42.94461" lon="1.81538">
        <ele>719.68432617188</ele>
        <time>2012-04-08T12:07:16Z</time>
      </trkpt>
      <trkpt lat="42.94463" lon="1.81543">
        <ele>722.56811523438</ele>
        <time>2012-04-08T12:07:22Z</time>
      </trkpt>
      <trkpt lat="42.94466" lon="1.8155">
        <ele>724.97143554688</ele>
        <time>2012-04-08T12:07:30Z</time>
      </trkpt>
      <trkpt lat="42.94467" lon="1.81555">
        <ele>727.37475585938</ele>
        <time>2012-04-08T12:07:36Z</time>
      </trkpt>
      <trkpt lat="42.9447" lon="1.8156">
        <ele>729.77783203125</ele>
        <time>2012-04-08T12:07:43Z</time>
      </trkpt>
      <trkpt lat="42.94472" lon="1.81562">
        <ele>732.662109375</ele>
        <time>2012-04-08T12:07:49Z</time>
      </trkpt>
      <trkpt lat="42.94475" lon="1.81567">
        <ele>732.662109375</ele>
        <time>2012-04-08T12:07:57Z</time>
      </trkpt>
      <trkpt lat="42.94477" lon="1.81571">
        <ele>732.18139648438</ele>
        <time>2012-04-08T12:08:02Z</time>
      </trkpt>
      <trkpt lat="42.9448" lon="1.81575">
        <ele>733.142578125</ele>
        <time>2012-04-08T12:08:09Z</time>
      </trkpt>
      <trkpt lat="42.94481" lon="1.81579">
        <ele>733.62329101562</ele>
        <time>2012-04-08T12:08:14Z</time>
      </trkpt>
      <trkpt lat="42.94483" lon="1.81583">
        <ele>734.58471679688</ele>
        <time>2012-04-08T12:08:20Z</time>
      </trkpt>
      <trkpt lat="42.94485" lon="1.81588">
        <ele>736.50732421875</ele>
        <time>2012-04-08T12:08:26Z</time>
      </trkpt>
      <trkpt lat="42.94487" lon="1.81592">
        <ele>738.42993164062</ele>
        <time>2012-04-08T12:08:32Z</time>
      </trkpt>
      <trkpt lat="42.94487" lon="1.81595">
        <ele>740.3525390625</ele>
        <time>2012-04-08T12:08:38Z</time>
      </trkpt>
      <trkpt lat="42.94488" lon="1.816">
        <ele>743.236328125</ele>
        <time>2012-04-08T12:08:44Z</time>
      </trkpt>
      <trkpt lat="42.9449" lon="1.81604">
        <ele>744.67822265625</ele>
        <time>2012-04-08T12:08:51Z</time>
      </trkpt>
      <trkpt lat="42.94493" lon="1.81607">
        <ele>745.15893554688</ele>
        <time>2012-04-08T12:08:56Z</time>
      </trkpt>
      <trkpt lat="42.94495" lon="1.81611">
        <ele>747.08154296875</ele>
        <time>2012-04-08T12:09:03Z</time>
      </trkpt>
      <trkpt lat="42.94497" lon="1.81615">
        <ele>748.52368164062</ele>
        <time>2012-04-08T12:09:10Z</time>
      </trkpt>
      <trkpt lat="42.94498" lon="1.81618">
        <ele>749.48510742188</ele>
        <time>2012-04-08T12:09:16Z</time>
      </trkpt>
      <trkpt lat="42.94503" lon="1.81621">
        <ele>750.44653320312</ele>
        <time>2012-04-08T12:09:24Z</time>
      </trkpt>
      <trkpt lat="42.94506" lon="1.81623">
        <ele>748.52368164062</ele>
        <time>2012-04-08T12:09:30Z</time>
      </trkpt>
      <trkpt lat="42.94509" lon="1.81626">
        <ele>749.48510742188</ele>
        <time>2012-04-08T12:09:36Z</time>
      </trkpt>
      <trkpt lat="42.94512" lon="1.81628">
        <ele>751.88842773438</ele>
        <time>2012-04-08T12:09:42Z</time>
      </trkpt>
      <trkpt lat="42.94515" lon="1.8163">
        <ele>752.36889648438</ele>
        <time>2012-04-08T12:09:50Z</time>
      </trkpt>
      <trkpt lat="42.94518" lon="1.81632">
        <ele>752.849609375</ele>
        <time>2012-04-08T12:09:56Z</time>
      </trkpt>
      <trkpt lat="42.9452" lon="1.81634">
        <ele>753.33032226562</ele>
        <time>2012-04-08T12:10:04Z</time>
      </trkpt>
      <trkpt lat="42.94524" lon="1.81636">
        <ele>753.81103515625</ele>
        <time>2012-04-08T12:10:11Z</time>
      </trkpt>
      <trkpt lat="42.94526" lon="1.81638">
        <ele>754.77221679688</ele>
        <time>2012-04-08T12:10:18Z</time>
      </trkpt>
      <trkpt lat="42.94529" lon="1.81641">
        <ele>755.73364257812</ele>
        <time>2012-04-08T12:10:24Z</time>
      </trkpt>
      <trkpt lat="42.94534" lon="1.81642">
        <ele>757.65625</ele>
        <time>2012-04-08T12:10:29Z</time>
      </trkpt>
      <trkpt lat="42.9454" lon="1.81643">
        <ele>758.13696289062</ele>
        <time>2012-04-08T12:10:36Z</time>
      </trkpt>
      <trkpt lat="42.94543" lon="1.81645">
        <ele>759.57885742188</ele>
        <time>2012-04-08T12:10:40Z</time>
      </trkpt>
      <trkpt lat="42.94546" lon="1.81647">
        <ele>761.50146484375</ele>
        <time>2012-04-08T12:10:45Z</time>
      </trkpt>
      <trkpt lat="42.9455" lon="1.81651">
        <ele>763.42407226562</ele>
        <time>2012-04-08T12:10:53Z</time>
      </trkpt>
      <trkpt lat="42.94554" lon="1.81654">
        <ele>764.8662109375</ele>
        <time>2012-04-08T12:11:00Z</time>
      </trkpt>
      <trkpt lat="42.94556" lon="1.81658">
        <ele>766.78881835938</ele>
        <time>2012-04-08T12:11:06Z</time>
      </trkpt>
      <trkpt lat="42.94559" lon="1.8166">
        <ele>767.75</ele>
        <time>2012-04-08T12:11:12Z</time>
      </trkpt>
      <trkpt lat="42.94562" lon="1.81663">
        <ele>767.75</ele>
        <time>2012-04-08T12:11:18Z</time>
      </trkpt>
      <trkpt lat="42.94565" lon="1.81666">
        <ele>769.6728515625</ele>
        <time>2012-04-08T12:11:24Z</time>
      </trkpt>
      <trkpt lat="42.94568" lon="1.81669">
        <ele>771.11474609375</ele>
        <time>2012-04-08T12:11:29Z</time>
      </trkpt>
      <trkpt lat="42.94571" lon="1.81672">
        <ele>770.63403320312</ele>
        <time>2012-04-08T12:11:35Z</time>
      </trkpt>
      <trkpt lat="42.94574" lon="1.81674">
        <ele>773.51806640625</ele>
        <time>2012-04-08T12:11:41Z</time>
      </trkpt>
      <trkpt lat="42.94577" lon="1.81678">
        <ele>774.47924804688</ele>
        <time>2012-04-08T12:11:48Z</time>
      </trkpt>
      <trkpt lat="42.9458" lon="1.8168">
        <ele>775.4404296875</ele>
        <time>2012-04-08T12:11:54Z</time>
      </trkpt>
      <trkpt lat="42.94585" lon="1.81681">
        <ele>776.40185546875</ele>
        <time>2012-04-08T12:11:59Z</time>
      </trkpt>
      <trkpt lat="42.94589" lon="1.81684">
        <ele>776.40185546875</ele>
        <time>2012-04-08T12:12:05Z</time>
      </trkpt>
      <trkpt lat="42.94592" lon="1.81688">
        <ele>777.36328125</ele>
        <time>2012-04-08T12:12:11Z</time>
      </trkpt>
      <trkpt lat="42.94595" lon="1.81692">
        <ele>779.28564453125</ele>
        <time>2012-04-08T12:12:16Z</time>
      </trkpt>
      <trkpt lat="42.94599" lon="1.81695">
        <ele>779.28564453125</ele>
        <time>2012-04-08T12:12:21Z</time>
      </trkpt>
      <trkpt lat="42.94604" lon="1.81698">
        <ele>781.20874023438</ele>
        <time>2012-04-08T12:12:28Z</time>
      </trkpt>
      <trkpt lat="42.94608" lon="1.81698">
        <ele>782.65063476562</ele>
        <time>2012-04-08T12:12:33Z</time>
      </trkpt>
      <trkpt lat="42.94614" lon="1.81698">
        <ele>783.13110351562</ele>
        <time>2012-04-08T12:12:39Z</time>
      </trkpt>
      <trkpt lat="42.94618" lon="1.817">
        <ele>782.169921875</ele>
        <time>2012-04-08T12:12:43Z</time>
      </trkpt>
      <trkpt lat="42.94622" lon="1.817">
        <ele>782.65063476562</ele>
        <time>2012-04-08T12:12:48Z</time>
      </trkpt>
      <trkpt lat="42.94626" lon="1.817">
        <ele>781.68920898438</ele>
        <time>2012-04-08T12:12:53Z</time>
      </trkpt>
      <trkpt lat="42.9463" lon="1.817">
        <ele>782.169921875</ele>
        <time>2012-04-08T12:12:59Z</time>
      </trkpt>
      <trkpt lat="42.94636" lon="1.81699">
        <ele>784.09252929688</ele>
        <time>2012-04-08T12:13:04Z</time>
      </trkpt>
      <trkpt lat="42.94641" lon="1.81697">
        <ele>785.53442382812</ele>
        <time>2012-04-08T12:13:09Z</time>
      </trkpt>
      <trkpt lat="42.94647" lon="1.81696">
        <ele>786.97631835938</ele>
        <time>2012-04-08T12:13:14Z</time>
      </trkpt>
      <trkpt lat="42.94651" lon="1.81698">
        <ele>788.41845703125</ele>
        <time>2012-04-08T12:13:19Z</time>
      </trkpt>
      <trkpt lat="42.94655" lon="1.81699">
        <ele>789.37963867188</ele>
        <time>2012-04-08T12:13:24Z</time>
      </trkpt>
      <trkpt lat="42.94659" lon="1.81702">
        <ele>790.34106445312</ele>
        <time>2012-04-08T12:13:30Z</time>
      </trkpt>
      <trkpt lat="42.94661" lon="1.81703">
        <ele>791.78295898438</ele>
        <time>2012-04-08T12:13:36Z</time>
      </trkpt>
      <trkpt lat="42.94664" lon="1.81704">
        <ele>793.22485351562</ele>
        <time>2012-04-08T12:13:43Z</time>
      </trkpt>
      <trkpt lat="42.94669" lon="1.81708">
        <ele>794.66674804688</ele>
        <time>2012-04-08T12:13:49Z</time>
      </trkpt>
      <trkpt lat="42.94675" lon="1.81712">
        <ele>797.55102539062</ele>
        <time>2012-04-08T12:13:56Z</time>
      </trkpt>
      <trkpt lat="42.94682" lon="1.81715">
        <ele>798.03173828125</ele>
        <time>2012-04-08T12:14:04Z</time>
      </trkpt>
      <trkpt lat="42.94686" lon="1.81718">
        <ele>798.99291992188</ele>
        <time>2012-04-08T12:14:09Z</time>
      </trkpt>
      <trkpt lat="42.9469" lon="1.81723">
        <ele>798.99291992188</ele>
        <time>2012-04-08T12:14:16Z</time>
      </trkpt>
      <trkpt lat="42.94696" lon="1.81727">
        <ele>803.79956054688</ele>
        <time>2012-04-08T12:14:23Z</time>
      </trkpt>
      <trkpt lat="42.94702" lon="1.81733">
        <ele>805.72216796875</ele>
        <time>2012-04-08T12:14:31Z</time>
      </trkpt>
      <trkpt lat="42.94706" lon="1.81741">
        <ele>809.08666992188</ele>
        <time>2012-04-08T12:14:38Z</time>
      </trkpt>
      <trkpt lat="42.9471" lon="1.81746">
        <ele>810.0478515625</ele>
        <time>2012-04-08T12:14:44Z</time>
      </trkpt>
      <trkpt lat="42.94713" lon="1.81748">
        <ele>809.08666992188</ele>
        <time>2012-04-08T12:14:49Z</time>
      </trkpt>
      <trkpt lat="42.94718" lon="1.81751">
        <ele>808.12548828125</ele>
        <time>2012-04-08T12:14:54Z</time>
      </trkpt>
      <trkpt lat="42.94722" lon="1.81754">
        <ele>809.5673828125</ele>
        <time>2012-04-08T12:14:59Z</time>
      </trkpt>
      <trkpt lat="42.94724" lon="1.81756">
        <ele>809.08666992188</ele>
        <time>2012-04-08T12:15:04Z</time>
      </trkpt>
      <trkpt lat="42.94729" lon="1.81761">
        <ele>809.5673828125</ele>
        <time>2012-04-08T12:15:10Z</time>
      </trkpt>
      <trkpt lat="42.94735" lon="1.81768">
        <ele>807.1640625</ele>
        <time>2012-04-08T12:15:17Z</time>
      </trkpt>
      <trkpt lat="42.94741" lon="1.81772">
        <ele>807.64477539062</ele>
        <time>2012-04-08T12:15:23Z</time>
      </trkpt>
      <trkpt lat="42.94748" lon="1.81779">
        <ele>810.0478515625</ele>
        <time>2012-04-08T12:15:30Z</time>
      </trkpt>
      <trkpt lat="42.94752" lon="1.81782">
        <ele>811.00927734375</ele>
        <time>2012-04-08T12:15:35Z</time>
      </trkpt>
      <trkpt lat="42.94759" lon="1.81788">
        <ele>812.45141601562</ele>
        <time>2012-04-08T12:15:41Z</time>
      </trkpt>
      <trkpt lat="42.94762" lon="1.81789">
        <ele>813.89331054688</ele>
        <time>2012-04-08T12:15:43Z</time>
      </trkpt>
      <trkpt lat="42.94766" lon="1.81792">
        <ele>814.3740234375</ele>
        <time>2012-04-08T12:15:47Z</time>
      </trkpt>
      <trkpt lat="42.94768" lon="1.81793">
        <ele>814.3740234375</ele>
        <time>2012-04-08T12:15:49Z</time>
      </trkpt>
      <trkpt lat="42.94773" lon="1.81794">
        <ele>814.3740234375</ele>
        <time>2012-04-08T12:15:54Z</time>
      </trkpt>
      <trkpt lat="42.94776" lon="1.81795">
        <ele>814.3740234375</ele>
        <time>2012-04-08T12:15:56Z</time>
      </trkpt>
      <trkpt lat="42.94777" lon="1.81796">
        <ele>813.89331054688</ele>
        <time>2012-04-08T12:15:58Z</time>
      </trkpt>
      <trkpt lat="42.94786" lon="1.81797">
        <ele>814.85473632812</ele>
        <time>2012-04-08T12:16:05Z</time>
      </trkpt>
      <trkpt lat="42.94794" lon="1.81796">
        <ele>814.85473632812</ele>
        <time>2012-04-08T12:16:12Z</time>
      </trkpt>
      <trkpt lat="42.94798" lon="1.81798">
        <ele>814.3740234375</ele>
        <time>2012-04-08T12:16:15Z</time>
      </trkpt>
      <trkpt lat="42.94801" lon="1.81803">
        <ele>811.00927734375</ele>
        <time>2012-04-08T12:16:21Z</time>
      </trkpt>
      <trkpt lat="42.94802" lon="1.81803">
        <ele>811.00927734375</ele>
        <time>2012-04-08T12:16:22Z</time>
      </trkpt>
      <trkpt lat="42.94809" lon="1.81807">
        <ele>811.970703125</ele>
        <time>2012-04-08T12:16:27Z</time>
      </trkpt>
      <trkpt lat="42.94819" lon="1.8181">
        <ele>811.00927734375</ele>
        <time>2012-04-08T12:16:34Z</time>
      </trkpt>
      <trkpt lat="42.94821" lon="1.81811">
        <ele>811.00927734375</ele>
        <time>2012-04-08T12:16:35Z</time>
      </trkpt>
      <trkpt lat="42.9482" lon="1.81822">
        <ele>813.41284179688</ele>
        <time>2012-04-08T12:16:42Z</time>
      </trkpt>
      <trkpt lat="42.94819" lon="1.81825">
        <ele>814.3740234375</ele>
        <time>2012-04-08T12:16:44Z</time>
      </trkpt>
      <trkpt lat="42.94816" lon="1.8183">
        <ele>813.89331054688</ele>
        <time>2012-04-08T12:16:48Z</time>
      </trkpt>
      <trkpt lat="42.94814" lon="1.81836">
        <ele>814.85473632812</ele>
        <time>2012-04-08T12:16:53Z</time>
      </trkpt>
      <trkpt lat="42.94812" lon="1.81839">
        <ele>815.81616210938</ele>
        <time>2012-04-08T12:16:55Z</time>
      </trkpt>
      <trkpt lat="42.94812" lon="1.81849">
        <ele>817.73852539062</ele>
        <time>2012-04-08T12:17:01Z</time>
      </trkpt>
      <trkpt lat="42.9481" lon="1.81854">
        <ele>817.25805664062</ele>
        <time>2012-04-08T12:17:06Z</time>
      </trkpt>
      <trkpt lat="42.94809" lon="1.81856">
        <ele>818.21923828125</ele>
        <time>2012-04-08T12:17:08Z</time>
      </trkpt>
      <trkpt lat="42.94806" lon="1.81866">
        <ele>818.21923828125</ele>
        <time>2012-04-08T12:17:14Z</time>
      </trkpt>
      <trkpt lat="42.94798" lon="1.81872">
        <ele>819.1806640625</ele>
        <time>2012-04-08T12:17:21Z</time>
      </trkpt>
      <trkpt lat="42.94788" lon="1.81879">
        <ele>818.21923828125</ele>
        <time>2012-04-08T12:17:27Z</time>
      </trkpt>
      <trkpt lat="42.94785" lon="1.81883">
        <ele>818.21923828125</ele>
        <time>2012-04-08T12:17:30Z</time>
      </trkpt>
      <trkpt lat="42.94784" lon="1.81886">
        <ele>818.69995117188</ele>
        <time>2012-04-08T12:17:33Z</time>
      </trkpt>
      <trkpt lat="42.94778" lon="1.81894">
        <ele>818.69995117188</ele>
        <time>2012-04-08T12:17:40Z</time>
      </trkpt>
      <trkpt lat="42.94777" lon="1.81899">
        <ele>821.10327148438</ele>
        <time>2012-04-08T12:17:46Z</time>
      </trkpt>
      <trkpt lat="42.94774" lon="1.81907">
        <ele>820.62255859375</ele>
        <time>2012-04-08T12:17:52Z</time>
      </trkpt>
      <trkpt lat="42.9477" lon="1.8191">
        <ele>820.14184570312</ele>
        <time>2012-04-08T12:17:58Z</time>
      </trkpt>
      <trkpt lat="42.94767" lon="1.81911">
        <ele>821.10327148438</ele>
        <time>2012-04-08T12:18:07Z</time>
      </trkpt>
      <trkpt lat="42.94757" lon="1.8192">
        <ele>821.58374023438</ele>
        <time>2012-04-08T12:18:16Z</time>
      </trkpt>
      <trkpt lat="42.94755" lon="1.81924">
        <ele>821.10327148438</ele>
        <time>2012-04-08T12:18:19Z</time>
      </trkpt>
      <trkpt lat="42.94753" lon="1.8193">
        <ele>820.62255859375</ele>
        <time>2012-04-08T12:18:24Z</time>
      </trkpt>
      <trkpt lat="42.94749" lon="1.81936">
        <ele>820.62255859375</ele>
        <time>2012-04-08T12:18:28Z</time>
      </trkpt>
      <trkpt lat="42.94748" lon="1.81942">
        <ele>819.1806640625</ele>
        <time>2012-04-08T12:18:34Z</time>
      </trkpt>
      <trkpt lat="42.94742" lon="1.81951">
        <ele>818.69995117188</ele>
        <time>2012-04-08T12:18:39Z</time>
      </trkpt>
      <trkpt lat="42.94735" lon="1.81964">
        <ele>819.1806640625</ele>
        <time>2012-04-08T12:18:44Z</time>
      </trkpt>
      <trkpt lat="42.94728" lon="1.81976">
        <ele>819.1806640625</ele>
        <time>2012-04-08T12:18:49Z</time>
      </trkpt>
      <trkpt lat="42.94723" lon="1.81988">
        <ele>819.1806640625</ele>
        <time>2012-04-08T12:18:55Z</time>
      </trkpt>
      <trkpt lat="42.94718" lon="1.81997">
        <ele>818.21923828125</ele>
        <time>2012-04-08T12:18:59Z</time>
      </trkpt>
      <trkpt lat="42.94714" lon="1.82003">
        <ele>817.73852539062</ele>
        <time>2012-04-08T12:19:02Z</time>
      </trkpt>
      <trkpt lat="42.94711" lon="1.82007">
        <ele>818.21923828125</ele>
        <time>2012-04-08T12:19:07Z</time>
      </trkpt>
      <trkpt lat="42.94704" lon="1.82014">
        <ele>817.73852539062</ele>
        <time>2012-04-08T12:19:12Z</time>
      </trkpt>
      <trkpt lat="42.94697" lon="1.82019">
        <ele>817.73852539062</ele>
        <time>2012-04-08T12:19:15Z</time>
      </trkpt>
      <trkpt lat="42.94689" lon="1.8203">
        <ele>817.25805664062</ele>
        <time>2012-04-08T12:19:20Z</time>
      </trkpt>
      <trkpt lat="42.94682" lon="1.82039">
        <ele>817.25805664062</ele>
        <time>2012-04-08T12:19:25Z</time>
      </trkpt>
      <trkpt lat="42.94675" lon="1.82048">
        <ele>816.77734375</ele>
        <time>2012-04-08T12:19:29Z</time>
      </trkpt>
      <trkpt lat="42.94668" lon="1.82064">
        <ele>816.77734375</ele>
        <time>2012-04-08T12:19:35Z</time>
      </trkpt>
      <trkpt lat="42.94661" lon="1.82074">
        <ele>815.81616210938</ele>
        <time>2012-04-08T12:19:39Z</time>
      </trkpt>
      <trkpt lat="42.94653" lon="1.82085">
        <ele>813.41284179688</ele>
        <time>2012-04-08T12:19:43Z</time>
      </trkpt>
      <trkpt lat="42.94648" lon="1.8209">
        <ele>811.970703125</ele>
        <time>2012-04-08T12:19:46Z</time>
      </trkpt>
      <trkpt lat="42.94646" lon="1.82094">
        <ele>810.0478515625</ele>
        <time>2012-04-08T12:19:49Z</time>
      </trkpt>
      <trkpt lat="42.94645" lon="1.82101">
        <ele>810.52856445312</ele>
        <time>2012-04-08T12:19:53Z</time>
      </trkpt>
      <trkpt lat="42.94639" lon="1.82112">
        <ele>811.00927734375</ele>
        <time>2012-04-08T12:20:02Z</time>
      </trkpt>
      <trkpt lat="42.94637" lon="1.82116">
        <ele>811.00927734375</ele>
        <time>2012-04-08T12:20:05Z</time>
      </trkpt>
      <trkpt lat="42.9463" lon="1.82125">
        <ele>810.0478515625</ele>
        <time>2012-04-08T12:20:12Z</time>
      </trkpt>
      <trkpt lat="42.94624" lon="1.82134">
        <ele>811.48999023438</ele>
        <time>2012-04-08T12:20:18Z</time>
      </trkpt>
      <trkpt lat="42.94621" lon="1.82137">
        <ele>811.48999023438</ele>
        <time>2012-04-08T12:20:20Z</time>
      </trkpt>
      <trkpt lat="42.94616" lon="1.82144">
        <ele>811.00927734375</ele>
        <time>2012-04-08T12:20:26Z</time>
      </trkpt>
      <trkpt lat="42.94612" lon="1.8215">
        <ele>810.0478515625</ele>
        <time>2012-04-08T12:20:32Z</time>
      </trkpt>
      <trkpt lat="42.94609" lon="1.82155">
        <ele>810.0478515625</ele>
        <time>2012-04-08T12:20:35Z</time>
      </trkpt>
      <trkpt lat="42.94603" lon="1.82161">
        <ele>809.5673828125</ele>
        <time>2012-04-08T12:20:41Z</time>
      </trkpt>
      <trkpt lat="42.94602" lon="1.82163">
        <ele>809.5673828125</ele>
        <time>2012-04-08T12:20:42Z</time>
      </trkpt>
      <trkpt lat="42.94597" lon="1.82174">
        <ele>809.5673828125</ele>
        <time>2012-04-08T12:20:49Z</time>
      </trkpt>
      <trkpt lat="42.94594" lon="1.82181">
        <ele>809.5673828125</ele>
        <time>2012-04-08T12:20:54Z</time>
      </trkpt>
      <trkpt lat="42.9459" lon="1.82186">
        <ele>809.5673828125</ele>
        <time>2012-04-08T12:20:57Z</time>
      </trkpt>
      <trkpt lat="42.94585" lon="1.82196">
        <ele>808.60595703125</ele>
        <time>2012-04-08T12:21:03Z</time>
      </trkpt>
      <trkpt lat="42.94583" lon="1.82201">
        <ele>809.08666992188</ele>
        <time>2012-04-08T12:21:06Z</time>
      </trkpt>
      <trkpt lat="42.94578" lon="1.82213">
        <ele>811.48999023438</ele>
        <time>2012-04-08T12:21:13Z</time>
      </trkpt>
      <trkpt lat="42.94576" lon="1.8222">
        <ele>810.52856445312</ele>
        <time>2012-04-08T12:21:18Z</time>
      </trkpt>
      <trkpt lat="42.94572" lon="1.82227">
        <ele>809.5673828125</ele>
        <time>2012-04-08T12:21:22Z</time>
      </trkpt>
      <trkpt lat="42.94568" lon="1.82238">
        <ele>809.08666992188</ele>
        <time>2012-04-08T12:21:29Z</time>
      </trkpt>
      <trkpt lat="42.94566" lon="1.82244">
        <ele>809.5673828125</ele>
        <time>2012-04-08T12:21:33Z</time>
      </trkpt>
      <trkpt lat="42.94563" lon="1.82252">
        <ele>810.0478515625</ele>
        <time>2012-04-08T12:21:38Z</time>
      </trkpt>
      <trkpt lat="42.94559" lon="1.82258">
        <ele>810.52856445312</ele>
        <time>2012-04-08T12:21:42Z</time>
      </trkpt>
      <trkpt lat="42.94555" lon="1.82267">
        <ele>811.00927734375</ele>
        <time>2012-04-08T12:21:47Z</time>
      </trkpt>
      <trkpt lat="42.9455" lon="1.82275">
        <ele>811.970703125</ele>
        <time>2012-04-08T12:21:52Z</time>
      </trkpt>
      <trkpt lat="42.94547" lon="1.82284">
        <ele>812.45141601562</ele>
        <time>2012-04-08T12:21:57Z</time>
      </trkpt>
      <trkpt lat="42.94545" lon="1.82288">
        <ele>811.970703125</ele>
        <time>2012-04-08T12:22:00Z</time>
      </trkpt>
      <trkpt lat="42.94537" lon="1.82297">
        <ele>812.45141601562</ele>
        <time>2012-04-08T12:22:06Z</time>
      </trkpt>
      <trkpt lat="42.94534" lon="1.82303">
        <ele>812.45141601562</ele>
        <time>2012-04-08T12:22:10Z</time>
      </trkpt>
      <trkpt lat="42.94529" lon="1.8231">
        <ele>812.45141601562</ele>
        <time>2012-04-08T12:22:14Z</time>
      </trkpt>
      <trkpt lat="42.9452" lon="1.82317">
        <ele>811.48999023438</ele>
        <time>2012-04-08T12:22:21Z</time>
      </trkpt>
      <trkpt lat="42.94515" lon="1.82327">
        <ele>811.48999023438</ele>
        <time>2012-04-08T12:22:26Z</time>
      </trkpt>
      <trkpt lat="42.9451" lon="1.82331">
        <ele>811.00927734375</ele>
        <time>2012-04-08T12:22:30Z</time>
      </trkpt>
      <trkpt lat="42.94504" lon="1.82344">
        <ele>811.48999023438</ele>
        <time>2012-04-08T12:22:37Z</time>
      </trkpt>
      <trkpt lat="42.94503" lon="1.82349">
        <ele>811.00927734375</ele>
        <time>2012-04-08T12:22:41Z</time>
      </trkpt>
      <trkpt lat="42.94496" lon="1.82356">
        <ele>810.52856445312</ele>
        <time>2012-04-08T12:22:47Z</time>
      </trkpt>
      <trkpt lat="42.9449" lon="1.82361">
        <ele>810.0478515625</ele>
        <time>2012-04-08T12:22:51Z</time>
      </trkpt>
      <trkpt lat="42.94489" lon="1.82362">
        <ele>810.0478515625</ele>
        <time>2012-04-08T12:22:52Z</time>
      </trkpt>
      <trkpt lat="42.94482" lon="1.82369">
        <ele>809.5673828125</ele>
        <time>2012-04-08T12:22:57Z</time>
      </trkpt>
      <trkpt lat="42.9448" lon="1.82379">
        <ele>809.08666992188</ele>
        <time>2012-04-08T12:23:03Z</time>
      </trkpt>
      <trkpt lat="42.94477" lon="1.82385">
        <ele>810.0478515625</ele>
        <time>2012-04-08T12:23:07Z</time>
      </trkpt>
      <trkpt lat="42.94477" lon="1.82387">
        <ele>809.5673828125</ele>
        <time>2012-04-08T12:23:11Z</time>
      </trkpt>
      <trkpt lat="42.94476" lon="1.82388">
        <ele>809.5673828125</ele>
        <time>2012-04-08T12:23:13Z</time>
      </trkpt>
      <trkpt lat="42.94471" lon="1.82395">
        <ele>809.5673828125</ele>
        <time>2012-04-08T12:23:17Z</time>
      </trkpt>
      <trkpt lat="42.94461" lon="1.82411">
        <ele>810.0478515625</ele>
        <time>2012-04-08T12:23:23Z</time>
      </trkpt>
      <trkpt lat="42.94457" lon="1.82426">
        <ele>810.0478515625</ele>
        <time>2012-04-08T12:23:28Z</time>
      </trkpt>
      <trkpt lat="42.94454" lon="1.82438">
        <ele>810.0478515625</ele>
        <time>2012-04-08T12:23:33Z</time>
      </trkpt>
      <trkpt lat="42.94453" lon="1.82443">
        <ele>810.0478515625</ele>
        <time>2012-04-08T12:23:35Z</time>
      </trkpt>
      <trkpt lat="42.94444" lon="1.82453">
        <ele>810.52856445312</ele>
        <time>2012-04-08T12:23:43Z</time>
      </trkpt>
      <trkpt lat="42.94442" lon="1.82458">
        <ele>810.0478515625</ele>
        <time>2012-04-08T12:23:46Z</time>
      </trkpt>
      <trkpt lat="42.94439" lon="1.82465">
        <ele>810.0478515625</ele>
        <time>2012-04-08T12:23:50Z</time>
      </trkpt>
      <trkpt lat="42.94437" lon="1.82467">
        <ele>809.5673828125</ele>
        <time>2012-04-08T12:23:51Z</time>
      </trkpt>
      <trkpt lat="42.94434" lon="1.8247">
        <ele>809.5673828125</ele>
        <time>2012-04-08T12:23:53Z</time>
      </trkpt>
      <trkpt lat="42.94433" lon="1.82472">
        <ele>809.5673828125</ele>
        <time>2012-04-08T12:23:55Z</time>
      </trkpt>
      <trkpt lat="42.9443" lon="1.82478">
        <ele>809.5673828125</ele>
        <time>2012-04-08T12:24:00Z</time>
      </trkpt>
      <trkpt lat="42.94424" lon="1.82487">
        <ele>809.5673828125</ele>
        <time>2012-04-08T12:24:06Z</time>
      </trkpt>
      <trkpt lat="42.94419" lon="1.82493">
        <ele>809.08666992188</ele>
        <time>2012-04-08T12:24:11Z</time>
      </trkpt>
      <trkpt lat="42.94415" lon="1.82502">
        <ele>808.12548828125</ele>
        <time>2012-04-08T12:24:16Z</time>
      </trkpt>
      <trkpt lat="42.94411" lon="1.82507">
        <ele>808.12548828125</ele>
        <time>2012-04-08T12:24:20Z</time>
      </trkpt>
      <trkpt lat="42.94409" lon="1.82509">
        <ele>807.64477539062</ele>
        <time>2012-04-08T12:24:21Z</time>
      </trkpt>
      <trkpt lat="42.94402" lon="1.82524">
        <ele>806.68334960938</ele>
        <time>2012-04-08T12:24:27Z</time>
      </trkpt>
      <trkpt lat="42.944" lon="1.82527">
        <ele>806.68334960938</ele>
        <time>2012-04-08T12:24:29Z</time>
      </trkpt>
      <trkpt lat="42.94397" lon="1.82534">
        <ele>805.72216796875</ele>
        <time>2012-04-08T12:24:34Z</time>
      </trkpt>
      <trkpt lat="42.94393" lon="1.82545">
        <ele>803.31884765625</ele>
        <time>2012-04-08T12:24:40Z</time>
      </trkpt>
      <trkpt lat="42.94387" lon="1.82557">
        <ele>801.39624023438</ele>
        <time>2012-04-08T12:24:45Z</time>
      </trkpt>
      <trkpt lat="42.94381" lon="1.82574">
        <ele>800.43505859375</ele>
        <time>2012-04-08T12:24:50Z</time>
      </trkpt>
      <trkpt lat="42.94374" lon="1.82587">
        <ele>800.91552734375</ele>
        <time>2012-04-08T12:24:55Z</time>
      </trkpt>
      <trkpt lat="42.94371" lon="1.82601">
        <ele>801.39624023438</ele>
        <time>2012-04-08T12:25:00Z</time>
      </trkpt>
      <trkpt lat="42.94365" lon="1.82617">
        <ele>800.43505859375</ele>
        <time>2012-04-08T12:25:06Z</time>
      </trkpt>
      <trkpt lat="42.94361" lon="1.82629">
        <ele>799.4736328125</ele>
        <time>2012-04-08T12:25:11Z</time>
      </trkpt>
      <trkpt lat="42.94358" lon="1.82638">
        <ele>798.99291992188</ele>
        <time>2012-04-08T12:25:14Z</time>
      </trkpt>
      <trkpt lat="42.94359" lon="1.82651">
        <ele>799.95434570312</ele>
        <time>2012-04-08T12:25:20Z</time>
      </trkpt>
      <trkpt lat="42.94357" lon="1.82656">
        <ele>799.4736328125</ele>
        <time>2012-04-08T12:25:22Z</time>
      </trkpt>
      <trkpt lat="42.94356" lon="1.82659">
        <ele>799.4736328125</ele>
        <time>2012-04-08T12:25:24Z</time>
      </trkpt>
      <trkpt lat="42.94356" lon="1.82666">
        <ele>798.03173828125</ele>
        <time>2012-04-08T12:25:28Z</time>
      </trkpt>
      <trkpt lat="42.94355" lon="1.82673">
        <ele>797.55102539062</ele>
        <time>2012-04-08T12:25:33Z</time>
      </trkpt>
      <trkpt lat="42.94354" lon="1.82684">
        <ele>796.10913085938</ele>
        <time>2012-04-08T12:25:40Z</time>
      </trkpt>
      <trkpt lat="42.94352" lon="1.82692">
        <ele>797.55102539062</ele>
        <time>2012-04-08T12:25:44Z</time>
      </trkpt>
      <trkpt lat="42.94352" lon="1.82701">
        <ele>798.99291992188</ele>
        <time>2012-04-08T12:25:49Z</time>
      </trkpt>
      <trkpt lat="42.94351" lon="1.82711">
        <ele>800.43505859375</ele>
        <time>2012-04-08T12:25:55Z</time>
      </trkpt>
      <trkpt lat="42.94349" lon="1.82722">
        <ele>800.43505859375</ele>
        <time>2012-04-08T12:26:01Z</time>
      </trkpt>
      <trkpt lat="42.94348" lon="1.82729">
        <ele>799.95434570312</ele>
        <time>2012-04-08T12:26:04Z</time>
      </trkpt>
      <trkpt lat="42.94344" lon="1.82737">
        <ele>799.4736328125</ele>
        <time>2012-04-08T12:26:08Z</time>
      </trkpt>
      <trkpt lat="42.9434" lon="1.82746">
        <ele>798.03173828125</ele>
        <time>2012-04-08T12:26:13Z</time>
      </trkpt>
      <trkpt lat="42.94338" lon="1.82751">
        <ele>798.03173828125</ele>
        <time>2012-04-08T12:26:16Z</time>
      </trkpt>
      <trkpt lat="42.94337" lon="1.82762">
        <ele>797.0703125</ele>
        <time>2012-04-08T12:26:21Z</time>
      </trkpt>
      <trkpt lat="42.94336" lon="1.82767">
        <ele>796.58984375</ele>
        <time>2012-04-08T12:26:23Z</time>
      </trkpt>
      <trkpt lat="42.94336" lon="1.82776">
        <ele>795.62817382812</ele>
        <time>2012-04-08T12:26:28Z</time>
      </trkpt>
      <trkpt lat="42.94335" lon="1.82786">
        <ele>793.70556640625</ele>
        <time>2012-04-08T12:26:35Z</time>
      </trkpt>
      <trkpt lat="42.94334" lon="1.82788">
        <ele>793.22485351562</ele>
        <time>2012-04-08T12:26:37Z</time>
      </trkpt>
      <trkpt lat="42.94332" lon="1.82794">
        <ele>790.82153320312</ele>
        <time>2012-04-08T12:26:43Z</time>
      </trkpt>
      <trkpt lat="42.94331" lon="1.82798">
        <ele>788.41845703125</ele>
        <time>2012-04-08T12:26:47Z</time>
      </trkpt>
      <trkpt lat="42.94328" lon="1.82807">
        <ele>787.45703125</ele>
        <time>2012-04-08T12:26:52Z</time>
      </trkpt>
      <trkpt lat="42.94326" lon="1.82813">
        <ele>787.93774414062</ele>
        <time>2012-04-08T12:26:56Z</time>
      </trkpt>
      <trkpt lat="42.94323" lon="1.82824">
        <ele>790.34106445312</ele>
        <time>2012-04-08T12:27:02Z</time>
      </trkpt>
      <trkpt lat="42.94318" lon="1.82834">
        <ele>790.82153320312</ele>
        <time>2012-04-08T12:27:07Z</time>
      </trkpt>
      <trkpt lat="42.94317" lon="1.82835">
        <ele>790.82153320312</ele>
        <time>2012-04-08T12:27:08Z</time>
      </trkpt>
      <trkpt lat="42.94313" lon="1.82848">
        <ele>791.30224609375</ele>
        <time>2012-04-08T12:27:16Z</time>
      </trkpt>
      <trkpt lat="42.94312" lon="1.82856">
        <ele>790.82153320312</ele>
        <time>2012-04-08T12:27:21Z</time>
      </trkpt>
      <trkpt lat="42.94307" lon="1.8287">
        <ele>789.37963867188</ele>
        <time>2012-04-08T12:27:29Z</time>
      </trkpt>
      <trkpt lat="42.94306" lon="1.82874">
        <ele>790.34106445312</ele>
        <time>2012-04-08T12:27:31Z</time>
      </trkpt>
      <trkpt lat="42.94305" lon="1.82883">
        <ele>789.8603515625</ele>
        <time>2012-04-08T12:27:36Z</time>
      </trkpt>
      <trkpt lat="42.94304" lon="1.82893">
        <ele>789.37963867188</ele>
        <time>2012-04-08T12:27:42Z</time>
      </trkpt>
      <trkpt lat="42.94302" lon="1.82898">
        <ele>788.41845703125</ele>
        <time>2012-04-08T12:27:45Z</time>
      </trkpt>
      <trkpt lat="42.94302" lon="1.82904">
        <ele>788.89916992188</ele>
        <time>2012-04-08T12:27:48Z</time>
      </trkpt>
      <trkpt lat="42.94297" lon="1.82916">
        <ele>788.89916992188</ele>
        <time>2012-04-08T12:27:55Z</time>
      </trkpt>
      <trkpt lat="42.94297" lon="1.82918">
        <ele>788.89916992188</ele>
        <time>2012-04-08T12:27:56Z</time>
      </trkpt>
      <trkpt lat="42.94296" lon="1.82927">
        <ele>788.41845703125</ele>
        <time>2012-04-08T12:28:01Z</time>
      </trkpt>
      <trkpt lat="42.94296" lon="1.8293">
        <ele>787.93774414062</ele>
        <time>2012-04-08T12:28:03Z</time>
      </trkpt>
      <trkpt lat="42.94294" lon="1.82935">
        <ele>788.41845703125</ele>
        <time>2012-04-08T12:28:06Z</time>
      </trkpt>
      <trkpt lat="42.94293" lon="1.82946">
        <ele>789.8603515625</ele>
        <time>2012-04-08T12:28:11Z</time>
      </trkpt>
      <trkpt lat="42.9429" lon="1.82956">
        <ele>789.37963867188</ele>
        <time>2012-04-08T12:28:16Z</time>
      </trkpt>
      <trkpt lat="42.94287" lon="1.82967">
        <ele>788.89916992188</ele>
        <time>2012-04-08T12:28:21Z</time>
      </trkpt>
      <trkpt lat="42.94284" lon="1.82977">
        <ele>785.53442382812</ele>
        <time>2012-04-08T12:28:27Z</time>
      </trkpt>
      <trkpt lat="42.94282" lon="1.82983">
        <ele>784.09252929688</ele>
        <time>2012-04-08T12:28:31Z</time>
      </trkpt>
      <trkpt lat="42.94276" lon="1.82991">
        <ele>783.61181640625</ele>
        <time>2012-04-08T12:28:36Z</time>
      </trkpt>
      <trkpt lat="42.94274" lon="1.83002">
        <ele>783.13110351562</ele>
        <time>2012-04-08T12:28:42Z</time>
      </trkpt>
      <trkpt lat="42.9427" lon="1.83008">
        <ele>781.68920898438</ele>
        <time>2012-04-08T12:28:46Z</time>
      </trkpt>
      <trkpt lat="42.94264" lon="1.8302">
        <ele>779.28564453125</ele>
        <time>2012-04-08T12:28:51Z</time>
      </trkpt>
      <trkpt lat="42.94263" lon="1.83026">
        <ele>779.28564453125</ele>
        <time>2012-04-08T12:28:53Z</time>
      </trkpt>
      <trkpt lat="42.9426" lon="1.83038">
        <ele>780.24731445312</ele>
        <time>2012-04-08T12:28:59Z</time>
      </trkpt>
      <trkpt lat="42.9426" lon="1.8304">
        <ele>779.76635742188</ele>
        <time>2012-04-08T12:29:01Z</time>
      </trkpt>
      <trkpt lat="42.94256" lon="1.83052">
        <ele>779.28564453125</ele>
        <time>2012-04-08T12:29:07Z</time>
      </trkpt>
      <trkpt lat="42.9425" lon="1.8306">
        <ele>778.80517578125</ele>
        <time>2012-04-08T12:29:12Z</time>
      </trkpt>
      <trkpt lat="42.94246" lon="1.83069">
        <ele>777.84375</ele>
        <time>2012-04-08T12:29:18Z</time>
      </trkpt>
      <trkpt lat="42.94243" lon="1.83072">
        <ele>777.84375</ele>
        <time>2012-04-08T12:29:20Z</time>
      </trkpt>
      <trkpt lat="42.94236" lon="1.83082">
        <ele>776.40185546875</ele>
        <time>2012-04-08T12:29:25Z</time>
      </trkpt>
      <trkpt lat="42.94228" lon="1.83091">
        <ele>773.99853515625</ele>
        <time>2012-04-08T12:29:30Z</time>
      </trkpt>
      <trkpt lat="42.94226" lon="1.83096">
        <ele>773.03735351562</ele>
        <time>2012-04-08T12:29:32Z</time>
      </trkpt>
      <trkpt lat="42.94222" lon="1.83113">
        <ele>770.63403320312</ele>
        <time>2012-04-08T12:29:38Z</time>
      </trkpt>
      <trkpt lat="42.94219" lon="1.83118">
        <ele>769.6728515625</ele>
        <time>2012-04-08T12:29:40Z</time>
      </trkpt>
      <trkpt lat="42.94215" lon="1.83129">
        <ele>767.75</ele>
        <time>2012-04-08T12:29:45Z</time>
      </trkpt>
      <trkpt lat="42.94212" lon="1.83138">
        <ele>767.26953125</ele>
        <time>2012-04-08T12:29:50Z</time>
      </trkpt>
      <trkpt lat="42.94209" lon="1.83146">
        <ele>767.26953125</ele>
        <time>2012-04-08T12:29:55Z</time>
      </trkpt>
      <trkpt lat="42.94204" lon="1.83155">
        <ele>766.78881835938</ele>
        <time>2012-04-08T12:30:00Z</time>
      </trkpt>
      <trkpt lat="42.94199" lon="1.83161">
        <ele>766.78881835938</ele>
        <time>2012-04-08T12:30:04Z</time>
      </trkpt>
      <trkpt lat="42.94198" lon="1.83164">
        <ele>766.78881835938</ele>
        <time>2012-04-08T12:30:06Z</time>
      </trkpt>
      <trkpt lat="42.94193" lon="1.83174">
        <ele>766.30810546875</ele>
        <time>2012-04-08T12:30:12Z</time>
      </trkpt>
      <trkpt lat="42.94192" lon="1.8318">
        <ele>765.82763671875</ele>
        <time>2012-04-08T12:30:15Z</time>
      </trkpt>
      <trkpt lat="42.94191" lon="1.83186">
        <ele>764.38549804688</ele>
        <time>2012-04-08T12:30:19Z</time>
      </trkpt>
      <trkpt lat="42.94184" lon="1.83197">
        <ele>762.46264648438</ele>
        <time>2012-04-08T12:30:24Z</time>
      </trkpt>
      <trkpt lat="42.94183" lon="1.83201">
        <ele>761.50146484375</ele>
        <time>2012-04-08T12:30:27Z</time>
      </trkpt>
      <trkpt lat="42.94179" lon="1.83206">
        <ele>760.05932617188</ele>
        <time>2012-04-08T12:30:32Z</time>
      </trkpt>
      <trkpt lat="42.94175" lon="1.83211">
        <ele>759.09814453125</ele>
        <time>2012-04-08T12:30:36Z</time>
      </trkpt>
      <trkpt lat="42.94169" lon="1.83217">
        <ele>756.69482421875</ele>
        <time>2012-04-08T12:30:42Z</time>
      </trkpt>
      <trkpt lat="42.94165" lon="1.83224">
        <ele>754.77221679688</ele>
        <time>2012-04-08T12:30:46Z</time>
      </trkpt>
      <trkpt lat="42.94167" lon="1.83228">
        <ele>753.33032226562</ele>
        <time>2012-04-08T12:30:48Z</time>
      </trkpt>
      <trkpt lat="42.9417" lon="1.83237">
        <ele>751.88842773438</ele>
        <time>2012-04-08T12:30:53Z</time>
      </trkpt>
      <trkpt lat="42.9417" lon="1.83239">
        <ele>751.40771484375</ele>
        <time>2012-04-08T12:30:56Z</time>
      </trkpt>
      <trkpt lat="42.94168" lon="1.83242">
        <ele>751.88842773438</ele>
        <time>2012-04-08T12:30:59Z</time>
      </trkpt>
      <trkpt lat="42.94166" lon="1.83247">
        <ele>752.849609375</ele>
        <time>2012-04-08T12:31:06Z</time>
      </trkpt>
      <trkpt lat="42.94161" lon="1.83253">
        <ele>754.29174804688</ele>
        <time>2012-04-08T12:31:12Z</time>
      </trkpt>
      <trkpt lat="42.94158" lon="1.83257">
        <ele>753.81103515625</ele>
        <time>2012-04-08T12:31:16Z</time>
      </trkpt>
      <trkpt lat="42.94154" lon="1.83265">
        <ele>753.81103515625</ele>
        <time>2012-04-08T12:31:21Z</time>
      </trkpt>
      <trkpt lat="42.94153" lon="1.83274">
        <ele>753.81103515625</ele>
        <time>2012-04-08T12:31:26Z</time>
      </trkpt>
      <trkpt lat="42.94151" lon="1.83281">
        <ele>752.849609375</ele>
        <time>2012-04-08T12:31:30Z</time>
      </trkpt>
      <trkpt lat="42.94146" lon="1.83289">
        <ele>750.92700195312</ele>
        <time>2012-04-08T12:31:36Z</time>
      </trkpt>
      <trkpt lat="42.94145" lon="1.8329">
        <ele>750.44653320312</ele>
        <time>2012-04-08T12:31:37Z</time>
      </trkpt>
      <trkpt lat="42.94143" lon="1.83293">
        <ele>749.9658203125</ele>
        <time>2012-04-08T12:31:39Z</time>
      </trkpt>
      <trkpt lat="42.94141" lon="1.83299">
        <ele>748.04321289062</ele>
        <time>2012-04-08T12:31:44Z</time>
      </trkpt>
      <trkpt lat="42.94136" lon="1.83305">
        <ele>747.08154296875</ele>
        <time>2012-04-08T12:31:48Z</time>
      </trkpt>
      <trkpt lat="42.94135" lon="1.83305">
        <ele>746.60107421875</ele>
        <time>2012-04-08T12:31:50Z</time>
      </trkpt>
      <trkpt lat="42.9413" lon="1.83306">
        <ele>745.6396484375</ele>
        <time>2012-04-08T12:31:54Z</time>
      </trkpt>
      <trkpt lat="42.94127" lon="1.83305">
        <ele>744.67822265625</ele>
        <time>2012-04-08T12:31:56Z</time>
      </trkpt>
      <trkpt lat="42.94119" lon="1.83308">
        <ele>742.27514648438</ele>
        <time>2012-04-08T12:32:03Z</time>
      </trkpt>
      <trkpt lat="42.94114" lon="1.83313">
        <ele>740.8330078125</ele>
        <time>2012-04-08T12:32:07Z</time>
      </trkpt>
      <trkpt lat="42.94113" lon="1.83314">
        <ele>739.39111328125</ele>
        <time>2012-04-08T12:32:09Z</time>
      </trkpt>
      <trkpt lat="42.94109" lon="1.83316">
        <ele>737.46850585938</ele>
        <time>2012-04-08T12:32:14Z</time>
      </trkpt>
      <trkpt lat="42.94107" lon="1.83322">
        <ele>735.5458984375</ele>
        <time>2012-04-08T12:32:20Z</time>
      </trkpt>
      <trkpt lat="42.94107" lon="1.83326">
        <ele>734.10400390625</ele>
        <time>2012-04-08T12:32:22Z</time>
      </trkpt>
      <trkpt lat="42.94107" lon="1.83335">
        <ele>733.62329101562</ele>
        <time>2012-04-08T12:32:27Z</time>
      </trkpt>
      <trkpt lat="42.94107" lon="1.83336">
        <ele>733.142578125</ele>
        <time>2012-04-08T12:32:28Z</time>
      </trkpt>
      <trkpt lat="42.94109" lon="1.83343">
        <ele>735.0654296875</ele>
        <time>2012-04-08T12:32:34Z</time>
      </trkpt>
      <trkpt lat="42.94109" lon="1.83349">
        <ele>738.91064453125</ele>
        <time>2012-04-08T12:32:40Z</time>
      </trkpt>
      <trkpt lat="42.9411" lon="1.83355">
        <ele>739.39111328125</ele>
        <time>2012-04-08T12:32:46Z</time>
      </trkpt>
      <trkpt lat="42.9411" lon="1.83359">
        <ele>742.755859375</ele>
        <time>2012-04-08T12:32:51Z</time>
      </trkpt>
      <trkpt lat="42.94107" lon="1.83361">
        <ele>743.71704101562</ele>
        <time>2012-04-08T12:32:57Z</time>
      </trkpt>
      <trkpt lat="42.94101" lon="1.8337">
        <ele>744.19775390625</ele>
        <time>2012-04-08T12:33:05Z</time>
      </trkpt>
      <trkpt lat="42.94097" lon="1.83374">
        <ele>744.67822265625</ele>
        <time>2012-04-08T12:33:08Z</time>
      </trkpt>
      <trkpt lat="42.94094" lon="1.83384">
        <ele>745.15893554688</ele>
        <time>2012-04-08T12:33:13Z</time>
      </trkpt>
      <trkpt lat="42.94091" lon="1.83389">
        <ele>745.15893554688</ele>
        <time>2012-04-08T12:33:17Z</time>
      </trkpt>
      <trkpt lat="42.9409" lon="1.83397">
        <ele>744.67822265625</ele>
        <time>2012-04-08T12:33:22Z</time>
      </trkpt>
      <trkpt lat="42.9409" lon="1.83399">
        <ele>744.19775390625</ele>
        <time>2012-04-08T12:33:23Z</time>
      </trkpt>
      <trkpt lat="42.94083" lon="1.83417">
        <ele>742.27514648438</ele>
        <time>2012-04-08T12:33:30Z</time>
      </trkpt>
      <trkpt lat="42.94079" lon="1.83428">
        <ele>740.8330078125</ele>
        <time>2012-04-08T12:33:34Z</time>
      </trkpt>
      <trkpt lat="42.94073" lon="1.83442">
        <ele>739.39111328125</ele>
        <time>2012-04-08T12:33:38Z</time>
      </trkpt>
      <trkpt lat="42.94071" lon="1.83453">
        <ele>737.46850585938</ele>
        <time>2012-04-08T12:33:42Z</time>
      </trkpt>
      <trkpt lat="42.94071" lon="1.83464">
        <ele>736.98779296875</ele>
        <time>2012-04-08T12:33:46Z</time>
      </trkpt>
      <trkpt lat="42.94069" lon="1.83469">
        <ele>736.50732421875</ele>
        <time>2012-04-08T12:33:48Z</time>
      </trkpt>
      <trkpt lat="42.94067" lon="1.83476">
        <ele>736.50732421875</ele>
        <time>2012-04-08T12:33:53Z</time>
      </trkpt>
      <trkpt lat="42.94068" lon="1.83483">
        <ele>736.50732421875</ele>
        <time>2012-04-08T12:33:58Z</time>
      </trkpt>
      <trkpt lat="42.94067" lon="1.83486">
        <ele>736.50732421875</ele>
        <time>2012-04-08T12:34:00Z</time>
      </trkpt>
      <trkpt lat="42.94061" lon="1.83498">
        <ele>736.98779296875</ele>
        <time>2012-04-08T12:34:09Z</time>
      </trkpt>
      <trkpt lat="42.94055" lon="1.83505">
        <ele>736.50732421875</ele>
        <time>2012-04-08T12:34:14Z</time>
      </trkpt>
      <trkpt lat="42.94054" lon="1.83508">
        <ele>736.50732421875</ele>
        <time>2012-04-08T12:34:16Z</time>
      </trkpt>
      <trkpt lat="42.94052" lon="1.83519">
        <ele>737.46850585938</ele>
        <time>2012-04-08T12:34:22Z</time>
      </trkpt>
      <trkpt lat="42.94052" lon="1.83521">
        <ele>736.98779296875</ele>
        <time>2012-04-08T12:34:23Z</time>
      </trkpt>
      <trkpt lat="42.94051" lon="1.83525">
        <ele>736.98779296875</ele>
        <time>2012-04-08T12:34:26Z</time>
      </trkpt>
      <trkpt lat="42.9405" lon="1.83527">
        <ele>736.98779296875</ele>
        <time>2012-04-08T12:34:29Z</time>
      </trkpt>
      <trkpt lat="42.94043" lon="1.83532">
        <ele>735.0654296875</ele>
        <time>2012-04-08T12:34:36Z</time>
      </trkpt>
      <trkpt lat="42.94038" lon="1.8354">
        <ele>734.58471679688</ele>
        <time>2012-04-08T12:34:42Z</time>
      </trkpt>
      <trkpt lat="42.94034" lon="1.83549">
        <ele>734.58471679688</ele>
        <time>2012-04-08T12:34:47Z</time>
      </trkpt>
      <trkpt lat="42.9403" lon="1.83561">
        <ele>734.58471679688</ele>
        <time>2012-04-08T12:34:54Z</time>
      </trkpt>
      <trkpt lat="42.94026" lon="1.8357">
        <ele>733.142578125</ele>
        <time>2012-04-08T12:35:00Z</time>
      </trkpt>
      <trkpt lat="42.94025" lon="1.83575">
        <ele>732.662109375</ele>
        <time>2012-04-08T12:35:02Z</time>
      </trkpt>
      <trkpt lat="42.94019" lon="1.83586">
        <ele>731.21997070312</ele>
        <time>2012-04-08T12:35:09Z</time>
      </trkpt>
      <trkpt lat="42.94019" lon="1.83588">
        <ele>731.21997070312</ele>
        <time>2012-04-08T12:35:10Z</time>
      </trkpt>
      <trkpt lat="42.94016" lon="1.83596">
        <ele>730.25854492188</ele>
        <time>2012-04-08T12:35:15Z</time>
      </trkpt>
      <trkpt lat="42.94014" lon="1.83603">
        <ele>729.77783203125</ele>
        <time>2012-04-08T12:35:19Z</time>
      </trkpt>
      <trkpt lat="42.94011" lon="1.83614">
        <ele>727.85522460938</ele>
        <time>2012-04-08T12:35:26Z</time>
      </trkpt>
      <trkpt lat="42.94007" lon="1.83619">
        <ele>726.41333007812</ele>
        <time>2012-04-08T12:35:30Z</time>
      </trkpt>
      <trkpt lat="42.94003" lon="1.83622">
        <ele>725.45190429688</ele>
        <time>2012-04-08T12:35:35Z</time>
      </trkpt>
      <trkpt lat="42.94" lon="1.8363">
        <ele>724.49072265625</ele>
        <time>2012-04-08T12:35:40Z</time>
      </trkpt>
      <trkpt lat="42.93999" lon="1.83638">
        <ele>724.49072265625</ele>
        <time>2012-04-08T12:35:45Z</time>
      </trkpt>
      <trkpt lat="42.93998" lon="1.83643">
        <ele>724.01000976562</ele>
        <time>2012-04-08T12:35:48Z</time>
      </trkpt>
      <trkpt lat="42.93998" lon="1.8365">
        <ele>724.49072265625</ele>
        <time>2012-04-08T12:35:51Z</time>
      </trkpt>
      <trkpt lat="42.93993" lon="1.83663">
        <ele>724.01000976562</ele>
        <time>2012-04-08T12:35:58Z</time>
      </trkpt>
      <trkpt lat="42.93988" lon="1.8367">
        <ele>724.49072265625</ele>
        <time>2012-04-08T12:36:02Z</time>
      </trkpt>
      <trkpt lat="42.93984" lon="1.83679">
        <ele>722.56811523438</ele>
        <time>2012-04-08T12:36:07Z</time>
      </trkpt>
      <trkpt lat="42.9398" lon="1.83684">
        <ele>722.56811523438</ele>
        <time>2012-04-08T12:36:10Z</time>
      </trkpt>
      <trkpt lat="42.93973" lon="1.83695">
        <ele>721.60668945312</ele>
        <time>2012-04-08T12:36:17Z</time>
      </trkpt>
      <trkpt lat="42.93968" lon="1.83705">
        <ele>719.20361328125</ele>
        <time>2012-04-08T12:36:22Z</time>
      </trkpt>
      <trkpt lat="42.93961" lon="1.83713">
        <ele>715.35815429688</ele>
        <time>2012-04-08T12:36:28Z</time>
      </trkpt>
      <trkpt lat="42.9396" lon="1.83715">
        <ele>714.39672851562</ele>
        <time>2012-04-08T12:36:29Z</time>
      </trkpt>
      <trkpt lat="42.93958" lon="1.83717">
        <ele>714.39672851562</ele>
        <time>2012-04-08T12:36:31Z</time>
      </trkpt>
      <trkpt lat="42.93958" lon="1.83724">
        <ele>713.916015625</ele>
        <time>2012-04-08T12:36:36Z</time>
      </trkpt>
      <trkpt lat="42.93956" lon="1.83733">
        <ele>713.916015625</ele>
        <time>2012-04-08T12:36:41Z</time>
      </trkpt>
      <trkpt lat="42.93953" lon="1.83742">
        <ele>713.916015625</ele>
        <time>2012-04-08T12:36:45Z</time>
      </trkpt>
      <trkpt lat="42.93951" lon="1.83744">
        <ele>713.435546875</ele>
        <time>2012-04-08T12:36:47Z</time>
      </trkpt>
      <trkpt lat="42.9395" lon="1.83751">
        <ele>713.916015625</ele>
        <time>2012-04-08T12:36:51Z</time>
      </trkpt>
      <trkpt lat="42.93948" lon="1.83753">
        <ele>713.435546875</ele>
        <time>2012-04-08T12:36:57Z</time>
      </trkpt>
      <trkpt lat="42.93945" lon="1.83758">
        <ele>714.87744140625</ele>
        <time>2012-04-08T12:37:03Z</time>
      </trkpt>
      <trkpt lat="42.93945" lon="1.83759">
        <ele>714.87744140625</ele>
        <time>2012-04-08T12:37:04Z</time>
      </trkpt>
      <trkpt lat="42.93937" lon="1.83763">
        <ele>714.87744140625</ele>
        <time>2012-04-08T12:37:09Z</time>
      </trkpt>
      <trkpt lat="42.93933" lon="1.83768">
        <ele>714.39672851562</ele>
        <time>2012-04-08T12:37:13Z</time>
      </trkpt>
      <trkpt lat="42.93931" lon="1.83777">
        <ele>713.916015625</ele>
        <time>2012-04-08T12:37:19Z</time>
      </trkpt>
      <trkpt lat="42.93933" lon="1.83784">
        <ele>713.435546875</ele>
        <time>2012-04-08T12:37:24Z</time>
      </trkpt>
      <trkpt lat="42.93931" lon="1.83791">
        <ele>712.95483398438</ele>
        <time>2012-04-08T12:37:29Z</time>
      </trkpt>
      <trkpt lat="42.93927" lon="1.83797">
        <ele>713.435546875</ele>
        <time>2012-04-08T12:37:33Z</time>
      </trkpt>
      <trkpt lat="42.93924" lon="1.83804">
        <ele>712.95483398438</ele>
        <time>2012-04-08T12:37:37Z</time>
      </trkpt>
      <trkpt lat="42.93924" lon="1.83812">
        <ele>712.95483398438</ele>
        <time>2012-04-08T12:37:43Z</time>
      </trkpt>
      <trkpt lat="42.93924" lon="1.83814">
        <ele>711.99365234375</ele>
        <time>2012-04-08T12:37:45Z</time>
      </trkpt>
      <trkpt lat="42.93922" lon="1.83822">
        <ele>711.99365234375</ele>
        <time>2012-04-08T12:37:52Z</time>
      </trkpt>
      <trkpt lat="42.93921" lon="1.83829">
        <ele>711.51293945312</ele>
        <time>2012-04-08T12:37:57Z</time>
      </trkpt>
      <trkpt lat="42.9392" lon="1.83836">
        <ele>712.47412109375</ele>
        <time>2012-04-08T12:38:20Z</time>
      </trkpt>
      <trkpt lat="42.93919" lon="1.83837">
        <ele>712.47412109375</ele>
        <time>2012-04-08T12:38:27Z</time>
      </trkpt>
      <trkpt lat="42.93917" lon="1.83841">
        <ele>712.47412109375</ele>
        <time>2012-04-08T12:38:32Z</time>
      </trkpt>
      <trkpt lat="42.93917" lon="1.83847">
        <ele>711.51293945312</ele>
        <time>2012-04-08T12:38:38Z</time>
      </trkpt>
      <trkpt lat="42.93915" lon="1.83851">
        <ele>711.99365234375</ele>
        <time>2012-04-08T12:38:43Z</time>
      </trkpt>
      <trkpt lat="42.93911" lon="1.83855">
        <ele>710.55151367188</ele>
        <time>2012-04-08T12:38:49Z</time>
      </trkpt>
      <trkpt lat="42.93911" lon="1.83857">
        <ele>710.07080078125</ele>
        <time>2012-04-08T12:38:55Z</time>
      </trkpt>
      <trkpt lat="42.93909" lon="1.83858">
        <ele>712.95483398438</ele>
        <time>2012-04-08T12:39:26Z</time>
      </trkpt>
      <trkpt lat="42.93906" lon="1.83856">
        <ele>715.8388671875</ele>
        <time>2012-04-08T12:39:57Z</time>
      </trkpt>
      <trkpt lat="42.93905" lon="1.83856">
        <ele>715.8388671875</ele>
        <time>2012-04-08T12:40:17Z</time>
      </trkpt>
      <trkpt lat="42.93908" lon="1.83856">
        <ele>712.47412109375</ele>
        <time>2012-04-08T12:40:32Z</time>
      </trkpt>
      <trkpt lat="42.93906" lon="1.83857">
        <ele>710.55151367188</ele>
        <time>2012-04-08T12:40:40Z</time>
      </trkpt>
      <trkpt lat="42.93903" lon="1.83865">
        <ele>709.10961914062</ele>
        <time>2012-04-08T12:40:46Z</time>
      </trkpt>
      <trkpt lat="42.93901" lon="1.83869">
        <ele>707.18701171875</ele>
        <time>2012-04-08T12:40:50Z</time>
      </trkpt>
      <trkpt lat="42.93898" lon="1.83873">
        <ele>706.2255859375</ele>
        <time>2012-04-08T12:40:55Z</time>
      </trkpt>
      <trkpt lat="42.93896" lon="1.83877">
        <ele>705.7451171875</ele>
        <time>2012-04-08T12:40:58Z</time>
      </trkpt>
      <trkpt lat="42.93891" lon="1.83882">
        <ele>703.82250976562</ele>
        <time>2012-04-08T12:41:04Z</time>
      </trkpt>
      <trkpt lat="42.93889" lon="1.83883">
        <ele>703.341796875</ele>
        <time>2012-04-08T12:41:06Z</time>
      </trkpt>
      <trkpt lat="42.93886" lon="1.83887">
        <ele>703.341796875</ele>
        <time>2012-04-08T12:41:09Z</time>
      </trkpt>
      <trkpt lat="42.93883" lon="1.83895">
        <ele>701.89990234375</ele>
        <time>2012-04-08T12:41:14Z</time>
      </trkpt>
      <trkpt lat="42.93879" lon="1.83901">
        <ele>699.97705078125</ele>
        <time>2012-04-08T12:41:20Z</time>
      </trkpt>
      <trkpt lat="42.93875" lon="1.83906">
        <ele>699.015625</ele>
        <time>2012-04-08T12:41:26Z</time>
      </trkpt>
      <trkpt lat="42.93872" lon="1.83909">
        <ele>698.05444335938</ele>
        <time>2012-04-08T12:41:30Z</time>
      </trkpt>
      <trkpt lat="42.93871" lon="1.83912">
        <ele>697.57373046875</ele>
        <time>2012-04-08T12:41:32Z</time>
      </trkpt>
      <trkpt lat="42.93867" lon="1.83926">
        <ele>697.57373046875</ele>
        <time>2012-04-08T12:41:40Z</time>
      </trkpt>
      <trkpt lat="42.93867" lon="1.83931">
        <ele>697.09301757812</ele>
        <time>2012-04-08T12:41:43Z</time>
      </trkpt>
      <trkpt lat="42.93866" lon="1.83934">
        <ele>697.57373046875</ele>
        <time>2012-04-08T12:41:45Z</time>
      </trkpt>
      <trkpt lat="42.93859" lon="1.83943">
        <ele>699.97705078125</ele>
        <time>2012-04-08T12:41:52Z</time>
      </trkpt>
      <trkpt lat="42.93855" lon="1.83952">
        <ele>699.97705078125</ele>
        <time>2012-04-08T12:41:59Z</time>
      </trkpt>
      <trkpt lat="42.93852" lon="1.83959">
        <ele>697.09301757812</ele>
        <time>2012-04-08T12:42:05Z</time>
      </trkpt>
      <trkpt lat="42.93849" lon="1.83963">
        <ele>696.1318359375</ele>
        <time>2012-04-08T12:42:09Z</time>
      </trkpt>
      <trkpt lat="42.93845" lon="1.83968">
        <ele>694.68969726562</ele>
        <time>2012-04-08T12:42:15Z</time>
      </trkpt>
      <trkpt lat="42.93842" lon="1.83971">
        <ele>692.76733398438</ele>
        <time>2012-04-08T12:42:20Z</time>
      </trkpt>
      <trkpt lat="42.93839" lon="1.83974">
        <ele>691.3251953125</ele>
        <time>2012-04-08T12:42:25Z</time>
      </trkpt>
      <trkpt lat="42.93838" lon="1.83981">
        <ele>690.84448242188</ele>
        <time>2012-04-08T12:42:30Z</time>
      </trkpt>
      <trkpt lat="42.93838" lon="1.83985">
        <ele>690.36401367188</ele>
        <time>2012-04-08T12:42:33Z</time>
      </trkpt>
      <trkpt lat="42.93835" lon="1.83993">
        <ele>688.92211914062</ele>
        <time>2012-04-08T12:42:39Z</time>
      </trkpt>
      <trkpt lat="42.93834" lon="1.83995">
        <ele>688.44140625</ele>
        <time>2012-04-08T12:42:40Z</time>
      </trkpt>
      <trkpt lat="42.93833" lon="1.84001">
        <ele>686.51879882812</ele>
        <time>2012-04-08T12:42:45Z</time>
      </trkpt>
      <trkpt lat="42.93832" lon="1.84005">
        <ele>685.55737304688</ele>
        <time>2012-04-08T12:42:48Z</time>
      </trkpt>
      <trkpt lat="42.93827" lon="1.84015">
        <ele>685.07690429688</ele>
        <time>2012-04-08T12:42:54Z</time>
      </trkpt>
      <trkpt lat="42.93824" lon="1.84023">
        <ele>684.59619140625</ele>
        <time>2012-04-08T12:42:58Z</time>
      </trkpt>
      <trkpt lat="42.93823" lon="1.84025">
        <ele>684.59619140625</ele>
        <time>2012-04-08T12:42:59Z</time>
      </trkpt>
      <trkpt lat="42.93822" lon="1.84028">
        <ele>684.11547851562</ele>
        <time>2012-04-08T12:43:01Z</time>
      </trkpt>
      <trkpt lat="42.9382" lon="1.84034">
        <ele>685.07690429688</ele>
        <time>2012-04-08T12:43:05Z</time>
      </trkpt>
      <trkpt lat="42.93819" lon="1.84037">
        <ele>684.59619140625</ele>
        <time>2012-04-08T12:43:07Z</time>
      </trkpt>
      <trkpt lat="42.93819" lon="1.84046">
        <ele>684.11547851562</ele>
        <time>2012-04-08T12:43:12Z</time>
      </trkpt>
      <trkpt lat="42.93816" lon="1.84055">
        <ele>683.63452148438</ele>
        <time>2012-04-08T12:43:17Z</time>
      </trkpt>
      <trkpt lat="42.93815" lon="1.84059">
        <ele>683.15380859375</ele>
        <time>2012-04-08T12:43:19Z</time>
      </trkpt>
      <trkpt lat="42.93813" lon="1.84069">
        <ele>682.67333984375</ele>
        <time>2012-04-08T12:43:26Z</time>
      </trkpt>
      <trkpt lat="42.93813" lon="1.84074">
        <ele>682.67333984375</ele>
        <time>2012-04-08T12:43:29Z</time>
      </trkpt>
      <trkpt lat="42.9381" lon="1.84086">
        <ele>682.67333984375</ele>
        <time>2012-04-08T12:43:36Z</time>
      </trkpt>
      <trkpt lat="42.93809" lon="1.84087">
        <ele>682.67333984375</ele>
        <time>2012-04-08T12:43:37Z</time>
      </trkpt>
      <trkpt lat="42.93807" lon="1.84093">
        <ele>682.67333984375</ele>
        <time>2012-04-08T12:43:42Z</time>
      </trkpt>
      <trkpt lat="42.938" lon="1.84101">
        <ele>681.7119140625</ele>
        <time>2012-04-08T12:43:48Z</time>
      </trkpt>
      <trkpt lat="42.93793" lon="1.84107">
        <ele>680.75073242188</ele>
        <time>2012-04-08T12:43:54Z</time>
      </trkpt>
      <trkpt lat="42.93793" lon="1.8411">
        <ele>679.78930664062</ele>
        <time>2012-04-08T12:43:56Z</time>
      </trkpt>
      <trkpt lat="42.93793" lon="1.84113">
        <ele>679.30859375</ele>
        <time>2012-04-08T12:43:58Z</time>
      </trkpt>
      <trkpt lat="42.93792" lon="1.8412">
        <ele>677.38623046875</ele>
        <time>2012-04-08T12:44:03Z</time>
      </trkpt>
      <trkpt lat="42.93789" lon="1.84128">
        <ele>676.4248046875</ele>
        <time>2012-04-08T12:44:08Z</time>
      </trkpt>
      <trkpt lat="42.93788" lon="1.8413">
        <ele>675.94409179688</ele>
        <time>2012-04-08T12:44:10Z</time>
      </trkpt>
      <trkpt lat="42.93786" lon="1.84139">
        <ele>675.94409179688</ele>
        <time>2012-04-08T12:44:15Z</time>
      </trkpt>
      <trkpt lat="42.93782" lon="1.84148">
        <ele>676.4248046875</ele>
        <time>2012-04-08T12:44:20Z</time>
      </trkpt>
      <trkpt lat="42.93784" lon="1.84153">
        <ele>676.4248046875</ele>
        <time>2012-04-08T12:44:24Z</time>
      </trkpt>
      <trkpt lat="42.93786" lon="1.84156">
        <ele>675.94409179688</ele>
        <time>2012-04-08T12:44:26Z</time>
      </trkpt>
      <trkpt lat="42.93788" lon="1.84161">
        <ele>676.4248046875</ele>
        <time>2012-04-08T12:44:31Z</time>
      </trkpt>
      <trkpt lat="42.93789" lon="1.84164">
        <ele>676.90551757812</ele>
        <time>2012-04-08T12:44:34Z</time>
      </trkpt>
      <trkpt lat="42.93788" lon="1.84172">
        <ele>677.38623046875</ele>
        <time>2012-04-08T12:44:40Z</time>
      </trkpt>
      <trkpt lat="42.93787" lon="1.84176">
        <ele>675.94409179688</ele>
        <time>2012-04-08T12:44:45Z</time>
      </trkpt>
      <trkpt lat="42.93786" lon="1.84179">
        <ele>675.46337890625</ele>
        <time>2012-04-08T12:44:47Z</time>
      </trkpt>
      <trkpt lat="42.93784" lon="1.84183">
        <ele>674.50219726562</ele>
        <time>2012-04-08T12:44:52Z</time>
      </trkpt>
      <trkpt lat="42.93785" lon="1.84187">
        <ele>674.021484375</ele>
        <time>2012-04-08T12:44:56Z</time>
      </trkpt>
      <trkpt lat="42.9378" lon="1.84194">
        <ele>673.06030273438</ele>
        <time>2012-04-08T12:45:01Z</time>
      </trkpt>
      <trkpt lat="42.93779" lon="1.84199">
        <ele>672.09887695312</ele>
        <time>2012-04-08T12:45:05Z</time>
      </trkpt>
      <trkpt lat="42.93776" lon="1.84211">
        <ele>671.6181640625</ele>
        <time>2012-04-08T12:45:12Z</time>
      </trkpt>
      <trkpt lat="42.93775" lon="1.84212">
        <ele>671.6181640625</ele>
        <time>2012-04-08T12:45:13Z</time>
      </trkpt>
      <trkpt lat="42.93771" lon="1.84216">
        <ele>671.1376953125</ele>
        <time>2012-04-08T12:45:17Z</time>
      </trkpt>
      <trkpt lat="42.93766" lon="1.84225">
        <ele>669.21508789062</ele>
        <time>2012-04-08T12:45:23Z</time>
      </trkpt>
      <trkpt lat="42.93766" lon="1.84227">
        <ele>669.21508789062</ele>
        <time>2012-04-08T12:45:24Z</time>
      </trkpt>
      <trkpt lat="42.93766" lon="1.84231">
        <ele>668.734375</ele>
        <time>2012-04-08T12:45:26Z</time>
      </trkpt>
      <trkpt lat="42.9376" lon="1.84242">
        <ele>668.734375</ele>
        <time>2012-04-08T12:45:32Z</time>
      </trkpt>
      <trkpt lat="42.9376" lon="1.84244">
        <ele>668.25366210938</ele>
        <time>2012-04-08T12:45:33Z</time>
      </trkpt>
      <trkpt lat="42.93758" lon="1.84249">
        <ele>668.25366210938</ele>
        <time>2012-04-08T12:45:36Z</time>
      </trkpt>
      <trkpt lat="42.93756" lon="1.84261">
        <ele>668.25366210938</ele>
        <time>2012-04-08T12:45:42Z</time>
      </trkpt>
      <trkpt lat="42.93752" lon="1.84268">
        <ele>669.21508789062</ele>
        <time>2012-04-08T12:45:47Z</time>
      </trkpt>
      <trkpt lat="42.93749" lon="1.8428">
        <ele>668.25366210938</ele>
        <time>2012-04-08T12:45:54Z</time>
      </trkpt>
      <trkpt lat="42.93748" lon="1.84281">
        <ele>668.25366210938</ele>
        <time>2012-04-08T12:45:55Z</time>
      </trkpt>
      <trkpt lat="42.93747" lon="1.84284">
        <ele>668.734375</ele>
        <time>2012-04-08T12:45:57Z</time>
      </trkpt>
      <trkpt lat="42.93745" lon="1.8429">
        <ele>666.33081054688</ele>
        <time>2012-04-08T12:46:02Z</time>
      </trkpt>
      <trkpt lat="42.93742" lon="1.84302">
        <ele>667.29223632812</ele>
        <time>2012-04-08T12:46:07Z</time>
      </trkpt>
      <trkpt lat="42.93737" lon="1.84311">
        <ele>668.25366210938</ele>
        <time>2012-04-08T12:46:12Z</time>
      </trkpt>
      <trkpt lat="42.93738" lon="1.84314">
        <ele>669.21508789062</ele>
        <time>2012-04-08T12:46:14Z</time>
      </trkpt>
      <trkpt lat="42.93739" lon="1.84321">
        <ele>668.25366210938</ele>
        <time>2012-04-08T12:46:19Z</time>
      </trkpt>
      <trkpt lat="42.93739" lon="1.84324">
        <ele>666.8115234375</ele>
        <time>2012-04-08T12:46:22Z</time>
      </trkpt>
      <trkpt lat="42.93736" lon="1.84328">
        <ele>662.96630859375</ele>
        <time>2012-04-08T12:46:28Z</time>
      </trkpt>
      <trkpt lat="42.93734" lon="1.84335">
        <ele>660.08227539062</ele>
        <time>2012-04-08T12:46:33Z</time>
      </trkpt>
      <trkpt lat="42.93731" lon="1.84339">
        <ele>658.64038085938</ele>
        <time>2012-04-08T12:46:36Z</time>
      </trkpt>
      <trkpt lat="42.93724" lon="1.84344">
        <ele>657.19848632812</ele>
        <time>2012-04-08T12:46:42Z</time>
      </trkpt>
      <trkpt lat="42.93722" lon="1.84346">
        <ele>656.23706054688</ele>
        <time>2012-04-08T12:46:44Z</time>
      </trkpt>
      <trkpt lat="42.93718" lon="1.84357">
        <ele>653.833984375</ele>
        <time>2012-04-08T12:46:51Z</time>
      </trkpt>
      <trkpt lat="42.93716" lon="1.84364">
        <ele>653.833984375</ele>
        <time>2012-04-08T12:46:56Z</time>
      </trkpt>
      <trkpt lat="42.93716" lon="1.84365">
        <ele>654.79516601562</ele>
        <time>2012-04-08T12:46:57Z</time>
      </trkpt>
      <trkpt lat="42.93716" lon="1.84372">
        <ele>655.27587890625</ele>
        <time>2012-04-08T12:47:02Z</time>
      </trkpt>
      <trkpt lat="42.93716" lon="1.84378">
        <ele>652.39184570312</ele>
        <time>2012-04-08T12:47:07Z</time>
      </trkpt>
      <trkpt lat="42.93716" lon="1.84383">
        <ele>650.94970703125</ele>
        <time>2012-04-08T12:47:10Z</time>
      </trkpt>
      <trkpt lat="42.93716" lon="1.84386">
        <ele>652.87255859375</ele>
        <time>2012-04-08T12:47:12Z</time>
      </trkpt>
      <trkpt lat="42.93715" lon="1.84393">
        <ele>653.35327148438</ele>
        <time>2012-04-08T12:47:16Z</time>
      </trkpt>
      <trkpt lat="42.93712" lon="1.84405">
        <ele>656.7177734375</ele>
        <time>2012-04-08T12:47:22Z</time>
      </trkpt>
      <trkpt lat="42.93712" lon="1.84408">
        <ele>656.7177734375</ele>
        <time>2012-04-08T12:47:24Z</time>
      </trkpt>
      <trkpt lat="42.9371" lon="1.84419">
        <ele>656.23706054688</ele>
        <time>2012-04-08T12:47:31Z</time>
      </trkpt>
      <trkpt lat="42.9371" lon="1.84421">
        <ele>656.23706054688</ele>
        <time>2012-04-08T12:47:32Z</time>
      </trkpt>
      <trkpt lat="42.93707" lon="1.84432">
        <ele>655.75659179688</ele>
        <time>2012-04-08T12:47:38Z</time>
      </trkpt>
      <trkpt lat="42.93707" lon="1.84434">
        <ele>655.75659179688</ele>
        <time>2012-04-08T12:47:39Z</time>
      </trkpt>
      <trkpt lat="42.93703" lon="1.84443">
        <ele>655.75659179688</ele>
        <time>2012-04-08T12:47:44Z</time>
      </trkpt>
      <trkpt lat="42.93699" lon="1.84446">
        <ele>655.27587890625</ele>
        <time>2012-04-08T12:47:49Z</time>
      </trkpt>
      <trkpt lat="42.93695" lon="1.84447">
        <ele>654.31469726562</ele>
        <time>2012-04-08T12:47:53Z</time>
      </trkpt>
      <trkpt lat="42.93688" lon="1.84455">
        <ele>655.27587890625</ele>
        <time>2012-04-08T12:48:00Z</time>
      </trkpt>
      <trkpt lat="42.93685" lon="1.84459">
        <ele>654.79516601562</ele>
        <time>2012-04-08T12:48:03Z</time>
      </trkpt>
      <trkpt lat="42.93681" lon="1.84464">
        <ele>653.833984375</ele>
        <time>2012-04-08T12:48:08Z</time>
      </trkpt>
      <trkpt lat="42.93676" lon="1.84473">
        <ele>654.31469726562</ele>
        <time>2012-04-08T12:48:15Z</time>
      </trkpt>
      <trkpt lat="42.93672" lon="1.8448">
        <ele>652.87255859375</ele>
        <time>2012-04-08T12:48:20Z</time>
      </trkpt>
      <trkpt lat="42.93665" lon="1.84488">
        <ele>650.46923828125</ele>
        <time>2012-04-08T12:48:26Z</time>
      </trkpt>
      <trkpt lat="42.93663" lon="1.84491">
        <ele>649.98852539062</ele>
        <time>2012-04-08T12:48:28Z</time>
      </trkpt>
      <trkpt lat="42.93658" lon="1.84501">
        <ele>649.5078125</ele>
        <time>2012-04-08T12:48:33Z</time>
      </trkpt>
      <trkpt lat="42.93653" lon="1.84509">
        <ele>645.66259765625</ele>
        <time>2012-04-08T12:48:39Z</time>
      </trkpt>
      <trkpt lat="42.9365" lon="1.84511">
        <ele>644.220703125</ele>
        <time>2012-04-08T12:48:42Z</time>
      </trkpt>
      <trkpt lat="42.93645" lon="1.84516">
        <ele>641.8173828125</ele>
        <time>2012-04-08T12:48:47Z</time>
      </trkpt>
      <trkpt lat="42.93644" lon="1.84526">
        <ele>643.25927734375</ele>
        <time>2012-04-08T12:48:52Z</time>
      </trkpt>
      <trkpt lat="42.93642" lon="1.84529">
        <ele>642.77880859375</ele>
        <time>2012-04-08T12:48:54Z</time>
      </trkpt>
      <trkpt lat="42.93639" lon="1.84543">
        <ele>646.6240234375</ele>
        <time>2012-04-08T12:49:01Z</time>
      </trkpt>
      <trkpt lat="42.93638" lon="1.84548">
        <ele>646.6240234375</ele>
        <time>2012-04-08T12:49:04Z</time>
      </trkpt>
      <trkpt lat="42.93635" lon="1.84554">
        <ele>646.6240234375</ele>
        <time>2012-04-08T12:49:07Z</time>
      </trkpt>
      <trkpt lat="42.93631" lon="1.84556">
        <ele>646.6240234375</ele>
        <time>2012-04-08T12:49:12Z</time>
      </trkpt>
      <trkpt lat="42.93629" lon="1.84559">
        <ele>646.6240234375</ele>
        <time>2012-04-08T12:49:19Z</time>
      </trkpt>
      <trkpt lat="42.93624" lon="1.84565">
        <ele>644.701171875</ele>
        <time>2012-04-08T12:49:24Z</time>
      </trkpt>
      <trkpt lat="42.93618" lon="1.84573">
        <ele>642.77880859375</ele>
        <time>2012-04-08T12:49:30Z</time>
      </trkpt>
      <trkpt lat="42.93613" lon="1.84581">
        <ele>639.89477539062</ele>
        <time>2012-04-08T12:49:36Z</time>
      </trkpt>
      <trkpt lat="42.93609" lon="1.84593">
        <ele>639.4140625</ele>
        <time>2012-04-08T12:49:42Z</time>
      </trkpt>
      <trkpt lat="42.93606" lon="1.84597">
        <ele>639.4140625</ele>
        <time>2012-04-08T12:49:44Z</time>
      </trkpt>
      <trkpt lat="42.93604" lon="1.84609">
        <ele>638.45288085938</ele>
        <time>2012-04-08T12:49:50Z</time>
      </trkpt>
      <trkpt lat="42.93601" lon="1.84616">
        <ele>638.45288085938</ele>
        <time>2012-04-08T12:49:54Z</time>
      </trkpt>
      <trkpt lat="42.93594" lon="1.84626">
        <ele>638.45288085938</ele>
        <time>2012-04-08T12:49:59Z</time>
      </trkpt>
      <trkpt lat="42.93591" lon="1.8463">
        <ele>637.49145507812</ele>
        <time>2012-04-08T12:50:02Z</time>
      </trkpt>
      <trkpt lat="42.93588" lon="1.84635">
        <ele>637.97216796875</ele>
        <time>2012-04-08T12:50:04Z</time>
      </trkpt>
      <trkpt lat="42.93585" lon="1.84644">
        <ele>637.0107421875</ele>
        <time>2012-04-08T12:50:09Z</time>
      </trkpt>
      <trkpt lat="42.9358" lon="1.84657">
        <ele>635.08813476562</ele>
        <time>2012-04-08T12:50:16Z</time>
      </trkpt>
      <trkpt lat="42.93576" lon="1.84665">
        <ele>633.64599609375</ele>
        <time>2012-04-08T12:50:21Z</time>
      </trkpt>
      <trkpt lat="42.93569" lon="1.84675">
        <ele>631.72338867188</ele>
        <time>2012-04-08T12:50:28Z</time>
      </trkpt>
      <trkpt lat="42.93563" lon="1.84681">
        <ele>628.35888671875</ele>
        <time>2012-04-08T12:50:35Z</time>
      </trkpt>
      <trkpt lat="42.93558" lon="1.84688">
        <ele>626.43627929688</ele>
        <time>2012-04-08T12:50:39Z</time>
      </trkpt>
      <trkpt lat="42.93557" lon="1.8469">
        <ele>626.43627929688</ele>
        <time>2012-04-08T12:50:40Z</time>
      </trkpt>
      <trkpt lat="42.93554" lon="1.84697">
        <ele>624.99438476562</ele>
        <time>2012-04-08T12:50:45Z</time>
      </trkpt>
      <trkpt lat="42.93554" lon="1.84698">
        <ele>624.513671875</ele>
        <time>2012-04-08T12:50:46Z</time>
      </trkpt>
      <trkpt lat="42.93553" lon="1.84703">
        <ele>623.07177734375</ele>
        <time>2012-04-08T12:50:49Z</time>
      </trkpt>
      <trkpt lat="42.93552" lon="1.84704">
        <ele>622.59106445312</ele>
        <time>2012-04-08T12:50:51Z</time>
      </trkpt>
      <trkpt lat="42.9355" lon="1.84713">
        <ele>619.22631835938</ele>
        <time>2012-04-08T12:50:57Z</time>
      </trkpt>
      <trkpt lat="42.93549" lon="1.84719">
        <ele>618.26489257812</ele>
        <time>2012-04-08T12:51:01Z</time>
      </trkpt>
      <trkpt lat="42.93547" lon="1.84723">
        <ele>618.26489257812</ele>
        <time>2012-04-08T12:51:04Z</time>
      </trkpt>
      <trkpt lat="42.93547" lon="1.84725">
        <ele>618.74560546875</ele>
        <time>2012-04-08T12:51:10Z</time>
      </trkpt>
      <trkpt lat="42.93546" lon="1.84728">
        <ele>619.70703125</ele>
        <time>2012-04-08T12:51:15Z</time>
      </trkpt>
      <trkpt lat="42.93544" lon="1.84733">
        <ele>619.22631835938</ele>
        <time>2012-04-08T12:51:18Z</time>
      </trkpt>
      <trkpt lat="42.93539" lon="1.84735">
        <ele>618.26489257812</ele>
        <time>2012-04-08T12:51:22Z</time>
      </trkpt>
      <trkpt lat="42.93538" lon="1.84734">
        <ele>618.26489257812</ele>
        <time>2012-04-08T12:51:23Z</time>
      </trkpt>
      <trkpt lat="42.93534" lon="1.84737">
        <ele>615.86181640625</ele>
        <time>2012-04-08T12:51:29Z</time>
      </trkpt>
      <trkpt lat="42.93528" lon="1.84741">
        <ele>614.41967773438</ele>
        <time>2012-04-08T12:51:35Z</time>
      </trkpt>
      <trkpt lat="42.93528" lon="1.84745">
        <ele>612.4970703125</ele>
        <time>2012-04-08T12:51:39Z</time>
      </trkpt>
      <trkpt lat="42.9353" lon="1.84752">
        <ele>610.09375</ele>
        <time>2012-04-08T12:51:44Z</time>
      </trkpt>
      <trkpt lat="42.93525" lon="1.84757">
        <ele>605.76806640625</ele>
        <time>2012-04-08T12:51:49Z</time>
      </trkpt>
      <trkpt lat="42.93521" lon="1.84759">
        <ele>602.8837890625</ele>
        <time>2012-04-08T12:51:53Z</time>
      </trkpt>
      <trkpt lat="42.93518" lon="1.84759">
        <ele>600.48071289062</ele>
        <time>2012-04-08T12:51:56Z</time>
      </trkpt>
      <trkpt lat="42.93515" lon="1.84761">
        <ele>596.63549804688</ele>
        <time>2012-04-08T12:52:01Z</time>
      </trkpt>
      <trkpt lat="42.93513" lon="1.84762">
        <ele>594.71264648438</ele>
        <time>2012-04-08T12:52:04Z</time>
      </trkpt>
      <trkpt lat="42.93515" lon="1.84772">
        <ele>590.38696289062</ele>
        <time>2012-04-08T12:52:10Z</time>
      </trkpt>
      <trkpt lat="42.93514" lon="1.84773">
        <ele>589.90625</ele>
        <time>2012-04-08T12:52:11Z</time>
      </trkpt>
      <trkpt lat="42.93512" lon="1.84773">
        <ele>589.42553710938</ele>
        <time>2012-04-08T12:52:13Z</time>
      </trkpt>
      <trkpt lat="42.93509" lon="1.84778">
        <ele>586.54150390625</ele>
        <time>2012-04-08T12:52:17Z</time>
      </trkpt>
      <trkpt lat="42.93505" lon="1.84779">
        <ele>586.54150390625</ele>
        <time>2012-04-08T12:52:23Z</time>
      </trkpt>
      <trkpt lat="42.93505" lon="1.84778">
        <ele>588.94506835938</ele>
        <time>2012-04-08T12:52:31Z</time>
      </trkpt>
      <trkpt lat="42.93499" lon="1.84777">
        <ele>588.94506835938</ele>
        <time>2012-04-08T12:52:38Z</time>
      </trkpt>
      <trkpt lat="42.93494" lon="1.84778">
        <ele>587.9833984375</ele>
        <time>2012-04-08T12:52:43Z</time>
      </trkpt>
      <trkpt lat="42.93491" lon="1.84783">
        <ele>587.02197265625</ele>
        <time>2012-04-08T12:52:49Z</time>
      </trkpt>
      <trkpt lat="42.93492" lon="1.84789">
        <ele>586.06079101562</ele>
        <time>2012-04-08T12:52:53Z</time>
      </trkpt>
      <trkpt lat="42.93492" lon="1.84793">
        <ele>585.580078125</ele>
        <time>2012-04-08T12:52:56Z</time>
      </trkpt>
      <trkpt lat="42.93488" lon="1.84796">
        <ele>584.13818359375</ele>
        <time>2012-04-08T12:53:00Z</time>
      </trkpt>
      <trkpt lat="42.93483" lon="1.84799">
        <ele>581.73486328125</ele>
        <time>2012-04-08T12:53:04Z</time>
      </trkpt>
      <trkpt lat="42.93478" lon="1.84798">
        <ele>580.77368164062</ele>
        <time>2012-04-08T12:53:09Z</time>
      </trkpt>
      <trkpt lat="42.93476" lon="1.84797">
        <ele>579.81225585938</ele>
        <time>2012-04-08T12:53:11Z</time>
      </trkpt>
      <trkpt lat="42.93473" lon="1.84797">
        <ele>578.37036132812</ele>
        <time>2012-04-08T12:53:14Z</time>
      </trkpt>
      <trkpt lat="42.93469" lon="1.84791">
        <ele>577.4091796875</ele>
        <time>2012-04-08T12:53:18Z</time>
      </trkpt>
      <trkpt lat="42.93464" lon="1.84788">
        <ele>575.486328125</ele>
        <time>2012-04-08T12:53:23Z</time>
      </trkpt>
      <trkpt lat="42.93461" lon="1.84788">
        <ele>574.04443359375</ele>
        <time>2012-04-08T12:53:26Z</time>
      </trkpt>
      <trkpt lat="42.93454" lon="1.84799">
        <ele>572.6025390625</ele>
        <time>2012-04-08T12:53:33Z</time>
      </trkpt>
      <trkpt lat="42.93452" lon="1.84801">
        <ele>571.16040039062</ele>
        <time>2012-04-08T12:53:35Z</time>
      </trkpt>
      <trkpt lat="42.9345" lon="1.84805">
        <ele>569.71850585938</ele>
        <time>2012-04-08T12:53:38Z</time>
      </trkpt>
      <trkpt lat="42.93446" lon="1.84812">
        <ele>564.43115234375</ele>
        <time>2012-04-08T12:53:43Z</time>
      </trkpt>
      <trkpt lat="42.93444" lon="1.84818">
        <ele>560.10522460938</ele>
        <time>2012-04-08T12:53:48Z</time>
      </trkpt>
      <trkpt lat="42.93443" lon="1.84826">
        <ele>559.14404296875</ele>
        <time>2012-04-08T12:53:52Z</time>
      </trkpt>
      <trkpt lat="42.93443" lon="1.84827">
        <ele>558.66333007812</ele>
        <time>2012-04-08T12:53:53Z</time>
      </trkpt>
      <trkpt lat="42.93443" lon="1.84832">
        <ele>557.7021484375</ele>
        <time>2012-04-08T12:53:57Z</time>
      </trkpt>
      <trkpt lat="42.93447" lon="1.84839">
        <ele>555.29858398438</ele>
        <time>2012-04-08T12:54:03Z</time>
      </trkpt>
      <trkpt lat="42.93449" lon="1.84842">
        <ele>551.45336914062</ele>
        <time>2012-04-08T12:54:08Z</time>
      </trkpt>
      <trkpt lat="42.93451" lon="1.84846">
        <ele>549.05004882812</ele>
        <time>2012-04-08T12:54:12Z</time>
      </trkpt>
      <trkpt lat="42.93452" lon="1.8485">
        <ele>550.01147460938</ele>
        <time>2012-04-08T12:54:14Z</time>
      </trkpt>
      <trkpt lat="42.93455" lon="1.84856">
        <ele>550.4921875</ele>
        <time>2012-04-08T12:54:20Z</time>
      </trkpt>
      <trkpt lat="42.93456" lon="1.84857">
        <ele>549.53076171875</ele>
        <time>2012-04-08T12:54:21Z</time>
      </trkpt>
      <trkpt lat="42.93457" lon="1.84864">
        <ele>546.64685058594</ele>
        <time>2012-04-08T12:54:25Z</time>
      </trkpt>
      <trkpt lat="42.9346" lon="1.84871">
        <ele>545.20483398438</ele>
        <time>2012-04-08T12:54:31Z</time>
      </trkpt>
      <trkpt lat="42.93462" lon="1.84874">
        <ele>541.35949707031</ele>
        <time>2012-04-08T12:54:37Z</time>
      </trkpt>
      <trkpt lat="42.93465" lon="1.84878">
        <ele>538.47570800781</ele>
        <time>2012-04-08T12:54:41Z</time>
      </trkpt>
      <trkpt lat="42.93467" lon="1.84881">
        <ele>537.03369140625</ele>
        <time>2012-04-08T12:54:43Z</time>
      </trkpt>
      <trkpt lat="42.93473" lon="1.84883">
        <ele>534.63037109375</ele>
        <time>2012-04-08T12:54:47Z</time>
      </trkpt>
      <trkpt lat="42.93475" lon="1.84887">
        <ele>534.63037109375</ele>
        <time>2012-04-08T12:54:53Z</time>
      </trkpt>
      <trkpt lat="42.93471" lon="1.84896">
        <ele>540.87890625</ele>
        <time>2012-04-08T12:55:16Z</time>
      </trkpt>
      <trkpt lat="42.93472" lon="1.84902">
        <ele>543.76281738281</ele>
        <time>2012-04-08T12:55:28Z</time>
      </trkpt>
      <trkpt lat="42.93471" lon="1.84907">
        <ele>542.32092285156</ele>
        <time>2012-04-08T12:56:03Z</time>
      </trkpt>
      <trkpt lat="42.93468" lon="1.84901">
        <ele>541.35949707031</ele>
        <time>2012-04-08T12:56:12Z</time>
      </trkpt>
      <trkpt lat="42.93466" lon="1.84895">
        <ele>542.32092285156</ele>
        <time>2012-04-08T12:56:27Z</time>
      </trkpt>
      <trkpt lat="42.93466" lon="1.84895">
        <ele>543.28210449219</ele>
        <time>2012-04-08T12:56:34Z</time>
      </trkpt>
      <trkpt lat="42.9347" lon="1.84896">
        <ele>541.84020996094</ele>
        <time>2012-04-08T12:56:39Z</time>
      </trkpt>
      <trkpt lat="42.93469" lon="1.84899">
        <ele>539.91760253906</ele>
        <time>2012-04-08T12:56:44Z</time>
      </trkpt>
      <trkpt lat="42.93466" lon="1.84899">
        <ele>537.03369140625</ele>
        <time>2012-04-08T12:56:50Z</time>
      </trkpt>
      <trkpt lat="42.93462" lon="1.84901">
        <ele>535.11096191406</ele>
        <time>2012-04-08T12:56:55Z</time>
      </trkpt>
      <trkpt lat="42.93457" lon="1.84902">
        <ele>532.22705078125</ele>
        <time>2012-04-08T12:57:00Z</time>
      </trkpt>
      <trkpt lat="42.93454" lon="1.84902">
        <ele>530.78515625</ele>
        <time>2012-04-08T12:57:04Z</time>
      </trkpt>
      <trkpt lat="42.9345" lon="1.84902">
        <ele>528.3818359375</ele>
        <time>2012-04-08T12:57:10Z</time>
      </trkpt>
      <trkpt lat="42.93446" lon="1.84903">
        <ele>525.01721191406</ele>
        <time>2012-04-08T12:57:16Z</time>
      </trkpt>
      <trkpt lat="42.9344" lon="1.84906">
        <ele>523.5751953125</ele>
        <time>2012-04-08T12:57:23Z</time>
      </trkpt>
      <trkpt lat="42.93435" lon="1.84908">
        <ele>525.01721191406</ele>
        <time>2012-04-08T12:57:27Z</time>
      </trkpt>
      <trkpt lat="42.93431" lon="1.84914">
        <ele>525.97839355469</ele>
        <time>2012-04-08T12:57:32Z</time>
      </trkpt>
      <trkpt lat="42.93424" lon="1.84913">
        <ele>527.42041015625</ele>
        <time>2012-04-08T12:57:37Z</time>
      </trkpt>
      <trkpt lat="42.93419" lon="1.84913">
        <ele>527.90100097656</ele>
        <time>2012-04-08T12:57:42Z</time>
      </trkpt>
      <trkpt lat="42.93419" lon="1.84912">
        <ele>527.42041015625</ele>
        <time>2012-04-08T12:57:43Z</time>
      </trkpt>
      <trkpt lat="42.93411" lon="1.84908">
        <ele>525.97839355469</ele>
        <time>2012-04-08T12:57:49Z</time>
      </trkpt>
      <trkpt lat="42.93401" lon="1.84899">
        <ele>523.5751953125</ele>
        <time>2012-04-08T12:57:58Z</time>
      </trkpt>
      <trkpt lat="42.93389" lon="1.8489">
        <ele>522.61389160156</ele>
        <time>2012-04-08T12:58:07Z</time>
      </trkpt>
      <trkpt lat="42.93387" lon="1.84888">
        <ele>522.13317871094</ele>
        <time>2012-04-08T12:58:09Z</time>
      </trkpt>
      <trkpt lat="42.93383" lon="1.84888">
        <ele>525.01721191406</ele>
        <time>2012-04-08T12:58:12Z</time>
      </trkpt>
      <trkpt lat="42.9338" lon="1.84892">
        <ele>527.90100097656</ele>
        <time>2012-04-08T12:58:16Z</time>
      </trkpt>
      <trkpt lat="42.93378" lon="1.84898">
        <ele>527.42041015625</ele>
        <time>2012-04-08T12:58:20Z</time>
      </trkpt>
      <trkpt lat="42.9338" lon="1.84901">
        <ele>526.93981933594</ele>
        <time>2012-04-08T12:58:22Z</time>
      </trkpt>
      <trkpt lat="42.93393" lon="1.84914">
        <ele>525.49780273438</ele>
        <time>2012-04-08T12:58:32Z</time>
      </trkpt>
      <trkpt lat="42.93401" lon="1.84922">
        <ele>525.01721191406</ele>
        <time>2012-04-08T12:58:39Z</time>
      </trkpt>
      <trkpt lat="42.93407" lon="1.84929">
        <ele>522.61389160156</ele>
        <time>2012-04-08T12:58:45Z</time>
      </trkpt>
      <trkpt lat="42.93415" lon="1.84936">
        <ele>521.65258789062</ele>
        <time>2012-04-08T12:58:52Z</time>
      </trkpt>
      <trkpt lat="42.9342" lon="1.84939">
        <ele>521.17199707031</ele>
        <time>2012-04-08T12:58:56Z</time>
      </trkpt>
      <trkpt lat="42.93422" lon="1.84942">
        <ele>521.17199707031</ele>
        <time>2012-04-08T12:58:58Z</time>
      </trkpt>
      <trkpt lat="42.9343" lon="1.84948">
        <ele>521.17199707031</ele>
        <time>2012-04-08T12:59:05Z</time>
      </trkpt>
      <trkpt lat="42.93438" lon="1.84953">
        <ele>521.65258789062</ele>
        <time>2012-04-08T12:59:12Z</time>
      </trkpt>
      <trkpt lat="42.93439" lon="1.84953">
        <ele>521.65258789062</ele>
        <time>2012-04-08T12:59:13Z</time>
      </trkpt>
    </trkseg>
  </trk>
</gpx>